<?xml version="1.0" encoding="UTF-8" standalone="no" ?>
<gpx xmlns="http://www.topografix.com/GPX/1/1" xmlns:xsi="http://www.w3.org/2001/XMLSchema-instance" xsi:schemaLocation="http://www.topografix.com/GPX/1/1 http://www.topografix.com/GPX/1/1/gpx.xsd" version="1.1" creator="VisuGPX - https://www.visugpx.com">
  <metadata>
    <name>entrainement de nuit sur ste catherine</name>
    <desc><![CDATA[en vue de la sainté express, avec du bon dénivelé, des chemins tortueux]]></desc>
  </metadata>
  <trk>
    <name><![CDATA[entrainement de nuit]]></name>
    <cmt><![CDATA[franck,denis,mikael,jacques,vincent]]></cmt>
    <trkseg>
      <trkpt lat="45.55065" lon="4.59951">
        <ele>419</ele>
        <time>2013-10-23T15:16:28Z</time>
      </trkpt>
      <trkpt lat="45.55089" lon="4.59974">
        <ele>419</ele>
        <time>2013-10-23T15:16:49Z</time>
      </trkpt>
      <trkpt lat="45.55096" lon="4.5998">
        <ele>419</ele>
        <time>2013-10-23T15:16:52Z</time>
      </trkpt>
      <trkpt lat="45.55102" lon="4.59986">
        <ele>419</ele>
        <time>2013-10-23T15:16:56Z</time>
      </trkpt>
      <trkpt lat="45.55109" lon="4.59994">
        <ele>418</ele>
        <time>2013-10-23T15:17:00Z</time>
      </trkpt>
      <trkpt lat="45.55114" lon="4.59999">
        <ele>417</ele>
        <time>2013-10-23T15:17:03Z</time>
      </trkpt>
      <trkpt lat="45.5512" lon="4.60004">
        <ele>417</ele>
        <time>2013-10-23T15:17:06Z</time>
      </trkpt>
      <trkpt lat="45.55126" lon="4.60009">
        <ele>417</ele>
        <time>2013-10-23T15:17:09Z</time>
      </trkpt>
      <trkpt lat="45.55132" lon="4.60014">
        <ele>416</ele>
        <time>2013-10-23T15:17:12Z</time>
      </trkpt>
      <trkpt lat="45.55139" lon="4.6002">
        <ele>416</ele>
        <time>2013-10-23T15:17:15Z</time>
      </trkpt>
      <trkpt lat="45.55145" lon="4.60024">
        <ele>415</ele>
        <time>2013-10-23T15:17:19Z</time>
      </trkpt>
      <trkpt lat="45.55152" lon="4.6003">
        <ele>415</ele>
        <time>2013-10-23T15:17:23Z</time>
      </trkpt>
      <trkpt lat="45.55157" lon="4.60036">
        <ele>415</ele>
        <time>2013-10-23T15:17:26Z</time>
      </trkpt>
      <trkpt lat="45.55161" lon="4.60043">
        <ele>415</ele>
        <time>2013-10-23T15:17:29Z</time>
      </trkpt>
      <trkpt lat="45.55164" lon="4.60051">
        <ele>414</ele>
        <time>2013-10-23T15:17:32Z</time>
      </trkpt>
      <trkpt lat="45.55169" lon="4.60059">
        <ele>413</ele>
        <time>2013-10-23T15:17:36Z</time>
      </trkpt>
      <trkpt lat="45.55177" lon="4.60061">
        <ele>412</ele>
        <time>2013-10-23T15:17:40Z</time>
      </trkpt>
      <trkpt lat="45.55183" lon="4.60062">
        <ele>411</ele>
        <time>2013-10-23T15:17:43Z</time>
      </trkpt>
      <trkpt lat="45.5519" lon="4.60062">
        <ele>410</ele>
        <time>2013-10-23T15:17:46Z</time>
      </trkpt>
      <trkpt lat="45.55197" lon="4.60061">
        <ele>409</ele>
        <time>2013-10-23T15:17:49Z</time>
      </trkpt>
      <trkpt lat="45.55205" lon="4.60053">
        <ele>409</ele>
        <time>2013-10-23T15:17:53Z</time>
      </trkpt>
      <trkpt lat="45.55213" lon="4.60045">
        <ele>409</ele>
        <time>2013-10-23T15:17:56Z</time>
      </trkpt>
      <trkpt lat="45.55219" lon="4.60041">
        <ele>408</ele>
        <time>2013-10-23T15:18:00Z</time>
      </trkpt>
      <trkpt lat="45.55224" lon="4.60036">
        <ele>407</ele>
        <time>2013-10-23T15:18:03Z</time>
      </trkpt>
      <trkpt lat="45.5523" lon="4.60031">
        <ele>407</ele>
        <time>2013-10-23T15:18:06Z</time>
      </trkpt>
      <trkpt lat="45.55234" lon="4.60024">
        <ele>407</ele>
        <time>2013-10-23T15:18:09Z</time>
      </trkpt>
      <trkpt lat="45.55239" lon="4.60018">
        <ele>406</ele>
        <time>2013-10-23T15:18:12Z</time>
      </trkpt>
      <trkpt lat="45.55245" lon="4.60011">
        <ele>405</ele>
        <time>2013-10-23T15:18:15Z</time>
      </trkpt>
      <trkpt lat="45.55249" lon="4.60007">
        <ele>404</ele>
        <time>2013-10-23T15:18:18Z</time>
      </trkpt>
      <trkpt lat="45.55256" lon="4.6">
        <ele>402</ele>
        <time>2013-10-23T15:18:22Z</time>
      </trkpt>
      <trkpt lat="45.55262" lon="4.59996">
        <ele>400</ele>
        <time>2013-10-23T15:18:25Z</time>
      </trkpt>
      <trkpt lat="45.55268" lon="4.59995">
        <ele>399</ele>
        <time>2013-10-23T15:18:28Z</time>
      </trkpt>
      <trkpt lat="45.55273" lon="4.59999">
        <ele>399</ele>
        <time>2013-10-23T15:18:31Z</time>
      </trkpt>
      <trkpt lat="45.55279" lon="4.60003">
        <ele>399</ele>
        <time>2013-10-23T15:18:35Z</time>
      </trkpt>
      <trkpt lat="45.55284" lon="4.60007">
        <ele>399</ele>
        <time>2013-10-23T15:18:38Z</time>
      </trkpt>
      <trkpt lat="45.55291" lon="4.60011">
        <ele>399</ele>
        <time>2013-10-23T15:18:42Z</time>
      </trkpt>
      <trkpt lat="45.55296" lon="4.60016">
        <ele>399</ele>
        <time>2013-10-23T15:18:45Z</time>
      </trkpt>
      <trkpt lat="45.553" lon="4.6002">
        <ele>400</ele>
        <time>2013-10-23T15:18:49Z</time>
      </trkpt>
      <trkpt lat="45.55305" lon="4.60027">
        <ele>402</ele>
        <time>2013-10-23T15:18:53Z</time>
      </trkpt>
      <trkpt lat="45.55309" lon="4.60032">
        <ele>402</ele>
        <time>2013-10-23T15:18:57Z</time>
      </trkpt>
      <trkpt lat="45.55312" lon="4.60038">
        <ele>402</ele>
        <time>2013-10-23T15:19:01Z</time>
      </trkpt>
      <trkpt lat="45.55315" lon="4.60043">
        <ele>402</ele>
        <time>2013-10-23T15:19:04Z</time>
      </trkpt>
      <trkpt lat="45.55322" lon="4.6005">
        <ele>404</ele>
        <time>2013-10-23T15:19:09Z</time>
      </trkpt>
      <trkpt lat="45.55324" lon="4.60056">
        <ele>404</ele>
        <time>2013-10-23T15:19:12Z</time>
      </trkpt>
      <trkpt lat="45.55327" lon="4.60062">
        <ele>404</ele>
        <time>2013-10-23T15:19:17Z</time>
      </trkpt>
      <trkpt lat="45.5533" lon="4.60067">
        <ele>405</ele>
        <time>2013-10-23T15:19:21Z</time>
      </trkpt>
      <trkpt lat="45.55332" lon="4.60072">
        <ele>405</ele>
        <time>2013-10-23T15:19:24Z</time>
      </trkpt>
      <trkpt lat="45.55336" lon="4.60077">
        <ele>405</ele>
        <time>2013-10-23T15:19:27Z</time>
      </trkpt>
      <trkpt lat="45.55338" lon="4.60081">
        <ele>406</ele>
        <time>2013-10-23T15:19:31Z</time>
      </trkpt>
      <trkpt lat="45.55342" lon="4.60087">
        <ele>407</ele>
        <time>2013-10-23T15:19:35Z</time>
      </trkpt>
      <trkpt lat="45.55346" lon="4.60093">
        <ele>407</ele>
        <time>2013-10-23T15:19:39Z</time>
      </trkpt>
      <trkpt lat="45.55349" lon="4.60099">
        <ele>408</ele>
        <time>2013-10-23T15:19:43Z</time>
      </trkpt>
      <trkpt lat="45.55352" lon="4.60104">
        <ele>409</ele>
        <time>2013-10-23T15:19:46Z</time>
      </trkpt>
      <trkpt lat="45.55355" lon="4.60108">
        <ele>410</ele>
        <time>2013-10-23T15:19:49Z</time>
      </trkpt>
      <trkpt lat="45.55357" lon="4.60112">
        <ele>410</ele>
        <time>2013-10-23T15:19:52Z</time>
      </trkpt>
      <trkpt lat="45.55359" lon="4.60117">
        <ele>411</ele>
        <time>2013-10-23T15:19:55Z</time>
      </trkpt>
      <trkpt lat="45.55362" lon="4.60122">
        <ele>412</ele>
        <time>2013-10-23T15:19:58Z</time>
      </trkpt>
      <trkpt lat="45.55365" lon="4.60128">
        <ele>413</ele>
        <time>2013-10-23T15:20:02Z</time>
      </trkpt>
      <trkpt lat="45.55367" lon="4.60134">
        <ele>414</ele>
        <time>2013-10-23T15:20:05Z</time>
      </trkpt>
      <trkpt lat="45.55369" lon="4.6014">
        <ele>414</ele>
        <time>2013-10-23T15:20:08Z</time>
      </trkpt>
      <trkpt lat="45.55371" lon="4.60145">
        <ele>415</ele>
        <time>2013-10-23T15:20:12Z</time>
      </trkpt>
      <trkpt lat="45.55373" lon="4.6015">
        <ele>415</ele>
        <time>2013-10-23T15:20:15Z</time>
      </trkpt>
      <trkpt lat="45.55375" lon="4.60155">
        <ele>416</ele>
        <time>2013-10-23T15:20:18Z</time>
      </trkpt>
      <trkpt lat="45.55377" lon="4.6016">
        <ele>416</ele>
        <time>2013-10-23T15:20:21Z</time>
      </trkpt>
      <trkpt lat="45.5538" lon="4.60166">
        <ele>416</ele>
        <time>2013-10-23T15:20:25Z</time>
      </trkpt>
      <trkpt lat="45.55384" lon="4.60172">
        <ele>417</ele>
        <time>2013-10-23T15:20:29Z</time>
      </trkpt>
      <trkpt lat="45.55386" lon="4.60178">
        <ele>417</ele>
        <time>2013-10-23T15:20:32Z</time>
      </trkpt>
      <trkpt lat="45.55389" lon="4.60183">
        <ele>418</ele>
        <time>2013-10-23T15:20:35Z</time>
      </trkpt>
      <trkpt lat="45.55391" lon="4.60188">
        <ele>418</ele>
        <time>2013-10-23T15:20:39Z</time>
      </trkpt>
      <trkpt lat="45.55394" lon="4.60195">
        <ele>419</ele>
        <time>2013-10-23T15:20:42Z</time>
      </trkpt>
      <trkpt lat="45.55396" lon="4.60199">
        <ele>419</ele>
        <time>2013-10-23T15:20:45Z</time>
      </trkpt>
      <trkpt lat="45.55399" lon="4.60203">
        <ele>419</ele>
        <time>2013-10-23T15:20:49Z</time>
      </trkpt>
      <trkpt lat="45.55403" lon="4.60208">
        <ele>420</ele>
        <time>2013-10-23T15:20:52Z</time>
      </trkpt>
      <trkpt lat="45.55407" lon="4.60212">
        <ele>420</ele>
        <time>2013-10-23T15:20:56Z</time>
      </trkpt>
      <trkpt lat="45.5541" lon="4.60215">
        <ele>420</ele>
        <time>2013-10-23T15:21:00Z</time>
      </trkpt>
      <trkpt lat="45.55414" lon="4.60216">
        <ele>421</ele>
        <time>2013-10-23T15:21:04Z</time>
      </trkpt>
      <trkpt lat="45.55418" lon="4.60216">
        <ele>422</ele>
        <time>2013-10-23T15:21:08Z</time>
      </trkpt>
      <trkpt lat="45.55421" lon="4.60217">
        <ele>423</ele>
        <time>2013-10-23T15:21:11Z</time>
      </trkpt>
      <trkpt lat="45.55421" lon="4.60224">
        <ele>423</ele>
        <time>2013-10-23T15:21:15Z</time>
      </trkpt>
      <trkpt lat="45.55421" lon="4.60234">
        <ele>424</ele>
        <time>2013-10-23T15:21:18Z</time>
      </trkpt>
      <trkpt lat="45.55422" lon="4.60244">
        <ele>424</ele>
        <time>2013-10-23T15:21:21Z</time>
      </trkpt>
      <trkpt lat="45.55424" lon="4.60259">
        <ele>424</ele>
        <time>2013-10-23T15:21:25Z</time>
      </trkpt>
      <trkpt lat="45.55427" lon="4.60274">
        <ele>424</ele>
        <time>2013-10-23T15:21:29Z</time>
      </trkpt>
      <trkpt lat="45.5543" lon="4.60288">
        <ele>424</ele>
        <time>2013-10-23T15:21:33Z</time>
      </trkpt>
      <trkpt lat="45.55435" lon="4.60301">
        <ele>424</ele>
        <time>2013-10-23T15:21:37Z</time>
      </trkpt>
      <trkpt lat="45.5544" lon="4.60314">
        <ele>424</ele>
        <time>2013-10-23T15:21:41Z</time>
      </trkpt>
      <trkpt lat="45.55444" lon="4.60323">
        <ele>424</ele>
        <time>2013-10-23T15:21:44Z</time>
      </trkpt>
      <trkpt lat="45.5545" lon="4.60334">
        <ele>424</ele>
        <time>2013-10-23T15:21:47Z</time>
      </trkpt>
      <trkpt lat="45.55456" lon="4.60343">
        <ele>424</ele>
        <time>2013-10-23T15:21:50Z</time>
      </trkpt>
      <trkpt lat="45.55462" lon="4.60351">
        <ele>424</ele>
        <time>2013-10-23T15:21:53Z</time>
      </trkpt>
      <trkpt lat="45.55467" lon="4.60359">
        <ele>424</ele>
        <time>2013-10-23T15:21:57Z</time>
      </trkpt>
      <trkpt lat="45.55473" lon="4.60364">
        <ele>424</ele>
        <time>2013-10-23T15:22:00Z</time>
      </trkpt>
      <trkpt lat="45.5548" lon="4.60373">
        <ele>425</ele>
        <time>2013-10-23T15:22:04Z</time>
      </trkpt>
      <trkpt lat="45.55489" lon="4.60381">
        <ele>425</ele>
        <time>2013-10-23T15:22:08Z</time>
      </trkpt>
      <trkpt lat="45.55497" lon="4.60386">
        <ele>425</ele>
        <time>2013-10-23T15:22:11Z</time>
      </trkpt>
      <trkpt lat="45.55507" lon="4.60392">
        <ele>425</ele>
        <time>2013-10-23T15:22:14Z</time>
      </trkpt>
      <trkpt lat="45.55515" lon="4.60396">
        <ele>425</ele>
        <time>2013-10-23T15:22:18Z</time>
      </trkpt>
      <trkpt lat="45.55524" lon="4.60402">
        <ele>425</ele>
        <time>2013-10-23T15:22:22Z</time>
      </trkpt>
      <trkpt lat="45.55532" lon="4.60405">
        <ele>425</ele>
        <time>2013-10-23T15:22:25Z</time>
      </trkpt>
      <trkpt lat="45.55539" lon="4.6041">
        <ele>425</ele>
        <time>2013-10-23T15:22:28Z</time>
      </trkpt>
      <trkpt lat="45.55549" lon="4.60416">
        <ele>425</ele>
        <time>2013-10-23T15:22:32Z</time>
      </trkpt>
      <trkpt lat="45.55559" lon="4.60421">
        <ele>425</ele>
        <time>2013-10-23T15:22:36Z</time>
      </trkpt>
      <trkpt lat="45.55569" lon="4.60427">
        <ele>425</ele>
        <time>2013-10-23T15:22:40Z</time>
      </trkpt>
      <trkpt lat="45.55579" lon="4.60432">
        <ele>425</ele>
        <time>2013-10-23T15:22:44Z</time>
      </trkpt>
      <trkpt lat="45.55589" lon="4.60437">
        <ele>425</ele>
        <time>2013-10-23T15:22:47Z</time>
      </trkpt>
      <trkpt lat="45.55597" lon="4.60441">
        <ele>425</ele>
        <time>2013-10-23T15:22:51Z</time>
      </trkpt>
      <trkpt lat="45.55607" lon="4.60447">
        <ele>425</ele>
        <time>2013-10-23T15:22:54Z</time>
      </trkpt>
      <trkpt lat="45.55614" lon="4.60451">
        <ele>425</ele>
        <time>2013-10-23T15:22:57Z</time>
      </trkpt>
      <trkpt lat="45.55621" lon="4.60455">
        <ele>425</ele>
        <time>2013-10-23T15:23:01Z</time>
      </trkpt>
      <trkpt lat="45.55631" lon="4.6046">
        <ele>425</ele>
        <time>2013-10-23T15:23:04Z</time>
      </trkpt>
      <trkpt lat="45.55637" lon="4.60464">
        <ele>425</ele>
        <time>2013-10-23T15:23:08Z</time>
      </trkpt>
      <trkpt lat="45.55647" lon="4.60468">
        <ele>425</ele>
        <time>2013-10-23T15:23:12Z</time>
      </trkpt>
      <trkpt lat="45.55656" lon="4.60474">
        <ele>425</ele>
        <time>2013-10-23T15:23:16Z</time>
      </trkpt>
      <trkpt lat="45.55665" lon="4.60479">
        <ele>425</ele>
        <time>2013-10-23T15:23:20Z</time>
      </trkpt>
      <trkpt lat="45.55672" lon="4.60483">
        <ele>425</ele>
        <time>2013-10-23T15:23:23Z</time>
      </trkpt>
      <trkpt lat="45.55682" lon="4.60487">
        <ele>425</ele>
        <time>2013-10-23T15:23:27Z</time>
      </trkpt>
      <trkpt lat="45.55689" lon="4.6049">
        <ele>425</ele>
        <time>2013-10-23T15:23:30Z</time>
      </trkpt>
      <trkpt lat="45.55697" lon="4.60493">
        <ele>425</ele>
        <time>2013-10-23T15:23:33Z</time>
      </trkpt>
      <trkpt lat="45.55704" lon="4.60495">
        <ele>425</ele>
        <time>2013-10-23T15:23:36Z</time>
      </trkpt>
      <trkpt lat="45.55712" lon="4.60497">
        <ele>425</ele>
        <time>2013-10-23T15:23:39Z</time>
      </trkpt>
      <trkpt lat="45.5572" lon="4.60499">
        <ele>425</ele>
        <time>2013-10-23T15:23:42Z</time>
      </trkpt>
      <trkpt lat="45.55728" lon="4.60502">
        <ele>425</ele>
        <time>2013-10-23T15:23:45Z</time>
      </trkpt>
      <trkpt lat="45.55737" lon="4.60506">
        <ele>425</ele>
        <time>2013-10-23T15:23:49Z</time>
      </trkpt>
      <trkpt lat="45.55744" lon="4.60506">
        <ele>425</ele>
        <time>2013-10-23T15:23:52Z</time>
      </trkpt>
      <trkpt lat="45.55751" lon="4.60503">
        <ele>425</ele>
        <time>2013-10-23T15:23:55Z</time>
      </trkpt>
      <trkpt lat="45.55759" lon="4.605">
        <ele>425</ele>
        <time>2013-10-23T15:23:58Z</time>
      </trkpt>
      <trkpt lat="45.55768" lon="4.60496">
        <ele>425</ele>
        <time>2013-10-23T15:24:02Z</time>
      </trkpt>
      <trkpt lat="45.55775" lon="4.60492">
        <ele>425</ele>
        <time>2013-10-23T15:24:05Z</time>
      </trkpt>
      <trkpt lat="45.5578" lon="4.60488">
        <ele>425</ele>
        <time>2013-10-23T15:24:08Z</time>
      </trkpt>
      <trkpt lat="45.55788" lon="4.60482">
        <ele>425</ele>
        <time>2013-10-23T15:24:11Z</time>
      </trkpt>
      <trkpt lat="45.55795" lon="4.6048">
        <ele>425</ele>
        <time>2013-10-23T15:24:14Z</time>
      </trkpt>
      <trkpt lat="45.558" lon="4.60477">
        <ele>425</ele>
        <time>2013-10-23T15:24:18Z</time>
      </trkpt>
      <trkpt lat="45.55809" lon="4.60475">
        <ele>425</ele>
        <time>2013-10-23T15:24:22Z</time>
      </trkpt>
      <trkpt lat="45.55817" lon="4.60476">
        <ele>425</ele>
        <time>2013-10-23T15:24:26Z</time>
      </trkpt>
      <trkpt lat="45.55824" lon="4.60477">
        <ele>425</ele>
        <time>2013-10-23T15:24:29Z</time>
      </trkpt>
      <trkpt lat="45.5583" lon="4.60478">
        <ele>425</ele>
        <time>2013-10-23T15:24:32Z</time>
      </trkpt>
      <trkpt lat="45.55836" lon="4.6048">
        <ele>425</ele>
        <time>2013-10-23T15:24:35Z</time>
      </trkpt>
      <trkpt lat="45.55845" lon="4.60483">
        <ele>426</ele>
        <time>2013-10-23T15:24:38Z</time>
      </trkpt>
      <trkpt lat="45.55851" lon="4.60484">
        <ele>426</ele>
        <time>2013-10-23T15:24:42Z</time>
      </trkpt>
      <trkpt lat="45.55857" lon="4.60486">
        <ele>426</ele>
        <time>2013-10-23T15:24:45Z</time>
      </trkpt>
      <trkpt lat="45.55866" lon="4.60487">
        <ele>426</ele>
        <time>2013-10-23T15:24:49Z</time>
      </trkpt>
      <trkpt lat="45.55874" lon="4.60489">
        <ele>426</ele>
        <time>2013-10-23T15:24:53Z</time>
      </trkpt>
      <trkpt lat="45.55883" lon="4.60491">
        <ele>426</ele>
        <time>2013-10-23T15:24:57Z</time>
      </trkpt>
      <trkpt lat="45.55892" lon="4.60491">
        <ele>427</ele>
        <time>2013-10-23T15:25:00Z</time>
      </trkpt>
      <trkpt lat="45.55899" lon="4.60492">
        <ele>427</ele>
        <time>2013-10-23T15:25:03Z</time>
      </trkpt>
      <trkpt lat="45.55906" lon="4.60492">
        <ele>427</ele>
        <time>2013-10-23T15:25:07Z</time>
      </trkpt>
      <trkpt lat="45.55912" lon="4.60493">
        <ele>427</ele>
        <time>2013-10-23T15:25:10Z</time>
      </trkpt>
      <trkpt lat="45.5592" lon="4.60495">
        <ele>427</ele>
        <time>2013-10-23T15:25:14Z</time>
      </trkpt>
      <trkpt lat="45.5593" lon="4.60502">
        <ele>427</ele>
        <time>2013-10-23T15:25:17Z</time>
      </trkpt>
      <trkpt lat="45.55936" lon="4.60506">
        <ele>427</ele>
        <time>2013-10-23T15:25:21Z</time>
      </trkpt>
      <trkpt lat="45.55944" lon="4.60513">
        <ele>427</ele>
        <time>2013-10-23T15:25:25Z</time>
      </trkpt>
      <trkpt lat="45.55951" lon="4.6052">
        <ele>427</ele>
        <time>2013-10-23T15:25:28Z</time>
      </trkpt>
      <trkpt lat="45.55957" lon="4.60525">
        <ele>427</ele>
        <time>2013-10-23T15:25:32Z</time>
      </trkpt>
      <trkpt lat="45.55965" lon="4.60531">
        <ele>427</ele>
        <time>2013-10-23T15:25:35Z</time>
      </trkpt>
      <trkpt lat="45.55971" lon="4.60536">
        <ele>428</ele>
        <time>2013-10-23T15:25:38Z</time>
      </trkpt>
      <trkpt lat="45.55978" lon="4.60541">
        <ele>428</ele>
        <time>2013-10-23T15:25:41Z</time>
      </trkpt>
      <trkpt lat="45.55984" lon="4.60544">
        <ele>429</ele>
        <time>2013-10-23T15:25:45Z</time>
      </trkpt>
      <trkpt lat="45.55991" lon="4.60545">
        <ele>430</ele>
        <time>2013-10-23T15:25:48Z</time>
      </trkpt>
      <trkpt lat="45.56001" lon="4.60543">
        <ele>432</ele>
        <time>2013-10-23T15:25:52Z</time>
      </trkpt>
      <trkpt lat="45.56009" lon="4.60543">
        <ele>433</ele>
        <time>2013-10-23T15:25:56Z</time>
      </trkpt>
      <trkpt lat="45.56018" lon="4.60544">
        <ele>433</ele>
        <time>2013-10-23T15:26:00Z</time>
      </trkpt>
      <trkpt lat="45.56025" lon="4.60543">
        <ele>433</ele>
        <time>2013-10-23T15:26:03Z</time>
      </trkpt>
      <trkpt lat="45.56032" lon="4.60544">
        <ele>433</ele>
        <time>2013-10-23T15:26:06Z</time>
      </trkpt>
      <trkpt lat="45.56041" lon="4.60544">
        <ele>434</ele>
        <time>2013-10-23T15:26:10Z</time>
      </trkpt>
      <trkpt lat="45.5605" lon="4.60543">
        <ele>435</ele>
        <time>2013-10-23T15:26:13Z</time>
      </trkpt>
      <trkpt lat="45.56056" lon="4.60541">
        <ele>435</ele>
        <time>2013-10-23T15:26:16Z</time>
      </trkpt>
      <trkpt lat="45.56062" lon="4.60538">
        <ele>435</ele>
        <time>2013-10-23T15:26:20Z</time>
      </trkpt>
      <trkpt lat="45.5607" lon="4.60534">
        <ele>435</ele>
        <time>2013-10-23T15:26:23Z</time>
      </trkpt>
      <trkpt lat="45.56076" lon="4.60532">
        <ele>435</ele>
        <time>2013-10-23T15:26:26Z</time>
      </trkpt>
      <trkpt lat="45.56084" lon="4.60531">
        <ele>435</ele>
        <time>2013-10-23T15:26:29Z</time>
      </trkpt>
      <trkpt lat="45.56089" lon="4.60533">
        <ele>435</ele>
        <time>2013-10-23T15:26:33Z</time>
      </trkpt>
      <trkpt lat="45.56096" lon="4.60535">
        <ele>435</ele>
        <time>2013-10-23T15:26:36Z</time>
      </trkpt>
      <trkpt lat="45.56104" lon="4.60543">
        <ele>435</ele>
        <time>2013-10-23T15:26:40Z</time>
      </trkpt>
      <trkpt lat="45.5611" lon="4.60553">
        <ele>435</ele>
        <time>2013-10-23T15:26:44Z</time>
      </trkpt>
      <trkpt lat="45.56116" lon="4.60563">
        <ele>435</ele>
        <time>2013-10-23T15:26:47Z</time>
      </trkpt>
      <trkpt lat="45.56121" lon="4.60571">
        <ele>435</ele>
        <time>2013-10-23T15:26:50Z</time>
      </trkpt>
      <trkpt lat="45.56124" lon="4.60581">
        <ele>435</ele>
        <time>2013-10-23T15:26:53Z</time>
      </trkpt>
      <trkpt lat="45.56128" lon="4.6059">
        <ele>435</ele>
        <time>2013-10-23T15:26:56Z</time>
      </trkpt>
      <trkpt lat="45.56133" lon="4.60596">
        <ele>435</ele>
        <time>2013-10-23T15:27:00Z</time>
      </trkpt>
      <trkpt lat="45.56139" lon="4.60606">
        <ele>435</ele>
        <time>2013-10-23T15:27:04Z</time>
      </trkpt>
      <trkpt lat="45.56144" lon="4.60617">
        <ele>435</ele>
        <time>2013-10-23T15:27:07Z</time>
      </trkpt>
      <trkpt lat="45.56149" lon="4.60623">
        <ele>435</ele>
        <time>2013-10-23T15:27:11Z</time>
      </trkpt>
      <trkpt lat="45.56152" lon="4.60631">
        <ele>435</ele>
        <time>2013-10-23T15:27:14Z</time>
      </trkpt>
      <trkpt lat="45.56156" lon="4.6064">
        <ele>435</ele>
        <time>2013-10-23T15:27:17Z</time>
      </trkpt>
      <trkpt lat="45.5616" lon="4.60646">
        <ele>435</ele>
        <time>2013-10-23T15:27:20Z</time>
      </trkpt>
      <trkpt lat="45.56166" lon="4.60655">
        <ele>435</ele>
        <time>2013-10-23T15:27:24Z</time>
      </trkpt>
      <trkpt lat="45.5617" lon="4.60661">
        <ele>435</ele>
        <time>2013-10-23T15:27:27Z</time>
      </trkpt>
      <trkpt lat="45.56176" lon="4.60668">
        <ele>435</ele>
        <time>2013-10-23T15:27:30Z</time>
      </trkpt>
      <trkpt lat="45.56181" lon="4.60673">
        <ele>435</ele>
        <time>2013-10-23T15:27:34Z</time>
      </trkpt>
      <trkpt lat="45.56189" lon="4.60669">
        <ele>435</ele>
        <time>2013-10-23T15:27:37Z</time>
      </trkpt>
      <trkpt lat="45.56193" lon="4.60662">
        <ele>435</ele>
        <time>2013-10-23T15:27:41Z</time>
      </trkpt>
      <trkpt lat="45.56195" lon="4.60657">
        <ele>436</ele>
        <time>2013-10-23T15:27:44Z</time>
      </trkpt>
      <trkpt lat="45.56199" lon="4.60652">
        <ele>436</ele>
        <time>2013-10-23T15:27:49Z</time>
      </trkpt>
      <trkpt lat="45.56202" lon="4.60647">
        <ele>436</ele>
        <time>2013-10-23T15:27:52Z</time>
      </trkpt>
      <trkpt lat="45.56204" lon="4.60643">
        <ele>437</ele>
        <time>2013-10-23T15:27:56Z</time>
      </trkpt>
      <trkpt lat="45.56207" lon="4.60638">
        <ele>437</ele>
        <time>2013-10-23T15:28:00Z</time>
      </trkpt>
      <trkpt lat="45.5621" lon="4.60633">
        <ele>437</ele>
        <time>2013-10-23T15:28:04Z</time>
      </trkpt>
      <trkpt lat="45.56213" lon="4.60628">
        <ele>437</ele>
        <time>2013-10-23T15:28:08Z</time>
      </trkpt>
      <trkpt lat="45.56216" lon="4.60622">
        <ele>438</ele>
        <time>2013-10-23T15:28:12Z</time>
      </trkpt>
      <trkpt lat="45.56219" lon="4.60617">
        <ele>439</ele>
        <time>2013-10-23T15:28:16Z</time>
      </trkpt>
      <trkpt lat="45.56223" lon="4.6061">
        <ele>439</ele>
        <time>2013-10-23T15:28:20Z</time>
      </trkpt>
      <trkpt lat="45.56227" lon="4.60606">
        <ele>439</ele>
        <time>2013-10-23T15:28:24Z</time>
      </trkpt>
      <trkpt lat="45.5623" lon="4.60601">
        <ele>439</ele>
        <time>2013-10-23T15:28:29Z</time>
      </trkpt>
      <trkpt lat="45.56233" lon="4.60597">
        <ele>439</ele>
        <time>2013-10-23T15:28:32Z</time>
      </trkpt>
      <trkpt lat="45.56237" lon="4.60593">
        <ele>439</ele>
        <time>2013-10-23T15:28:36Z</time>
      </trkpt>
      <trkpt lat="45.5624" lon="4.60588">
        <ele>440</ele>
        <time>2013-10-23T15:28:41Z</time>
      </trkpt>
      <trkpt lat="45.56245" lon="4.60584">
        <ele>440</ele>
        <time>2013-10-23T15:28:46Z</time>
      </trkpt>
      <trkpt lat="45.56249" lon="4.60579">
        <ele>441</ele>
        <time>2013-10-23T15:28:50Z</time>
      </trkpt>
      <trkpt lat="45.56253" lon="4.60574">
        <ele>443</ele>
        <time>2013-10-23T15:28:54Z</time>
      </trkpt>
      <trkpt lat="45.56257" lon="4.60569">
        <ele>445</ele>
        <time>2013-10-23T15:28:57Z</time>
      </trkpt>
      <trkpt lat="45.5626" lon="4.60566">
        <ele>445</ele>
        <time>2013-10-23T15:29:00Z</time>
      </trkpt>
      <trkpt lat="45.56264" lon="4.60561">
        <ele>446</ele>
        <time>2013-10-23T15:29:04Z</time>
      </trkpt>
      <trkpt lat="45.56267" lon="4.60559">
        <ele>447</ele>
        <time>2013-10-23T15:29:08Z</time>
      </trkpt>
      <trkpt lat="45.5627" lon="4.60555">
        <ele>448</ele>
        <time>2013-10-23T15:29:12Z</time>
      </trkpt>
      <trkpt lat="45.56273" lon="4.6055">
        <ele>448</ele>
        <time>2013-10-23T15:29:16Z</time>
      </trkpt>
      <trkpt lat="45.56277" lon="4.60545">
        <ele>449</ele>
        <time>2013-10-23T15:29:19Z</time>
      </trkpt>
      <trkpt lat="45.5628" lon="4.60541">
        <ele>449</ele>
        <time>2013-10-23T15:29:23Z</time>
      </trkpt>
      <trkpt lat="45.56283" lon="4.60537">
        <ele>449</ele>
        <time>2013-10-23T15:29:27Z</time>
      </trkpt>
      <trkpt lat="45.56286" lon="4.60532">
        <ele>449</ele>
        <time>2013-10-23T15:29:32Z</time>
      </trkpt>
      <trkpt lat="45.56289" lon="4.60527">
        <ele>449</ele>
        <time>2013-10-23T15:29:36Z</time>
      </trkpt>
      <trkpt lat="45.56291" lon="4.60522">
        <ele>449</ele>
        <time>2013-10-23T15:29:39Z</time>
      </trkpt>
      <trkpt lat="45.56293" lon="4.60518">
        <ele>449</ele>
        <time>2013-10-23T15:29:42Z</time>
      </trkpt>
      <trkpt lat="45.56296" lon="4.60513">
        <ele>450</ele>
        <time>2013-10-23T15:29:46Z</time>
      </trkpt>
      <trkpt lat="45.56299" lon="4.60507">
        <ele>450</ele>
        <time>2013-10-23T15:29:50Z</time>
      </trkpt>
      <trkpt lat="45.56302" lon="4.60501">
        <ele>451</ele>
        <time>2013-10-23T15:29:54Z</time>
      </trkpt>
      <trkpt lat="45.56304" lon="4.60497">
        <ele>452</ele>
        <time>2013-10-23T15:29:58Z</time>
      </trkpt>
      <trkpt lat="45.56306" lon="4.60491">
        <ele>452</ele>
        <time>2013-10-23T15:30:02Z</time>
      </trkpt>
      <trkpt lat="45.56308" lon="4.60487">
        <ele>452</ele>
        <time>2013-10-23T15:30:05Z</time>
      </trkpt>
      <trkpt lat="45.56311" lon="4.60481">
        <ele>453</ele>
        <time>2013-10-23T15:30:09Z</time>
      </trkpt>
      <trkpt lat="45.56315" lon="4.60475">
        <ele>454</ele>
        <time>2013-10-23T15:30:13Z</time>
      </trkpt>
      <trkpt lat="45.56318" lon="4.60469">
        <ele>455</ele>
        <time>2013-10-23T15:30:16Z</time>
      </trkpt>
      <trkpt lat="45.5632" lon="4.60465">
        <ele>456</ele>
        <time>2013-10-23T15:30:19Z</time>
      </trkpt>
      <trkpt lat="45.56322" lon="4.6046">
        <ele>457</ele>
        <time>2013-10-23T15:30:23Z</time>
      </trkpt>
      <trkpt lat="45.56324" lon="4.60455">
        <ele>458</ele>
        <time>2013-10-23T15:30:26Z</time>
      </trkpt>
      <trkpt lat="45.56324" lon="4.60449">
        <ele>458</ele>
        <time>2013-10-23T15:30:29Z</time>
      </trkpt>
      <trkpt lat="45.56326" lon="4.60444">
        <ele>459</ele>
        <time>2013-10-23T15:30:32Z</time>
      </trkpt>
      <trkpt lat="45.56327" lon="4.60438">
        <ele>459</ele>
        <time>2013-10-23T15:30:35Z</time>
      </trkpt>
      <trkpt lat="45.56328" lon="4.60431">
        <ele>459</ele>
        <time>2013-10-23T15:30:38Z</time>
      </trkpt>
      <trkpt lat="45.56328" lon="4.60423">
        <ele>460</ele>
        <time>2013-10-23T15:30:42Z</time>
      </trkpt>
      <trkpt lat="45.56329" lon="4.60418">
        <ele>461</ele>
        <time>2013-10-23T15:30:46Z</time>
      </trkpt>
      <trkpt lat="45.56329" lon="4.6041">
        <ele>462</ele>
        <time>2013-10-23T15:30:49Z</time>
      </trkpt>
      <trkpt lat="45.56331" lon="4.60405">
        <ele>463</ele>
        <time>2013-10-23T15:30:53Z</time>
      </trkpt>
      <trkpt lat="45.56331" lon="4.604">
        <ele>464</ele>
        <time>2013-10-23T15:30:56Z</time>
      </trkpt>
      <trkpt lat="45.56332" lon="4.60395">
        <ele>464</ele>
        <time>2013-10-23T15:30:59Z</time>
      </trkpt>
      <trkpt lat="45.56332" lon="4.60387">
        <ele>465</ele>
        <time>2013-10-23T15:31:02Z</time>
      </trkpt>
      <trkpt lat="45.56333" lon="4.60382">
        <ele>466</ele>
        <time>2013-10-23T15:31:06Z</time>
      </trkpt>
      <trkpt lat="45.56334" lon="4.60377">
        <ele>467</ele>
        <time>2013-10-23T15:31:09Z</time>
      </trkpt>
      <trkpt lat="45.56335" lon="4.60371">
        <ele>468</ele>
        <time>2013-10-23T15:31:12Z</time>
      </trkpt>
      <trkpt lat="45.56335" lon="4.60364">
        <ele>468</ele>
        <time>2013-10-23T15:31:16Z</time>
      </trkpt>
      <trkpt lat="45.56336" lon="4.60359">
        <ele>469</ele>
        <time>2013-10-23T15:31:19Z</time>
      </trkpt>
      <trkpt lat="45.56338" lon="4.60352">
        <ele>470</ele>
        <time>2013-10-23T15:31:24Z</time>
      </trkpt>
      <trkpt lat="45.5634" lon="4.60347">
        <ele>470</ele>
        <time>2013-10-23T15:31:27Z</time>
      </trkpt>
      <trkpt lat="45.56342" lon="4.60342">
        <ele>471</ele>
        <time>2013-10-23T15:31:31Z</time>
      </trkpt>
      <trkpt lat="45.56345" lon="4.60335">
        <ele>471</ele>
        <time>2013-10-23T15:31:36Z</time>
      </trkpt>
      <trkpt lat="45.56347" lon="4.6033">
        <ele>471</ele>
        <time>2013-10-23T15:31:39Z</time>
      </trkpt>
      <trkpt lat="45.56348" lon="4.60323">
        <ele>472</ele>
        <time>2013-10-23T15:31:42Z</time>
      </trkpt>
      <trkpt lat="45.56349" lon="4.60317">
        <ele>472</ele>
        <time>2013-10-23T15:31:45Z</time>
      </trkpt>
      <trkpt lat="45.56351" lon="4.60312">
        <ele>473</ele>
        <time>2013-10-23T15:31:48Z</time>
      </trkpt>
      <trkpt lat="45.56352" lon="4.60307">
        <ele>473</ele>
        <time>2013-10-23T15:31:52Z</time>
      </trkpt>
      <trkpt lat="45.56353" lon="4.603">
        <ele>474</ele>
        <time>2013-10-23T15:31:55Z</time>
      </trkpt>
      <trkpt lat="45.56355" lon="4.60295">
        <ele>474</ele>
        <time>2013-10-23T15:31:58Z</time>
      </trkpt>
      <trkpt lat="45.56356" lon="4.60289">
        <ele>474</ele>
        <time>2013-10-23T15:32:01Z</time>
      </trkpt>
      <trkpt lat="45.56357" lon="4.60284">
        <ele>474</ele>
        <time>2013-10-23T15:32:05Z</time>
      </trkpt>
      <trkpt lat="45.56358" lon="4.60277">
        <ele>474</ele>
        <time>2013-10-23T15:32:08Z</time>
      </trkpt>
      <trkpt lat="45.56359" lon="4.60269">
        <ele>475</ele>
        <time>2013-10-23T15:32:13Z</time>
      </trkpt>
      <trkpt lat="45.5636" lon="4.60262">
        <ele>476</ele>
        <time>2013-10-23T15:32:17Z</time>
      </trkpt>
      <trkpt lat="45.56361" lon="4.60255">
        <ele>476</ele>
        <time>2013-10-23T15:32:20Z</time>
      </trkpt>
      <trkpt lat="45.56362" lon="4.6025">
        <ele>477</ele>
        <time>2013-10-23T15:32:24Z</time>
      </trkpt>
      <trkpt lat="45.56362" lon="4.60243">
        <ele>478</ele>
        <time>2013-10-23T15:32:28Z</time>
      </trkpt>
      <trkpt lat="45.56363" lon="4.60236">
        <ele>479</ele>
        <time>2013-10-23T15:32:31Z</time>
      </trkpt>
      <trkpt lat="45.56364" lon="4.60231">
        <ele>480</ele>
        <time>2013-10-23T15:32:34Z</time>
      </trkpt>
      <trkpt lat="45.56365" lon="4.60226">
        <ele>480</ele>
        <time>2013-10-23T15:32:37Z</time>
      </trkpt>
      <trkpt lat="45.56366" lon="4.6022">
        <ele>480</ele>
        <time>2013-10-23T15:32:41Z</time>
      </trkpt>
      <trkpt lat="45.56367" lon="4.60215">
        <ele>481</ele>
        <time>2013-10-23T15:32:45Z</time>
      </trkpt>
      <trkpt lat="45.56369" lon="4.60207">
        <ele>482</ele>
        <time>2013-10-23T15:32:48Z</time>
      </trkpt>
      <trkpt lat="45.56369" lon="4.60202">
        <ele>483</ele>
        <time>2013-10-23T15:32:51Z</time>
      </trkpt>
      <trkpt lat="45.5637" lon="4.60197">
        <ele>483</ele>
        <time>2013-10-23T15:32:54Z</time>
      </trkpt>
      <trkpt lat="45.56372" lon="4.60189">
        <ele>484</ele>
        <time>2013-10-23T15:32:58Z</time>
      </trkpt>
      <trkpt lat="45.56373" lon="4.60184">
        <ele>484</ele>
        <time>2013-10-23T15:33:01Z</time>
      </trkpt>
      <trkpt lat="45.56374" lon="4.60179">
        <ele>484</ele>
        <time>2013-10-23T15:33:04Z</time>
      </trkpt>
      <trkpt lat="45.56375" lon="4.60173">
        <ele>484</ele>
        <time>2013-10-23T15:33:07Z</time>
      </trkpt>
      <trkpt lat="45.56377" lon="4.60168">
        <ele>485</ele>
        <time>2013-10-23T15:33:10Z</time>
      </trkpt>
      <trkpt lat="45.56378" lon="4.60162">
        <ele>485</ele>
        <time>2013-10-23T15:33:13Z</time>
      </trkpt>
      <trkpt lat="45.56379" lon="4.60157">
        <ele>485</ele>
        <time>2013-10-23T15:33:17Z</time>
      </trkpt>
      <trkpt lat="45.56382" lon="4.60149">
        <ele>485</ele>
        <time>2013-10-23T15:33:20Z</time>
      </trkpt>
      <trkpt lat="45.56383" lon="4.60143">
        <ele>485</ele>
        <time>2013-10-23T15:33:23Z</time>
      </trkpt>
      <trkpt lat="45.56383" lon="4.60137">
        <ele>485</ele>
        <time>2013-10-23T15:33:26Z</time>
      </trkpt>
      <trkpt lat="45.56383" lon="4.60129">
        <ele>486</ele>
        <time>2013-10-23T15:33:30Z</time>
      </trkpt>
      <trkpt lat="45.56384" lon="4.60123">
        <ele>486</ele>
        <time>2013-10-23T15:33:33Z</time>
      </trkpt>
      <trkpt lat="45.56385" lon="4.60117">
        <ele>488</ele>
        <time>2013-10-23T15:33:36Z</time>
      </trkpt>
      <trkpt lat="45.56385" lon="4.60112">
        <ele>488</ele>
        <time>2013-10-23T15:33:39Z</time>
      </trkpt>
      <trkpt lat="45.56386" lon="4.60107">
        <ele>489</ele>
        <time>2013-10-23T15:33:42Z</time>
      </trkpt>
      <trkpt lat="45.56386" lon="4.60099">
        <ele>490</ele>
        <time>2013-10-23T15:33:46Z</time>
      </trkpt>
      <trkpt lat="45.56386" lon="4.60093">
        <ele>491</ele>
        <time>2013-10-23T15:33:49Z</time>
      </trkpt>
      <trkpt lat="45.56386" lon="4.60081">
        <ele>492</ele>
        <time>2013-10-23T15:33:53Z</time>
      </trkpt>
      <trkpt lat="45.56386" lon="4.60071">
        <ele>493</ele>
        <time>2013-10-23T15:33:56Z</time>
      </trkpt>
      <trkpt lat="45.56387" lon="4.60061">
        <ele>493</ele>
        <time>2013-10-23T15:33:59Z</time>
      </trkpt>
      <trkpt lat="45.56386" lon="4.6005">
        <ele>493</ele>
        <time>2013-10-23T15:34:02Z</time>
      </trkpt>
      <trkpt lat="45.56386" lon="4.6004">
        <ele>493</ele>
        <time>2013-10-23T15:34:05Z</time>
      </trkpt>
      <trkpt lat="45.56385" lon="4.60029">
        <ele>493</ele>
        <time>2013-10-23T15:34:08Z</time>
      </trkpt>
      <trkpt lat="45.56384" lon="4.60019">
        <ele>494</ele>
        <time>2013-10-23T15:34:11Z</time>
      </trkpt>
      <trkpt lat="45.56383" lon="4.60009">
        <ele>494</ele>
        <time>2013-10-23T15:34:14Z</time>
      </trkpt>
      <trkpt lat="45.56382" lon="4.59995">
        <ele>494</ele>
        <time>2013-10-23T15:34:18Z</time>
      </trkpt>
      <trkpt lat="45.56381" lon="4.59985">
        <ele>494</ele>
        <time>2013-10-23T15:34:21Z</time>
      </trkpt>
      <trkpt lat="45.56381" lon="4.59972">
        <ele>494</ele>
        <time>2013-10-23T15:34:25Z</time>
      </trkpt>
      <trkpt lat="45.5638" lon="4.59961">
        <ele>494</ele>
        <time>2013-10-23T15:34:29Z</time>
      </trkpt>
      <trkpt lat="45.56379" lon="4.59948">
        <ele>494</ele>
        <time>2013-10-23T15:34:32Z</time>
      </trkpt>
      <trkpt lat="45.56378" lon="4.59939">
        <ele>494</ele>
        <time>2013-10-23T15:34:35Z</time>
      </trkpt>
      <trkpt lat="45.56376" lon="4.59927">
        <ele>494</ele>
        <time>2013-10-23T15:34:39Z</time>
      </trkpt>
      <trkpt lat="45.56373" lon="4.59918">
        <ele>494</ele>
        <time>2013-10-23T15:34:42Z</time>
      </trkpt>
      <trkpt lat="45.5637" lon="4.59909">
        <ele>494</ele>
        <time>2013-10-23T15:34:45Z</time>
      </trkpt>
      <trkpt lat="45.56367" lon="4.59901">
        <ele>494</ele>
        <time>2013-10-23T15:34:48Z</time>
      </trkpt>
      <trkpt lat="45.56364" lon="4.59892">
        <ele>494</ele>
        <time>2013-10-23T15:34:52Z</time>
      </trkpt>
      <trkpt lat="45.5636" lon="4.5988">
        <ele>494</ele>
        <time>2013-10-23T15:34:55Z</time>
      </trkpt>
      <trkpt lat="45.56355" lon="4.59868">
        <ele>494</ele>
        <time>2013-10-23T15:34:59Z</time>
      </trkpt>
      <trkpt lat="45.5635" lon="4.59856">
        <ele>494</ele>
        <time>2013-10-23T15:35:03Z</time>
      </trkpt>
      <trkpt lat="45.56344" lon="4.59844">
        <ele>494</ele>
        <time>2013-10-23T15:35:07Z</time>
      </trkpt>
      <trkpt lat="45.56338" lon="4.59833">
        <ele>494</ele>
        <time>2013-10-23T15:35:11Z</time>
      </trkpt>
      <trkpt lat="45.56332" lon="4.59822">
        <ele>494</ele>
        <time>2013-10-23T15:35:15Z</time>
      </trkpt>
      <trkpt lat="45.56326" lon="4.59812">
        <ele>494</ele>
        <time>2013-10-23T15:35:19Z</time>
      </trkpt>
      <trkpt lat="45.56319" lon="4.59802">
        <ele>494</ele>
        <time>2013-10-23T15:35:23Z</time>
      </trkpt>
      <trkpt lat="45.56313" lon="4.59794">
        <ele>494</ele>
        <time>2013-10-23T15:35:27Z</time>
      </trkpt>
      <trkpt lat="45.56305" lon="4.59784">
        <ele>494</ele>
        <time>2013-10-23T15:35:31Z</time>
      </trkpt>
      <trkpt lat="45.563" lon="4.59778">
        <ele>494</ele>
        <time>2013-10-23T15:35:34Z</time>
      </trkpt>
      <trkpt lat="45.56294" lon="4.59769">
        <ele>494</ele>
        <time>2013-10-23T15:35:38Z</time>
      </trkpt>
      <trkpt lat="45.56289" lon="4.59764">
        <ele>493</ele>
        <time>2013-10-23T15:35:41Z</time>
      </trkpt>
      <trkpt lat="45.56282" lon="4.59758">
        <ele>493</ele>
        <time>2013-10-23T15:35:44Z</time>
      </trkpt>
      <trkpt lat="45.56275" lon="4.5975">
        <ele>493</ele>
        <time>2013-10-23T15:35:48Z</time>
      </trkpt>
      <trkpt lat="45.56267" lon="4.59741">
        <ele>493</ele>
        <time>2013-10-23T15:35:52Z</time>
      </trkpt>
      <trkpt lat="45.56258" lon="4.59732">
        <ele>493</ele>
        <time>2013-10-23T15:35:56Z</time>
      </trkpt>
      <trkpt lat="45.56254" lon="4.59727">
        <ele>493</ele>
        <time>2013-10-23T15:35:59Z</time>
      </trkpt>
      <trkpt lat="45.5625" lon="4.59722">
        <ele>493</ele>
        <time>2013-10-23T15:36:02Z</time>
      </trkpt>
      <trkpt lat="45.56243" lon="4.59716">
        <ele>493</ele>
        <time>2013-10-23T15:36:06Z</time>
      </trkpt>
      <trkpt lat="45.56238" lon="4.5971">
        <ele>493</ele>
        <time>2013-10-23T15:36:09Z</time>
      </trkpt>
      <trkpt lat="45.56233" lon="4.59703">
        <ele>494</ele>
        <time>2013-10-23T15:36:12Z</time>
      </trkpt>
      <trkpt lat="45.56228" lon="4.59694">
        <ele>494</ele>
        <time>2013-10-23T15:36:16Z</time>
      </trkpt>
      <trkpt lat="45.56224" lon="4.59687">
        <ele>494</ele>
        <time>2013-10-23T15:36:19Z</time>
      </trkpt>
      <trkpt lat="45.56221" lon="4.5968">
        <ele>494</ele>
        <time>2013-10-23T15:36:22Z</time>
      </trkpt>
      <trkpt lat="45.56218" lon="4.59672">
        <ele>494</ele>
        <time>2013-10-23T15:36:25Z</time>
      </trkpt>
      <trkpt lat="45.56214" lon="4.59662">
        <ele>494</ele>
        <time>2013-10-23T15:36:29Z</time>
      </trkpt>
      <trkpt lat="45.56211" lon="4.59654">
        <ele>494</ele>
        <time>2013-10-23T15:36:32Z</time>
      </trkpt>
      <trkpt lat="45.56207" lon="4.59646">
        <ele>494</ele>
        <time>2013-10-23T15:36:35Z</time>
      </trkpt>
      <trkpt lat="45.56202" lon="4.59635">
        <ele>494</ele>
        <time>2013-10-23T15:36:39Z</time>
      </trkpt>
      <trkpt lat="45.56199" lon="4.59623">
        <ele>494</ele>
        <time>2013-10-23T15:36:43Z</time>
      </trkpt>
      <trkpt lat="45.56196" lon="4.59615">
        <ele>494</ele>
        <time>2013-10-23T15:36:46Z</time>
      </trkpt>
      <trkpt lat="45.56191" lon="4.59602">
        <ele>494</ele>
        <time>2013-10-23T15:36:50Z</time>
      </trkpt>
      <trkpt lat="45.56187" lon="4.59594">
        <ele>495</ele>
        <time>2013-10-23T15:36:53Z</time>
      </trkpt>
      <trkpt lat="45.56184" lon="4.59585">
        <ele>495</ele>
        <time>2013-10-23T15:36:56Z</time>
      </trkpt>
      <trkpt lat="45.5618" lon="4.59577">
        <ele>495</ele>
        <time>2013-10-23T15:36:59Z</time>
      </trkpt>
      <trkpt lat="45.56176" lon="4.59564">
        <ele>495</ele>
        <time>2013-10-23T15:37:03Z</time>
      </trkpt>
      <trkpt lat="45.56171" lon="4.59553">
        <ele>495</ele>
        <time>2013-10-23T15:37:07Z</time>
      </trkpt>
      <trkpt lat="45.56168" lon="4.59544">
        <ele>495</ele>
        <time>2013-10-23T15:37:10Z</time>
      </trkpt>
      <trkpt lat="45.56165" lon="4.59535">
        <ele>495</ele>
        <time>2013-10-23T15:37:13Z</time>
      </trkpt>
      <trkpt lat="45.56162" lon="4.59526">
        <ele>495</ele>
        <time>2013-10-23T15:37:17Z</time>
      </trkpt>
      <trkpt lat="45.5616" lon="4.59516">
        <ele>495</ele>
        <time>2013-10-23T15:37:20Z</time>
      </trkpt>
      <trkpt lat="45.56157" lon="4.59505">
        <ele>495</ele>
        <time>2013-10-23T15:37:23Z</time>
      </trkpt>
      <trkpt lat="45.56152" lon="4.59495">
        <ele>495</ele>
        <time>2013-10-23T15:37:26Z</time>
      </trkpt>
      <trkpt lat="45.56149" lon="4.59485">
        <ele>495</ele>
        <time>2013-10-23T15:37:29Z</time>
      </trkpt>
      <trkpt lat="45.56143" lon="4.59474">
        <ele>495</ele>
        <time>2013-10-23T15:37:33Z</time>
      </trkpt>
      <trkpt lat="45.56139" lon="4.59465">
        <ele>495</ele>
        <time>2013-10-23T15:37:36Z</time>
      </trkpt>
      <trkpt lat="45.56134" lon="4.59457">
        <ele>495</ele>
        <time>2013-10-23T15:37:39Z</time>
      </trkpt>
      <trkpt lat="45.5613" lon="4.59448">
        <ele>495</ele>
        <time>2013-10-23T15:37:42Z</time>
      </trkpt>
      <trkpt lat="45.56126" lon="4.59441">
        <ele>495</ele>
        <time>2013-10-23T15:37:45Z</time>
      </trkpt>
      <trkpt lat="45.56121" lon="4.59434">
        <ele>495</ele>
        <time>2013-10-23T15:37:48Z</time>
      </trkpt>
      <trkpt lat="45.56118" lon="4.59425">
        <ele>495</ele>
        <time>2013-10-23T15:37:51Z</time>
      </trkpt>
      <trkpt lat="45.56111" lon="4.59412">
        <ele>495</ele>
        <time>2013-10-23T15:37:55Z</time>
      </trkpt>
      <trkpt lat="45.56107" lon="4.59404">
        <ele>495</ele>
        <time>2013-10-23T15:37:58Z</time>
      </trkpt>
      <trkpt lat="45.56102" lon="4.59396">
        <ele>495</ele>
        <time>2013-10-23T15:38:01Z</time>
      </trkpt>
      <trkpt lat="45.56096" lon="4.59386">
        <ele>495</ele>
        <time>2013-10-23T15:38:05Z</time>
      </trkpt>
      <trkpt lat="45.56092" lon="4.59378">
        <ele>495</ele>
        <time>2013-10-23T15:38:08Z</time>
      </trkpt>
      <trkpt lat="45.56086" lon="4.59367">
        <ele>495</ele>
        <time>2013-10-23T15:38:12Z</time>
      </trkpt>
      <trkpt lat="45.56083" lon="4.59358">
        <ele>495</ele>
        <time>2013-10-23T15:38:15Z</time>
      </trkpt>
      <trkpt lat="45.56081" lon="4.59348">
        <ele>495</ele>
        <time>2013-10-23T15:38:18Z</time>
      </trkpt>
      <trkpt lat="45.56078" lon="4.59339">
        <ele>495</ele>
        <time>2013-10-23T15:38:21Z</time>
      </trkpt>
      <trkpt lat="45.56075" lon="4.59326">
        <ele>495</ele>
        <time>2013-10-23T15:38:25Z</time>
      </trkpt>
      <trkpt lat="45.56073" lon="4.59316">
        <ele>495</ele>
        <time>2013-10-23T15:38:28Z</time>
      </trkpt>
      <trkpt lat="45.56072" lon="4.59306">
        <ele>495</ele>
        <time>2013-10-23T15:38:31Z</time>
      </trkpt>
      <trkpt lat="45.5607" lon="4.59297">
        <ele>495</ele>
        <time>2013-10-23T15:38:35Z</time>
      </trkpt>
      <trkpt lat="45.5607" lon="4.59284">
        <ele>495</ele>
        <time>2013-10-23T15:38:38Z</time>
      </trkpt>
      <trkpt lat="45.56069" lon="4.59271">
        <ele>495</ele>
        <time>2013-10-23T15:38:42Z</time>
      </trkpt>
      <trkpt lat="45.56069" lon="4.59258">
        <ele>495</ele>
        <time>2013-10-23T15:38:46Z</time>
      </trkpt>
      <trkpt lat="45.56069" lon="4.59248">
        <ele>495</ele>
        <time>2013-10-23T15:38:49Z</time>
      </trkpt>
      <trkpt lat="45.5607" lon="4.59235">
        <ele>495</ele>
        <time>2013-10-23T15:38:53Z</time>
      </trkpt>
      <trkpt lat="45.5607" lon="4.59225">
        <ele>495</ele>
        <time>2013-10-23T15:38:56Z</time>
      </trkpt>
      <trkpt lat="45.56071" lon="4.59214">
        <ele>495</ele>
        <time>2013-10-23T15:38:59Z</time>
      </trkpt>
      <trkpt lat="45.56071" lon="4.59204">
        <ele>495</ele>
        <time>2013-10-23T15:39:02Z</time>
      </trkpt>
      <trkpt lat="45.56072" lon="4.59192">
        <ele>495</ele>
        <time>2013-10-23T15:39:06Z</time>
      </trkpt>
      <trkpt lat="45.56073" lon="4.59183">
        <ele>495</ele>
        <time>2013-10-23T15:39:09Z</time>
      </trkpt>
      <trkpt lat="45.56073" lon="4.5917">
        <ele>495</ele>
        <time>2013-10-23T15:39:13Z</time>
      </trkpt>
      <trkpt lat="45.56073" lon="4.59161">
        <ele>495</ele>
        <time>2013-10-23T15:39:16Z</time>
      </trkpt>
      <trkpt lat="45.56073" lon="4.59151">
        <ele>495</ele>
        <time>2013-10-23T15:39:19Z</time>
      </trkpt>
      <trkpt lat="45.56073" lon="4.59138">
        <ele>495</ele>
        <time>2013-10-23T15:39:23Z</time>
      </trkpt>
      <trkpt lat="45.56072" lon="4.59129">
        <ele>495</ele>
        <time>2013-10-23T15:39:26Z</time>
      </trkpt>
      <trkpt lat="45.56071" lon="4.5912">
        <ele>495</ele>
        <time>2013-10-23T15:39:29Z</time>
      </trkpt>
      <trkpt lat="45.5607" lon="4.59112">
        <ele>495</ele>
        <time>2013-10-23T15:39:32Z</time>
      </trkpt>
      <trkpt lat="45.56071" lon="4.59102">
        <ele>496</ele>
        <time>2013-10-23T15:39:36Z</time>
      </trkpt>
      <trkpt lat="45.56073" lon="4.59095">
        <ele>496</ele>
        <time>2013-10-23T15:39:39Z</time>
      </trkpt>
      <trkpt lat="45.56074" lon="4.5909">
        <ele>497</ele>
        <time>2013-10-23T15:39:42Z</time>
      </trkpt>
      <trkpt lat="45.56076" lon="4.59082">
        <ele>497</ele>
        <time>2013-10-23T15:39:46Z</time>
      </trkpt>
      <trkpt lat="45.56076" lon="4.59077">
        <ele>497</ele>
        <time>2013-10-23T15:39:49Z</time>
      </trkpt>
      <trkpt lat="45.56077" lon="4.5907">
        <ele>498</ele>
        <time>2013-10-23T15:39:53Z</time>
      </trkpt>
      <trkpt lat="45.56077" lon="4.59061">
        <ele>498</ele>
        <time>2013-10-23T15:39:57Z</time>
      </trkpt>
      <trkpt lat="45.56077" lon="4.59056">
        <ele>498</ele>
        <time>2013-10-23T15:40:00Z</time>
      </trkpt>
      <trkpt lat="45.56076" lon="4.59051">
        <ele>498</ele>
        <time>2013-10-23T15:40:03Z</time>
      </trkpt>
      <trkpt lat="45.56075" lon="4.59045">
        <ele>498</ele>
        <time>2013-10-23T15:40:06Z</time>
      </trkpt>
      <trkpt lat="45.56076" lon="4.59037">
        <ele>498</ele>
        <time>2013-10-23T15:40:10Z</time>
      </trkpt>
      <trkpt lat="45.56074" lon="4.5903">
        <ele>498</ele>
        <time>2013-10-23T15:40:14Z</time>
      </trkpt>
      <trkpt lat="45.56073" lon="4.59024">
        <ele>498</ele>
        <time>2013-10-23T15:40:17Z</time>
      </trkpt>
      <trkpt lat="45.56073" lon="4.59018">
        <ele>499</ele>
        <time>2013-10-23T15:40:20Z</time>
      </trkpt>
      <trkpt lat="45.56073" lon="4.59013">
        <ele>500</ele>
        <time>2013-10-23T15:40:23Z</time>
      </trkpt>
      <trkpt lat="45.56075" lon="4.59007">
        <ele>501</ele>
        <time>2013-10-23T15:40:27Z</time>
      </trkpt>
      <trkpt lat="45.56076" lon="4.59001">
        <ele>502</ele>
        <time>2013-10-23T15:40:31Z</time>
      </trkpt>
      <trkpt lat="45.56078" lon="4.58995">
        <ele>503</ele>
        <time>2013-10-23T15:40:35Z</time>
      </trkpt>
      <trkpt lat="45.5608" lon="4.58991">
        <ele>503</ele>
        <time>2013-10-23T15:40:38Z</time>
      </trkpt>
      <trkpt lat="45.56082" lon="4.58984">
        <ele>504</ele>
        <time>2013-10-23T15:40:42Z</time>
      </trkpt>
      <trkpt lat="45.56084" lon="4.58979">
        <ele>505</ele>
        <time>2013-10-23T15:40:46Z</time>
      </trkpt>
      <trkpt lat="45.56085" lon="4.58974">
        <ele>505</ele>
        <time>2013-10-23T15:40:49Z</time>
      </trkpt>
      <trkpt lat="45.56087" lon="4.58967">
        <ele>506</ele>
        <time>2013-10-23T15:40:53Z</time>
      </trkpt>
      <trkpt lat="45.56087" lon="4.58961">
        <ele>508</ele>
        <time>2013-10-23T15:40:56Z</time>
      </trkpt>
      <trkpt lat="45.56089" lon="4.58957">
        <ele>509</ele>
        <time>2013-10-23T15:40:59Z</time>
      </trkpt>
      <trkpt lat="45.56091" lon="4.58949">
        <ele>509</ele>
        <time>2013-10-23T15:41:04Z</time>
      </trkpt>
      <trkpt lat="45.56093" lon="4.58945">
        <ele>510</ele>
        <time>2013-10-23T15:41:07Z</time>
      </trkpt>
      <trkpt lat="45.56094" lon="4.58941">
        <ele>510</ele>
        <time>2013-10-23T15:41:10Z</time>
      </trkpt>
      <trkpt lat="45.56096" lon="4.58935">
        <ele>510</ele>
        <time>2013-10-23T15:41:14Z</time>
      </trkpt>
      <trkpt lat="45.56098" lon="4.58931">
        <ele>511</ele>
        <time>2013-10-23T15:41:17Z</time>
      </trkpt>
      <trkpt lat="45.56099" lon="4.58926">
        <ele>512</ele>
        <time>2013-10-23T15:41:20Z</time>
      </trkpt>
      <trkpt lat="45.561" lon="4.58921">
        <ele>512</ele>
        <time>2013-10-23T15:41:23Z</time>
      </trkpt>
      <trkpt lat="45.56102" lon="4.58916">
        <ele>513</ele>
        <time>2013-10-23T15:41:27Z</time>
      </trkpt>
      <trkpt lat="45.56104" lon="4.58911">
        <ele>514</ele>
        <time>2013-10-23T15:41:30Z</time>
      </trkpt>
      <trkpt lat="45.56107" lon="4.58906">
        <ele>515</ele>
        <time>2013-10-23T15:41:34Z</time>
      </trkpt>
      <trkpt lat="45.56108" lon="4.58899">
        <ele>516</ele>
        <time>2013-10-23T15:41:38Z</time>
      </trkpt>
      <trkpt lat="45.56111" lon="4.58892">
        <ele>517</ele>
        <time>2013-10-23T15:41:42Z</time>
      </trkpt>
      <trkpt lat="45.56112" lon="4.58887">
        <ele>518</ele>
        <time>2013-10-23T15:41:45Z</time>
      </trkpt>
      <trkpt lat="45.56115" lon="4.58882">
        <ele>519</ele>
        <time>2013-10-23T15:41:49Z</time>
      </trkpt>
      <trkpt lat="45.56117" lon="4.58875">
        <ele>520</ele>
        <time>2013-10-23T15:41:54Z</time>
      </trkpt>
      <trkpt lat="45.56119" lon="4.58869">
        <ele>520</ele>
        <time>2013-10-23T15:41:58Z</time>
      </trkpt>
      <trkpt lat="45.56121" lon="4.58863">
        <ele>521</ele>
        <time>2013-10-23T15:42:02Z</time>
      </trkpt>
      <trkpt lat="45.56122" lon="4.58857">
        <ele>521</ele>
        <time>2013-10-23T15:42:06Z</time>
      </trkpt>
      <trkpt lat="45.56123" lon="4.58853">
        <ele>522</ele>
        <time>2013-10-23T15:42:10Z</time>
      </trkpt>
      <trkpt lat="45.56126" lon="4.58847">
        <ele>523</ele>
        <time>2013-10-23T15:42:13Z</time>
      </trkpt>
      <trkpt lat="45.56127" lon="4.58843">
        <ele>523</ele>
        <time>2013-10-23T15:42:16Z</time>
      </trkpt>
      <trkpt lat="45.56128" lon="4.5884">
        <ele>523</ele>
        <time>2013-10-23T15:42:19Z</time>
      </trkpt>
      <trkpt lat="45.5613" lon="4.58834">
        <ele>524</ele>
        <time>2013-10-23T15:42:24Z</time>
      </trkpt>
      <trkpt lat="45.56133" lon="4.58827">
        <ele>525</ele>
        <time>2013-10-23T15:42:29Z</time>
      </trkpt>
      <trkpt lat="45.56134" lon="4.58823">
        <ele>525</ele>
        <time>2013-10-23T15:42:32Z</time>
      </trkpt>
      <trkpt lat="45.56135" lon="4.58819">
        <ele>525</ele>
        <time>2013-10-23T15:42:35Z</time>
      </trkpt>
      <trkpt lat="45.56137" lon="4.58814">
        <ele>526</ele>
        <time>2013-10-23T15:42:38Z</time>
      </trkpt>
      <trkpt lat="45.56138" lon="4.5881">
        <ele>526</ele>
        <time>2013-10-23T15:42:41Z</time>
      </trkpt>
      <trkpt lat="45.56141" lon="4.58804">
        <ele>527</ele>
        <time>2013-10-23T15:42:45Z</time>
      </trkpt>
      <trkpt lat="45.56143" lon="4.58799">
        <ele>528</ele>
        <time>2013-10-23T15:42:49Z</time>
      </trkpt>
      <trkpt lat="45.56145" lon="4.5879">
        <ele>530</ele>
        <time>2013-10-23T15:42:54Z</time>
      </trkpt>
      <trkpt lat="45.56146" lon="4.58786">
        <ele>530</ele>
        <time>2013-10-23T15:42:57Z</time>
      </trkpt>
      <trkpt lat="45.56147" lon="4.58781">
        <ele>531</ele>
        <time>2013-10-23T15:43:01Z</time>
      </trkpt>
      <trkpt lat="45.56149" lon="4.58775">
        <ele>532</ele>
        <time>2013-10-23T15:43:05Z</time>
      </trkpt>
      <trkpt lat="45.5615" lon="4.58769">
        <ele>533</ele>
        <time>2013-10-23T15:43:09Z</time>
      </trkpt>
      <trkpt lat="45.56152" lon="4.58765">
        <ele>533</ele>
        <time>2013-10-23T15:43:12Z</time>
      </trkpt>
      <trkpt lat="45.56154" lon="4.5876">
        <ele>534</ele>
        <time>2013-10-23T15:43:15Z</time>
      </trkpt>
      <trkpt lat="45.56155" lon="4.58756">
        <ele>535</ele>
        <time>2013-10-23T15:43:18Z</time>
      </trkpt>
      <trkpt lat="45.56156" lon="4.58751">
        <ele>535</ele>
        <time>2013-10-23T15:43:21Z</time>
      </trkpt>
      <trkpt lat="45.56158" lon="4.58746">
        <ele>536</ele>
        <time>2013-10-23T15:43:26Z</time>
      </trkpt>
      <trkpt lat="45.5616" lon="4.5874">
        <ele>537</ele>
        <time>2013-10-23T15:43:29Z</time>
      </trkpt>
      <trkpt lat="45.56162" lon="4.58735">
        <ele>537</ele>
        <time>2013-10-23T15:43:32Z</time>
      </trkpt>
      <trkpt lat="45.56163" lon="4.5873">
        <ele>538</ele>
        <time>2013-10-23T15:43:35Z</time>
      </trkpt>
      <trkpt lat="45.56165" lon="4.58725">
        <ele>539</ele>
        <time>2013-10-23T15:43:38Z</time>
      </trkpt>
      <trkpt lat="45.56166" lon="4.5872">
        <ele>539</ele>
        <time>2013-10-23T15:43:41Z</time>
      </trkpt>
      <trkpt lat="45.56168" lon="4.58715">
        <ele>540</ele>
        <time>2013-10-23T15:43:44Z</time>
      </trkpt>
      <trkpt lat="45.56169" lon="4.58711">
        <ele>540</ele>
        <time>2013-10-23T15:43:47Z</time>
      </trkpt>
      <trkpt lat="45.56172" lon="4.58706">
        <ele>541</ele>
        <time>2013-10-23T15:43:51Z</time>
      </trkpt>
      <trkpt lat="45.56173" lon="4.587">
        <ele>542</ele>
        <time>2013-10-23T15:43:55Z</time>
      </trkpt>
      <trkpt lat="45.56174" lon="4.58695">
        <ele>543</ele>
        <time>2013-10-23T15:43:58Z</time>
      </trkpt>
      <trkpt lat="45.56175" lon="4.5869">
        <ele>543</ele>
        <time>2013-10-23T15:44:01Z</time>
      </trkpt>
      <trkpt lat="45.56177" lon="4.58683">
        <ele>545</ele>
        <time>2013-10-23T15:44:06Z</time>
      </trkpt>
      <trkpt lat="45.56179" lon="4.58679">
        <ele>546</ele>
        <time>2013-10-23T15:44:09Z</time>
      </trkpt>
      <trkpt lat="45.56181" lon="4.58674">
        <ele>547</ele>
        <time>2013-10-23T15:44:13Z</time>
      </trkpt>
      <trkpt lat="45.56181" lon="4.58671">
        <ele>548</ele>
        <time>2013-10-23T15:44:16Z</time>
      </trkpt>
      <trkpt lat="45.56182" lon="4.58666">
        <ele>550</ele>
        <time>2013-10-23T15:44:19Z</time>
      </trkpt>
      <trkpt lat="45.56184" lon="4.58661">
        <ele>551</ele>
        <time>2013-10-23T15:44:23Z</time>
      </trkpt>
      <trkpt lat="45.56186" lon="4.58655">
        <ele>552</ele>
        <time>2013-10-23T15:44:28Z</time>
      </trkpt>
      <trkpt lat="45.56187" lon="4.58651">
        <ele>553</ele>
        <time>2013-10-23T15:44:32Z</time>
      </trkpt>
      <trkpt lat="45.56189" lon="4.58646">
        <ele>553</ele>
        <time>2013-10-23T15:44:36Z</time>
      </trkpt>
      <trkpt lat="45.56191" lon="4.58642">
        <ele>554</ele>
        <time>2013-10-23T15:44:39Z</time>
      </trkpt>
      <trkpt lat="45.56192" lon="4.58637">
        <ele>555</ele>
        <time>2013-10-23T15:44:42Z</time>
      </trkpt>
      <trkpt lat="45.56195" lon="4.58632">
        <ele>555</ele>
        <time>2013-10-23T15:44:46Z</time>
      </trkpt>
      <trkpt lat="45.56197" lon="4.58627">
        <ele>555</ele>
        <time>2013-10-23T15:44:50Z</time>
      </trkpt>
      <trkpt lat="45.56197" lon="4.58622">
        <ele>555</ele>
        <time>2013-10-23T15:44:53Z</time>
      </trkpt>
      <trkpt lat="45.56198" lon="4.58617">
        <ele>555</ele>
        <time>2013-10-23T15:44:56Z</time>
      </trkpt>
      <trkpt lat="45.56199" lon="4.58611">
        <ele>555</ele>
        <time>2013-10-23T15:45:00Z</time>
      </trkpt>
      <trkpt lat="45.56201" lon="4.58606">
        <ele>555</ele>
        <time>2013-10-23T15:45:04Z</time>
      </trkpt>
      <trkpt lat="45.56203" lon="4.58601">
        <ele>556</ele>
        <time>2013-10-23T15:45:08Z</time>
      </trkpt>
      <trkpt lat="45.56205" lon="4.58596">
        <ele>557</ele>
        <time>2013-10-23T15:45:12Z</time>
      </trkpt>
      <trkpt lat="45.56207" lon="4.58591">
        <ele>558</ele>
        <time>2013-10-23T15:45:16Z</time>
      </trkpt>
      <trkpt lat="45.56208" lon="4.58586">
        <ele>559</ele>
        <time>2013-10-23T15:45:20Z</time>
      </trkpt>
      <trkpt lat="45.5621" lon="4.5858">
        <ele>560</ele>
        <time>2013-10-23T15:45:24Z</time>
      </trkpt>
      <trkpt lat="45.5621" lon="4.58576">
        <ele>561</ele>
        <time>2013-10-23T15:45:27Z</time>
      </trkpt>
      <trkpt lat="45.56213" lon="4.5857">
        <ele>562</ele>
        <time>2013-10-23T15:45:31Z</time>
      </trkpt>
      <trkpt lat="45.56216" lon="4.58565">
        <ele>563</ele>
        <time>2013-10-23T15:45:34Z</time>
      </trkpt>
      <trkpt lat="45.56217" lon="4.58561">
        <ele>563</ele>
        <time>2013-10-23T15:45:37Z</time>
      </trkpt>
      <trkpt lat="45.56219" lon="4.58555">
        <ele>564</ele>
        <time>2013-10-23T15:45:41Z</time>
      </trkpt>
      <trkpt lat="45.56223" lon="4.58549">
        <ele>565</ele>
        <time>2013-10-23T15:45:45Z</time>
      </trkpt>
      <trkpt lat="45.56226" lon="4.58543">
        <ele>566</ele>
        <time>2013-10-23T15:45:50Z</time>
      </trkpt>
      <trkpt lat="45.56229" lon="4.58538">
        <ele>567</ele>
        <time>2013-10-23T15:45:53Z</time>
      </trkpt>
      <trkpt lat="45.56232" lon="4.58534">
        <ele>567</ele>
        <time>2013-10-23T15:45:56Z</time>
      </trkpt>
      <trkpt lat="45.56236" lon="4.58528">
        <ele>568</ele>
        <time>2013-10-23T15:46:00Z</time>
      </trkpt>
      <trkpt lat="45.56238" lon="4.58524">
        <ele>569</ele>
        <time>2013-10-23T15:46:03Z</time>
      </trkpt>
      <trkpt lat="45.56241" lon="4.5852">
        <ele>569</ele>
        <time>2013-10-23T15:46:07Z</time>
      </trkpt>
      <trkpt lat="45.56245" lon="4.58516">
        <ele>569</ele>
        <time>2013-10-23T15:46:10Z</time>
      </trkpt>
      <trkpt lat="45.56249" lon="4.58513">
        <ele>570</ele>
        <time>2013-10-23T15:46:14Z</time>
      </trkpt>
      <trkpt lat="45.56254" lon="4.58507">
        <ele>571</ele>
        <time>2013-10-23T15:46:19Z</time>
      </trkpt>
      <trkpt lat="45.56257" lon="4.58502">
        <ele>571</ele>
        <time>2013-10-23T15:46:23Z</time>
      </trkpt>
      <trkpt lat="45.56261" lon="4.58497">
        <ele>571</ele>
        <time>2013-10-23T15:46:27Z</time>
      </trkpt>
      <trkpt lat="45.56264" lon="4.58493">
        <ele>571</ele>
        <time>2013-10-23T15:46:31Z</time>
      </trkpt>
      <trkpt lat="45.56268" lon="4.58488">
        <ele>572</ele>
        <time>2013-10-23T15:46:35Z</time>
      </trkpt>
      <trkpt lat="45.56272" lon="4.58483">
        <ele>573</ele>
        <time>2013-10-23T15:46:39Z</time>
      </trkpt>
      <trkpt lat="45.56275" lon="4.58478">
        <ele>573</ele>
        <time>2013-10-23T15:46:43Z</time>
      </trkpt>
      <trkpt lat="45.56279" lon="4.58473">
        <ele>574</ele>
        <time>2013-10-23T15:46:47Z</time>
      </trkpt>
      <trkpt lat="45.56282" lon="4.58468">
        <ele>574</ele>
        <time>2013-10-23T15:46:50Z</time>
      </trkpt>
      <trkpt lat="45.56285" lon="4.58461">
        <ele>575</ele>
        <time>2013-10-23T15:46:55Z</time>
      </trkpt>
      <trkpt lat="45.56287" lon="4.58456">
        <ele>576</ele>
        <time>2013-10-23T15:46:58Z</time>
      </trkpt>
      <trkpt lat="45.56289" lon="4.58451">
        <ele>576</ele>
        <time>2013-10-23T15:47:01Z</time>
      </trkpt>
      <trkpt lat="45.56291" lon="4.58446">
        <ele>577</ele>
        <time>2013-10-23T15:47:05Z</time>
      </trkpt>
      <trkpt lat="45.56293" lon="4.5844">
        <ele>578</ele>
        <time>2013-10-23T15:47:09Z</time>
      </trkpt>
      <trkpt lat="45.56295" lon="4.58434">
        <ele>579</ele>
        <time>2013-10-23T15:47:13Z</time>
      </trkpt>
      <trkpt lat="45.56298" lon="4.58429">
        <ele>579</ele>
        <time>2013-10-23T15:47:17Z</time>
      </trkpt>
      <trkpt lat="45.56299" lon="4.58424">
        <ele>580</ele>
        <time>2013-10-23T15:47:20Z</time>
      </trkpt>
      <trkpt lat="45.56301" lon="4.58419">
        <ele>581</ele>
        <time>2013-10-23T15:47:24Z</time>
      </trkpt>
      <trkpt lat="45.56302" lon="4.58414">
        <ele>581</ele>
        <time>2013-10-23T15:47:27Z</time>
      </trkpt>
      <trkpt lat="45.56303" lon="4.58409">
        <ele>581</ele>
        <time>2013-10-23T15:47:30Z</time>
      </trkpt>
      <trkpt lat="45.56302" lon="4.58403">
        <ele>581</ele>
        <time>2013-10-23T15:47:33Z</time>
      </trkpt>
      <trkpt lat="45.56301" lon="4.58398">
        <ele>581</ele>
        <time>2013-10-23T15:47:36Z</time>
      </trkpt>
      <trkpt lat="45.56299" lon="4.58393">
        <ele>582</ele>
        <time>2013-10-23T15:47:39Z</time>
      </trkpt>
      <trkpt lat="45.56296" lon="4.58387">
        <ele>582</ele>
        <time>2013-10-23T15:47:43Z</time>
      </trkpt>
      <trkpt lat="45.56293" lon="4.58382">
        <ele>582</ele>
        <time>2013-10-23T15:47:46Z</time>
      </trkpt>
      <trkpt lat="45.56291" lon="4.58378">
        <ele>583</ele>
        <time>2013-10-23T15:47:49Z</time>
      </trkpt>
      <trkpt lat="45.56288" lon="4.58372">
        <ele>583</ele>
        <time>2013-10-23T15:47:52Z</time>
      </trkpt>
      <trkpt lat="45.56285" lon="4.58365">
        <ele>584</ele>
        <time>2013-10-23T15:47:55Z</time>
      </trkpt>
      <trkpt lat="45.56281" lon="4.58358">
        <ele>584</ele>
        <time>2013-10-23T15:47:58Z</time>
      </trkpt>
      <trkpt lat="45.56276" lon="4.58351">
        <ele>584</ele>
        <time>2013-10-23T15:48:01Z</time>
      </trkpt>
      <trkpt lat="45.56272" lon="4.58341">
        <ele>585</ele>
        <time>2013-10-23T15:48:05Z</time>
      </trkpt>
      <trkpt lat="45.5627" lon="4.58332">
        <ele>585</ele>
        <time>2013-10-23T15:48:08Z</time>
      </trkpt>
      <trkpt lat="45.56268" lon="4.58323">
        <ele>585</ele>
        <time>2013-10-23T15:48:11Z</time>
      </trkpt>
      <trkpt lat="45.56265" lon="4.58314">
        <ele>585</ele>
        <time>2013-10-23T15:48:14Z</time>
      </trkpt>
      <trkpt lat="45.56263" lon="4.58306">
        <ele>585</ele>
        <time>2013-10-23T15:48:17Z</time>
      </trkpt>
      <trkpt lat="45.5626" lon="4.58297">
        <ele>585</ele>
        <time>2013-10-23T15:48:20Z</time>
      </trkpt>
      <trkpt lat="45.56257" lon="4.58288">
        <ele>585</ele>
        <time>2013-10-23T15:48:24Z</time>
      </trkpt>
      <trkpt lat="45.56256" lon="4.58275">
        <ele>585</ele>
        <time>2013-10-23T15:48:27Z</time>
      </trkpt>
      <trkpt lat="45.56253" lon="4.58265">
        <ele>585</ele>
        <time>2013-10-23T15:48:30Z</time>
      </trkpt>
      <trkpt lat="45.56251" lon="4.58253">
        <ele>585</ele>
        <time>2013-10-23T15:48:34Z</time>
      </trkpt>
      <trkpt lat="45.56249" lon="4.58244">
        <ele>585</ele>
        <time>2013-10-23T15:48:37Z</time>
      </trkpt>
      <trkpt lat="45.56247" lon="4.58236">
        <ele>585</ele>
        <time>2013-10-23T15:48:40Z</time>
      </trkpt>
      <trkpt lat="45.56244" lon="4.58227">
        <ele>585</ele>
        <time>2013-10-23T15:48:43Z</time>
      </trkpt>
      <trkpt lat="45.56239" lon="4.58216">
        <ele>585</ele>
        <time>2013-10-23T15:48:47Z</time>
      </trkpt>
      <trkpt lat="45.56235" lon="4.5821">
        <ele>586</ele>
        <time>2013-10-23T15:48:50Z</time>
      </trkpt>
      <trkpt lat="45.56229" lon="4.58201">
        <ele>587</ele>
        <time>2013-10-23T15:48:54Z</time>
      </trkpt>
      <trkpt lat="45.56224" lon="4.58193">
        <ele>588</ele>
        <time>2013-10-23T15:48:57Z</time>
      </trkpt>
      <trkpt lat="45.56219" lon="4.58184">
        <ele>589</ele>
        <time>2013-10-23T15:49:01Z</time>
      </trkpt>
      <trkpt lat="45.56215" lon="4.58177">
        <ele>589</ele>
        <time>2013-10-23T15:49:04Z</time>
      </trkpt>
      <trkpt lat="45.56212" lon="4.58169">
        <ele>589</ele>
        <time>2013-10-23T15:49:07Z</time>
      </trkpt>
      <trkpt lat="45.56208" lon="4.58161">
        <ele>589</ele>
        <time>2013-10-23T15:49:10Z</time>
      </trkpt>
      <trkpt lat="45.56204" lon="4.58152">
        <ele>589</ele>
        <time>2013-10-23T15:49:14Z</time>
      </trkpt>
      <trkpt lat="45.562" lon="4.58145">
        <ele>589</ele>
        <time>2013-10-23T15:49:17Z</time>
      </trkpt>
      <trkpt lat="45.56197" lon="4.58137">
        <ele>589</ele>
        <time>2013-10-23T15:49:20Z</time>
      </trkpt>
      <trkpt lat="45.56193" lon="4.5813">
        <ele>589</ele>
        <time>2013-10-23T15:49:23Z</time>
      </trkpt>
      <trkpt lat="45.56188" lon="4.58118">
        <ele>589</ele>
        <time>2013-10-23T15:49:27Z</time>
      </trkpt>
      <trkpt lat="45.56184" lon="4.58111">
        <ele>588</ele>
        <time>2013-10-23T15:49:30Z</time>
      </trkpt>
      <trkpt lat="45.56178" lon="4.58102">
        <ele>587</ele>
        <time>2013-10-23T15:49:34Z</time>
      </trkpt>
      <trkpt lat="45.56174" lon="4.58094">
        <ele>586</ele>
        <time>2013-10-23T15:49:37Z</time>
      </trkpt>
      <trkpt lat="45.56168" lon="4.58084">
        <ele>586</ele>
        <time>2013-10-23T15:49:41Z</time>
      </trkpt>
      <trkpt lat="45.56163" lon="4.58077">
        <ele>586</ele>
        <time>2013-10-23T15:49:44Z</time>
      </trkpt>
      <trkpt lat="45.56159" lon="4.5807">
        <ele>586</ele>
        <time>2013-10-23T15:49:47Z</time>
      </trkpt>
      <trkpt lat="45.56155" lon="4.58062">
        <ele>586</ele>
        <time>2013-10-23T15:49:50Z</time>
      </trkpt>
      <trkpt lat="45.5615" lon="4.58052">
        <ele>586</ele>
        <time>2013-10-23T15:49:54Z</time>
      </trkpt>
      <trkpt lat="45.56146" lon="4.58043">
        <ele>586</ele>
        <time>2013-10-23T15:49:57Z</time>
      </trkpt>
      <trkpt lat="45.56144" lon="4.58035">
        <ele>586</ele>
        <time>2013-10-23T15:50:00Z</time>
      </trkpt>
      <trkpt lat="45.56141" lon="4.58026">
        <ele>586</ele>
        <time>2013-10-23T15:50:03Z</time>
      </trkpt>
      <trkpt lat="45.56138" lon="4.58017">
        <ele>586</ele>
        <time>2013-10-23T15:50:06Z</time>
      </trkpt>
      <trkpt lat="45.56134" lon="4.58005">
        <ele>586</ele>
        <time>2013-10-23T15:50:10Z</time>
      </trkpt>
      <trkpt lat="45.56129" lon="4.57993">
        <ele>586</ele>
        <time>2013-10-23T15:50:14Z</time>
      </trkpt>
      <trkpt lat="45.56126" lon="4.57983">
        <ele>586</ele>
        <time>2013-10-23T15:50:17Z</time>
      </trkpt>
      <trkpt lat="45.56122" lon="4.57971">
        <ele>587</ele>
        <time>2013-10-23T15:50:21Z</time>
      </trkpt>
      <trkpt lat="45.56119" lon="4.57961">
        <ele>588</ele>
        <time>2013-10-23T15:50:24Z</time>
      </trkpt>
      <trkpt lat="45.56117" lon="4.57951">
        <ele>588</ele>
        <time>2013-10-23T15:50:27Z</time>
      </trkpt>
      <trkpt lat="45.56115" lon="4.57941">
        <ele>588</ele>
        <time>2013-10-23T15:50:30Z</time>
      </trkpt>
      <trkpt lat="45.56112" lon="4.57928">
        <ele>588</ele>
        <time>2013-10-23T15:50:34Z</time>
      </trkpt>
      <trkpt lat="45.56109" lon="4.57918">
        <ele>588</ele>
        <time>2013-10-23T15:50:37Z</time>
      </trkpt>
      <trkpt lat="45.56107" lon="4.57908">
        <ele>588</ele>
        <time>2013-10-23T15:50:40Z</time>
      </trkpt>
      <trkpt lat="45.56105" lon="4.57895">
        <ele>588</ele>
        <time>2013-10-23T15:50:44Z</time>
      </trkpt>
      <trkpt lat="45.56104" lon="4.57884">
        <ele>588</ele>
        <time>2013-10-23T15:50:47Z</time>
      </trkpt>
      <trkpt lat="45.56102" lon="4.57873">
        <ele>588</ele>
        <time>2013-10-23T15:50:50Z</time>
      </trkpt>
      <trkpt lat="45.561" lon="4.57863">
        <ele>588</ele>
        <time>2013-10-23T15:50:53Z</time>
      </trkpt>
      <trkpt lat="45.56099" lon="4.57848">
        <ele>588</ele>
        <time>2013-10-23T15:50:57Z</time>
      </trkpt>
      <trkpt lat="45.56098" lon="4.57837">
        <ele>588</ele>
        <time>2013-10-23T15:51:00Z</time>
      </trkpt>
      <trkpt lat="45.56098" lon="4.57826">
        <ele>588</ele>
        <time>2013-10-23T15:51:03Z</time>
      </trkpt>
      <trkpt lat="45.561" lon="4.57817">
        <ele>588</ele>
        <time>2013-10-23T15:51:06Z</time>
      </trkpt>
      <trkpt lat="45.561" lon="4.57804">
        <ele>589</ele>
        <time>2013-10-23T15:51:10Z</time>
      </trkpt>
      <trkpt lat="45.56101" lon="4.57795">
        <ele>589</ele>
        <time>2013-10-23T15:51:13Z</time>
      </trkpt>
      <trkpt lat="45.561" lon="4.57787">
        <ele>589</ele>
        <time>2013-10-23T15:51:16Z</time>
      </trkpt>
      <trkpt lat="45.561" lon="4.57776">
        <ele>589</ele>
        <time>2013-10-23T15:51:20Z</time>
      </trkpt>
      <trkpt lat="45.56099" lon="4.57765">
        <ele>589</ele>
        <time>2013-10-23T15:51:24Z</time>
      </trkpt>
      <trkpt lat="45.56098" lon="4.57758">
        <ele>589</ele>
        <time>2013-10-23T15:51:27Z</time>
      </trkpt>
      <trkpt lat="45.56096" lon="4.5775">
        <ele>589</ele>
        <time>2013-10-23T15:51:30Z</time>
      </trkpt>
      <trkpt lat="45.56094" lon="4.57737">
        <ele>589</ele>
        <time>2013-10-23T15:51:34Z</time>
      </trkpt>
      <trkpt lat="45.56092" lon="4.57728">
        <ele>589</ele>
        <time>2013-10-23T15:51:37Z</time>
      </trkpt>
      <trkpt lat="45.5609" lon="4.57719">
        <ele>589</ele>
        <time>2013-10-23T15:51:40Z</time>
      </trkpt>
      <trkpt lat="45.56088" lon="4.57706">
        <ele>589</ele>
        <time>2013-10-23T15:51:44Z</time>
      </trkpt>
      <trkpt lat="45.56087" lon="4.57696">
        <ele>589</ele>
        <time>2013-10-23T15:51:47Z</time>
      </trkpt>
      <trkpt lat="45.56086" lon="4.57684">
        <ele>589</ele>
        <time>2013-10-23T15:51:51Z</time>
      </trkpt>
      <trkpt lat="45.56086" lon="4.57675">
        <ele>589</ele>
        <time>2013-10-23T15:51:54Z</time>
      </trkpt>
      <trkpt lat="45.56084" lon="4.57662">
        <ele>589</ele>
        <time>2013-10-23T15:51:58Z</time>
      </trkpt>
      <trkpt lat="45.56084" lon="4.57654">
        <ele>588</ele>
        <time>2013-10-23T15:52:01Z</time>
      </trkpt>
      <trkpt lat="45.56083" lon="4.57643">
        <ele>585</ele>
        <time>2013-10-23T15:52:05Z</time>
      </trkpt>
      <trkpt lat="45.5608" lon="4.57634">
        <ele>584</ele>
        <time>2013-10-23T15:52:08Z</time>
      </trkpt>
      <trkpt lat="45.56078" lon="4.57623">
        <ele>582</ele>
        <time>2013-10-23T15:52:11Z</time>
      </trkpt>
      <trkpt lat="45.56075" lon="4.57614">
        <ele>581</ele>
        <time>2013-10-23T15:52:14Z</time>
      </trkpt>
      <trkpt lat="45.56072" lon="4.576">
        <ele>580</ele>
        <time>2013-10-23T15:52:18Z</time>
      </trkpt>
      <trkpt lat="45.56071" lon="4.57587">
        <ele>579</ele>
        <time>2013-10-23T15:52:22Z</time>
      </trkpt>
      <trkpt lat="45.5607" lon="4.57575">
        <ele>578</ele>
        <time>2013-10-23T15:52:25Z</time>
      </trkpt>
      <trkpt lat="45.56069" lon="4.57565">
        <ele>577</ele>
        <time>2013-10-23T15:52:28Z</time>
      </trkpt>
      <trkpt lat="45.56067" lon="4.57552">
        <ele>577</ele>
        <time>2013-10-23T15:52:31Z</time>
      </trkpt>
      <trkpt lat="45.56065" lon="4.57541">
        <ele>576</ele>
        <time>2013-10-23T15:52:34Z</time>
      </trkpt>
      <trkpt lat="45.56063" lon="4.57529">
        <ele>576</ele>
        <time>2013-10-23T15:52:37Z</time>
      </trkpt>
      <trkpt lat="45.56061" lon="4.57518">
        <ele>576</ele>
        <time>2013-10-23T15:52:40Z</time>
      </trkpt>
      <trkpt lat="45.56059" lon="4.57504">
        <ele>576</ele>
        <time>2013-10-23T15:52:44Z</time>
      </trkpt>
      <trkpt lat="45.56059" lon="4.57493">
        <ele>576</ele>
        <time>2013-10-23T15:52:47Z</time>
      </trkpt>
      <trkpt lat="45.56058" lon="4.57483">
        <ele>576</ele>
        <time>2013-10-23T15:52:50Z</time>
      </trkpt>
      <trkpt lat="45.56058" lon="4.57468">
        <ele>576</ele>
        <time>2013-10-23T15:52:54Z</time>
      </trkpt>
      <trkpt lat="45.56057" lon="4.57452">
        <ele>576</ele>
        <time>2013-10-23T15:52:58Z</time>
      </trkpt>
      <trkpt lat="45.56058" lon="4.5744">
        <ele>576</ele>
        <time>2013-10-23T15:53:01Z</time>
      </trkpt>
      <trkpt lat="45.56059" lon="4.57429">
        <ele>576</ele>
        <time>2013-10-23T15:53:04Z</time>
      </trkpt>
      <trkpt lat="45.56061" lon="4.57414">
        <ele>576</ele>
        <time>2013-10-23T15:53:08Z</time>
      </trkpt>
      <trkpt lat="45.56063" lon="4.57404">
        <ele>576</ele>
        <time>2013-10-23T15:53:11Z</time>
      </trkpt>
      <trkpt lat="45.56064" lon="4.57393">
        <ele>576</ele>
        <time>2013-10-23T15:53:14Z</time>
      </trkpt>
      <trkpt lat="45.56065" lon="4.57383">
        <ele>576</ele>
        <time>2013-10-23T15:53:17Z</time>
      </trkpt>
      <trkpt lat="45.56066" lon="4.57371">
        <ele>576</ele>
        <time>2013-10-23T15:53:20Z</time>
      </trkpt>
      <trkpt lat="45.56067" lon="4.57356">
        <ele>576</ele>
        <time>2013-10-23T15:53:24Z</time>
      </trkpt>
      <trkpt lat="45.56068" lon="4.57345">
        <ele>576</ele>
        <time>2013-10-23T15:53:27Z</time>
      </trkpt>
      <trkpt lat="45.56069" lon="4.57335">
        <ele>577</ele>
        <time>2013-10-23T15:53:30Z</time>
      </trkpt>
      <trkpt lat="45.56071" lon="4.57325">
        <ele>577</ele>
        <time>2013-10-23T15:53:33Z</time>
      </trkpt>
      <trkpt lat="45.56074" lon="4.57311">
        <ele>577</ele>
        <time>2013-10-23T15:53:37Z</time>
      </trkpt>
      <trkpt lat="45.56077" lon="4.57298">
        <ele>577</ele>
        <time>2013-10-23T15:53:41Z</time>
      </trkpt>
      <trkpt lat="45.56079" lon="4.57288">
        <ele>577</ele>
        <time>2013-10-23T15:53:44Z</time>
      </trkpt>
      <trkpt lat="45.56082" lon="4.57278">
        <ele>577</ele>
        <time>2013-10-23T15:53:47Z</time>
      </trkpt>
      <trkpt lat="45.56086" lon="4.5727">
        <ele>577</ele>
        <time>2013-10-23T15:53:50Z</time>
      </trkpt>
      <trkpt lat="45.56092" lon="4.57259">
        <ele>577</ele>
        <time>2013-10-23T15:53:54Z</time>
      </trkpt>
      <trkpt lat="45.56097" lon="4.57252">
        <ele>577</ele>
        <time>2013-10-23T15:53:57Z</time>
      </trkpt>
      <trkpt lat="45.56104" lon="4.57243">
        <ele>577</ele>
        <time>2013-10-23T15:54:01Z</time>
      </trkpt>
      <trkpt lat="45.5611" lon="4.57234">
        <ele>578</ele>
        <time>2013-10-23T15:54:05Z</time>
      </trkpt>
      <trkpt lat="45.56116" lon="4.57228">
        <ele>578</ele>
        <time>2013-10-23T15:54:08Z</time>
      </trkpt>
      <trkpt lat="45.56122" lon="4.57219">
        <ele>579</ele>
        <time>2013-10-23T15:54:12Z</time>
      </trkpt>
      <trkpt lat="45.56126" lon="4.57211">
        <ele>579</ele>
        <time>2013-10-23T15:54:15Z</time>
      </trkpt>
      <trkpt lat="45.56131" lon="4.57199">
        <ele>579</ele>
        <time>2013-10-23T15:54:19Z</time>
      </trkpt>
      <trkpt lat="45.56133" lon="4.5719">
        <ele>579</ele>
        <time>2013-10-23T15:54:22Z</time>
      </trkpt>
      <trkpt lat="45.56135" lon="4.5718">
        <ele>579</ele>
        <time>2013-10-23T15:54:25Z</time>
      </trkpt>
      <trkpt lat="45.56136" lon="4.57169">
        <ele>579</ele>
        <time>2013-10-23T15:54:28Z</time>
      </trkpt>
      <trkpt lat="45.56139" lon="4.57155">
        <ele>579</ele>
        <time>2013-10-23T15:54:32Z</time>
      </trkpt>
      <trkpt lat="45.56141" lon="4.57141">
        <ele>579</ele>
        <time>2013-10-23T15:54:36Z</time>
      </trkpt>
      <trkpt lat="45.56142" lon="4.57131">
        <ele>579</ele>
        <time>2013-10-23T15:54:39Z</time>
      </trkpt>
      <trkpt lat="45.56144" lon="4.57121">
        <ele>579</ele>
        <time>2013-10-23T15:54:42Z</time>
      </trkpt>
      <trkpt lat="45.56146" lon="4.57111">
        <ele>579</ele>
        <time>2013-10-23T15:54:45Z</time>
      </trkpt>
      <trkpt lat="45.56148" lon="4.571">
        <ele>579</ele>
        <time>2013-10-23T15:54:48Z</time>
      </trkpt>
      <trkpt lat="45.56149" lon="4.5709">
        <ele>579</ele>
        <time>2013-10-23T15:54:51Z</time>
      </trkpt>
      <trkpt lat="45.56151" lon="4.57079">
        <ele>579</ele>
        <time>2013-10-23T15:54:54Z</time>
      </trkpt>
      <trkpt lat="45.56152" lon="4.57065">
        <ele>579</ele>
        <time>2013-10-23T15:54:58Z</time>
      </trkpt>
      <trkpt lat="45.56152" lon="4.57054">
        <ele>579</ele>
        <time>2013-10-23T15:55:01Z</time>
      </trkpt>
      <trkpt lat="45.56151" lon="4.57043">
        <ele>579</ele>
        <time>2013-10-23T15:55:04Z</time>
      </trkpt>
      <trkpt lat="45.5615" lon="4.57029">
        <ele>579</ele>
        <time>2013-10-23T15:55:08Z</time>
      </trkpt>
      <trkpt lat="45.56149" lon="4.57019">
        <ele>579</ele>
        <time>2013-10-23T15:55:11Z</time>
      </trkpt>
      <trkpt lat="45.56147" lon="4.57008">
        <ele>579</ele>
        <time>2013-10-23T15:55:14Z</time>
      </trkpt>
      <trkpt lat="45.56147" lon="4.56997">
        <ele>579</ele>
        <time>2013-10-23T15:55:17Z</time>
      </trkpt>
      <trkpt lat="45.56145" lon="4.56987">
        <ele>579</ele>
        <time>2013-10-23T15:55:20Z</time>
      </trkpt>
      <trkpt lat="45.56143" lon="4.56974">
        <ele>578</ele>
        <time>2013-10-23T15:55:24Z</time>
      </trkpt>
      <trkpt lat="45.56141" lon="4.56964">
        <ele>577</ele>
        <time>2013-10-23T15:55:27Z</time>
      </trkpt>
      <trkpt lat="45.56139" lon="4.56952">
        <ele>577</ele>
        <time>2013-10-23T15:55:31Z</time>
      </trkpt>
      <trkpt lat="45.56142" lon="4.56945">
        <ele>576</ele>
        <time>2013-10-23T15:55:34Z</time>
      </trkpt>
      <trkpt lat="45.56147" lon="4.56948">
        <ele>575</ele>
        <time>2013-10-23T15:55:37Z</time>
      </trkpt>
      <trkpt lat="45.56152" lon="4.56955">
        <ele>574</ele>
        <time>2013-10-23T15:55:40Z</time>
      </trkpt>
      <trkpt lat="45.56156" lon="4.56962">
        <ele>573</ele>
        <time>2013-10-23T15:55:43Z</time>
      </trkpt>
      <trkpt lat="45.56162" lon="4.56972">
        <ele>572</ele>
        <time>2013-10-23T15:55:47Z</time>
      </trkpt>
      <trkpt lat="45.56165" lon="4.56979">
        <ele>571</ele>
        <time>2013-10-23T15:55:50Z</time>
      </trkpt>
      <trkpt lat="45.56169" lon="4.56987">
        <ele>570</ele>
        <time>2013-10-23T15:55:53Z</time>
      </trkpt>
      <trkpt lat="45.56173" lon="4.56998">
        <ele>567</ele>
        <time>2013-10-23T15:55:57Z</time>
      </trkpt>
      <trkpt lat="45.56176" lon="4.57006">
        <ele>566</ele>
        <time>2013-10-23T15:56:00Z</time>
      </trkpt>
      <trkpt lat="45.56181" lon="4.57017">
        <ele>564</ele>
        <time>2013-10-23T15:56:04Z</time>
      </trkpt>
      <trkpt lat="45.56184" lon="4.57024">
        <ele>563</ele>
        <time>2013-10-23T15:56:07Z</time>
      </trkpt>
      <trkpt lat="45.56186" lon="4.57028">
        <ele>561</ele>
        <time>2013-10-23T15:56:10Z</time>
      </trkpt>
      <trkpt lat="45.56191" lon="4.57036">
        <ele>560</ele>
        <time>2013-10-23T15:56:13Z</time>
      </trkpt>
      <trkpt lat="45.56197" lon="4.57051">
        <ele>560</ele>
        <time>2013-10-23T15:56:17Z</time>
      </trkpt>
      <trkpt lat="45.56201" lon="4.57063">
        <ele>559</ele>
        <time>2013-10-23T15:56:21Z</time>
      </trkpt>
      <trkpt lat="45.56207" lon="4.57075">
        <ele>557</ele>
        <time>2013-10-23T15:56:25Z</time>
      </trkpt>
      <trkpt lat="45.56215" lon="4.57076">
        <ele>555</ele>
        <time>2013-10-23T15:56:29Z</time>
      </trkpt>
      <trkpt lat="45.56218" lon="4.57069">
        <ele>555</ele>
        <time>2013-10-23T15:56:32Z</time>
      </trkpt>
      <trkpt lat="45.5622" lon="4.57063">
        <ele>555</ele>
        <time>2013-10-23T15:56:35Z</time>
      </trkpt>
      <trkpt lat="45.56221" lon="4.57056">
        <ele>554</ele>
        <time>2013-10-23T15:56:38Z</time>
      </trkpt>
      <trkpt lat="45.56224" lon="4.57045">
        <ele>552</ele>
        <time>2013-10-23T15:56:42Z</time>
      </trkpt>
      <trkpt lat="45.56229" lon="4.57037">
        <ele>551</ele>
        <time>2013-10-23T15:56:45Z</time>
      </trkpt>
      <trkpt lat="45.56232" lon="4.57026">
        <ele>550</ele>
        <time>2013-10-23T15:56:48Z</time>
      </trkpt>
      <trkpt lat="45.56235" lon="4.57016">
        <ele>549</ele>
        <time>2013-10-23T15:56:51Z</time>
      </trkpt>
      <trkpt lat="45.5624" lon="4.57004">
        <ele>548</ele>
        <time>2013-10-23T15:56:55Z</time>
      </trkpt>
      <trkpt lat="45.56243" lon="4.56995">
        <ele>548</ele>
        <time>2013-10-23T15:56:58Z</time>
      </trkpt>
      <trkpt lat="45.56247" lon="4.56987">
        <ele>546</ele>
        <time>2013-10-23T15:57:01Z</time>
      </trkpt>
      <trkpt lat="45.56254" lon="4.56975">
        <ele>546</ele>
        <time>2013-10-23T15:57:05Z</time>
      </trkpt>
      <trkpt lat="45.5626" lon="4.56968">
        <ele>545</ele>
        <time>2013-10-23T15:57:08Z</time>
      </trkpt>
      <trkpt lat="45.56265" lon="4.5696">
        <ele>544</ele>
        <time>2013-10-23T15:57:11Z</time>
      </trkpt>
      <trkpt lat="45.5627" lon="4.5695">
        <ele>544</ele>
        <time>2013-10-23T15:57:14Z</time>
      </trkpt>
      <trkpt lat="45.56276" lon="4.56938">
        <ele>544</ele>
        <time>2013-10-23T15:57:18Z</time>
      </trkpt>
      <trkpt lat="45.56279" lon="4.56929">
        <ele>544</ele>
        <time>2013-10-23T15:57:21Z</time>
      </trkpt>
      <trkpt lat="45.56284" lon="4.56916">
        <ele>544</ele>
        <time>2013-10-23T15:57:25Z</time>
      </trkpt>
      <trkpt lat="45.56287" lon="4.56903">
        <ele>543</ele>
        <time>2013-10-23T15:57:29Z</time>
      </trkpt>
      <trkpt lat="45.56289" lon="4.56893">
        <ele>541</ele>
        <time>2013-10-23T15:57:32Z</time>
      </trkpt>
      <trkpt lat="45.56291" lon="4.56882">
        <ele>540</ele>
        <time>2013-10-23T15:57:35Z</time>
      </trkpt>
      <trkpt lat="45.56291" lon="4.56874">
        <ele>540</ele>
        <time>2013-10-23T15:57:38Z</time>
      </trkpt>
      <trkpt lat="45.56291" lon="4.56864">
        <ele>539</ele>
        <time>2013-10-23T15:57:41Z</time>
      </trkpt>
      <trkpt lat="45.5629" lon="4.5685">
        <ele>536</ele>
        <time>2013-10-23T15:57:45Z</time>
      </trkpt>
      <trkpt lat="45.56288" lon="4.56834">
        <ele>532</ele>
        <time>2013-10-23T15:57:49Z</time>
      </trkpt>
      <trkpt lat="45.56287" lon="4.5682">
        <ele>532</ele>
        <time>2013-10-23T15:57:53Z</time>
      </trkpt>
      <trkpt lat="45.56284" lon="4.56811">
        <ele>531</ele>
        <time>2013-10-23T15:57:56Z</time>
      </trkpt>
      <trkpt lat="45.56284" lon="4.568">
        <ele>530</ele>
        <time>2013-10-23T15:58:00Z</time>
      </trkpt>
      <trkpt lat="45.56283" lon="4.5679">
        <ele>530</ele>
        <time>2013-10-23T15:58:03Z</time>
      </trkpt>
      <trkpt lat="45.56284" lon="4.5678">
        <ele>530</ele>
        <time>2013-10-23T15:58:07Z</time>
      </trkpt>
      <trkpt lat="45.56284" lon="4.5677">
        <ele>530</ele>
        <time>2013-10-23T15:58:10Z</time>
      </trkpt>
      <trkpt lat="45.56282" lon="4.56751">
        <ele>528</ele>
        <time>2013-10-23T15:58:14Z</time>
      </trkpt>
      <trkpt lat="45.56281" lon="4.56736">
        <ele>526</ele>
        <time>2013-10-23T15:58:17Z</time>
      </trkpt>
      <trkpt lat="45.56282" lon="4.56725">
        <ele>526</ele>
        <time>2013-10-23T15:58:20Z</time>
      </trkpt>
      <trkpt lat="45.56284" lon="4.56714">
        <ele>526</ele>
        <time>2013-10-23T15:58:24Z</time>
      </trkpt>
      <trkpt lat="45.56287" lon="4.56705">
        <ele>526</ele>
        <time>2013-10-23T15:58:27Z</time>
      </trkpt>
      <trkpt lat="45.56287" lon="4.56698">
        <ele>526</ele>
        <time>2013-10-23T15:58:30Z</time>
      </trkpt>
      <trkpt lat="45.56288" lon="4.56691">
        <ele>525</ele>
        <time>2013-10-23T15:58:33Z</time>
      </trkpt>
      <trkpt lat="45.56289" lon="4.56679">
        <ele>525</ele>
        <time>2013-10-23T15:58:36Z</time>
      </trkpt>
      <trkpt lat="45.56293" lon="4.56665">
        <ele>526</ele>
        <time>2013-10-23T15:58:40Z</time>
      </trkpt>
      <trkpt lat="45.56293" lon="4.56653">
        <ele>527</ele>
        <time>2013-10-23T15:58:43Z</time>
      </trkpt>
      <trkpt lat="45.56295" lon="4.56642">
        <ele>529</ele>
        <time>2013-10-23T15:58:46Z</time>
      </trkpt>
      <trkpt lat="45.56299" lon="4.56633">
        <ele>529</ele>
        <time>2013-10-23T15:58:49Z</time>
      </trkpt>
      <trkpt lat="45.56302" lon="4.56623">
        <ele>529</ele>
        <time>2013-10-23T15:58:52Z</time>
      </trkpt>
      <trkpt lat="45.56304" lon="4.56614">
        <ele>529</ele>
        <time>2013-10-23T15:58:55Z</time>
      </trkpt>
      <trkpt lat="45.56306" lon="4.56606">
        <ele>529</ele>
        <time>2013-10-23T15:58:58Z</time>
      </trkpt>
      <trkpt lat="45.56311" lon="4.56597">
        <ele>529</ele>
        <time>2013-10-23T15:59:01Z</time>
      </trkpt>
      <trkpt lat="45.56316" lon="4.5659">
        <ele>529</ele>
        <time>2013-10-23T15:59:04Z</time>
      </trkpt>
      <trkpt lat="45.56322" lon="4.56581">
        <ele>528</ele>
        <time>2013-10-23T15:59:08Z</time>
      </trkpt>
      <trkpt lat="45.56324" lon="4.56574">
        <ele>527</ele>
        <time>2013-10-23T15:59:11Z</time>
      </trkpt>
      <trkpt lat="45.56327" lon="4.56568">
        <ele>525</ele>
        <time>2013-10-23T15:59:14Z</time>
      </trkpt>
      <trkpt lat="45.56331" lon="4.5656">
        <ele>522</ele>
        <time>2013-10-23T15:59:18Z</time>
      </trkpt>
      <trkpt lat="45.56337" lon="4.56554">
        <ele>520</ele>
        <time>2013-10-23T15:59:21Z</time>
      </trkpt>
      <trkpt lat="45.56342" lon="4.56547">
        <ele>518</ele>
        <time>2013-10-23T15:59:24Z</time>
      </trkpt>
      <trkpt lat="45.56346" lon="4.5654">
        <ele>516</ele>
        <time>2013-10-23T15:59:27Z</time>
      </trkpt>
      <trkpt lat="45.5635" lon="4.56533">
        <ele>515</ele>
        <time>2013-10-23T15:59:30Z</time>
      </trkpt>
      <trkpt lat="45.56354" lon="4.56525">
        <ele>513</ele>
        <time>2013-10-23T15:59:33Z</time>
      </trkpt>
      <trkpt lat="45.56355" lon="4.56512">
        <ele>512</ele>
        <time>2013-10-23T15:59:37Z</time>
      </trkpt>
      <trkpt lat="45.56358" lon="4.56498">
        <ele>512</ele>
        <time>2013-10-23T15:59:41Z</time>
      </trkpt>
      <trkpt lat="45.56361" lon="4.56481">
        <ele>512</ele>
        <time>2013-10-23T15:59:45Z</time>
      </trkpt>
      <trkpt lat="45.56362" lon="4.56469">
        <ele>512</ele>
        <time>2013-10-23T15:59:48Z</time>
      </trkpt>
      <trkpt lat="45.56365" lon="4.56455">
        <ele>512</ele>
        <time>2013-10-23T15:59:52Z</time>
      </trkpt>
      <trkpt lat="45.56367" lon="4.56442">
        <ele>512</ele>
        <time>2013-10-23T15:59:55Z</time>
      </trkpt>
      <trkpt lat="45.56375" lon="4.56436">
        <ele>512</ele>
        <time>2013-10-23T15:59:58Z</time>
      </trkpt>
      <trkpt lat="45.56378" lon="4.56428">
        <ele>514</ele>
        <time>2013-10-23T16:00:01Z</time>
      </trkpt>
      <trkpt lat="45.56381" lon="4.56414">
        <ele>516</ele>
        <time>2013-10-23T16:00:05Z</time>
      </trkpt>
      <trkpt lat="45.56381" lon="4.56401">
        <ele>518</ele>
        <time>2013-10-23T16:00:08Z</time>
      </trkpt>
      <trkpt lat="45.56384" lon="4.56391">
        <ele>519</ele>
        <time>2013-10-23T16:00:12Z</time>
      </trkpt>
      <trkpt lat="45.56385" lon="4.56384">
        <ele>519</ele>
        <time>2013-10-23T16:00:15Z</time>
      </trkpt>
      <trkpt lat="45.56389" lon="4.56378">
        <ele>519</ele>
        <time>2013-10-23T16:00:19Z</time>
      </trkpt>
      <trkpt lat="45.56395" lon="4.56379">
        <ele>519</ele>
        <time>2013-10-23T16:00:22Z</time>
      </trkpt>
      <trkpt lat="45.56397" lon="4.56385">
        <ele>518</ele>
        <time>2013-10-23T16:00:26Z</time>
      </trkpt>
      <trkpt lat="45.56399" lon="4.56393">
        <ele>517</ele>
        <time>2013-10-23T16:00:29Z</time>
      </trkpt>
      <trkpt lat="45.564" lon="4.56399">
        <ele>515</ele>
        <time>2013-10-23T16:00:32Z</time>
      </trkpt>
      <trkpt lat="45.56399" lon="4.56403">
        <ele>514</ele>
        <time>2013-10-23T16:00:35Z</time>
      </trkpt>
      <trkpt lat="45.56396" lon="4.56403">
        <ele>514</ele>
        <time>2013-10-23T16:00:40Z</time>
      </trkpt>
      <trkpt lat="45.56396" lon="4.56405">
        <ele>514</ele>
        <time>2013-10-23T16:00:47Z</time>
      </trkpt>
      <trkpt lat="45.56395" lon="4.56406">
        <ele>520</ele>
        <time>2013-10-23T16:00:57Z</time>
      </trkpt>
      <trkpt lat="45.56394" lon="4.56408">
        <ele>526</ele>
        <time>2013-10-23T16:01:06Z</time>
      </trkpt>
      <trkpt lat="45.56393" lon="4.56408">
        <ele>526</ele>
        <time>2013-10-23T16:01:09Z</time>
      </trkpt>
      <trkpt lat="45.56392" lon="4.56412">
        <ele>531</ele>
        <time>2013-10-23T16:01:15Z</time>
      </trkpt>
      <trkpt lat="45.56394" lon="4.5641">
        <ele>536</ele>
        <time>2013-10-23T16:01:21Z</time>
      </trkpt>
      <trkpt lat="45.56399" lon="4.5641">
        <ele>535</ele>
        <time>2013-10-23T16:01:24Z</time>
      </trkpt>
      <trkpt lat="45.56403" lon="4.56412">
        <ele>532</ele>
        <time>2013-10-23T16:01:27Z</time>
      </trkpt>
      <trkpt lat="45.56408" lon="4.56414">
        <ele>529</ele>
        <time>2013-10-23T16:01:30Z</time>
      </trkpt>
      <trkpt lat="45.56412" lon="4.56417">
        <ele>524</ele>
        <time>2013-10-23T16:01:33Z</time>
      </trkpt>
      <trkpt lat="45.56415" lon="4.56419">
        <ele>518</ele>
        <time>2013-10-23T16:01:38Z</time>
      </trkpt>
      <trkpt lat="45.56418" lon="4.5642">
        <ele>514</ele>
        <time>2013-10-23T16:01:42Z</time>
      </trkpt>
      <trkpt lat="45.56422" lon="4.56422">
        <ele>510</ele>
        <time>2013-10-23T16:01:46Z</time>
      </trkpt>
      <trkpt lat="45.56428" lon="4.56421">
        <ele>507</ele>
        <time>2013-10-23T16:01:50Z</time>
      </trkpt>
      <trkpt lat="45.56434" lon="4.56417">
        <ele>507</ele>
        <time>2013-10-23T16:01:54Z</time>
      </trkpt>
      <trkpt lat="45.56437" lon="4.56416">
        <ele>507</ele>
        <time>2013-10-23T16:01:58Z</time>
      </trkpt>
      <trkpt lat="45.56444" lon="4.56414">
        <ele>507</ele>
        <time>2013-10-23T16:02:02Z</time>
      </trkpt>
      <trkpt lat="45.5645" lon="4.56409">
        <ele>507</ele>
        <time>2013-10-23T16:02:06Z</time>
      </trkpt>
      <trkpt lat="45.56455" lon="4.56401">
        <ele>507</ele>
        <time>2013-10-23T16:02:09Z</time>
      </trkpt>
      <trkpt lat="45.56461" lon="4.56397">
        <ele>507</ele>
        <time>2013-10-23T16:02:12Z</time>
      </trkpt>
      <trkpt lat="45.56466" lon="4.56391">
        <ele>507</ele>
        <time>2013-10-23T16:02:15Z</time>
      </trkpt>
      <trkpt lat="45.56474" lon="4.56384">
        <ele>507</ele>
        <time>2013-10-23T16:02:18Z</time>
      </trkpt>
      <trkpt lat="45.56483" lon="4.56379">
        <ele>507</ele>
        <time>2013-10-23T16:02:22Z</time>
      </trkpt>
      <trkpt lat="45.5649" lon="4.56375">
        <ele>507</ele>
        <time>2013-10-23T16:02:25Z</time>
      </trkpt>
      <trkpt lat="45.56496" lon="4.56371">
        <ele>507</ele>
        <time>2013-10-23T16:02:28Z</time>
      </trkpt>
      <trkpt lat="45.56503" lon="4.56371">
        <ele>507</ele>
        <time>2013-10-23T16:02:32Z</time>
      </trkpt>
      <trkpt lat="45.56506" lon="4.56372">
        <ele>508</ele>
        <time>2013-10-23T16:02:36Z</time>
      </trkpt>
      <trkpt lat="45.5651" lon="4.56372">
        <ele>509</ele>
        <time>2013-10-23T16:02:40Z</time>
      </trkpt>
      <trkpt lat="45.56512" lon="4.56369">
        <ele>511</ele>
        <time>2013-10-23T16:02:44Z</time>
      </trkpt>
      <trkpt lat="45.56516" lon="4.56366">
        <ele>511</ele>
        <time>2013-10-23T16:02:48Z</time>
      </trkpt>
      <trkpt lat="45.56519" lon="4.56364">
        <ele>511</ele>
        <time>2013-10-23T16:02:52Z</time>
      </trkpt>
      <trkpt lat="45.56522" lon="4.56363">
        <ele>511</ele>
        <time>2013-10-23T16:02:56Z</time>
      </trkpt>
      <trkpt lat="45.56526" lon="4.56359">
        <ele>511</ele>
        <time>2013-10-23T16:03:01Z</time>
      </trkpt>
      <trkpt lat="45.56529" lon="4.56357">
        <ele>511</ele>
        <time>2013-10-23T16:03:05Z</time>
      </trkpt>
      <trkpt lat="45.56532" lon="4.56357">
        <ele>511</ele>
        <time>2013-10-23T16:03:08Z</time>
      </trkpt>
      <trkpt lat="45.56535" lon="4.56359">
        <ele>511</ele>
        <time>2013-10-23T16:03:12Z</time>
      </trkpt>
      <trkpt lat="45.56538" lon="4.5636">
        <ele>511</ele>
        <time>2013-10-23T16:03:16Z</time>
      </trkpt>
      <trkpt lat="45.56541" lon="4.5636">
        <ele>513</ele>
        <time>2013-10-23T16:03:20Z</time>
      </trkpt>
      <trkpt lat="45.56543" lon="4.56363">
        <ele>515</ele>
        <time>2013-10-23T16:03:24Z</time>
      </trkpt>
      <trkpt lat="45.56547" lon="4.56366">
        <ele>516</ele>
        <time>2013-10-23T16:03:28Z</time>
      </trkpt>
      <trkpt lat="45.56551" lon="4.56368">
        <ele>516</ele>
        <time>2013-10-23T16:03:32Z</time>
      </trkpt>
      <trkpt lat="45.56554" lon="4.56367">
        <ele>517</ele>
        <time>2013-10-23T16:03:36Z</time>
      </trkpt>
      <trkpt lat="45.56557" lon="4.56362">
        <ele>518</ele>
        <time>2013-10-23T16:03:40Z</time>
      </trkpt>
      <trkpt lat="45.5656" lon="4.56357">
        <ele>518</ele>
        <time>2013-10-23T16:03:43Z</time>
      </trkpt>
      <trkpt lat="45.56564" lon="4.56352">
        <ele>518</ele>
        <time>2013-10-23T16:03:46Z</time>
      </trkpt>
      <trkpt lat="45.56567" lon="4.56352">
        <ele>518</ele>
        <time>2013-10-23T16:03:49Z</time>
      </trkpt>
      <trkpt lat="45.5657" lon="4.56353">
        <ele>518</ele>
        <time>2013-10-23T16:03:52Z</time>
      </trkpt>
      <trkpt lat="45.56572" lon="4.56353">
        <ele>519</ele>
        <time>2013-10-23T16:03:55Z</time>
      </trkpt>
      <trkpt lat="45.56577" lon="4.56353">
        <ele>520</ele>
        <time>2013-10-23T16:03:58Z</time>
      </trkpt>
      <trkpt lat="45.56581" lon="4.56352">
        <ele>521</ele>
        <time>2013-10-23T16:04:01Z</time>
      </trkpt>
      <trkpt lat="45.56585" lon="4.56351">
        <ele>522</ele>
        <time>2013-10-23T16:04:04Z</time>
      </trkpt>
      <trkpt lat="45.56589" lon="4.5635">
        <ele>522</ele>
        <time>2013-10-23T16:04:07Z</time>
      </trkpt>
      <trkpt lat="45.56595" lon="4.56347">
        <ele>524</ele>
        <time>2013-10-23T16:04:12Z</time>
      </trkpt>
      <trkpt lat="45.566" lon="4.56344">
        <ele>525</ele>
        <time>2013-10-23T16:04:16Z</time>
      </trkpt>
      <trkpt lat="45.56606" lon="4.56341">
        <ele>526</ele>
        <time>2013-10-23T16:04:21Z</time>
      </trkpt>
      <trkpt lat="45.56609" lon="4.56341">
        <ele>527</ele>
        <time>2013-10-23T16:04:24Z</time>
      </trkpt>
      <trkpt lat="45.56613" lon="4.56339">
        <ele>527</ele>
        <time>2013-10-23T16:04:27Z</time>
      </trkpt>
      <trkpt lat="45.56617" lon="4.56338">
        <ele>528</ele>
        <time>2013-10-23T16:04:30Z</time>
      </trkpt>
      <trkpt lat="45.5662" lon="4.56337">
        <ele>529</ele>
        <time>2013-10-23T16:04:33Z</time>
      </trkpt>
      <trkpt lat="45.56624" lon="4.56335">
        <ele>529</ele>
        <time>2013-10-23T16:04:36Z</time>
      </trkpt>
      <trkpt lat="45.56628" lon="4.56334">
        <ele>529</ele>
        <time>2013-10-23T16:04:39Z</time>
      </trkpt>
      <trkpt lat="45.56632" lon="4.56333">
        <ele>530</ele>
        <time>2013-10-23T16:04:42Z</time>
      </trkpt>
      <trkpt lat="45.56636" lon="4.56333">
        <ele>530</ele>
        <time>2013-10-23T16:04:45Z</time>
      </trkpt>
      <trkpt lat="45.56642" lon="4.56331">
        <ele>530</ele>
        <time>2013-10-23T16:04:48Z</time>
      </trkpt>
      <trkpt lat="45.56647" lon="4.56331">
        <ele>531</ele>
        <time>2013-10-23T16:04:51Z</time>
      </trkpt>
      <trkpt lat="45.56653" lon="4.56331">
        <ele>531</ele>
        <time>2013-10-23T16:04:54Z</time>
      </trkpt>
      <trkpt lat="45.56659" lon="4.5633">
        <ele>532</ele>
        <time>2013-10-23T16:04:57Z</time>
      </trkpt>
      <trkpt lat="45.56665" lon="4.56328">
        <ele>532</ele>
        <time>2013-10-23T16:05:00Z</time>
      </trkpt>
      <trkpt lat="45.56673" lon="4.56326">
        <ele>533</ele>
        <time>2013-10-23T16:05:04Z</time>
      </trkpt>
      <trkpt lat="45.56678" lon="4.56324">
        <ele>533</ele>
        <time>2013-10-23T16:05:07Z</time>
      </trkpt>
      <trkpt lat="45.56684" lon="4.56322">
        <ele>534</ele>
        <time>2013-10-23T16:05:10Z</time>
      </trkpt>
      <trkpt lat="45.56689" lon="4.56321">
        <ele>534</ele>
        <time>2013-10-23T16:05:13Z</time>
      </trkpt>
      <trkpt lat="45.56695" lon="4.5632">
        <ele>535</ele>
        <time>2013-10-23T16:05:16Z</time>
      </trkpt>
      <trkpt lat="45.56701" lon="4.5632">
        <ele>536</ele>
        <time>2013-10-23T16:05:19Z</time>
      </trkpt>
      <trkpt lat="45.56707" lon="4.56319">
        <ele>537</ele>
        <time>2013-10-23T16:05:22Z</time>
      </trkpt>
      <trkpt lat="45.56712" lon="4.56318">
        <ele>538</ele>
        <time>2013-10-23T16:05:25Z</time>
      </trkpt>
      <trkpt lat="45.56717" lon="4.56317">
        <ele>539</ele>
        <time>2013-10-23T16:05:28Z</time>
      </trkpt>
      <trkpt lat="45.56722" lon="4.56316">
        <ele>540</ele>
        <time>2013-10-23T16:05:31Z</time>
      </trkpt>
      <trkpt lat="45.56728" lon="4.56315">
        <ele>541</ele>
        <time>2013-10-23T16:05:35Z</time>
      </trkpt>
      <trkpt lat="45.56734" lon="4.56314">
        <ele>542</ele>
        <time>2013-10-23T16:05:38Z</time>
      </trkpt>
      <trkpt lat="45.5674" lon="4.56314">
        <ele>542</ele>
        <time>2013-10-23T16:05:41Z</time>
      </trkpt>
      <trkpt lat="45.56746" lon="4.56315">
        <ele>543</ele>
        <time>2013-10-23T16:05:44Z</time>
      </trkpt>
      <trkpt lat="45.56751" lon="4.56314">
        <ele>543</ele>
        <time>2013-10-23T16:05:47Z</time>
      </trkpt>
      <trkpt lat="45.56756" lon="4.56313">
        <ele>544</ele>
        <time>2013-10-23T16:05:50Z</time>
      </trkpt>
      <trkpt lat="45.56759" lon="4.56312">
        <ele>544</ele>
        <time>2013-10-23T16:05:53Z</time>
      </trkpt>
      <trkpt lat="45.56763" lon="4.56306">
        <ele>544</ele>
        <time>2013-10-23T16:05:58Z</time>
      </trkpt>
      <trkpt lat="45.56768" lon="4.56302">
        <ele>544</ele>
        <time>2013-10-23T16:06:02Z</time>
      </trkpt>
      <trkpt lat="45.56773" lon="4.563">
        <ele>544</ele>
        <time>2013-10-23T16:06:07Z</time>
      </trkpt>
      <trkpt lat="45.56778" lon="4.56298">
        <ele>544</ele>
        <time>2013-10-23T16:06:11Z</time>
      </trkpt>
      <trkpt lat="45.56783" lon="4.56296">
        <ele>545</ele>
        <time>2013-10-23T16:06:15Z</time>
      </trkpt>
      <trkpt lat="45.56788" lon="4.56296">
        <ele>546</ele>
        <time>2013-10-23T16:06:19Z</time>
      </trkpt>
      <trkpt lat="45.56792" lon="4.56295">
        <ele>546</ele>
        <time>2013-10-23T16:06:22Z</time>
      </trkpt>
      <trkpt lat="45.56795" lon="4.56294">
        <ele>547</ele>
        <time>2013-10-23T16:06:25Z</time>
      </trkpt>
      <trkpt lat="45.568" lon="4.56292">
        <ele>548</ele>
        <time>2013-10-23T16:06:29Z</time>
      </trkpt>
      <trkpt lat="45.56803" lon="4.56291">
        <ele>548</ele>
        <time>2013-10-23T16:06:32Z</time>
      </trkpt>
      <trkpt lat="45.56807" lon="4.5629">
        <ele>549</ele>
        <time>2013-10-23T16:06:35Z</time>
      </trkpt>
      <trkpt lat="45.56812" lon="4.56288">
        <ele>550</ele>
        <time>2013-10-23T16:06:39Z</time>
      </trkpt>
      <trkpt lat="45.56817" lon="4.56287">
        <ele>551</ele>
        <time>2013-10-23T16:06:43Z</time>
      </trkpt>
      <trkpt lat="45.5682" lon="4.56286">
        <ele>551</ele>
        <time>2013-10-23T16:06:46Z</time>
      </trkpt>
      <trkpt lat="45.56824" lon="4.56285">
        <ele>551</ele>
        <time>2013-10-23T16:06:49Z</time>
      </trkpt>
      <trkpt lat="45.56829" lon="4.56283">
        <ele>552</ele>
        <time>2013-10-23T16:06:53Z</time>
      </trkpt>
      <trkpt lat="45.56832" lon="4.56282">
        <ele>553</ele>
        <time>2013-10-23T16:06:56Z</time>
      </trkpt>
      <trkpt lat="45.56836" lon="4.5628">
        <ele>553</ele>
        <time>2013-10-23T16:06:59Z</time>
      </trkpt>
      <trkpt lat="45.56839" lon="4.56277">
        <ele>554</ele>
        <time>2013-10-23T16:07:02Z</time>
      </trkpt>
      <trkpt lat="45.56844" lon="4.56274">
        <ele>554</ele>
        <time>2013-10-23T16:07:06Z</time>
      </trkpt>
      <trkpt lat="45.56849" lon="4.5627">
        <ele>554</ele>
        <time>2013-10-23T16:07:10Z</time>
      </trkpt>
      <trkpt lat="45.56852" lon="4.56267">
        <ele>555</ele>
        <time>2013-10-23T16:07:13Z</time>
      </trkpt>
      <trkpt lat="45.56855" lon="4.56264">
        <ele>555</ele>
        <time>2013-10-23T16:07:16Z</time>
      </trkpt>
      <trkpt lat="45.56859" lon="4.5626">
        <ele>555</ele>
        <time>2013-10-23T16:07:20Z</time>
      </trkpt>
      <trkpt lat="45.56863" lon="4.56256">
        <ele>556</ele>
        <time>2013-10-23T16:07:24Z</time>
      </trkpt>
      <trkpt lat="45.56866" lon="4.56252">
        <ele>557</ele>
        <time>2013-10-23T16:07:28Z</time>
      </trkpt>
      <trkpt lat="45.5687" lon="4.56249">
        <ele>558</ele>
        <time>2013-10-23T16:07:31Z</time>
      </trkpt>
      <trkpt lat="45.56874" lon="4.56244">
        <ele>558</ele>
        <time>2013-10-23T16:07:35Z</time>
      </trkpt>
      <trkpt lat="45.56878" lon="4.56241">
        <ele>559</ele>
        <time>2013-10-23T16:07:39Z</time>
      </trkpt>
      <trkpt lat="45.56882" lon="4.56238">
        <ele>559</ele>
        <time>2013-10-23T16:07:43Z</time>
      </trkpt>
      <trkpt lat="45.56886" lon="4.56235">
        <ele>560</ele>
        <time>2013-10-23T16:07:47Z</time>
      </trkpt>
      <trkpt lat="45.5689" lon="4.56232">
        <ele>560</ele>
        <time>2013-10-23T16:07:51Z</time>
      </trkpt>
      <trkpt lat="45.56894" lon="4.5623">
        <ele>561</ele>
        <time>2013-10-23T16:07:54Z</time>
      </trkpt>
      <trkpt lat="45.56898" lon="4.56227">
        <ele>562</ele>
        <time>2013-10-23T16:07:58Z</time>
      </trkpt>
      <trkpt lat="45.56902" lon="4.56224">
        <ele>562</ele>
        <time>2013-10-23T16:08:01Z</time>
      </trkpt>
      <trkpt lat="45.56905" lon="4.56222">
        <ele>563</ele>
        <time>2013-10-23T16:08:04Z</time>
      </trkpt>
      <trkpt lat="45.56909" lon="4.56218">
        <ele>564</ele>
        <time>2013-10-23T16:08:08Z</time>
      </trkpt>
      <trkpt lat="45.56914" lon="4.56215">
        <ele>565</ele>
        <time>2013-10-23T16:08:12Z</time>
      </trkpt>
      <trkpt lat="45.56918" lon="4.56212">
        <ele>566</ele>
        <time>2013-10-23T16:08:16Z</time>
      </trkpt>
      <trkpt lat="45.56922" lon="4.5621">
        <ele>566</ele>
        <time>2013-10-23T16:08:19Z</time>
      </trkpt>
      <trkpt lat="45.56927" lon="4.56207">
        <ele>567</ele>
        <time>2013-10-23T16:08:23Z</time>
      </trkpt>
      <trkpt lat="45.56931" lon="4.56205">
        <ele>568</ele>
        <time>2013-10-23T16:08:26Z</time>
      </trkpt>
      <trkpt lat="45.56936" lon="4.56202">
        <ele>569</ele>
        <time>2013-10-23T16:08:30Z</time>
      </trkpt>
      <trkpt lat="45.56939" lon="4.562">
        <ele>569</ele>
        <time>2013-10-23T16:08:33Z</time>
      </trkpt>
      <trkpt lat="45.56943" lon="4.56198">
        <ele>569</ele>
        <time>2013-10-23T16:08:36Z</time>
      </trkpt>
      <trkpt lat="45.56947" lon="4.56196">
        <ele>569</ele>
        <time>2013-10-23T16:08:39Z</time>
      </trkpt>
      <trkpt lat="45.5695" lon="4.56194">
        <ele>570</ele>
        <time>2013-10-23T16:08:42Z</time>
      </trkpt>
      <trkpt lat="45.56954" lon="4.56192">
        <ele>570</ele>
        <time>2013-10-23T16:08:45Z</time>
      </trkpt>
      <trkpt lat="45.56958" lon="4.56187">
        <ele>571</ele>
        <time>2013-10-23T16:08:49Z</time>
      </trkpt>
      <trkpt lat="45.56963" lon="4.56181">
        <ele>571</ele>
        <time>2013-10-23T16:08:54Z</time>
      </trkpt>
      <trkpt lat="45.56965" lon="4.56178">
        <ele>571</ele>
        <time>2013-10-23T16:08:57Z</time>
      </trkpt>
      <trkpt lat="45.56969" lon="4.56171">
        <ele>571</ele>
        <time>2013-10-23T16:09:02Z</time>
      </trkpt>
      <trkpt lat="45.56972" lon="4.56165">
        <ele>571</ele>
        <time>2013-10-23T16:09:06Z</time>
      </trkpt>
      <trkpt lat="45.56974" lon="4.5616">
        <ele>572</ele>
        <time>2013-10-23T16:09:09Z</time>
      </trkpt>
      <trkpt lat="45.56979" lon="4.56155">
        <ele>572</ele>
        <time>2013-10-23T16:09:13Z</time>
      </trkpt>
      <trkpt lat="45.56986" lon="4.56145">
        <ele>572</ele>
        <time>2013-10-23T16:09:17Z</time>
      </trkpt>
      <trkpt lat="45.5699" lon="4.56136">
        <ele>572</ele>
        <time>2013-10-23T16:09:20Z</time>
      </trkpt>
      <trkpt lat="45.56994" lon="4.56127">
        <ele>572</ele>
        <time>2013-10-23T16:09:23Z</time>
      </trkpt>
      <trkpt lat="45.57" lon="4.56113">
        <ele>572</ele>
        <time>2013-10-23T16:09:27Z</time>
      </trkpt>
      <trkpt lat="45.57003" lon="4.56103">
        <ele>572</ele>
        <time>2013-10-23T16:09:30Z</time>
      </trkpt>
      <trkpt lat="45.57007" lon="4.56094">
        <ele>572</ele>
        <time>2013-10-23T16:09:33Z</time>
      </trkpt>
      <trkpt lat="45.5701" lon="4.56084">
        <ele>572</ele>
        <time>2013-10-23T16:09:36Z</time>
      </trkpt>
      <trkpt lat="45.57015" lon="4.56071">
        <ele>571</ele>
        <time>2013-10-23T16:09:40Z</time>
      </trkpt>
      <trkpt lat="45.57021" lon="4.5606">
        <ele>571</ele>
        <time>2013-10-23T16:09:44Z</time>
      </trkpt>
      <trkpt lat="45.57025" lon="4.56052">
        <ele>571</ele>
        <time>2013-10-23T16:09:47Z</time>
      </trkpt>
      <trkpt lat="45.5703" lon="4.56044">
        <ele>571</ele>
        <time>2013-10-23T16:09:50Z</time>
      </trkpt>
      <trkpt lat="45.57035" lon="4.56037">
        <ele>571</ele>
        <time>2013-10-23T16:09:53Z</time>
      </trkpt>
      <trkpt lat="45.5704" lon="4.5603">
        <ele>571</ele>
        <time>2013-10-23T16:09:56Z</time>
      </trkpt>
      <trkpt lat="45.57045" lon="4.5602">
        <ele>571</ele>
        <time>2013-10-23T16:10:00Z</time>
      </trkpt>
      <trkpt lat="45.57049" lon="4.5601">
        <ele>571</ele>
        <time>2013-10-23T16:10:04Z</time>
      </trkpt>
      <trkpt lat="45.57053" lon="4.56003">
        <ele>571</ele>
        <time>2013-10-23T16:10:07Z</time>
      </trkpt>
      <trkpt lat="45.57056" lon="4.55992">
        <ele>570</ele>
        <time>2013-10-23T16:10:11Z</time>
      </trkpt>
      <trkpt lat="45.5706" lon="4.55983">
        <ele>569</ele>
        <time>2013-10-23T16:10:14Z</time>
      </trkpt>
      <trkpt lat="45.57063" lon="4.55974">
        <ele>569</ele>
        <time>2013-10-23T16:10:17Z</time>
      </trkpt>
      <trkpt lat="45.57065" lon="4.55965">
        <ele>569</ele>
        <time>2013-10-23T16:10:20Z</time>
      </trkpt>
      <trkpt lat="45.57066" lon="4.55956">
        <ele>569</ele>
        <time>2013-10-23T16:10:23Z</time>
      </trkpt>
      <trkpt lat="45.57067" lon="4.55948">
        <ele>569</ele>
        <time>2013-10-23T16:10:26Z</time>
      </trkpt>
      <trkpt lat="45.57068" lon="4.55939">
        <ele>569</ele>
        <time>2013-10-23T16:10:29Z</time>
      </trkpt>
      <trkpt lat="45.57069" lon="4.55931">
        <ele>569</ele>
        <time>2013-10-23T16:10:32Z</time>
      </trkpt>
      <trkpt lat="45.57068" lon="4.55917">
        <ele>569</ele>
        <time>2013-10-23T16:10:36Z</time>
      </trkpt>
      <trkpt lat="45.57069" lon="4.55907">
        <ele>569</ele>
        <time>2013-10-23T16:10:39Z</time>
      </trkpt>
      <trkpt lat="45.57068" lon="4.55897">
        <ele>569</ele>
        <time>2013-10-23T16:10:42Z</time>
      </trkpt>
      <trkpt lat="45.57069" lon="4.55888">
        <ele>569</ele>
        <time>2013-10-23T16:10:45Z</time>
      </trkpt>
      <trkpt lat="45.57068" lon="4.55875">
        <ele>569</ele>
        <time>2013-10-23T16:10:49Z</time>
      </trkpt>
      <trkpt lat="45.57069" lon="4.55866">
        <ele>569</ele>
        <time>2013-10-23T16:10:52Z</time>
      </trkpt>
      <trkpt lat="45.57069" lon="4.55857">
        <ele>569</ele>
        <time>2013-10-23T16:10:55Z</time>
      </trkpt>
      <trkpt lat="45.57071" lon="4.55844">
        <ele>569</ele>
        <time>2013-10-23T16:10:59Z</time>
      </trkpt>
      <trkpt lat="45.57073" lon="4.5583">
        <ele>569</ele>
        <time>2013-10-23T16:11:03Z</time>
      </trkpt>
      <trkpt lat="45.57074" lon="4.5582">
        <ele>569</ele>
        <time>2013-10-23T16:11:06Z</time>
      </trkpt>
      <trkpt lat="45.57079" lon="4.5581">
        <ele>569</ele>
        <time>2013-10-23T16:11:10Z</time>
      </trkpt>
      <trkpt lat="45.57086" lon="4.5581">
        <ele>569</ele>
        <time>2013-10-23T16:11:13Z</time>
      </trkpt>
      <trkpt lat="45.5709" lon="4.55813">
        <ele>569</ele>
        <time>2013-10-23T16:11:16Z</time>
      </trkpt>
      <trkpt lat="45.57095" lon="4.55817">
        <ele>569</ele>
        <time>2013-10-23T16:11:19Z</time>
      </trkpt>
      <trkpt lat="45.571" lon="4.55823">
        <ele>569</ele>
        <time>2013-10-23T16:11:22Z</time>
      </trkpt>
      <trkpt lat="45.57106" lon="4.55832">
        <ele>569</ele>
        <time>2013-10-23T16:11:27Z</time>
      </trkpt>
      <trkpt lat="45.57109" lon="4.55838">
        <ele>570</ele>
        <time>2013-10-23T16:11:30Z</time>
      </trkpt>
      <trkpt lat="45.57116" lon="4.55846">
        <ele>572</ele>
        <time>2013-10-23T16:11:34Z</time>
      </trkpt>
      <trkpt lat="45.5712" lon="4.55853">
        <ele>572</ele>
        <time>2013-10-23T16:11:39Z</time>
      </trkpt>
      <trkpt lat="45.57127" lon="4.55858">
        <ele>572</ele>
        <time>2013-10-23T16:11:43Z</time>
      </trkpt>
      <trkpt lat="45.57133" lon="4.55862">
        <ele>572</ele>
        <time>2013-10-23T16:11:47Z</time>
      </trkpt>
      <trkpt lat="45.57137" lon="4.55866">
        <ele>572</ele>
        <time>2013-10-23T16:11:51Z</time>
      </trkpt>
      <trkpt lat="45.5714" lon="4.55868">
        <ele>572</ele>
        <time>2013-10-23T16:11:55Z</time>
      </trkpt>
      <trkpt lat="45.57143" lon="4.5587">
        <ele>572</ele>
        <time>2013-10-23T16:11:59Z</time>
      </trkpt>
      <trkpt lat="45.57147" lon="4.55871">
        <ele>572</ele>
        <time>2013-10-23T16:12:03Z</time>
      </trkpt>
      <trkpt lat="45.57151" lon="4.55872">
        <ele>572</ele>
        <time>2013-10-23T16:12:07Z</time>
      </trkpt>
      <trkpt lat="45.57156" lon="4.55874">
        <ele>572</ele>
        <time>2013-10-23T16:12:10Z</time>
      </trkpt>
      <trkpt lat="45.57161" lon="4.55876">
        <ele>575</ele>
        <time>2013-10-23T16:12:14Z</time>
      </trkpt>
      <trkpt lat="45.57166" lon="4.55877">
        <ele>577</ele>
        <time>2013-10-23T16:12:18Z</time>
      </trkpt>
      <trkpt lat="45.57172" lon="4.55879">
        <ele>578</ele>
        <time>2013-10-23T16:12:23Z</time>
      </trkpt>
      <trkpt lat="45.57174" lon="4.55881">
        <ele>578</ele>
        <time>2013-10-23T16:12:26Z</time>
      </trkpt>
      <trkpt lat="45.57177" lon="4.55882">
        <ele>578</ele>
        <time>2013-10-23T16:12:29Z</time>
      </trkpt>
      <trkpt lat="45.57181" lon="4.55883">
        <ele>578</ele>
        <time>2013-10-23T16:12:33Z</time>
      </trkpt>
      <trkpt lat="45.57185" lon="4.55884">
        <ele>579</ele>
        <time>2013-10-23T16:12:37Z</time>
      </trkpt>
      <trkpt lat="45.5719" lon="4.55885">
        <ele>581</ele>
        <time>2013-10-23T16:12:42Z</time>
      </trkpt>
      <trkpt lat="45.57194" lon="4.55886">
        <ele>581</ele>
        <time>2013-10-23T16:12:45Z</time>
      </trkpt>
      <trkpt lat="45.57198" lon="4.55888">
        <ele>582</ele>
        <time>2013-10-23T16:12:49Z</time>
      </trkpt>
      <trkpt lat="45.57201" lon="4.55886">
        <ele>584</ele>
        <time>2013-10-23T16:12:53Z</time>
      </trkpt>
      <trkpt lat="45.57204" lon="4.55886">
        <ele>585</ele>
        <time>2013-10-23T16:12:57Z</time>
      </trkpt>
      <trkpt lat="45.57208" lon="4.55884">
        <ele>586</ele>
        <time>2013-10-23T16:13:01Z</time>
      </trkpt>
      <trkpt lat="45.57212" lon="4.55883">
        <ele>587</ele>
        <time>2013-10-23T16:13:04Z</time>
      </trkpt>
      <trkpt lat="45.57215" lon="4.55882">
        <ele>589</ele>
        <time>2013-10-23T16:13:08Z</time>
      </trkpt>
      <trkpt lat="45.5722" lon="4.5588">
        <ele>590</ele>
        <time>2013-10-23T16:13:13Z</time>
      </trkpt>
      <trkpt lat="45.57223" lon="4.55878">
        <ele>590</ele>
        <time>2013-10-23T16:13:17Z</time>
      </trkpt>
      <trkpt lat="45.57227" lon="4.55876">
        <ele>591</ele>
        <time>2013-10-23T16:13:20Z</time>
      </trkpt>
      <trkpt lat="45.57228" lon="4.55874">
        <ele>591</ele>
        <time>2013-10-23T16:13:24Z</time>
      </trkpt>
      <trkpt lat="45.57231" lon="4.55869">
        <ele>591</ele>
        <time>2013-10-23T16:13:28Z</time>
      </trkpt>
      <trkpt lat="45.57234" lon="4.55866">
        <ele>591</ele>
        <time>2013-10-23T16:13:32Z</time>
      </trkpt>
      <trkpt lat="45.57236" lon="4.55863">
        <ele>591</ele>
        <time>2013-10-23T16:13:36Z</time>
      </trkpt>
      <trkpt lat="45.57237" lon="4.55861">
        <ele>591</ele>
        <time>2013-10-23T16:13:39Z</time>
      </trkpt>
      <trkpt lat="45.57239" lon="4.55858">
        <ele>591</ele>
        <time>2013-10-23T16:13:43Z</time>
      </trkpt>
      <trkpt lat="45.5724" lon="4.55854">
        <ele>591</ele>
        <time>2013-10-23T16:13:47Z</time>
      </trkpt>
      <trkpt lat="45.57241" lon="4.55852">
        <ele>592</ele>
        <time>2013-10-23T16:13:50Z</time>
      </trkpt>
      <trkpt lat="45.57243" lon="4.55848">
        <ele>592</ele>
        <time>2013-10-23T16:13:54Z</time>
      </trkpt>
      <trkpt lat="45.57244" lon="4.55844">
        <ele>592</ele>
        <time>2013-10-23T16:13:58Z</time>
      </trkpt>
      <trkpt lat="45.57246" lon="4.5584">
        <ele>593</ele>
        <time>2013-10-23T16:14:02Z</time>
      </trkpt>
      <trkpt lat="45.57246" lon="4.55837">
        <ele>593</ele>
        <time>2013-10-23T16:14:06Z</time>
      </trkpt>
      <trkpt lat="45.57247" lon="4.55832">
        <ele>593</ele>
        <time>2013-10-23T16:14:10Z</time>
      </trkpt>
      <trkpt lat="45.57247" lon="4.55829">
        <ele>594</ele>
        <time>2013-10-23T16:14:13Z</time>
      </trkpt>
      <trkpt lat="45.57248" lon="4.55823">
        <ele>596</ele>
        <time>2013-10-23T16:14:18Z</time>
      </trkpt>
      <trkpt lat="45.5725" lon="4.55819">
        <ele>598</ele>
        <time>2013-10-23T16:14:22Z</time>
      </trkpt>
      <trkpt lat="45.57251" lon="4.55815">
        <ele>599</ele>
        <time>2013-10-23T16:14:26Z</time>
      </trkpt>
      <trkpt lat="45.57252" lon="4.55811">
        <ele>599</ele>
        <time>2013-10-23T16:14:30Z</time>
      </trkpt>
      <trkpt lat="45.57254" lon="4.55807">
        <ele>599</ele>
        <time>2013-10-23T16:14:34Z</time>
      </trkpt>
      <trkpt lat="45.57255" lon="4.55803">
        <ele>599</ele>
        <time>2013-10-23T16:14:38Z</time>
      </trkpt>
      <trkpt lat="45.57255" lon="4.55799">
        <ele>599</ele>
        <time>2013-10-23T16:14:42Z</time>
      </trkpt>
      <trkpt lat="45.57256" lon="4.55795">
        <ele>599</ele>
        <time>2013-10-23T16:14:46Z</time>
      </trkpt>
      <trkpt lat="45.57258" lon="4.55791">
        <ele>600</ele>
        <time>2013-10-23T16:14:50Z</time>
      </trkpt>
      <trkpt lat="45.57261" lon="4.55787">
        <ele>602</ele>
        <time>2013-10-23T16:14:54Z</time>
      </trkpt>
      <trkpt lat="45.57264" lon="4.55785">
        <ele>603</ele>
        <time>2013-10-23T16:14:58Z</time>
      </trkpt>
      <trkpt lat="45.57267" lon="4.55782">
        <ele>604</ele>
        <time>2013-10-23T16:15:02Z</time>
      </trkpt>
      <trkpt lat="45.57269" lon="4.55778">
        <ele>606</ele>
        <time>2013-10-23T16:15:06Z</time>
      </trkpt>
      <trkpt lat="45.57272" lon="4.55775">
        <ele>607</ele>
        <time>2013-10-23T16:15:10Z</time>
      </trkpt>
      <trkpt lat="45.57274" lon="4.55772">
        <ele>608</ele>
        <time>2013-10-23T16:15:14Z</time>
      </trkpt>
      <trkpt lat="45.57277" lon="4.55769">
        <ele>609</ele>
        <time>2013-10-23T16:15:18Z</time>
      </trkpt>
      <trkpt lat="45.5728" lon="4.55766">
        <ele>609</ele>
        <time>2013-10-23T16:15:23Z</time>
      </trkpt>
      <trkpt lat="45.57282" lon="4.55763">
        <ele>610</ele>
        <time>2013-10-23T16:15:28Z</time>
      </trkpt>
      <trkpt lat="45.57285" lon="4.5576">
        <ele>610</ele>
        <time>2013-10-23T16:15:32Z</time>
      </trkpt>
      <trkpt lat="45.57288" lon="4.55757">
        <ele>610</ele>
        <time>2013-10-23T16:15:36Z</time>
      </trkpt>
      <trkpt lat="45.57291" lon="4.55754">
        <ele>610</ele>
        <time>2013-10-23T16:15:40Z</time>
      </trkpt>
      <trkpt lat="45.57294" lon="4.55751">
        <ele>612</ele>
        <time>2013-10-23T16:15:44Z</time>
      </trkpt>
      <trkpt lat="45.57297" lon="4.55748">
        <ele>613</ele>
        <time>2013-10-23T16:15:48Z</time>
      </trkpt>
      <trkpt lat="45.57299" lon="4.55746">
        <ele>614</ele>
        <time>2013-10-23T16:15:51Z</time>
      </trkpt>
      <trkpt lat="45.57302" lon="4.55743">
        <ele>614</ele>
        <time>2013-10-23T16:15:55Z</time>
      </trkpt>
      <trkpt lat="45.57305" lon="4.5574">
        <ele>616</ele>
        <time>2013-10-23T16:16:00Z</time>
      </trkpt>
      <trkpt lat="45.57308" lon="4.55738">
        <ele>617</ele>
        <time>2013-10-23T16:16:04Z</time>
      </trkpt>
      <trkpt lat="45.5731" lon="4.55735">
        <ele>619</ele>
        <time>2013-10-23T16:16:09Z</time>
      </trkpt>
      <trkpt lat="45.57314" lon="4.55733">
        <ele>621</ele>
        <time>2013-10-23T16:16:13Z</time>
      </trkpt>
      <trkpt lat="45.57317" lon="4.55731">
        <ele>622</ele>
        <time>2013-10-23T16:16:17Z</time>
      </trkpt>
      <trkpt lat="45.57321" lon="4.55728">
        <ele>624</ele>
        <time>2013-10-23T16:16:22Z</time>
      </trkpt>
      <trkpt lat="45.57324" lon="4.55726">
        <ele>625</ele>
        <time>2013-10-23T16:16:26Z</time>
      </trkpt>
      <trkpt lat="45.57326" lon="4.55722">
        <ele>626</ele>
        <time>2013-10-23T16:16:30Z</time>
      </trkpt>
      <trkpt lat="45.57329" lon="4.55719">
        <ele>627</ele>
        <time>2013-10-23T16:16:34Z</time>
      </trkpt>
      <trkpt lat="45.57332" lon="4.55716">
        <ele>628</ele>
        <time>2013-10-23T16:16:38Z</time>
      </trkpt>
      <trkpt lat="45.57335" lon="4.55714">
        <ele>628</ele>
        <time>2013-10-23T16:16:42Z</time>
      </trkpt>
      <trkpt lat="45.57337" lon="4.55712">
        <ele>629</ele>
        <time>2013-10-23T16:16:45Z</time>
      </trkpt>
      <trkpt lat="45.57339" lon="4.55709">
        <ele>630</ele>
        <time>2013-10-23T16:16:49Z</time>
      </trkpt>
      <trkpt lat="45.57343" lon="4.55706">
        <ele>631</ele>
        <time>2013-10-23T16:16:53Z</time>
      </trkpt>
      <trkpt lat="45.57346" lon="4.55705">
        <ele>631</ele>
        <time>2013-10-23T16:16:57Z</time>
      </trkpt>
      <trkpt lat="45.57349" lon="4.55703">
        <ele>632</ele>
        <time>2013-10-23T16:17:01Z</time>
      </trkpt>
      <trkpt lat="45.57352" lon="4.557">
        <ele>632</ele>
        <time>2013-10-23T16:17:05Z</time>
      </trkpt>
      <trkpt lat="45.57356" lon="4.55697">
        <ele>633</ele>
        <time>2013-10-23T16:17:09Z</time>
      </trkpt>
      <trkpt lat="45.57359" lon="4.55694">
        <ele>633</ele>
        <time>2013-10-23T16:17:13Z</time>
      </trkpt>
      <trkpt lat="45.57362" lon="4.55691">
        <ele>633</ele>
        <time>2013-10-23T16:17:17Z</time>
      </trkpt>
      <trkpt lat="45.57364" lon="4.55686">
        <ele>633</ele>
        <time>2013-10-23T16:17:21Z</time>
      </trkpt>
      <trkpt lat="45.57365" lon="4.5568">
        <ele>633</ele>
        <time>2013-10-23T16:17:26Z</time>
      </trkpt>
      <trkpt lat="45.57366" lon="4.55675">
        <ele>633</ele>
        <time>2013-10-23T16:17:30Z</time>
      </trkpt>
      <trkpt lat="45.57367" lon="4.5567">
        <ele>633</ele>
        <time>2013-10-23T16:17:34Z</time>
      </trkpt>
      <trkpt lat="45.57367" lon="4.55665">
        <ele>633</ele>
        <time>2013-10-23T16:17:37Z</time>
      </trkpt>
      <trkpt lat="45.57367" lon="4.55661">
        <ele>634</ele>
        <time>2013-10-23T16:17:41Z</time>
      </trkpt>
      <trkpt lat="45.57367" lon="4.55656">
        <ele>635</ele>
        <time>2013-10-23T16:17:45Z</time>
      </trkpt>
      <trkpt lat="45.57367" lon="4.55651">
        <ele>635</ele>
        <time>2013-10-23T16:17:49Z</time>
      </trkpt>
      <trkpt lat="45.57367" lon="4.55647">
        <ele>637</ele>
        <time>2013-10-23T16:17:53Z</time>
      </trkpt>
      <trkpt lat="45.57368" lon="4.55642">
        <ele>638</ele>
        <time>2013-10-23T16:17:57Z</time>
      </trkpt>
      <trkpt lat="45.57369" lon="4.55637">
        <ele>639</ele>
        <time>2013-10-23T16:18:01Z</time>
      </trkpt>
      <trkpt lat="45.57373" lon="4.55638">
        <ele>640</ele>
        <time>2013-10-23T16:18:05Z</time>
      </trkpt>
      <trkpt lat="45.57374" lon="4.5564">
        <ele>641</ele>
        <time>2013-10-23T16:18:08Z</time>
      </trkpt>
      <trkpt lat="45.57376" lon="4.55641">
        <ele>642</ele>
        <time>2013-10-23T16:18:11Z</time>
      </trkpt>
      <trkpt lat="45.57377" lon="4.55643">
        <ele>642</ele>
        <time>2013-10-23T16:18:14Z</time>
      </trkpt>
      <trkpt lat="45.57378" lon="4.55644">
        <ele>642</ele>
        <time>2013-10-23T16:18:17Z</time>
      </trkpt>
      <trkpt lat="45.57382" lon="4.55645">
        <ele>643</ele>
        <time>2013-10-23T16:18:21Z</time>
      </trkpt>
      <trkpt lat="45.57385" lon="4.55643">
        <ele>645</ele>
        <time>2013-10-23T16:18:24Z</time>
      </trkpt>
      <trkpt lat="45.57387" lon="4.55639">
        <ele>647</ele>
        <time>2013-10-23T16:18:27Z</time>
      </trkpt>
      <trkpt lat="45.57388" lon="4.55634">
        <ele>648</ele>
        <time>2013-10-23T16:18:31Z</time>
      </trkpt>
      <trkpt lat="45.57388" lon="4.55629">
        <ele>648</ele>
        <time>2013-10-23T16:18:35Z</time>
      </trkpt>
      <trkpt lat="45.57388" lon="4.55625">
        <ele>649</ele>
        <time>2013-10-23T16:18:38Z</time>
      </trkpt>
      <trkpt lat="45.57388" lon="4.55621">
        <ele>649</ele>
        <time>2013-10-23T16:18:41Z</time>
      </trkpt>
      <trkpt lat="45.57389" lon="4.55616">
        <ele>649</ele>
        <time>2013-10-23T16:18:44Z</time>
      </trkpt>
      <trkpt lat="45.57389" lon="4.5561">
        <ele>650</ele>
        <time>2013-10-23T16:18:48Z</time>
      </trkpt>
      <trkpt lat="45.57389" lon="4.55606">
        <ele>650</ele>
        <time>2013-10-23T16:18:51Z</time>
      </trkpt>
      <trkpt lat="45.57389" lon="4.55601">
        <ele>651</ele>
        <time>2013-10-23T16:18:55Z</time>
      </trkpt>
      <trkpt lat="45.5739" lon="4.55596">
        <ele>652</ele>
        <time>2013-10-23T16:18:58Z</time>
      </trkpt>
      <trkpt lat="45.57389" lon="4.55591">
        <ele>654</ele>
        <time>2013-10-23T16:19:02Z</time>
      </trkpt>
      <trkpt lat="45.5739" lon="4.55587">
        <ele>655</ele>
        <time>2013-10-23T16:19:05Z</time>
      </trkpt>
      <trkpt lat="45.5739" lon="4.55582">
        <ele>656</ele>
        <time>2013-10-23T16:19:09Z</time>
      </trkpt>
      <trkpt lat="45.57391" lon="4.55578">
        <ele>656</ele>
        <time>2013-10-23T16:19:13Z</time>
      </trkpt>
      <trkpt lat="45.57392" lon="4.55574">
        <ele>656</ele>
        <time>2013-10-23T16:19:17Z</time>
      </trkpt>
      <trkpt lat="45.57391" lon="4.55569">
        <ele>656</ele>
        <time>2013-10-23T16:19:20Z</time>
      </trkpt>
      <trkpt lat="45.57392" lon="4.55562">
        <ele>656</ele>
        <time>2013-10-23T16:19:23Z</time>
      </trkpt>
      <trkpt lat="45.57393" lon="4.55556">
        <ele>656</ele>
        <time>2013-10-23T16:19:27Z</time>
      </trkpt>
      <trkpt lat="45.57394" lon="4.55552">
        <ele>657</ele>
        <time>2013-10-23T16:19:30Z</time>
      </trkpt>
      <trkpt lat="45.57396" lon="4.55547">
        <ele>657</ele>
        <time>2013-10-23T16:19:34Z</time>
      </trkpt>
      <trkpt lat="45.57397" lon="4.55542">
        <ele>657</ele>
        <time>2013-10-23T16:19:37Z</time>
      </trkpt>
      <trkpt lat="45.57398" lon="4.55538">
        <ele>657</ele>
        <time>2013-10-23T16:19:40Z</time>
      </trkpt>
      <trkpt lat="45.57401" lon="4.55534">
        <ele>657</ele>
        <time>2013-10-23T16:19:44Z</time>
      </trkpt>
      <trkpt lat="45.57403" lon="4.55527">
        <ele>657</ele>
        <time>2013-10-23T16:19:48Z</time>
      </trkpt>
      <trkpt lat="45.57404" lon="4.55522">
        <ele>658</ele>
        <time>2013-10-23T16:19:51Z</time>
      </trkpt>
      <trkpt lat="45.57407" lon="4.55519">
        <ele>659</ele>
        <time>2013-10-23T16:19:55Z</time>
      </trkpt>
      <trkpt lat="45.5741" lon="4.55514">
        <ele>660</ele>
        <time>2013-10-23T16:19:59Z</time>
      </trkpt>
      <trkpt lat="45.57412" lon="4.55509">
        <ele>661</ele>
        <time>2013-10-23T16:20:03Z</time>
      </trkpt>
      <trkpt lat="45.57415" lon="4.55504">
        <ele>662</ele>
        <time>2013-10-23T16:20:07Z</time>
      </trkpt>
      <trkpt lat="45.57418" lon="4.555">
        <ele>664</ele>
        <time>2013-10-23T16:20:11Z</time>
      </trkpt>
      <trkpt lat="45.5742" lon="4.55495">
        <ele>665</ele>
        <time>2013-10-23T16:20:15Z</time>
      </trkpt>
      <trkpt lat="45.57422" lon="4.55491">
        <ele>665</ele>
        <time>2013-10-23T16:20:18Z</time>
      </trkpt>
      <trkpt lat="45.57425" lon="4.55487">
        <ele>665</ele>
        <time>2013-10-23T16:20:21Z</time>
      </trkpt>
      <trkpt lat="45.57428" lon="4.55482">
        <ele>665</ele>
        <time>2013-10-23T16:20:26Z</time>
      </trkpt>
      <trkpt lat="45.5743" lon="4.55478">
        <ele>665</ele>
        <time>2013-10-23T16:20:30Z</time>
      </trkpt>
      <trkpt lat="45.57433" lon="4.55474">
        <ele>666</ele>
        <time>2013-10-23T16:20:34Z</time>
      </trkpt>
      <trkpt lat="45.57436" lon="4.55471">
        <ele>666</ele>
        <time>2013-10-23T16:20:38Z</time>
      </trkpt>
      <trkpt lat="45.57438" lon="4.55467">
        <ele>667</ele>
        <time>2013-10-23T16:20:42Z</time>
      </trkpt>
      <trkpt lat="45.57441" lon="4.55463">
        <ele>668</ele>
        <time>2013-10-23T16:20:46Z</time>
      </trkpt>
      <trkpt lat="45.57442" lon="4.55459">
        <ele>670</ele>
        <time>2013-10-23T16:20:49Z</time>
      </trkpt>
      <trkpt lat="45.57445" lon="4.55456">
        <ele>672</ele>
        <time>2013-10-23T16:20:53Z</time>
      </trkpt>
      <trkpt lat="45.57446" lon="4.55459">
        <ele>674</ele>
        <time>2013-10-23T16:20:57Z</time>
      </trkpt>
      <trkpt lat="45.57446" lon="4.55463">
        <ele>675</ele>
        <time>2013-10-23T16:21:00Z</time>
      </trkpt>
      <trkpt lat="45.57446" lon="4.55467">
        <ele>676</ele>
        <time>2013-10-23T16:21:03Z</time>
      </trkpt>
      <trkpt lat="45.57446" lon="4.55472">
        <ele>678</ele>
        <time>2013-10-23T16:21:07Z</time>
      </trkpt>
      <trkpt lat="45.57448" lon="4.55475">
        <ele>679</ele>
        <time>2013-10-23T16:21:11Z</time>
      </trkpt>
      <trkpt lat="45.5745" lon="4.55477">
        <ele>681</ele>
        <time>2013-10-23T16:21:18Z</time>
      </trkpt>
      <trkpt lat="45.57451" lon="4.55479">
        <ele>682</ele>
        <time>2013-10-23T16:21:21Z</time>
      </trkpt>
      <trkpt lat="45.57452" lon="4.55483">
        <ele>683</ele>
        <time>2013-10-23T16:21:25Z</time>
      </trkpt>
      <trkpt lat="45.57454" lon="4.55487">
        <ele>683</ele>
        <time>2013-10-23T16:21:29Z</time>
      </trkpt>
      <trkpt lat="45.57455" lon="4.55491">
        <ele>684</ele>
        <time>2013-10-23T16:21:33Z</time>
      </trkpt>
      <trkpt lat="45.57456" lon="4.55496">
        <ele>684</ele>
        <time>2013-10-23T16:21:37Z</time>
      </trkpt>
      <trkpt lat="45.57458" lon="4.55499">
        <ele>684</ele>
        <time>2013-10-23T16:21:42Z</time>
      </trkpt>
      <trkpt lat="45.57461" lon="4.555">
        <ele>684</ele>
        <time>2013-10-23T16:21:46Z</time>
      </trkpt>
      <trkpt lat="45.57464" lon="4.55499">
        <ele>686</ele>
        <time>2013-10-23T16:21:50Z</time>
      </trkpt>
      <trkpt lat="45.57466" lon="4.55496">
        <ele>687</ele>
        <time>2013-10-23T16:21:54Z</time>
      </trkpt>
      <trkpt lat="45.57467" lon="4.55491">
        <ele>687</ele>
        <time>2013-10-23T16:21:58Z</time>
      </trkpt>
      <trkpt lat="45.5747" lon="4.55488">
        <ele>688</ele>
        <time>2013-10-23T16:22:02Z</time>
      </trkpt>
      <trkpt lat="45.57473" lon="4.5549">
        <ele>689</ele>
        <time>2013-10-23T16:22:05Z</time>
      </trkpt>
      <trkpt lat="45.57475" lon="4.55495">
        <ele>689</ele>
        <time>2013-10-23T16:22:08Z</time>
      </trkpt>
      <trkpt lat="45.57476" lon="4.55499">
        <ele>690</ele>
        <time>2013-10-23T16:22:11Z</time>
      </trkpt>
      <trkpt lat="45.57479" lon="4.55504">
        <ele>690</ele>
        <time>2013-10-23T16:22:15Z</time>
      </trkpt>
      <trkpt lat="45.57481" lon="4.5551">
        <ele>691</ele>
        <time>2013-10-23T16:22:19Z</time>
      </trkpt>
      <trkpt lat="45.57484" lon="4.55514">
        <ele>691</ele>
        <time>2013-10-23T16:22:23Z</time>
      </trkpt>
      <trkpt lat="45.57488" lon="4.55518">
        <ele>692</ele>
        <time>2013-10-23T16:22:27Z</time>
      </trkpt>
      <trkpt lat="45.57492" lon="4.55521">
        <ele>692</ele>
        <time>2013-10-23T16:22:31Z</time>
      </trkpt>
      <trkpt lat="45.57496" lon="4.55525">
        <ele>693</ele>
        <time>2013-10-23T16:22:35Z</time>
      </trkpt>
      <trkpt lat="45.575" lon="4.55528">
        <ele>693</ele>
        <time>2013-10-23T16:22:38Z</time>
      </trkpt>
      <trkpt lat="45.57504" lon="4.55533">
        <ele>694</ele>
        <time>2013-10-23T16:22:42Z</time>
      </trkpt>
      <trkpt lat="45.57507" lon="4.55536">
        <ele>695</ele>
        <time>2013-10-23T16:22:45Z</time>
      </trkpt>
      <trkpt lat="45.57511" lon="4.55541">
        <ele>695</ele>
        <time>2013-10-23T16:22:48Z</time>
      </trkpt>
      <trkpt lat="45.57517" lon="4.55548">
        <ele>696</ele>
        <time>2013-10-23T16:22:52Z</time>
      </trkpt>
      <trkpt lat="45.57523" lon="4.55553">
        <ele>696</ele>
        <time>2013-10-23T16:22:55Z</time>
      </trkpt>
      <trkpt lat="45.57531" lon="4.5556">
        <ele>697</ele>
        <time>2013-10-23T16:22:59Z</time>
      </trkpt>
      <trkpt lat="45.57539" lon="4.55567">
        <ele>697</ele>
        <time>2013-10-23T16:23:03Z</time>
      </trkpt>
      <trkpt lat="45.57546" lon="4.55573">
        <ele>697</ele>
        <time>2013-10-23T16:23:06Z</time>
      </trkpt>
      <trkpt lat="45.57552" lon="4.55578">
        <ele>697</ele>
        <time>2013-10-23T16:23:09Z</time>
      </trkpt>
      <trkpt lat="45.57561" lon="4.55583">
        <ele>697</ele>
        <time>2013-10-23T16:23:13Z</time>
      </trkpt>
      <trkpt lat="45.57566" lon="4.55587">
        <ele>697</ele>
        <time>2013-10-23T16:23:16Z</time>
      </trkpt>
      <trkpt lat="45.57572" lon="4.55592">
        <ele>697</ele>
        <time>2013-10-23T16:23:19Z</time>
      </trkpt>
      <trkpt lat="45.5758" lon="4.55598">
        <ele>697</ele>
        <time>2013-10-23T16:23:23Z</time>
      </trkpt>
      <trkpt lat="45.57586" lon="4.55603">
        <ele>697</ele>
        <time>2013-10-23T16:23:26Z</time>
      </trkpt>
      <trkpt lat="45.57592" lon="4.55609">
        <ele>697</ele>
        <time>2013-10-23T16:23:29Z</time>
      </trkpt>
      <trkpt lat="45.57597" lon="4.55617">
        <ele>697</ele>
        <time>2013-10-23T16:23:32Z</time>
      </trkpt>
      <trkpt lat="45.57601" lon="4.55627">
        <ele>697</ele>
        <time>2013-10-23T16:23:36Z</time>
      </trkpt>
      <trkpt lat="45.57604" lon="4.55636">
        <ele>697</ele>
        <time>2013-10-23T16:23:39Z</time>
      </trkpt>
      <trkpt lat="45.57607" lon="4.55646">
        <ele>697</ele>
        <time>2013-10-23T16:23:42Z</time>
      </trkpt>
      <trkpt lat="45.57611" lon="4.55658">
        <ele>697</ele>
        <time>2013-10-23T16:23:46Z</time>
      </trkpt>
      <trkpt lat="45.57615" lon="4.55668">
        <ele>697</ele>
        <time>2013-10-23T16:23:49Z</time>
      </trkpt>
      <trkpt lat="45.57619" lon="4.55677">
        <ele>697</ele>
        <time>2013-10-23T16:23:52Z</time>
      </trkpt>
      <trkpt lat="45.57622" lon="4.55686">
        <ele>696</ele>
        <time>2013-10-23T16:23:55Z</time>
      </trkpt>
      <trkpt lat="45.57626" lon="4.55696">
        <ele>695</ele>
        <time>2013-10-23T16:23:58Z</time>
      </trkpt>
      <trkpt lat="45.5763" lon="4.55707">
        <ele>695</ele>
        <time>2013-10-23T16:24:01Z</time>
      </trkpt>
      <trkpt lat="45.57635" lon="4.5572">
        <ele>694</ele>
        <time>2013-10-23T16:24:05Z</time>
      </trkpt>
      <trkpt lat="45.5764" lon="4.55734">
        <ele>694</ele>
        <time>2013-10-23T16:24:09Z</time>
      </trkpt>
      <trkpt lat="45.57643" lon="4.55744">
        <ele>694</ele>
        <time>2013-10-23T16:24:12Z</time>
      </trkpt>
      <trkpt lat="45.57647" lon="4.55755">
        <ele>694</ele>
        <time>2013-10-23T16:24:15Z</time>
      </trkpt>
      <trkpt lat="45.57651" lon="4.55768">
        <ele>694</ele>
        <time>2013-10-23T16:24:19Z</time>
      </trkpt>
      <trkpt lat="45.57653" lon="4.55778">
        <ele>694</ele>
        <time>2013-10-23T16:24:22Z</time>
      </trkpt>
      <trkpt lat="45.57658" lon="4.55791">
        <ele>694</ele>
        <time>2013-10-23T16:24:26Z</time>
      </trkpt>
      <trkpt lat="45.57658" lon="4.558">
        <ele>694</ele>
        <time>2013-10-23T16:24:29Z</time>
      </trkpt>
      <trkpt lat="45.5766" lon="4.5581">
        <ele>694</ele>
        <time>2013-10-23T16:24:32Z</time>
      </trkpt>
      <trkpt lat="45.5766" lon="4.55822">
        <ele>694</ele>
        <time>2013-10-23T16:24:36Z</time>
      </trkpt>
      <trkpt lat="45.57661" lon="4.55832">
        <ele>694</ele>
        <time>2013-10-23T16:24:39Z</time>
      </trkpt>
      <trkpt lat="45.57663" lon="4.55842">
        <ele>694</ele>
        <time>2013-10-23T16:24:42Z</time>
      </trkpt>
      <trkpt lat="45.57665" lon="4.55851">
        <ele>694</ele>
        <time>2013-10-23T16:24:45Z</time>
      </trkpt>
      <trkpt lat="45.57667" lon="4.55864">
        <ele>694</ele>
        <time>2013-10-23T16:24:49Z</time>
      </trkpt>
      <trkpt lat="45.5767" lon="4.55873">
        <ele>694</ele>
        <time>2013-10-23T16:24:52Z</time>
      </trkpt>
      <trkpt lat="45.57672" lon="4.55882">
        <ele>694</ele>
        <time>2013-10-23T16:24:55Z</time>
      </trkpt>
      <trkpt lat="45.57675" lon="4.55894">
        <ele>694</ele>
        <time>2013-10-23T16:24:59Z</time>
      </trkpt>
      <trkpt lat="45.57677" lon="4.55904">
        <ele>694</ele>
        <time>2013-10-23T16:25:02Z</time>
      </trkpt>
      <trkpt lat="45.57677" lon="4.55913">
        <ele>694</ele>
        <time>2013-10-23T16:25:05Z</time>
      </trkpt>
      <trkpt lat="45.57678" lon="4.55923">
        <ele>694</ele>
        <time>2013-10-23T16:25:08Z</time>
      </trkpt>
      <trkpt lat="45.57679" lon="4.55936">
        <ele>694</ele>
        <time>2013-10-23T16:25:12Z</time>
      </trkpt>
      <trkpt lat="45.5768" lon="4.55946">
        <ele>694</ele>
        <time>2013-10-23T16:25:15Z</time>
      </trkpt>
      <trkpt lat="45.57681" lon="4.5596">
        <ele>694</ele>
        <time>2013-10-23T16:25:19Z</time>
      </trkpt>
      <trkpt lat="45.57683" lon="4.55969">
        <ele>694</ele>
        <time>2013-10-23T16:25:22Z</time>
      </trkpt>
      <trkpt lat="45.57684" lon="4.55979">
        <ele>694</ele>
        <time>2013-10-23T16:25:25Z</time>
      </trkpt>
      <trkpt lat="45.57686" lon="4.55991">
        <ele>694</ele>
        <time>2013-10-23T16:25:29Z</time>
      </trkpt>
      <trkpt lat="45.57687" lon="4.56001">
        <ele>694</ele>
        <time>2013-10-23T16:25:32Z</time>
      </trkpt>
      <trkpt lat="45.57688" lon="4.56011">
        <ele>694</ele>
        <time>2013-10-23T16:25:35Z</time>
      </trkpt>
      <trkpt lat="45.57688" lon="4.56024">
        <ele>694</ele>
        <time>2013-10-23T16:25:39Z</time>
      </trkpt>
      <trkpt lat="45.57688" lon="4.56034">
        <ele>694</ele>
        <time>2013-10-23T16:25:42Z</time>
      </trkpt>
      <trkpt lat="45.57689" lon="4.56047">
        <ele>694</ele>
        <time>2013-10-23T16:25:46Z</time>
      </trkpt>
      <trkpt lat="45.5769" lon="4.56057">
        <ele>694</ele>
        <time>2013-10-23T16:25:49Z</time>
      </trkpt>
      <trkpt lat="45.57692" lon="4.5607">
        <ele>694</ele>
        <time>2013-10-23T16:25:53Z</time>
      </trkpt>
      <trkpt lat="45.57693" lon="4.56079">
        <ele>694</ele>
        <time>2013-10-23T16:25:56Z</time>
      </trkpt>
      <trkpt lat="45.57694" lon="4.5609">
        <ele>694</ele>
        <time>2013-10-23T16:25:59Z</time>
      </trkpt>
      <trkpt lat="45.57695" lon="4.56101">
        <ele>694</ele>
        <time>2013-10-23T16:26:02Z</time>
      </trkpt>
      <trkpt lat="45.57695" lon="4.56115">
        <ele>694</ele>
        <time>2013-10-23T16:26:06Z</time>
      </trkpt>
      <trkpt lat="45.57696" lon="4.56124">
        <ele>694</ele>
        <time>2013-10-23T16:26:09Z</time>
      </trkpt>
      <trkpt lat="45.57697" lon="4.56134">
        <ele>694</ele>
        <time>2013-10-23T16:26:12Z</time>
      </trkpt>
      <trkpt lat="45.57698" lon="4.56148">
        <ele>694</ele>
        <time>2013-10-23T16:26:16Z</time>
      </trkpt>
      <trkpt lat="45.57698" lon="4.56158">
        <ele>694</ele>
        <time>2013-10-23T16:26:19Z</time>
      </trkpt>
      <trkpt lat="45.57698" lon="4.56171">
        <ele>694</ele>
        <time>2013-10-23T16:26:23Z</time>
      </trkpt>
      <trkpt lat="45.57699" lon="4.56178">
        <ele>694</ele>
        <time>2013-10-23T16:26:26Z</time>
      </trkpt>
      <trkpt lat="45.57701" lon="4.56187">
        <ele>694</ele>
        <time>2013-10-23T16:26:29Z</time>
      </trkpt>
      <trkpt lat="45.57702" lon="4.56198">
        <ele>694</ele>
        <time>2013-10-23T16:26:32Z</time>
      </trkpt>
      <trkpt lat="45.57703" lon="4.56208">
        <ele>694</ele>
        <time>2013-10-23T16:26:35Z</time>
      </trkpt>
      <trkpt lat="45.57703" lon="4.56221">
        <ele>694</ele>
        <time>2013-10-23T16:26:39Z</time>
      </trkpt>
      <trkpt lat="45.57706" lon="4.56232">
        <ele>695</ele>
        <time>2013-10-23T16:26:42Z</time>
      </trkpt>
      <trkpt lat="45.57708" lon="4.56243">
        <ele>696</ele>
        <time>2013-10-23T16:26:45Z</time>
      </trkpt>
      <trkpt lat="45.57708" lon="4.56253">
        <ele>696</ele>
        <time>2013-10-23T16:26:48Z</time>
      </trkpt>
      <trkpt lat="45.5771" lon="4.56266">
        <ele>696</ele>
        <time>2013-10-23T16:26:52Z</time>
      </trkpt>
      <trkpt lat="45.57711" lon="4.5628">
        <ele>696</ele>
        <time>2013-10-23T16:26:56Z</time>
      </trkpt>
      <trkpt lat="45.57711" lon="4.56289">
        <ele>696</ele>
        <time>2013-10-23T16:26:59Z</time>
      </trkpt>
      <trkpt lat="45.57713" lon="4.563">
        <ele>696</ele>
        <time>2013-10-23T16:27:02Z</time>
      </trkpt>
      <trkpt lat="45.57713" lon="4.5631">
        <ele>696</ele>
        <time>2013-10-23T16:27:05Z</time>
      </trkpt>
      <trkpt lat="45.57714" lon="4.56323">
        <ele>696</ele>
        <time>2013-10-23T16:27:09Z</time>
      </trkpt>
      <trkpt lat="45.57715" lon="4.56338">
        <ele>696</ele>
        <time>2013-10-23T16:27:13Z</time>
      </trkpt>
      <trkpt lat="45.57714" lon="4.56353">
        <ele>696</ele>
        <time>2013-10-23T16:27:17Z</time>
      </trkpt>
      <trkpt lat="45.57712" lon="4.56363">
        <ele>696</ele>
        <time>2013-10-23T16:27:20Z</time>
      </trkpt>
      <trkpt lat="45.57711" lon="4.56373">
        <ele>696</ele>
        <time>2013-10-23T16:27:23Z</time>
      </trkpt>
      <trkpt lat="45.57711" lon="4.56384">
        <ele>695</ele>
        <time>2013-10-23T16:27:26Z</time>
      </trkpt>
      <trkpt lat="45.57708" lon="4.56395">
        <ele>694</ele>
        <time>2013-10-23T16:27:29Z</time>
      </trkpt>
      <trkpt lat="45.57707" lon="4.56404">
        <ele>694</ele>
        <time>2013-10-23T16:27:32Z</time>
      </trkpt>
      <trkpt lat="45.57705" lon="4.56416">
        <ele>694</ele>
        <time>2013-10-23T16:27:36Z</time>
      </trkpt>
      <trkpt lat="45.57705" lon="4.56427">
        <ele>694</ele>
        <time>2013-10-23T16:27:40Z</time>
      </trkpt>
      <trkpt lat="45.57707" lon="4.56436">
        <ele>694</ele>
        <time>2013-10-23T16:27:43Z</time>
      </trkpt>
      <trkpt lat="45.5771" lon="4.56446">
        <ele>694</ele>
        <time>2013-10-23T16:27:46Z</time>
      </trkpt>
      <trkpt lat="45.57711" lon="4.56454">
        <ele>694</ele>
        <time>2013-10-23T16:27:49Z</time>
      </trkpt>
      <trkpt lat="45.57713" lon="4.56466">
        <ele>694</ele>
        <time>2013-10-23T16:27:53Z</time>
      </trkpt>
      <trkpt lat="45.57715" lon="4.56476">
        <ele>694</ele>
        <time>2013-10-23T16:27:56Z</time>
      </trkpt>
      <trkpt lat="45.57719" lon="4.56486">
        <ele>694</ele>
        <time>2013-10-23T16:28:00Z</time>
      </trkpt>
      <trkpt lat="45.57724" lon="4.56496">
        <ele>694</ele>
        <time>2013-10-23T16:28:04Z</time>
      </trkpt>
      <trkpt lat="45.57728" lon="4.56505">
        <ele>694</ele>
        <time>2013-10-23T16:28:08Z</time>
      </trkpt>
      <trkpt lat="45.57734" lon="4.56512">
        <ele>694</ele>
        <time>2013-10-23T16:28:11Z</time>
      </trkpt>
      <trkpt lat="45.57741" lon="4.56521">
        <ele>694</ele>
        <time>2013-10-23T16:28:15Z</time>
      </trkpt>
      <trkpt lat="45.57745" lon="4.5653">
        <ele>694</ele>
        <time>2013-10-23T16:28:18Z</time>
      </trkpt>
      <trkpt lat="45.5775" lon="4.56538">
        <ele>695</ele>
        <time>2013-10-23T16:28:21Z</time>
      </trkpt>
      <trkpt lat="45.57754" lon="4.56549">
        <ele>696</ele>
        <time>2013-10-23T16:28:25Z</time>
      </trkpt>
      <trkpt lat="45.57758" lon="4.56558">
        <ele>696</ele>
        <time>2013-10-23T16:28:29Z</time>
      </trkpt>
      <trkpt lat="45.57762" lon="4.56568">
        <ele>696</ele>
        <time>2013-10-23T16:28:32Z</time>
      </trkpt>
      <trkpt lat="45.57766" lon="4.56576">
        <ele>696</ele>
        <time>2013-10-23T16:28:35Z</time>
      </trkpt>
      <trkpt lat="45.5777" lon="4.56586">
        <ele>696</ele>
        <time>2013-10-23T16:28:39Z</time>
      </trkpt>
      <trkpt lat="45.57772" lon="4.56592">
        <ele>696</ele>
        <time>2013-10-23T16:28:42Z</time>
      </trkpt>
      <trkpt lat="45.57776" lon="4.56603">
        <ele>697</ele>
        <time>2013-10-23T16:28:46Z</time>
      </trkpt>
      <trkpt lat="45.57779" lon="4.5661">
        <ele>697</ele>
        <time>2013-10-23T16:28:49Z</time>
      </trkpt>
      <trkpt lat="45.57782" lon="4.56617">
        <ele>697</ele>
        <time>2013-10-23T16:28:52Z</time>
      </trkpt>
      <trkpt lat="45.57785" lon="4.56629">
        <ele>697</ele>
        <time>2013-10-23T16:28:56Z</time>
      </trkpt>
      <trkpt lat="45.57787" lon="4.56637">
        <ele>698</ele>
        <time>2013-10-23T16:28:59Z</time>
      </trkpt>
      <trkpt lat="45.57789" lon="4.56646">
        <ele>699</ele>
        <time>2013-10-23T16:29:02Z</time>
      </trkpt>
      <trkpt lat="45.57794" lon="4.56656">
        <ele>700</ele>
        <time>2013-10-23T16:29:06Z</time>
      </trkpt>
      <trkpt lat="45.57798" lon="4.56662">
        <ele>700</ele>
        <time>2013-10-23T16:29:09Z</time>
      </trkpt>
      <trkpt lat="45.57803" lon="4.56669">
        <ele>701</ele>
        <time>2013-10-23T16:29:13Z</time>
      </trkpt>
      <trkpt lat="45.57807" lon="4.56672">
        <ele>702</ele>
        <time>2013-10-23T16:29:16Z</time>
      </trkpt>
      <trkpt lat="45.57814" lon="4.56677">
        <ele>702</ele>
        <time>2013-10-23T16:29:20Z</time>
      </trkpt>
      <trkpt lat="45.57819" lon="4.56678">
        <ele>703</ele>
        <time>2013-10-23T16:29:23Z</time>
      </trkpt>
      <trkpt lat="45.57822" lon="4.56678">
        <ele>704</ele>
        <time>2013-10-23T16:29:26Z</time>
      </trkpt>
      <trkpt lat="45.57826" lon="4.56678">
        <ele>704</ele>
        <time>2013-10-23T16:29:29Z</time>
      </trkpt>
      <trkpt lat="45.57829" lon="4.56678">
        <ele>704</ele>
        <time>2013-10-23T16:29:32Z</time>
      </trkpt>
      <trkpt lat="45.57833" lon="4.56678">
        <ele>704</ele>
        <time>2013-10-23T16:29:35Z</time>
      </trkpt>
      <trkpt lat="45.57838" lon="4.56678">
        <ele>705</ele>
        <time>2013-10-23T16:29:39Z</time>
      </trkpt>
      <trkpt lat="45.57842" lon="4.56679">
        <ele>706</ele>
        <time>2013-10-23T16:29:42Z</time>
      </trkpt>
      <trkpt lat="45.57847" lon="4.56679">
        <ele>706</ele>
        <time>2013-10-23T16:29:46Z</time>
      </trkpt>
      <trkpt lat="45.5785" lon="4.5668">
        <ele>706</ele>
        <time>2013-10-23T16:29:49Z</time>
      </trkpt>
      <trkpt lat="45.57855" lon="4.5668">
        <ele>707</ele>
        <time>2013-10-23T16:29:53Z</time>
      </trkpt>
      <trkpt lat="45.57858" lon="4.56681">
        <ele>707</ele>
        <time>2013-10-23T16:29:57Z</time>
      </trkpt>
      <trkpt lat="45.57861" lon="4.56681">
        <ele>707</ele>
        <time>2013-10-23T16:30:01Z</time>
      </trkpt>
      <trkpt lat="45.57864" lon="4.56681">
        <ele>707</ele>
        <time>2013-10-23T16:30:04Z</time>
      </trkpt>
      <trkpt lat="45.57867" lon="4.56681">
        <ele>708</ele>
        <time>2013-10-23T16:30:08Z</time>
      </trkpt>
      <trkpt lat="45.57872" lon="4.56681">
        <ele>708</ele>
        <time>2013-10-23T16:30:12Z</time>
      </trkpt>
      <trkpt lat="45.57876" lon="4.56681">
        <ele>709</ele>
        <time>2013-10-23T16:30:16Z</time>
      </trkpt>
      <trkpt lat="45.5788" lon="4.56681">
        <ele>709</ele>
        <time>2013-10-23T16:30:20Z</time>
      </trkpt>
      <trkpt lat="45.57883" lon="4.56681">
        <ele>710</ele>
        <time>2013-10-23T16:30:23Z</time>
      </trkpt>
      <trkpt lat="45.57886" lon="4.56681">
        <ele>710</ele>
        <time>2013-10-23T16:30:27Z</time>
      </trkpt>
      <trkpt lat="45.5789" lon="4.56681">
        <ele>711</ele>
        <time>2013-10-23T16:30:30Z</time>
      </trkpt>
      <trkpt lat="45.57895" lon="4.56682">
        <ele>713</ele>
        <time>2013-10-23T16:30:35Z</time>
      </trkpt>
      <trkpt lat="45.57898" lon="4.56682">
        <ele>714</ele>
        <time>2013-10-23T16:30:39Z</time>
      </trkpt>
      <trkpt lat="45.57902" lon="4.56682">
        <ele>714</ele>
        <time>2013-10-23T16:30:42Z</time>
      </trkpt>
      <trkpt lat="45.57906" lon="4.56685">
        <ele>715</ele>
        <time>2013-10-23T16:30:46Z</time>
      </trkpt>
      <trkpt lat="45.5791" lon="4.56687">
        <ele>716</ele>
        <time>2013-10-23T16:30:50Z</time>
      </trkpt>
      <trkpt lat="45.57914" lon="4.56688">
        <ele>717</ele>
        <time>2013-10-23T16:30:53Z</time>
      </trkpt>
      <trkpt lat="45.57917" lon="4.56688">
        <ele>718</ele>
        <time>2013-10-23T16:30:56Z</time>
      </trkpt>
      <trkpt lat="45.57921" lon="4.56689">
        <ele>718</ele>
        <time>2013-10-23T16:30:59Z</time>
      </trkpt>
      <trkpt lat="45.57927" lon="4.56689">
        <ele>718</ele>
        <time>2013-10-23T16:31:03Z</time>
      </trkpt>
      <trkpt lat="45.5793" lon="4.56689">
        <ele>718</ele>
        <time>2013-10-23T16:31:06Z</time>
      </trkpt>
      <trkpt lat="45.57935" lon="4.56689">
        <ele>718</ele>
        <time>2013-10-23T16:31:10Z</time>
      </trkpt>
      <trkpt lat="45.57938" lon="4.56689">
        <ele>718</ele>
        <time>2013-10-23T16:31:13Z</time>
      </trkpt>
      <trkpt lat="45.57942" lon="4.5669">
        <ele>718</ele>
        <time>2013-10-23T16:31:16Z</time>
      </trkpt>
      <trkpt lat="45.57946" lon="4.56692">
        <ele>719</ele>
        <time>2013-10-23T16:31:20Z</time>
      </trkpt>
      <trkpt lat="45.57951" lon="4.56692">
        <ele>720</ele>
        <time>2013-10-23T16:31:24Z</time>
      </trkpt>
      <trkpt lat="45.57955" lon="4.56693">
        <ele>721</ele>
        <time>2013-10-23T16:31:27Z</time>
      </trkpt>
      <trkpt lat="45.57959" lon="4.56694">
        <ele>721</ele>
        <time>2013-10-23T16:31:30Z</time>
      </trkpt>
      <trkpt lat="45.57964" lon="4.56693">
        <ele>723</ele>
        <time>2013-10-23T16:31:34Z</time>
      </trkpt>
      <trkpt lat="45.57969" lon="4.56694">
        <ele>724</ele>
        <time>2013-10-23T16:31:38Z</time>
      </trkpt>
      <trkpt lat="45.57974" lon="4.56692">
        <ele>726</ele>
        <time>2013-10-23T16:31:42Z</time>
      </trkpt>
      <trkpt lat="45.5798" lon="4.56693">
        <ele>726</ele>
        <time>2013-10-23T16:31:46Z</time>
      </trkpt>
      <trkpt lat="45.57984" lon="4.56693">
        <ele>726</ele>
        <time>2013-10-23T16:31:49Z</time>
      </trkpt>
      <trkpt lat="45.57988" lon="4.56691">
        <ele>728</ele>
        <time>2013-10-23T16:31:53Z</time>
      </trkpt>
      <trkpt lat="45.57993" lon="4.56688">
        <ele>728</ele>
        <time>2013-10-23T16:31:57Z</time>
      </trkpt>
      <trkpt lat="45.57997" lon="4.56686">
        <ele>728</ele>
        <time>2013-10-23T16:32:01Z</time>
      </trkpt>
      <trkpt lat="45.58" lon="4.56684">
        <ele>730</ele>
        <time>2013-10-23T16:32:04Z</time>
      </trkpt>
      <trkpt lat="45.58003" lon="4.56682">
        <ele>733</ele>
        <time>2013-10-23T16:32:07Z</time>
      </trkpt>
      <trkpt lat="45.58007" lon="4.5668">
        <ele>734</ele>
        <time>2013-10-23T16:32:11Z</time>
      </trkpt>
      <trkpt lat="45.5801" lon="4.56677">
        <ele>734</ele>
        <time>2013-10-23T16:32:14Z</time>
      </trkpt>
      <trkpt lat="45.58015" lon="4.56676">
        <ele>734</ele>
        <time>2013-10-23T16:32:18Z</time>
      </trkpt>
      <trkpt lat="45.58018" lon="4.56675">
        <ele>734</ele>
        <time>2013-10-23T16:32:21Z</time>
      </trkpt>
      <trkpt lat="45.58022" lon="4.56675">
        <ele>734</ele>
        <time>2013-10-23T16:32:24Z</time>
      </trkpt>
      <trkpt lat="45.58026" lon="4.56673">
        <ele>735</ele>
        <time>2013-10-23T16:32:27Z</time>
      </trkpt>
      <trkpt lat="45.5803" lon="4.56673">
        <ele>735</ele>
        <time>2013-10-23T16:32:30Z</time>
      </trkpt>
      <trkpt lat="45.58034" lon="4.56673">
        <ele>735</ele>
        <time>2013-10-23T16:32:33Z</time>
      </trkpt>
      <trkpt lat="45.58038" lon="4.56673">
        <ele>735</ele>
        <time>2013-10-23T16:32:37Z</time>
      </trkpt>
      <trkpt lat="45.58041" lon="4.5667">
        <ele>735</ele>
        <time>2013-10-23T16:32:40Z</time>
      </trkpt>
      <trkpt lat="45.58046" lon="4.56668">
        <ele>735</ele>
        <time>2013-10-23T16:32:43Z</time>
      </trkpt>
      <trkpt lat="45.58051" lon="4.56667">
        <ele>735</ele>
        <time>2013-10-23T16:32:48Z</time>
      </trkpt>
      <trkpt lat="45.58054" lon="4.56668">
        <ele>735</ele>
        <time>2013-10-23T16:32:51Z</time>
      </trkpt>
      <trkpt lat="45.58058" lon="4.56667">
        <ele>735</ele>
        <time>2013-10-23T16:32:55Z</time>
      </trkpt>
      <trkpt lat="45.58064" lon="4.56667">
        <ele>735</ele>
        <time>2013-10-23T16:32:59Z</time>
      </trkpt>
      <trkpt lat="45.58068" lon="4.56667">
        <ele>737</ele>
        <time>2013-10-23T16:33:03Z</time>
      </trkpt>
      <trkpt lat="45.58072" lon="4.56667">
        <ele>739</ele>
        <time>2013-10-23T16:33:06Z</time>
      </trkpt>
      <trkpt lat="45.58076" lon="4.56665">
        <ele>739</ele>
        <time>2013-10-23T16:33:09Z</time>
      </trkpt>
      <trkpt lat="45.58079" lon="4.56667">
        <ele>741</ele>
        <time>2013-10-23T16:33:12Z</time>
      </trkpt>
      <trkpt lat="45.58084" lon="4.56667">
        <ele>744</ele>
        <time>2013-10-23T16:33:17Z</time>
      </trkpt>
      <trkpt lat="45.58086" lon="4.56668">
        <ele>745</ele>
        <time>2013-10-23T16:33:20Z</time>
      </trkpt>
      <trkpt lat="45.58091" lon="4.56667">
        <ele>747</ele>
        <time>2013-10-23T16:33:24Z</time>
      </trkpt>
      <trkpt lat="45.58097" lon="4.56662">
        <ele>748</ele>
        <time>2013-10-23T16:33:28Z</time>
      </trkpt>
      <trkpt lat="45.58101" lon="4.56661">
        <ele>748</ele>
        <time>2013-10-23T16:33:32Z</time>
      </trkpt>
      <trkpt lat="45.58105" lon="4.56662">
        <ele>748</ele>
        <time>2013-10-23T16:33:36Z</time>
      </trkpt>
      <trkpt lat="45.58109" lon="4.56662">
        <ele>748</ele>
        <time>2013-10-23T16:33:40Z</time>
      </trkpt>
      <trkpt lat="45.58112" lon="4.56663">
        <ele>748</ele>
        <time>2013-10-23T16:33:44Z</time>
      </trkpt>
      <trkpt lat="45.58117" lon="4.56664">
        <ele>750</ele>
        <time>2013-10-23T16:33:48Z</time>
      </trkpt>
      <trkpt lat="45.5812" lon="4.56665">
        <ele>750</ele>
        <time>2013-10-23T16:33:51Z</time>
      </trkpt>
      <trkpt lat="45.58125" lon="4.56665">
        <ele>750</ele>
        <time>2013-10-23T16:33:55Z</time>
      </trkpt>
      <trkpt lat="45.58127" lon="4.56667">
        <ele>750</ele>
        <time>2013-10-23T16:33:58Z</time>
      </trkpt>
      <trkpt lat="45.58131" lon="4.56668">
        <ele>750</ele>
        <time>2013-10-23T16:34:02Z</time>
      </trkpt>
      <trkpt lat="45.58135" lon="4.56669">
        <ele>750</ele>
        <time>2013-10-23T16:34:05Z</time>
      </trkpt>
      <trkpt lat="45.58139" lon="4.56671">
        <ele>750</ele>
        <time>2013-10-23T16:34:09Z</time>
      </trkpt>
      <trkpt lat="45.58143" lon="4.56673">
        <ele>750</ele>
        <time>2013-10-23T16:34:13Z</time>
      </trkpt>
      <trkpt lat="45.58146" lon="4.56675">
        <ele>751</ele>
        <time>2013-10-23T16:34:16Z</time>
      </trkpt>
      <trkpt lat="45.5815" lon="4.56677">
        <ele>752</ele>
        <time>2013-10-23T16:34:20Z</time>
      </trkpt>
      <trkpt lat="45.58153" lon="4.56678">
        <ele>752</ele>
        <time>2013-10-23T16:34:23Z</time>
      </trkpt>
      <trkpt lat="45.58156" lon="4.56681">
        <ele>753</ele>
        <time>2013-10-23T16:34:27Z</time>
      </trkpt>
      <trkpt lat="45.58161" lon="4.56685">
        <ele>754</ele>
        <time>2013-10-23T16:34:30Z</time>
      </trkpt>
      <trkpt lat="45.58165" lon="4.56687">
        <ele>755</ele>
        <time>2013-10-23T16:34:33Z</time>
      </trkpt>
      <trkpt lat="45.58169" lon="4.5669">
        <ele>756</ele>
        <time>2013-10-23T16:34:37Z</time>
      </trkpt>
      <trkpt lat="45.58173" lon="4.56691">
        <ele>757</ele>
        <time>2013-10-23T16:34:41Z</time>
      </trkpt>
      <trkpt lat="45.58176" lon="4.56693">
        <ele>757</ele>
        <time>2013-10-23T16:34:44Z</time>
      </trkpt>
      <trkpt lat="45.58179" lon="4.56695">
        <ele>758</ele>
        <time>2013-10-23T16:34:48Z</time>
      </trkpt>
      <trkpt lat="45.58184" lon="4.56697">
        <ele>760</ele>
        <time>2013-10-23T16:34:52Z</time>
      </trkpt>
      <trkpt lat="45.58187" lon="4.56699">
        <ele>761</ele>
        <time>2013-10-23T16:34:56Z</time>
      </trkpt>
      <trkpt lat="45.58191" lon="4.56702">
        <ele>762</ele>
        <time>2013-10-23T16:35:00Z</time>
      </trkpt>
      <trkpt lat="45.58193" lon="4.56705">
        <ele>764</ele>
        <time>2013-10-23T16:35:04Z</time>
      </trkpt>
      <trkpt lat="45.58197" lon="4.56712">
        <ele>767</ele>
        <time>2013-10-23T16:35:09Z</time>
      </trkpt>
      <trkpt lat="45.58199" lon="4.56716">
        <ele>768</ele>
        <time>2013-10-23T16:35:12Z</time>
      </trkpt>
      <trkpt lat="45.58202" lon="4.56718">
        <ele>769</ele>
        <time>2013-10-23T16:35:15Z</time>
      </trkpt>
      <trkpt lat="45.58206" lon="4.56719">
        <ele>769</ele>
        <time>2013-10-23T16:35:20Z</time>
      </trkpt>
      <trkpt lat="45.58207" lon="4.56723">
        <ele>770</ele>
        <time>2013-10-23T16:35:23Z</time>
      </trkpt>
      <trkpt lat="45.58211" lon="4.56725">
        <ele>771</ele>
        <time>2013-10-23T16:35:27Z</time>
      </trkpt>
      <trkpt lat="45.58215" lon="4.56727">
        <ele>771</ele>
        <time>2013-10-23T16:35:31Z</time>
      </trkpt>
      <trkpt lat="45.58219" lon="4.56729">
        <ele>771</ele>
        <time>2013-10-23T16:35:35Z</time>
      </trkpt>
      <trkpt lat="45.58222" lon="4.56731">
        <ele>771</ele>
        <time>2013-10-23T16:35:39Z</time>
      </trkpt>
      <trkpt lat="45.58225" lon="4.56732">
        <ele>771</ele>
        <time>2013-10-23T16:35:43Z</time>
      </trkpt>
      <trkpt lat="45.58229" lon="4.56734">
        <ele>771</ele>
        <time>2013-10-23T16:35:48Z</time>
      </trkpt>
      <trkpt lat="45.58232" lon="4.56738">
        <ele>771</ele>
        <time>2013-10-23T16:35:52Z</time>
      </trkpt>
      <trkpt lat="45.58236" lon="4.56739">
        <ele>772</ele>
        <time>2013-10-23T16:35:55Z</time>
      </trkpt>
      <trkpt lat="45.58239" lon="4.56743">
        <ele>772</ele>
        <time>2013-10-23T16:35:59Z</time>
      </trkpt>
      <trkpt lat="45.58242" lon="4.56747">
        <ele>772</ele>
        <time>2013-10-23T16:36:03Z</time>
      </trkpt>
      <trkpt lat="45.58244" lon="4.56749">
        <ele>773</ele>
        <time>2013-10-23T16:36:06Z</time>
      </trkpt>
      <trkpt lat="45.58249" lon="4.56752">
        <ele>773</ele>
        <time>2013-10-23T16:36:10Z</time>
      </trkpt>
      <trkpt lat="45.5825" lon="4.56756">
        <ele>773</ele>
        <time>2013-10-23T16:36:13Z</time>
      </trkpt>
      <trkpt lat="45.58254" lon="4.56759">
        <ele>774</ele>
        <time>2013-10-23T16:36:16Z</time>
      </trkpt>
      <trkpt lat="45.58258" lon="4.56761">
        <ele>774</ele>
        <time>2013-10-23T16:36:19Z</time>
      </trkpt>
      <trkpt lat="45.58263" lon="4.56764">
        <ele>774</ele>
        <time>2013-10-23T16:36:22Z</time>
      </trkpt>
      <trkpt lat="45.58266" lon="4.56767">
        <ele>774</ele>
        <time>2013-10-23T16:36:26Z</time>
      </trkpt>
      <trkpt lat="45.5827" lon="4.5677">
        <ele>774</ele>
        <time>2013-10-23T16:36:30Z</time>
      </trkpt>
      <trkpt lat="45.58272" lon="4.56773">
        <ele>774</ele>
        <time>2013-10-23T16:36:34Z</time>
      </trkpt>
      <trkpt lat="45.58276" lon="4.56776">
        <ele>774</ele>
        <time>2013-10-23T16:36:38Z</time>
      </trkpt>
      <trkpt lat="45.58281" lon="4.56779">
        <ele>774</ele>
        <time>2013-10-23T16:36:41Z</time>
      </trkpt>
      <trkpt lat="45.58286" lon="4.56785">
        <ele>775</ele>
        <time>2013-10-23T16:36:45Z</time>
      </trkpt>
      <trkpt lat="45.5829" lon="4.56789">
        <ele>777</ele>
        <time>2013-10-23T16:36:48Z</time>
      </trkpt>
      <trkpt lat="45.58293" lon="4.56792">
        <ele>780</ele>
        <time>2013-10-23T16:36:51Z</time>
      </trkpt>
      <trkpt lat="45.58298" lon="4.56796">
        <ele>781</ele>
        <time>2013-10-23T16:36:55Z</time>
      </trkpt>
      <trkpt lat="45.58305" lon="4.56799">
        <ele>782</ele>
        <time>2013-10-23T16:36:59Z</time>
      </trkpt>
      <trkpt lat="45.58308" lon="4.56802">
        <ele>783</ele>
        <time>2013-10-23T16:37:03Z</time>
      </trkpt>
      <trkpt lat="45.58312" lon="4.56805">
        <ele>784</ele>
        <time>2013-10-23T16:37:07Z</time>
      </trkpt>
      <trkpt lat="45.58315" lon="4.56807">
        <ele>786</ele>
        <time>2013-10-23T16:37:11Z</time>
      </trkpt>
      <trkpt lat="45.58318" lon="4.56811">
        <ele>787</ele>
        <time>2013-10-23T16:37:14Z</time>
      </trkpt>
      <trkpt lat="45.58321" lon="4.56813">
        <ele>787</ele>
        <time>2013-10-23T16:37:17Z</time>
      </trkpt>
      <trkpt lat="45.58324" lon="4.56815">
        <ele>787</ele>
        <time>2013-10-23T16:37:20Z</time>
      </trkpt>
      <trkpt lat="45.58328" lon="4.56817">
        <ele>787</ele>
        <time>2013-10-23T16:37:23Z</time>
      </trkpt>
      <trkpt lat="45.58332" lon="4.56819">
        <ele>787</ele>
        <time>2013-10-23T16:37:26Z</time>
      </trkpt>
      <trkpt lat="45.58335" lon="4.56821">
        <ele>787</ele>
        <time>2013-10-23T16:37:31Z</time>
      </trkpt>
      <trkpt lat="45.58339" lon="4.56822">
        <ele>787</ele>
        <time>2013-10-23T16:37:35Z</time>
      </trkpt>
      <trkpt lat="45.58344" lon="4.56823">
        <ele>787</ele>
        <time>2013-10-23T16:37:38Z</time>
      </trkpt>
      <trkpt lat="45.58348" lon="4.56823">
        <ele>787</ele>
        <time>2013-10-23T16:37:41Z</time>
      </trkpt>
      <trkpt lat="45.58351" lon="4.56823">
        <ele>787</ele>
        <time>2013-10-23T16:37:44Z</time>
      </trkpt>
      <trkpt lat="45.58355" lon="4.56824">
        <ele>787</ele>
        <time>2013-10-23T16:37:48Z</time>
      </trkpt>
      <trkpt lat="45.5836" lon="4.56827">
        <ele>789</ele>
        <time>2013-10-23T16:37:52Z</time>
      </trkpt>
      <trkpt lat="45.58366" lon="4.56831">
        <ele>791</ele>
        <time>2013-10-23T16:37:55Z</time>
      </trkpt>
      <trkpt lat="45.58367" lon="4.56835">
        <ele>793</ele>
        <time>2013-10-23T16:37:59Z</time>
      </trkpt>
      <trkpt lat="45.58368" lon="4.5684">
        <ele>793</ele>
        <time>2013-10-23T16:38:02Z</time>
      </trkpt>
      <trkpt lat="45.58369" lon="4.56844">
        <ele>793</ele>
        <time>2013-10-23T16:38:05Z</time>
      </trkpt>
      <trkpt lat="45.58372" lon="4.56849">
        <ele>793</ele>
        <time>2013-10-23T16:38:09Z</time>
      </trkpt>
      <trkpt lat="45.58375" lon="4.56852">
        <ele>793</ele>
        <time>2013-10-23T16:38:12Z</time>
      </trkpt>
      <trkpt lat="45.58379" lon="4.56855">
        <ele>793</ele>
        <time>2013-10-23T16:38:16Z</time>
      </trkpt>
      <trkpt lat="45.58385" lon="4.56858">
        <ele>793</ele>
        <time>2013-10-23T16:38:21Z</time>
      </trkpt>
      <trkpt lat="45.58389" lon="4.5686">
        <ele>793</ele>
        <time>2013-10-23T16:38:24Z</time>
      </trkpt>
      <trkpt lat="45.58394" lon="4.56863">
        <ele>792</ele>
        <time>2013-10-23T16:38:28Z</time>
      </trkpt>
      <trkpt lat="45.58398" lon="4.56865">
        <ele>792</ele>
        <time>2013-10-23T16:38:31Z</time>
      </trkpt>
      <trkpt lat="45.58403" lon="4.56868">
        <ele>792</ele>
        <time>2013-10-23T16:38:35Z</time>
      </trkpt>
      <trkpt lat="45.58406" lon="4.56871">
        <ele>792</ele>
        <time>2013-10-23T16:38:38Z</time>
      </trkpt>
      <trkpt lat="45.5841" lon="4.56874">
        <ele>792</ele>
        <time>2013-10-23T16:38:41Z</time>
      </trkpt>
      <trkpt lat="45.58413" lon="4.56877">
        <ele>792</ele>
        <time>2013-10-23T16:38:44Z</time>
      </trkpt>
      <trkpt lat="45.58417" lon="4.5688">
        <ele>792</ele>
        <time>2013-10-23T16:38:47Z</time>
      </trkpt>
      <trkpt lat="45.58421" lon="4.56884">
        <ele>792</ele>
        <time>2013-10-23T16:38:51Z</time>
      </trkpt>
      <trkpt lat="45.58423" lon="4.56887">
        <ele>792</ele>
        <time>2013-10-23T16:38:54Z</time>
      </trkpt>
      <trkpt lat="45.58427" lon="4.5689">
        <ele>792</ele>
        <time>2013-10-23T16:38:57Z</time>
      </trkpt>
      <trkpt lat="45.5843" lon="4.56893">
        <ele>792</ele>
        <time>2013-10-23T16:39:00Z</time>
      </trkpt>
      <trkpt lat="45.58434" lon="4.56897">
        <ele>792</ele>
        <time>2013-10-23T16:39:04Z</time>
      </trkpt>
      <trkpt lat="45.58439" lon="4.56902">
        <ele>791</ele>
        <time>2013-10-23T16:39:08Z</time>
      </trkpt>
      <trkpt lat="45.58442" lon="4.56907">
        <ele>790</ele>
        <time>2013-10-23T16:39:11Z</time>
      </trkpt>
      <trkpt lat="45.58445" lon="4.56912">
        <ele>790</ele>
        <time>2013-10-23T16:39:14Z</time>
      </trkpt>
      <trkpt lat="45.58449" lon="4.56919">
        <ele>790</ele>
        <time>2013-10-23T16:39:18Z</time>
      </trkpt>
      <trkpt lat="45.58452" lon="4.56923">
        <ele>790</ele>
        <time>2013-10-23T16:39:21Z</time>
      </trkpt>
      <trkpt lat="45.58455" lon="4.56925">
        <ele>790</ele>
        <time>2013-10-23T16:39:24Z</time>
      </trkpt>
      <trkpt lat="45.58459" lon="4.56927">
        <ele>790</ele>
        <time>2013-10-23T16:39:28Z</time>
      </trkpt>
      <trkpt lat="45.58464" lon="4.56928">
        <ele>790</ele>
        <time>2013-10-23T16:39:32Z</time>
      </trkpt>
      <trkpt lat="45.58468" lon="4.56927">
        <ele>790</ele>
        <time>2013-10-23T16:39:36Z</time>
      </trkpt>
      <trkpt lat="45.58472" lon="4.56927">
        <ele>791</ele>
        <time>2013-10-23T16:39:39Z</time>
      </trkpt>
      <trkpt lat="45.58477" lon="4.56927">
        <ele>792</ele>
        <time>2013-10-23T16:39:42Z</time>
      </trkpt>
      <trkpt lat="45.58481" lon="4.56929">
        <ele>793</ele>
        <time>2013-10-23T16:39:45Z</time>
      </trkpt>
      <trkpt lat="45.58485" lon="4.56932">
        <ele>794</ele>
        <time>2013-10-23T16:39:49Z</time>
      </trkpt>
      <trkpt lat="45.58487" lon="4.56936">
        <ele>795</ele>
        <time>2013-10-23T16:39:52Z</time>
      </trkpt>
      <trkpt lat="45.58492" lon="4.56939">
        <ele>796</ele>
        <time>2013-10-23T16:39:55Z</time>
      </trkpt>
      <trkpt lat="45.58495" lon="4.56943">
        <ele>797</ele>
        <time>2013-10-23T16:39:58Z</time>
      </trkpt>
      <trkpt lat="45.58498" lon="4.56945">
        <ele>797</ele>
        <time>2013-10-23T16:40:02Z</time>
      </trkpt>
      <trkpt lat="45.58501" lon="4.56949">
        <ele>798</ele>
        <time>2013-10-23T16:40:05Z</time>
      </trkpt>
      <trkpt lat="45.58506" lon="4.56951">
        <ele>798</ele>
        <time>2013-10-23T16:40:08Z</time>
      </trkpt>
      <trkpt lat="45.58511" lon="4.56955">
        <ele>799</ele>
        <time>2013-10-23T16:40:12Z</time>
      </trkpt>
      <trkpt lat="45.58516" lon="4.56959">
        <ele>799</ele>
        <time>2013-10-23T16:40:16Z</time>
      </trkpt>
      <trkpt lat="45.58519" lon="4.56962">
        <ele>799</ele>
        <time>2013-10-23T16:40:19Z</time>
      </trkpt>
      <trkpt lat="45.58523" lon="4.56966">
        <ele>799</ele>
        <time>2013-10-23T16:40:22Z</time>
      </trkpt>
      <trkpt lat="45.58527" lon="4.56969">
        <ele>799</ele>
        <time>2013-10-23T16:40:26Z</time>
      </trkpt>
      <trkpt lat="45.5853" lon="4.56973">
        <ele>799</ele>
        <time>2013-10-23T16:40:29Z</time>
      </trkpt>
      <trkpt lat="45.58535" lon="4.56977">
        <ele>800</ele>
        <time>2013-10-23T16:40:33Z</time>
      </trkpt>
      <trkpt lat="45.58539" lon="4.5698">
        <ele>800</ele>
        <time>2013-10-23T16:40:36Z</time>
      </trkpt>
      <trkpt lat="45.58544" lon="4.56983">
        <ele>800</ele>
        <time>2013-10-23T16:40:40Z</time>
      </trkpt>
      <trkpt lat="45.58548" lon="4.56986">
        <ele>800</ele>
        <time>2013-10-23T16:40:44Z</time>
      </trkpt>
      <trkpt lat="45.58552" lon="4.56989">
        <ele>800</ele>
        <time>2013-10-23T16:40:48Z</time>
      </trkpt>
      <trkpt lat="45.58555" lon="4.5699">
        <ele>801</ele>
        <time>2013-10-23T16:40:51Z</time>
      </trkpt>
      <trkpt lat="45.58559" lon="4.56992">
        <ele>802</ele>
        <time>2013-10-23T16:40:55Z</time>
      </trkpt>
      <trkpt lat="45.58563" lon="4.56995">
        <ele>803</ele>
        <time>2013-10-23T16:40:58Z</time>
      </trkpt>
      <trkpt lat="45.58567" lon="4.57">
        <ele>803</ele>
        <time>2013-10-23T16:41:02Z</time>
      </trkpt>
      <trkpt lat="45.5857" lon="4.57004">
        <ele>803</ele>
        <time>2013-10-23T16:41:05Z</time>
      </trkpt>
      <trkpt lat="45.58574" lon="4.5701">
        <ele>803</ele>
        <time>2013-10-23T16:41:09Z</time>
      </trkpt>
      <trkpt lat="45.58577" lon="4.57015">
        <ele>803</ele>
        <time>2013-10-23T16:41:12Z</time>
      </trkpt>
      <trkpt lat="45.5858" lon="4.57019">
        <ele>803</ele>
        <time>2013-10-23T16:41:15Z</time>
      </trkpt>
      <trkpt lat="45.58582" lon="4.57023">
        <ele>803</ele>
        <time>2013-10-23T16:41:18Z</time>
      </trkpt>
      <trkpt lat="45.58585" lon="4.57029">
        <ele>803</ele>
        <time>2013-10-23T16:41:21Z</time>
      </trkpt>
      <trkpt lat="45.58587" lon="4.57033">
        <ele>803</ele>
        <time>2013-10-23T16:41:24Z</time>
      </trkpt>
      <trkpt lat="45.5859" lon="4.57039">
        <ele>804</ele>
        <time>2013-10-23T16:41:28Z</time>
      </trkpt>
      <trkpt lat="45.58593" lon="4.57044">
        <ele>804</ele>
        <time>2013-10-23T16:41:31Z</time>
      </trkpt>
      <trkpt lat="45.58595" lon="4.5705">
        <ele>804</ele>
        <time>2013-10-23T16:41:35Z</time>
      </trkpt>
      <trkpt lat="45.58597" lon="4.57055">
        <ele>805</ele>
        <time>2013-10-23T16:41:38Z</time>
      </trkpt>
      <trkpt lat="45.58598" lon="4.57059">
        <ele>805</ele>
        <time>2013-10-23T16:41:41Z</time>
      </trkpt>
      <trkpt lat="45.586" lon="4.57064">
        <ele>806</ele>
        <time>2013-10-23T16:41:44Z</time>
      </trkpt>
      <trkpt lat="45.58602" lon="4.5707">
        <ele>806</ele>
        <time>2013-10-23T16:41:48Z</time>
      </trkpt>
      <trkpt lat="45.58606" lon="4.57078">
        <ele>806</ele>
        <time>2013-10-23T16:41:51Z</time>
      </trkpt>
      <trkpt lat="45.5861" lon="4.57087">
        <ele>806</ele>
        <time>2013-10-23T16:41:54Z</time>
      </trkpt>
      <trkpt lat="45.58614" lon="4.57096">
        <ele>806</ele>
        <time>2013-10-23T16:41:57Z</time>
      </trkpt>
      <trkpt lat="45.58618" lon="4.57105">
        <ele>806</ele>
        <time>2013-10-23T16:42:00Z</time>
      </trkpt>
      <trkpt lat="45.58622" lon="4.57114">
        <ele>806</ele>
        <time>2013-10-23T16:42:03Z</time>
      </trkpt>
      <trkpt lat="45.58626" lon="4.57121">
        <ele>807</ele>
        <time>2013-10-23T16:42:06Z</time>
      </trkpt>
      <trkpt lat="45.5863" lon="4.57129">
        <ele>807</ele>
        <time>2013-10-23T16:42:09Z</time>
      </trkpt>
      <trkpt lat="45.58634" lon="4.57137">
        <ele>807</ele>
        <time>2013-10-23T16:42:12Z</time>
      </trkpt>
      <trkpt lat="45.58639" lon="4.57143">
        <ele>807</ele>
        <time>2013-10-23T16:42:15Z</time>
      </trkpt>
      <trkpt lat="45.58644" lon="4.5715">
        <ele>808</ele>
        <time>2013-10-23T16:42:18Z</time>
      </trkpt>
      <trkpt lat="45.58648" lon="4.57157">
        <ele>809</ele>
        <time>2013-10-23T16:42:21Z</time>
      </trkpt>
      <trkpt lat="45.58653" lon="4.57165">
        <ele>809</ele>
        <time>2013-10-23T16:42:24Z</time>
      </trkpt>
      <trkpt lat="45.58658" lon="4.57172">
        <ele>809</ele>
        <time>2013-10-23T16:42:27Z</time>
      </trkpt>
      <trkpt lat="45.58662" lon="4.57179">
        <ele>809</ele>
        <time>2013-10-23T16:42:30Z</time>
      </trkpt>
      <trkpt lat="45.58669" lon="4.57188">
        <ele>809</ele>
        <time>2013-10-23T16:42:34Z</time>
      </trkpt>
      <trkpt lat="45.58673" lon="4.57194">
        <ele>809</ele>
        <time>2013-10-23T16:42:37Z</time>
      </trkpt>
      <trkpt lat="45.58677" lon="4.57199">
        <ele>809</ele>
        <time>2013-10-23T16:42:40Z</time>
      </trkpt>
      <trkpt lat="45.58682" lon="4.57205">
        <ele>809</ele>
        <time>2013-10-23T16:42:43Z</time>
      </trkpt>
      <trkpt lat="45.58688" lon="4.57211">
        <ele>809</ele>
        <time>2013-10-23T16:42:46Z</time>
      </trkpt>
      <trkpt lat="45.58693" lon="4.57217">
        <ele>809</ele>
        <time>2013-10-23T16:42:49Z</time>
      </trkpt>
      <trkpt lat="45.58698" lon="4.57223">
        <ele>809</ele>
        <time>2013-10-23T16:42:52Z</time>
      </trkpt>
      <trkpt lat="45.58705" lon="4.5723">
        <ele>809</ele>
        <time>2013-10-23T16:42:56Z</time>
      </trkpt>
      <trkpt lat="45.5871" lon="4.57235">
        <ele>809</ele>
        <time>2013-10-23T16:42:59Z</time>
      </trkpt>
      <trkpt lat="45.58716" lon="4.5724">
        <ele>809</ele>
        <time>2013-10-23T16:43:02Z</time>
      </trkpt>
      <trkpt lat="45.58722" lon="4.57243">
        <ele>809</ele>
        <time>2013-10-23T16:43:05Z</time>
      </trkpt>
      <trkpt lat="45.5873" lon="4.57247">
        <ele>810</ele>
        <time>2013-10-23T16:43:09Z</time>
      </trkpt>
      <trkpt lat="45.58736" lon="4.57249">
        <ele>810</ele>
        <time>2013-10-23T16:43:12Z</time>
      </trkpt>
      <trkpt lat="45.58744" lon="4.57253">
        <ele>810</ele>
        <time>2013-10-23T16:43:15Z</time>
      </trkpt>
      <trkpt lat="45.58754" lon="4.57257">
        <ele>810</ele>
        <time>2013-10-23T16:43:19Z</time>
      </trkpt>
      <trkpt lat="45.58762" lon="4.5726">
        <ele>810</ele>
        <time>2013-10-23T16:43:23Z</time>
      </trkpt>
      <trkpt lat="45.58768" lon="4.57262">
        <ele>810</ele>
        <time>2013-10-23T16:43:26Z</time>
      </trkpt>
      <trkpt lat="45.58774" lon="4.57266">
        <ele>810</ele>
        <time>2013-10-23T16:43:29Z</time>
      </trkpt>
      <trkpt lat="45.58781" lon="4.5727">
        <ele>810</ele>
        <time>2013-10-23T16:43:32Z</time>
      </trkpt>
      <trkpt lat="45.58786" lon="4.57273">
        <ele>810</ele>
        <time>2013-10-23T16:43:35Z</time>
      </trkpt>
      <trkpt lat="45.58793" lon="4.57274">
        <ele>810</ele>
        <time>2013-10-23T16:43:38Z</time>
      </trkpt>
      <trkpt lat="45.58799" lon="4.57273">
        <ele>809</ele>
        <time>2013-10-23T16:43:41Z</time>
      </trkpt>
      <trkpt lat="45.58805" lon="4.57271">
        <ele>809</ele>
        <time>2013-10-23T16:43:44Z</time>
      </trkpt>
      <trkpt lat="45.58812" lon="4.57268">
        <ele>808</ele>
        <time>2013-10-23T16:43:47Z</time>
      </trkpt>
      <trkpt lat="45.58818" lon="4.57265">
        <ele>807</ele>
        <time>2013-10-23T16:43:50Z</time>
      </trkpt>
      <trkpt lat="45.58824" lon="4.57262">
        <ele>806</ele>
        <time>2013-10-23T16:43:53Z</time>
      </trkpt>
      <trkpt lat="45.58831" lon="4.5726">
        <ele>806</ele>
        <time>2013-10-23T16:43:56Z</time>
      </trkpt>
      <trkpt lat="45.58838" lon="4.57261">
        <ele>805</ele>
        <time>2013-10-23T16:44:00Z</time>
      </trkpt>
      <trkpt lat="45.58845" lon="4.57264">
        <ele>804</ele>
        <time>2013-10-23T16:44:04Z</time>
      </trkpt>
      <trkpt lat="45.58851" lon="4.57267">
        <ele>802</ele>
        <time>2013-10-23T16:44:07Z</time>
      </trkpt>
      <trkpt lat="45.58857" lon="4.57269">
        <ele>801</ele>
        <time>2013-10-23T16:44:10Z</time>
      </trkpt>
      <trkpt lat="45.58863" lon="4.57271">
        <ele>800</ele>
        <time>2013-10-23T16:44:13Z</time>
      </trkpt>
      <trkpt lat="45.58871" lon="4.57273">
        <ele>798</ele>
        <time>2013-10-23T16:44:17Z</time>
      </trkpt>
      <trkpt lat="45.58878" lon="4.57274">
        <ele>798</ele>
        <time>2013-10-23T16:44:20Z</time>
      </trkpt>
      <trkpt lat="45.58886" lon="4.57272">
        <ele>797</ele>
        <time>2013-10-23T16:44:24Z</time>
      </trkpt>
      <trkpt lat="45.58892" lon="4.57271">
        <ele>797</ele>
        <time>2013-10-23T16:44:27Z</time>
      </trkpt>
      <trkpt lat="45.58897" lon="4.5727">
        <ele>796</ele>
        <time>2013-10-23T16:44:30Z</time>
      </trkpt>
      <trkpt lat="45.58905" lon="4.57269">
        <ele>794</ele>
        <time>2013-10-23T16:44:34Z</time>
      </trkpt>
      <trkpt lat="45.58911" lon="4.5727">
        <ele>793</ele>
        <time>2013-10-23T16:44:37Z</time>
      </trkpt>
      <trkpt lat="45.58917" lon="4.57271">
        <ele>792</ele>
        <time>2013-10-23T16:44:40Z</time>
      </trkpt>
      <trkpt lat="45.58923" lon="4.57271">
        <ele>792</ele>
        <time>2013-10-23T16:44:43Z</time>
      </trkpt>
      <trkpt lat="45.5893" lon="4.57272">
        <ele>791</ele>
        <time>2013-10-23T16:44:46Z</time>
      </trkpt>
      <trkpt lat="45.58939" lon="4.57274">
        <ele>790</ele>
        <time>2013-10-23T16:44:50Z</time>
      </trkpt>
      <trkpt lat="45.58945" lon="4.57276">
        <ele>789</ele>
        <time>2013-10-23T16:44:53Z</time>
      </trkpt>
      <trkpt lat="45.58952" lon="4.57275">
        <ele>787</ele>
        <time>2013-10-23T16:44:56Z</time>
      </trkpt>
      <trkpt lat="45.58961" lon="4.57271">
        <ele>786</ele>
        <time>2013-10-23T16:45:00Z</time>
      </trkpt>
      <trkpt lat="45.58967" lon="4.57266">
        <ele>784</ele>
        <time>2013-10-23T16:45:03Z</time>
      </trkpt>
      <trkpt lat="45.58974" lon="4.57262">
        <ele>783</ele>
        <time>2013-10-23T16:45:06Z</time>
      </trkpt>
      <trkpt lat="45.58982" lon="4.57258">
        <ele>781</ele>
        <time>2013-10-23T16:45:10Z</time>
      </trkpt>
      <trkpt lat="45.5899" lon="4.57253">
        <ele>778</ele>
        <time>2013-10-23T16:45:14Z</time>
      </trkpt>
      <trkpt lat="45.58996" lon="4.5725">
        <ele>777</ele>
        <time>2013-10-23T16:45:17Z</time>
      </trkpt>
      <trkpt lat="45.59003" lon="4.57248">
        <ele>775</ele>
        <time>2013-10-23T16:45:20Z</time>
      </trkpt>
      <trkpt lat="45.59008" lon="4.57246">
        <ele>774</ele>
        <time>2013-10-23T16:45:23Z</time>
      </trkpt>
      <trkpt lat="45.59013" lon="4.57243">
        <ele>772</ele>
        <time>2013-10-23T16:45:26Z</time>
      </trkpt>
      <trkpt lat="45.59017" lon="4.57239">
        <ele>771</ele>
        <time>2013-10-23T16:45:29Z</time>
      </trkpt>
      <trkpt lat="45.59022" lon="4.57237">
        <ele>769</ele>
        <time>2013-10-23T16:45:32Z</time>
      </trkpt>
      <trkpt lat="45.59026" lon="4.57233">
        <ele>767</ele>
        <time>2013-10-23T16:45:35Z</time>
      </trkpt>
      <trkpt lat="45.59031" lon="4.57229">
        <ele>767</ele>
        <time>2013-10-23T16:45:38Z</time>
      </trkpt>
      <trkpt lat="45.59038" lon="4.57226">
        <ele>764</ele>
        <time>2013-10-23T16:45:42Z</time>
      </trkpt>
      <trkpt lat="45.59043" lon="4.57224">
        <ele>761</ele>
        <time>2013-10-23T16:45:45Z</time>
      </trkpt>
      <trkpt lat="45.5905" lon="4.5722">
        <ele>759</ele>
        <time>2013-10-23T16:45:48Z</time>
      </trkpt>
      <trkpt lat="45.59056" lon="4.57214">
        <ele>758</ele>
        <time>2013-10-23T16:45:51Z</time>
      </trkpt>
      <trkpt lat="45.59063" lon="4.57211">
        <ele>758</ele>
        <time>2013-10-23T16:45:54Z</time>
      </trkpt>
      <trkpt lat="45.59069" lon="4.57207">
        <ele>756</ele>
        <time>2013-10-23T16:45:58Z</time>
      </trkpt>
      <trkpt lat="45.59074" lon="4.57203">
        <ele>756</ele>
        <time>2013-10-23T16:46:01Z</time>
      </trkpt>
      <trkpt lat="45.59081" lon="4.57201">
        <ele>755</ele>
        <time>2013-10-23T16:46:04Z</time>
      </trkpt>
      <trkpt lat="45.59089" lon="4.57193">
        <ele>753</ele>
        <time>2013-10-23T16:46:08Z</time>
      </trkpt>
      <trkpt lat="45.59096" lon="4.57189">
        <ele>753</ele>
        <time>2013-10-23T16:46:11Z</time>
      </trkpt>
      <trkpt lat="45.59102" lon="4.57184">
        <ele>753</ele>
        <time>2013-10-23T16:46:14Z</time>
      </trkpt>
      <trkpt lat="45.59108" lon="4.57176">
        <ele>753</ele>
        <time>2013-10-23T16:46:18Z</time>
      </trkpt>
      <trkpt lat="45.59115" lon="4.57172">
        <ele>753</ele>
        <time>2013-10-23T16:46:22Z</time>
      </trkpt>
      <trkpt lat="45.59122" lon="4.57167">
        <ele>752</ele>
        <time>2013-10-23T16:46:25Z</time>
      </trkpt>
      <trkpt lat="45.59127" lon="4.57163">
        <ele>751</ele>
        <time>2013-10-23T16:46:29Z</time>
      </trkpt>
      <trkpt lat="45.59136" lon="4.57163">
        <ele>750</ele>
        <time>2013-10-23T16:46:33Z</time>
      </trkpt>
      <trkpt lat="45.59143" lon="4.57168">
        <ele>750</ele>
        <time>2013-10-23T16:46:36Z</time>
      </trkpt>
      <trkpt lat="45.59148" lon="4.57176">
        <ele>748</ele>
        <time>2013-10-23T16:46:39Z</time>
      </trkpt>
      <trkpt lat="45.59156" lon="4.57186">
        <ele>746</ele>
        <time>2013-10-23T16:46:43Z</time>
      </trkpt>
      <trkpt lat="45.59162" lon="4.57194">
        <ele>746</ele>
        <time>2013-10-23T16:46:46Z</time>
      </trkpt>
      <trkpt lat="45.59167" lon="4.57201">
        <ele>746</ele>
        <time>2013-10-23T16:46:49Z</time>
      </trkpt>
      <trkpt lat="45.59172" lon="4.57205">
        <ele>746</ele>
        <time>2013-10-23T16:46:52Z</time>
      </trkpt>
      <trkpt lat="45.59186" lon="4.57203">
        <ele>746</ele>
        <time>2013-10-23T16:46:56Z</time>
      </trkpt>
      <trkpt lat="45.59196" lon="4.57198">
        <ele>746</ele>
        <time>2013-10-23T16:46:59Z</time>
      </trkpt>
      <trkpt lat="45.59205" lon="4.57192">
        <ele>746</ele>
        <time>2013-10-23T16:47:02Z</time>
      </trkpt>
      <trkpt lat="45.59215" lon="4.57187">
        <ele>746</ele>
        <time>2013-10-23T16:47:05Z</time>
      </trkpt>
      <trkpt lat="45.59228" lon="4.57179">
        <ele>746</ele>
        <time>2013-10-23T16:47:09Z</time>
      </trkpt>
      <trkpt lat="45.59238" lon="4.57175">
        <ele>746</ele>
        <time>2013-10-23T16:47:12Z</time>
      </trkpt>
      <trkpt lat="45.59248" lon="4.5717">
        <ele>745</ele>
        <time>2013-10-23T16:47:15Z</time>
      </trkpt>
      <trkpt lat="45.59261" lon="4.57165">
        <ele>744</ele>
        <time>2013-10-23T16:47:19Z</time>
      </trkpt>
      <trkpt lat="45.59267" lon="4.5716">
        <ele>744</ele>
        <time>2013-10-23T16:47:22Z</time>
      </trkpt>
      <trkpt lat="45.59276" lon="4.57158">
        <ele>744</ele>
        <time>2013-10-23T16:47:25Z</time>
      </trkpt>
      <trkpt lat="45.59286" lon="4.57157">
        <ele>743</ele>
        <time>2013-10-23T16:47:29Z</time>
      </trkpt>
      <trkpt lat="45.59294" lon="4.57155">
        <ele>742</ele>
        <time>2013-10-23T16:47:32Z</time>
      </trkpt>
      <trkpt lat="45.59301" lon="4.57149">
        <ele>741</ele>
        <time>2013-10-23T16:47:35Z</time>
      </trkpt>
      <trkpt lat="45.59306" lon="4.57136">
        <ele>740</ele>
        <time>2013-10-23T16:47:39Z</time>
      </trkpt>
      <trkpt lat="45.59308" lon="4.57126">
        <ele>739</ele>
        <time>2013-10-23T16:47:42Z</time>
      </trkpt>
      <trkpt lat="45.59312" lon="4.57117">
        <ele>737</ele>
        <time>2013-10-23T16:47:45Z</time>
      </trkpt>
      <trkpt lat="45.59315" lon="4.57107">
        <ele>735</ele>
        <time>2013-10-23T16:47:49Z</time>
      </trkpt>
      <trkpt lat="45.59318" lon="4.57098">
        <ele>735</ele>
        <time>2013-10-23T16:47:52Z</time>
      </trkpt>
      <trkpt lat="45.59323" lon="4.57086">
        <ele>734</ele>
        <time>2013-10-23T16:47:56Z</time>
      </trkpt>
      <trkpt lat="45.59329" lon="4.57074">
        <ele>733</ele>
        <time>2013-10-23T16:48:00Z</time>
      </trkpt>
      <trkpt lat="45.59333" lon="4.57064">
        <ele>732</ele>
        <time>2013-10-23T16:48:03Z</time>
      </trkpt>
      <trkpt lat="45.59337" lon="4.57055">
        <ele>730</ele>
        <time>2013-10-23T16:48:06Z</time>
      </trkpt>
      <trkpt lat="45.59343" lon="4.57042">
        <ele>728</ele>
        <time>2013-10-23T16:48:10Z</time>
      </trkpt>
      <trkpt lat="45.59347" lon="4.57033">
        <ele>727</ele>
        <time>2013-10-23T16:48:13Z</time>
      </trkpt>
      <trkpt lat="45.59349" lon="4.57025">
        <ele>726</ele>
        <time>2013-10-23T16:48:16Z</time>
      </trkpt>
      <trkpt lat="45.59353" lon="4.57012">
        <ele>725</ele>
        <time>2013-10-23T16:48:20Z</time>
      </trkpt>
      <trkpt lat="45.59353" lon="4.57001">
        <ele>725</ele>
        <time>2013-10-23T16:48:24Z</time>
      </trkpt>
      <trkpt lat="45.59349" lon="4.56993">
        <ele>725</ele>
        <time>2013-10-23T16:48:27Z</time>
      </trkpt>
      <trkpt lat="45.59344" lon="4.56986">
        <ele>725</ele>
        <time>2013-10-23T16:48:30Z</time>
      </trkpt>
      <trkpt lat="45.5934" lon="4.56979">
        <ele>725</ele>
        <time>2013-10-23T16:48:33Z</time>
      </trkpt>
      <trkpt lat="45.59333" lon="4.56969">
        <ele>725</ele>
        <time>2013-10-23T16:48:37Z</time>
      </trkpt>
      <trkpt lat="45.59328" lon="4.56962">
        <ele>725</ele>
        <time>2013-10-23T16:48:40Z</time>
      </trkpt>
      <trkpt lat="45.59324" lon="4.56955">
        <ele>724</ele>
        <time>2013-10-23T16:48:43Z</time>
      </trkpt>
      <trkpt lat="45.59319" lon="4.56947">
        <ele>724</ele>
        <time>2013-10-23T16:48:46Z</time>
      </trkpt>
      <trkpt lat="45.59314" lon="4.56938">
        <ele>724</ele>
        <time>2013-10-23T16:48:49Z</time>
      </trkpt>
      <trkpt lat="45.5931" lon="4.56928">
        <ele>724</ele>
        <time>2013-10-23T16:48:52Z</time>
      </trkpt>
      <trkpt lat="45.59305" lon="4.56919">
        <ele>723</ele>
        <time>2013-10-23T16:48:55Z</time>
      </trkpt>
      <trkpt lat="45.593" lon="4.5691">
        <ele>723</ele>
        <time>2013-10-23T16:48:58Z</time>
      </trkpt>
      <trkpt lat="45.59295" lon="4.569">
        <ele>722</ele>
        <time>2013-10-23T16:49:01Z</time>
      </trkpt>
      <trkpt lat="45.5929" lon="4.56891">
        <ele>722</ele>
        <time>2013-10-23T16:49:04Z</time>
      </trkpt>
      <trkpt lat="45.59286" lon="4.56882">
        <ele>722</ele>
        <time>2013-10-23T16:49:07Z</time>
      </trkpt>
      <trkpt lat="45.59282" lon="4.56873">
        <ele>721</ele>
        <time>2013-10-23T16:49:10Z</time>
      </trkpt>
      <trkpt lat="45.59279" lon="4.5686">
        <ele>721</ele>
        <time>2013-10-23T16:49:14Z</time>
      </trkpt>
      <trkpt lat="45.59279" lon="4.56851">
        <ele>720</ele>
        <time>2013-10-23T16:49:17Z</time>
      </trkpt>
      <trkpt lat="45.5928" lon="4.56838">
        <ele>720</ele>
        <time>2013-10-23T16:49:21Z</time>
      </trkpt>
      <trkpt lat="45.59282" lon="4.56828">
        <ele>720</ele>
        <time>2013-10-23T16:49:24Z</time>
      </trkpt>
      <trkpt lat="45.59283" lon="4.56818">
        <ele>719</ele>
        <time>2013-10-23T16:49:27Z</time>
      </trkpt>
      <trkpt lat="45.59282" lon="4.56803">
        <ele>719</ele>
        <time>2013-10-23T16:49:31Z</time>
      </trkpt>
      <trkpt lat="45.59282" lon="4.56792">
        <ele>719</ele>
        <time>2013-10-23T16:49:35Z</time>
      </trkpt>
      <trkpt lat="45.59281" lon="4.56783">
        <ele>718</ele>
        <time>2013-10-23T16:49:38Z</time>
      </trkpt>
      <trkpt lat="45.5928" lon="4.56775">
        <ele>717</ele>
        <time>2013-10-23T16:49:41Z</time>
      </trkpt>
      <trkpt lat="45.59278" lon="4.56764">
        <ele>717</ele>
        <time>2013-10-23T16:49:44Z</time>
      </trkpt>
      <trkpt lat="45.59275" lon="4.56753">
        <ele>717</ele>
        <time>2013-10-23T16:49:48Z</time>
      </trkpt>
      <trkpt lat="45.59269" lon="4.5674">
        <ele>717</ele>
        <time>2013-10-23T16:49:52Z</time>
      </trkpt>
      <trkpt lat="45.59265" lon="4.56732">
        <ele>717</ele>
        <time>2013-10-23T16:49:55Z</time>
      </trkpt>
      <trkpt lat="45.59262" lon="4.56723">
        <ele>717</ele>
        <time>2013-10-23T16:49:58Z</time>
      </trkpt>
      <trkpt lat="45.59259" lon="4.5671">
        <ele>717</ele>
        <time>2013-10-23T16:50:02Z</time>
      </trkpt>
      <trkpt lat="45.59256" lon="4.56702">
        <ele>718</ele>
        <time>2013-10-23T16:50:05Z</time>
      </trkpt>
      <trkpt lat="45.59253" lon="4.56694">
        <ele>720</ele>
        <time>2013-10-23T16:50:08Z</time>
      </trkpt>
      <trkpt lat="45.59249" lon="4.56686">
        <ele>721</ele>
        <time>2013-10-23T16:50:11Z</time>
      </trkpt>
      <trkpt lat="45.59246" lon="4.56678">
        <ele>721</ele>
        <time>2013-10-23T16:50:14Z</time>
      </trkpt>
      <trkpt lat="45.59241" lon="4.56671">
        <ele>722</ele>
        <time>2013-10-23T16:50:17Z</time>
      </trkpt>
      <trkpt lat="45.59237" lon="4.56668">
        <ele>722</ele>
        <time>2013-10-23T16:50:20Z</time>
      </trkpt>
      <trkpt lat="45.59233" lon="4.56664">
        <ele>722</ele>
        <time>2013-10-23T16:50:23Z</time>
      </trkpt>
      <trkpt lat="45.59229" lon="4.5666">
        <ele>722</ele>
        <time>2013-10-23T16:50:26Z</time>
      </trkpt>
      <trkpt lat="45.59227" lon="4.56655">
        <ele>722</ele>
        <time>2013-10-23T16:50:29Z</time>
      </trkpt>
      <trkpt lat="45.59223" lon="4.56651">
        <ele>724</ele>
        <time>2013-10-23T16:50:33Z</time>
      </trkpt>
      <trkpt lat="45.59219" lon="4.56649">
        <ele>724</ele>
        <time>2013-10-23T16:50:37Z</time>
      </trkpt>
      <trkpt lat="45.59218" lon="4.56647">
        <ele>725</ele>
        <time>2013-10-23T16:50:45Z</time>
      </trkpt>
      <trkpt lat="45.59211" lon="4.56643">
        <ele>725</ele>
        <time>2013-10-23T16:50:49Z</time>
      </trkpt>
      <trkpt lat="45.59208" lon="4.5664">
        <ele>725</ele>
        <time>2013-10-23T16:50:52Z</time>
      </trkpt>
      <trkpt lat="45.59203" lon="4.56636">
        <ele>726</ele>
        <time>2013-10-23T16:50:55Z</time>
      </trkpt>
      <trkpt lat="45.59197" lon="4.5663">
        <ele>727</ele>
        <time>2013-10-23T16:51:00Z</time>
      </trkpt>
      <trkpt lat="45.59191" lon="4.56623">
        <ele>727</ele>
        <time>2013-10-23T16:51:03Z</time>
      </trkpt>
      <trkpt lat="45.59185" lon="4.56618">
        <ele>727</ele>
        <time>2013-10-23T16:51:06Z</time>
      </trkpt>
      <trkpt lat="45.59179" lon="4.56612">
        <ele>727</ele>
        <time>2013-10-23T16:51:09Z</time>
      </trkpt>
      <trkpt lat="45.59173" lon="4.56607">
        <ele>727</ele>
        <time>2013-10-23T16:51:12Z</time>
      </trkpt>
      <trkpt lat="45.59164" lon="4.56602">
        <ele>727</ele>
        <time>2013-10-23T16:51:15Z</time>
      </trkpt>
      <trkpt lat="45.59158" lon="4.56599">
        <ele>727</ele>
        <time>2013-10-23T16:51:18Z</time>
      </trkpt>
      <trkpt lat="45.59153" lon="4.56596">
        <ele>726</ele>
        <time>2013-10-23T16:51:21Z</time>
      </trkpt>
      <trkpt lat="45.5915" lon="4.56594">
        <ele>724</ele>
        <time>2013-10-23T16:51:24Z</time>
      </trkpt>
      <trkpt lat="45.59146" lon="4.56593">
        <ele>724</ele>
        <time>2013-10-23T16:51:28Z</time>
      </trkpt>
      <trkpt lat="45.59143" lon="4.56592">
        <ele>724</ele>
        <time>2013-10-23T16:51:31Z</time>
      </trkpt>
      <trkpt lat="45.5914" lon="4.5659">
        <ele>724</ele>
        <time>2013-10-23T16:51:34Z</time>
      </trkpt>
      <trkpt lat="45.59135" lon="4.56587">
        <ele>724</ele>
        <time>2013-10-23T16:51:38Z</time>
      </trkpt>
      <trkpt lat="45.59131" lon="4.56586">
        <ele>724</ele>
        <time>2013-10-23T16:51:42Z</time>
      </trkpt>
      <trkpt lat="45.59127" lon="4.56584">
        <ele>723</ele>
        <time>2013-10-23T16:51:45Z</time>
      </trkpt>
      <trkpt lat="45.59122" lon="4.56583">
        <ele>722</ele>
        <time>2013-10-23T16:51:49Z</time>
      </trkpt>
      <trkpt lat="45.59118" lon="4.56581">
        <ele>722</ele>
        <time>2013-10-23T16:51:52Z</time>
      </trkpt>
      <trkpt lat="45.59115" lon="4.5658">
        <ele>722</ele>
        <time>2013-10-23T16:51:55Z</time>
      </trkpt>
      <trkpt lat="45.59111" lon="4.5658">
        <ele>722</ele>
        <time>2013-10-23T16:51:58Z</time>
      </trkpt>
      <trkpt lat="45.59108" lon="4.56578">
        <ele>722</ele>
        <time>2013-10-23T16:52:01Z</time>
      </trkpt>
      <trkpt lat="45.59104" lon="4.56576">
        <ele>722</ele>
        <time>2013-10-23T16:52:06Z</time>
      </trkpt>
      <trkpt lat="45.59098" lon="4.56574">
        <ele>722</ele>
        <time>2013-10-23T16:52:10Z</time>
      </trkpt>
      <trkpt lat="45.59094" lon="4.56571">
        <ele>722</ele>
        <time>2013-10-23T16:52:13Z</time>
      </trkpt>
      <trkpt lat="45.59091" lon="4.56568">
        <ele>725</ele>
        <time>2013-10-23T16:52:16Z</time>
      </trkpt>
      <trkpt lat="45.59087" lon="4.56565">
        <ele>726</ele>
        <time>2013-10-23T16:52:20Z</time>
      </trkpt>
      <trkpt lat="45.59084" lon="4.56564">
        <ele>727</ele>
        <time>2013-10-23T16:52:23Z</time>
      </trkpt>
      <trkpt lat="45.59077" lon="4.56566">
        <ele>728</ele>
        <time>2013-10-23T16:52:27Z</time>
      </trkpt>
      <trkpt lat="45.59069" lon="4.56566">
        <ele>728</ele>
        <time>2013-10-23T16:52:30Z</time>
      </trkpt>
      <trkpt lat="45.59065" lon="4.56566">
        <ele>728</ele>
        <time>2013-10-23T16:52:33Z</time>
      </trkpt>
      <trkpt lat="45.59061" lon="4.56568">
        <ele>728</ele>
        <time>2013-10-23T16:52:36Z</time>
      </trkpt>
      <trkpt lat="45.59056" lon="4.56568">
        <ele>728</ele>
        <time>2013-10-23T16:52:39Z</time>
      </trkpt>
      <trkpt lat="45.59052" lon="4.56569">
        <ele>728</ele>
        <time>2013-10-23T16:52:42Z</time>
      </trkpt>
      <trkpt lat="45.59047" lon="4.56571">
        <ele>728</ele>
        <time>2013-10-23T16:52:46Z</time>
      </trkpt>
      <trkpt lat="45.59043" lon="4.56568">
        <ele>728</ele>
        <time>2013-10-23T16:52:49Z</time>
      </trkpt>
      <trkpt lat="45.59039" lon="4.56568">
        <ele>728</ele>
        <time>2013-10-23T16:52:52Z</time>
      </trkpt>
      <trkpt lat="45.59035" lon="4.56569">
        <ele>728</ele>
        <time>2013-10-23T16:52:55Z</time>
      </trkpt>
      <trkpt lat="45.5903" lon="4.56566">
        <ele>728</ele>
        <time>2013-10-23T16:52:59Z</time>
      </trkpt>
      <trkpt lat="45.59027" lon="4.56565">
        <ele>726</ele>
        <time>2013-10-23T16:53:02Z</time>
      </trkpt>
      <trkpt lat="45.59023" lon="4.56565">
        <ele>726</ele>
        <time>2013-10-23T16:53:05Z</time>
      </trkpt>
      <trkpt lat="45.5902" lon="4.56564">
        <ele>725</ele>
        <time>2013-10-23T16:53:08Z</time>
      </trkpt>
      <trkpt lat="45.59016" lon="4.56562">
        <ele>724</ele>
        <time>2013-10-23T16:53:11Z</time>
      </trkpt>
      <trkpt lat="45.59011" lon="4.56561">
        <ele>723</ele>
        <time>2013-10-23T16:53:14Z</time>
      </trkpt>
      <trkpt lat="45.59005" lon="4.56561">
        <ele>723</ele>
        <time>2013-10-23T16:53:17Z</time>
      </trkpt>
      <trkpt lat="45.59001" lon="4.56559">
        <ele>723</ele>
        <time>2013-10-23T16:53:20Z</time>
      </trkpt>
      <trkpt lat="45.58998" lon="4.56558">
        <ele>723</ele>
        <time>2013-10-23T16:53:23Z</time>
      </trkpt>
      <trkpt lat="45.58994" lon="4.56557">
        <ele>723</ele>
        <time>2013-10-23T16:53:26Z</time>
      </trkpt>
      <trkpt lat="45.5899" lon="4.56557">
        <ele>723</ele>
        <time>2013-10-23T16:53:29Z</time>
      </trkpt>
      <trkpt lat="45.58985" lon="4.56558">
        <ele>724</ele>
        <time>2013-10-23T16:53:33Z</time>
      </trkpt>
      <trkpt lat="45.58982" lon="4.56558">
        <ele>726</ele>
        <time>2013-10-23T16:53:36Z</time>
      </trkpt>
      <trkpt lat="45.58979" lon="4.56556">
        <ele>727</ele>
        <time>2013-10-23T16:53:39Z</time>
      </trkpt>
      <trkpt lat="45.58973" lon="4.56554">
        <ele>729</ele>
        <time>2013-10-23T16:53:42Z</time>
      </trkpt>
      <trkpt lat="45.58969" lon="4.56553">
        <ele>731</ele>
        <time>2013-10-23T16:53:45Z</time>
      </trkpt>
      <trkpt lat="45.58964" lon="4.56554">
        <ele>733</ele>
        <time>2013-10-23T16:53:48Z</time>
      </trkpt>
      <trkpt lat="45.5896" lon="4.56552">
        <ele>733</ele>
        <time>2013-10-23T16:53:51Z</time>
      </trkpt>
      <trkpt lat="45.58955" lon="4.56551">
        <ele>734</ele>
        <time>2013-10-23T16:53:54Z</time>
      </trkpt>
      <trkpt lat="45.58951" lon="4.56551">
        <ele>734</ele>
        <time>2013-10-23T16:53:57Z</time>
      </trkpt>
      <trkpt lat="45.58947" lon="4.56552">
        <ele>734</ele>
        <time>2013-10-23T16:54:00Z</time>
      </trkpt>
      <trkpt lat="45.58943" lon="4.56552">
        <ele>734</ele>
        <time>2013-10-23T16:54:03Z</time>
      </trkpt>
      <trkpt lat="45.58938" lon="4.56552">
        <ele>733</ele>
        <time>2013-10-23T16:54:06Z</time>
      </trkpt>
      <trkpt lat="45.58934" lon="4.56553">
        <ele>732</ele>
        <time>2013-10-23T16:54:09Z</time>
      </trkpt>
      <trkpt lat="45.5893" lon="4.56553">
        <ele>731</ele>
        <time>2013-10-23T16:54:12Z</time>
      </trkpt>
      <trkpt lat="45.58926" lon="4.56553">
        <ele>731</ele>
        <time>2013-10-23T16:54:15Z</time>
      </trkpt>
      <trkpt lat="45.58922" lon="4.56552">
        <ele>731</ele>
        <time>2013-10-23T16:54:18Z</time>
      </trkpt>
      <trkpt lat="45.58916" lon="4.56551">
        <ele>731</ele>
        <time>2013-10-23T16:54:21Z</time>
      </trkpt>
      <trkpt lat="45.5891" lon="4.56552">
        <ele>731</ele>
        <time>2013-10-23T16:54:24Z</time>
      </trkpt>
      <trkpt lat="45.58903" lon="4.56553">
        <ele>731</ele>
        <time>2013-10-23T16:54:27Z</time>
      </trkpt>
      <trkpt lat="45.58897" lon="4.56554">
        <ele>731</ele>
        <time>2013-10-23T16:54:31Z</time>
      </trkpt>
      <trkpt lat="45.58893" lon="4.56555">
        <ele>732</ele>
        <time>2013-10-23T16:54:34Z</time>
      </trkpt>
      <trkpt lat="45.58889" lon="4.56554">
        <ele>733</ele>
        <time>2013-10-23T16:54:37Z</time>
      </trkpt>
      <trkpt lat="45.58883" lon="4.56555">
        <ele>734</ele>
        <time>2013-10-23T16:54:40Z</time>
      </trkpt>
      <trkpt lat="45.58877" lon="4.56556">
        <ele>735</ele>
        <time>2013-10-23T16:54:43Z</time>
      </trkpt>
      <trkpt lat="45.58871" lon="4.56558">
        <ele>737</ele>
        <time>2013-10-23T16:54:46Z</time>
      </trkpt>
      <trkpt lat="45.58866" lon="4.56557">
        <ele>740</ele>
        <time>2013-10-23T16:54:49Z</time>
      </trkpt>
      <trkpt lat="45.5886" lon="4.56557">
        <ele>744</ele>
        <time>2013-10-23T16:54:53Z</time>
      </trkpt>
      <trkpt lat="45.58853" lon="4.56559">
        <ele>746</ele>
        <time>2013-10-23T16:54:57Z</time>
      </trkpt>
      <trkpt lat="45.58847" lon="4.56561">
        <ele>746</ele>
        <time>2013-10-23T16:55:00Z</time>
      </trkpt>
      <trkpt lat="45.58841" lon="4.56562">
        <ele>746</ele>
        <time>2013-10-23T16:55:03Z</time>
      </trkpt>
      <trkpt lat="45.58834" lon="4.56562">
        <ele>746</ele>
        <time>2013-10-23T16:55:06Z</time>
      </trkpt>
      <trkpt lat="45.58828" lon="4.56561">
        <ele>748</ele>
        <time>2013-10-23T16:55:09Z</time>
      </trkpt>
      <trkpt lat="45.58822" lon="4.56562">
        <ele>749</ele>
        <time>2013-10-23T16:55:12Z</time>
      </trkpt>
      <trkpt lat="45.58817" lon="4.56564">
        <ele>749</ele>
        <time>2013-10-23T16:55:15Z</time>
      </trkpt>
      <trkpt lat="45.58812" lon="4.56563">
        <ele>749</ele>
        <time>2013-10-23T16:55:18Z</time>
      </trkpt>
      <trkpt lat="45.58809" lon="4.56561">
        <ele>747</ele>
        <time>2013-10-23T16:55:21Z</time>
      </trkpt>
      <trkpt lat="45.58805" lon="4.56561">
        <ele>744</ele>
        <time>2013-10-23T16:55:25Z</time>
      </trkpt>
      <trkpt lat="45.58804" lon="4.5656">
        <ele>743</ele>
        <time>2013-10-23T16:55:28Z</time>
      </trkpt>
      <trkpt lat="45.58803" lon="4.56557">
        <ele>742</ele>
        <time>2013-10-23T16:55:36Z</time>
      </trkpt>
      <trkpt lat="45.58802" lon="4.56555">
        <ele>742</ele>
        <time>2013-10-23T16:55:42Z</time>
      </trkpt>
      <trkpt lat="45.58801" lon="4.56553">
        <ele>745</ele>
        <time>2013-10-23T16:55:56Z</time>
      </trkpt>
      <trkpt lat="45.588" lon="4.56554">
        <ele>749</ele>
        <time>2013-10-23T16:56:09Z</time>
      </trkpt>
      <trkpt lat="45.58798" lon="4.56552">
        <ele>749</ele>
        <time>2013-10-23T16:56:15Z</time>
      </trkpt>
      <trkpt lat="45.58797" lon="4.56552">
        <ele>749</ele>
        <time>2013-10-23T16:56:18Z</time>
      </trkpt>
      <trkpt lat="45.58796" lon="4.56554">
        <ele>749</ele>
        <time>2013-10-23T16:56:22Z</time>
      </trkpt>
      <trkpt lat="45.58796" lon="4.56558">
        <ele>749</ele>
        <time>2013-10-23T16:56:26Z</time>
      </trkpt>
      <trkpt lat="45.58797" lon="4.56561">
        <ele>749</ele>
        <time>2013-10-23T16:56:30Z</time>
      </trkpt>
      <trkpt lat="45.58796" lon="4.56563">
        <ele>749</ele>
        <time>2013-10-23T16:56:34Z</time>
      </trkpt>
      <trkpt lat="45.58797" lon="4.56565">
        <ele>749</ele>
        <time>2013-10-23T16:56:42Z</time>
      </trkpt>
      <trkpt lat="45.58798" lon="4.56566">
        <ele>752</ele>
        <time>2013-10-23T16:56:47Z</time>
      </trkpt>
      <trkpt lat="45.588" lon="4.56568">
        <ele>753</ele>
        <time>2013-10-23T16:56:50Z</time>
      </trkpt>
      <trkpt lat="45.58798" lon="4.56566">
        <ele>754</ele>
        <time>2013-10-23T16:56:53Z</time>
      </trkpt>
      <trkpt lat="45.58793" lon="4.56564">
        <ele>754</ele>
        <time>2013-10-23T16:56:56Z</time>
      </trkpt>
      <trkpt lat="45.58789" lon="4.56563">
        <ele>754</ele>
        <time>2013-10-23T16:56:59Z</time>
      </trkpt>
      <trkpt lat="45.58785" lon="4.56562">
        <ele>754</ele>
        <time>2013-10-23T16:57:03Z</time>
      </trkpt>
      <trkpt lat="45.58783" lon="4.56561">
        <ele>754</ele>
        <time>2013-10-23T16:57:06Z</time>
      </trkpt>
      <trkpt lat="45.58779" lon="4.56559">
        <ele>753</ele>
        <time>2013-10-23T16:57:09Z</time>
      </trkpt>
      <trkpt lat="45.58775" lon="4.56557">
        <ele>752</ele>
        <time>2013-10-23T16:57:13Z</time>
      </trkpt>
      <trkpt lat="45.58771" lon="4.56557">
        <ele>751</ele>
        <time>2013-10-23T16:57:17Z</time>
      </trkpt>
      <trkpt lat="45.58768" lon="4.56556">
        <ele>751</ele>
        <time>2013-10-23T16:57:20Z</time>
      </trkpt>
      <trkpt lat="45.58765" lon="4.56555">
        <ele>751</ele>
        <time>2013-10-23T16:57:23Z</time>
      </trkpt>
      <trkpt lat="45.5876" lon="4.56555">
        <ele>751</ele>
        <time>2013-10-23T16:57:27Z</time>
      </trkpt>
      <trkpt lat="45.58756" lon="4.56555">
        <ele>751</ele>
        <time>2013-10-23T16:57:30Z</time>
      </trkpt>
      <trkpt lat="45.58753" lon="4.56555">
        <ele>751</ele>
        <time>2013-10-23T16:57:33Z</time>
      </trkpt>
      <trkpt lat="45.58749" lon="4.56555">
        <ele>751</ele>
        <time>2013-10-23T16:57:36Z</time>
      </trkpt>
      <trkpt lat="45.58744" lon="4.56554">
        <ele>751</ele>
        <time>2013-10-23T16:57:40Z</time>
      </trkpt>
      <trkpt lat="45.58741" lon="4.56552">
        <ele>751</ele>
        <time>2013-10-23T16:57:43Z</time>
      </trkpt>
      <trkpt lat="45.58738" lon="4.56552">
        <ele>751</ele>
        <time>2013-10-23T16:57:46Z</time>
      </trkpt>
      <trkpt lat="45.58733" lon="4.56552">
        <ele>752</ele>
        <time>2013-10-23T16:57:50Z</time>
      </trkpt>
      <trkpt lat="45.5873" lon="4.56551">
        <ele>753</ele>
        <time>2013-10-23T16:57:53Z</time>
      </trkpt>
      <trkpt lat="45.58726" lon="4.56551">
        <ele>754</ele>
        <time>2013-10-23T16:57:56Z</time>
      </trkpt>
      <trkpt lat="45.58722" lon="4.5655">
        <ele>755</ele>
        <time>2013-10-23T16:58:00Z</time>
      </trkpt>
      <trkpt lat="45.58719" lon="4.5655">
        <ele>755</ele>
        <time>2013-10-23T16:58:03Z</time>
      </trkpt>
      <trkpt lat="45.58714" lon="4.5655">
        <ele>755</ele>
        <time>2013-10-23T16:58:06Z</time>
      </trkpt>
      <trkpt lat="45.5871" lon="4.56549">
        <ele>755</ele>
        <time>2013-10-23T16:58:09Z</time>
      </trkpt>
      <trkpt lat="45.58706" lon="4.56549">
        <ele>755</ele>
        <time>2013-10-23T16:58:12Z</time>
      </trkpt>
      <trkpt lat="45.587" lon="4.56547">
        <ele>755</ele>
        <time>2013-10-23T16:58:15Z</time>
      </trkpt>
      <trkpt lat="45.58695" lon="4.56545">
        <ele>754</ele>
        <time>2013-10-23T16:58:18Z</time>
      </trkpt>
      <trkpt lat="45.58691" lon="4.56545">
        <ele>753</ele>
        <time>2013-10-23T16:58:21Z</time>
      </trkpt>
      <trkpt lat="45.58688" lon="4.56546">
        <ele>752</ele>
        <time>2013-10-23T16:58:24Z</time>
      </trkpt>
      <trkpt lat="45.58685" lon="4.56546">
        <ele>752</ele>
        <time>2013-10-23T16:58:27Z</time>
      </trkpt>
      <trkpt lat="45.58681" lon="4.56543">
        <ele>751</ele>
        <time>2013-10-23T16:58:30Z</time>
      </trkpt>
      <trkpt lat="45.58675" lon="4.5654">
        <ele>750</ele>
        <time>2013-10-23T16:58:33Z</time>
      </trkpt>
      <trkpt lat="45.58669" lon="4.56536">
        <ele>749</ele>
        <time>2013-10-23T16:58:36Z</time>
      </trkpt>
      <trkpt lat="45.58663" lon="4.56535">
        <ele>749</ele>
        <time>2013-10-23T16:58:39Z</time>
      </trkpt>
      <trkpt lat="45.58657" lon="4.56533">
        <ele>749</ele>
        <time>2013-10-23T16:58:42Z</time>
      </trkpt>
      <trkpt lat="45.58649" lon="4.56531">
        <ele>749</ele>
        <time>2013-10-23T16:58:46Z</time>
      </trkpt>
      <trkpt lat="45.58644" lon="4.56529">
        <ele>748</ele>
        <time>2013-10-23T16:58:49Z</time>
      </trkpt>
      <trkpt lat="45.58638" lon="4.56525">
        <ele>747</ele>
        <time>2013-10-23T16:58:52Z</time>
      </trkpt>
      <trkpt lat="45.58635" lon="4.56521">
        <ele>747</ele>
        <time>2013-10-23T16:58:55Z</time>
      </trkpt>
      <trkpt lat="45.58633" lon="4.56522">
        <ele>747</ele>
        <time>2013-10-23T16:58:58Z</time>
      </trkpt>
      <trkpt lat="45.58629" lon="4.56522">
        <ele>747</ele>
        <time>2013-10-23T16:59:02Z</time>
      </trkpt>
      <trkpt lat="45.58627" lon="4.5652">
        <ele>747</ele>
        <time>2013-10-23T16:59:05Z</time>
      </trkpt>
      <trkpt lat="45.58622" lon="4.5652">
        <ele>747</ele>
        <time>2013-10-23T16:59:08Z</time>
      </trkpt>
      <trkpt lat="45.58619" lon="4.56521">
        <ele>747</ele>
        <time>2013-10-23T16:59:11Z</time>
      </trkpt>
      <trkpt lat="45.58615" lon="4.56521">
        <ele>747</ele>
        <time>2013-10-23T16:59:14Z</time>
      </trkpt>
      <trkpt lat="45.5861" lon="4.56518">
        <ele>748</ele>
        <time>2013-10-23T16:59:17Z</time>
      </trkpt>
      <trkpt lat="45.58604" lon="4.56516">
        <ele>748</ele>
        <time>2013-10-23T16:59:20Z</time>
      </trkpt>
      <trkpt lat="45.58599" lon="4.56513">
        <ele>749</ele>
        <time>2013-10-23T16:59:23Z</time>
      </trkpt>
      <trkpt lat="45.58595" lon="4.5651">
        <ele>749</ele>
        <time>2013-10-23T16:59:26Z</time>
      </trkpt>
      <trkpt lat="45.5859" lon="4.56508">
        <ele>749</ele>
        <time>2013-10-23T16:59:29Z</time>
      </trkpt>
      <trkpt lat="45.58583" lon="4.56504">
        <ele>749</ele>
        <time>2013-10-23T16:59:32Z</time>
      </trkpt>
      <trkpt lat="45.58578" lon="4.565">
        <ele>749</ele>
        <time>2013-10-23T16:59:35Z</time>
      </trkpt>
      <trkpt lat="45.58572" lon="4.56499">
        <ele>749</ele>
        <time>2013-10-23T16:59:38Z</time>
      </trkpt>
      <trkpt lat="45.58567" lon="4.56495">
        <ele>749</ele>
        <time>2013-10-23T16:59:41Z</time>
      </trkpt>
      <trkpt lat="45.58561" lon="4.56493">
        <ele>749</ele>
        <time>2013-10-23T16:59:44Z</time>
      </trkpt>
      <trkpt lat="45.58554" lon="4.56489">
        <ele>750</ele>
        <time>2013-10-23T16:59:48Z</time>
      </trkpt>
      <trkpt lat="45.58548" lon="4.56485">
        <ele>751</ele>
        <time>2013-10-23T16:59:51Z</time>
      </trkpt>
      <trkpt lat="45.58541" lon="4.56486">
        <ele>751</ele>
        <time>2013-10-23T16:59:54Z</time>
      </trkpt>
      <trkpt lat="45.58535" lon="4.56483">
        <ele>751</ele>
        <time>2013-10-23T16:59:57Z</time>
      </trkpt>
      <trkpt lat="45.58528" lon="4.56478">
        <ele>751</ele>
        <time>2013-10-23T17:00:01Z</time>
      </trkpt>
      <trkpt lat="45.58525" lon="4.56474">
        <ele>752</ele>
        <time>2013-10-23T17:00:05Z</time>
      </trkpt>
      <trkpt lat="45.58522" lon="4.5647">
        <ele>754</ele>
        <time>2013-10-23T17:00:09Z</time>
      </trkpt>
      <trkpt lat="45.58518" lon="4.56467">
        <ele>758</ele>
        <time>2013-10-23T17:00:22Z</time>
      </trkpt>
      <trkpt lat="45.58515" lon="4.56467">
        <ele>759</ele>
        <time>2013-10-23T17:00:25Z</time>
      </trkpt>
      <trkpt lat="45.5851" lon="4.56464">
        <ele>760</ele>
        <time>2013-10-23T17:00:28Z</time>
      </trkpt>
      <trkpt lat="45.58505" lon="4.56461">
        <ele>760</ele>
        <time>2013-10-23T17:00:31Z</time>
      </trkpt>
      <trkpt lat="45.58501" lon="4.56458">
        <ele>760</ele>
        <time>2013-10-23T17:00:34Z</time>
      </trkpt>
      <trkpt lat="45.58497" lon="4.56454">
        <ele>761</ele>
        <time>2013-10-23T17:00:37Z</time>
      </trkpt>
      <trkpt lat="45.5849" lon="4.56447">
        <ele>761</ele>
        <time>2013-10-23T17:00:41Z</time>
      </trkpt>
      <trkpt lat="45.58485" lon="4.5644">
        <ele>761</ele>
        <time>2013-10-23T17:00:44Z</time>
      </trkpt>
      <trkpt lat="45.58479" lon="4.56435">
        <ele>761</ele>
        <time>2013-10-23T17:00:47Z</time>
      </trkpt>
      <trkpt lat="45.58475" lon="4.5643">
        <ele>761</ele>
        <time>2013-10-23T17:00:50Z</time>
      </trkpt>
      <trkpt lat="45.58471" lon="4.56425">
        <ele>761</ele>
        <time>2013-10-23T17:00:53Z</time>
      </trkpt>
      <trkpt lat="45.58468" lon="4.5642">
        <ele>761</ele>
        <time>2013-10-23T17:00:56Z</time>
      </trkpt>
      <trkpt lat="45.58465" lon="4.56415">
        <ele>761</ele>
        <time>2013-10-23T17:00:59Z</time>
      </trkpt>
      <trkpt lat="45.58462" lon="4.56409">
        <ele>762</ele>
        <time>2013-10-23T17:01:02Z</time>
      </trkpt>
      <trkpt lat="45.58458" lon="4.56404">
        <ele>762</ele>
        <time>2013-10-23T17:01:05Z</time>
      </trkpt>
      <trkpt lat="45.58455" lon="4.56399">
        <ele>762</ele>
        <time>2013-10-23T17:01:08Z</time>
      </trkpt>
      <trkpt lat="45.5845" lon="4.56394">
        <ele>762</ele>
        <time>2013-10-23T17:01:11Z</time>
      </trkpt>
      <trkpt lat="45.58446" lon="4.56389">
        <ele>762</ele>
        <time>2013-10-23T17:01:14Z</time>
      </trkpt>
      <trkpt lat="45.58442" lon="4.56383">
        <ele>762</ele>
        <time>2013-10-23T17:01:17Z</time>
      </trkpt>
      <trkpt lat="45.58438" lon="4.56378">
        <ele>762</ele>
        <time>2013-10-23T17:01:20Z</time>
      </trkpt>
      <trkpt lat="45.58434" lon="4.56372">
        <ele>762</ele>
        <time>2013-10-23T17:01:23Z</time>
      </trkpt>
      <trkpt lat="45.58427" lon="4.56366">
        <ele>762</ele>
        <time>2013-10-23T17:01:27Z</time>
      </trkpt>
      <trkpt lat="45.58422" lon="4.56361">
        <ele>762</ele>
        <time>2013-10-23T17:01:30Z</time>
      </trkpt>
      <trkpt lat="45.58421" lon="4.56358">
        <ele>764</ele>
        <time>2013-10-23T17:01:33Z</time>
      </trkpt>
      <trkpt lat="45.58421" lon="4.56355">
        <ele>765</ele>
        <time>2013-10-23T17:01:36Z</time>
      </trkpt>
      <trkpt lat="45.58418" lon="4.56352">
        <ele>769</ele>
        <time>2013-10-23T17:01:40Z</time>
      </trkpt>
      <trkpt lat="45.58418" lon="4.56349">
        <ele>769</ele>
        <time>2013-10-23T17:01:48Z</time>
      </trkpt>
      <trkpt lat="45.58414" lon="4.56344">
        <ele>769</ele>
        <time>2013-10-23T17:01:51Z</time>
      </trkpt>
      <trkpt lat="45.5841" lon="4.56341">
        <ele>770</ele>
        <time>2013-10-23T17:01:54Z</time>
      </trkpt>
      <trkpt lat="45.58406" lon="4.56337">
        <ele>771</ele>
        <time>2013-10-23T17:01:57Z</time>
      </trkpt>
      <trkpt lat="45.58402" lon="4.56333">
        <ele>773</ele>
        <time>2013-10-23T17:02:00Z</time>
      </trkpt>
      <trkpt lat="45.58397" lon="4.56328">
        <ele>773</ele>
        <time>2013-10-23T17:02:03Z</time>
      </trkpt>
      <trkpt lat="45.58389" lon="4.56322">
        <ele>773</ele>
        <time>2013-10-23T17:02:07Z</time>
      </trkpt>
      <trkpt lat="45.58385" lon="4.56319">
        <ele>773</ele>
        <time>2013-10-23T17:02:10Z</time>
      </trkpt>
      <trkpt lat="45.5838" lon="4.56317">
        <ele>773</ele>
        <time>2013-10-23T17:02:13Z</time>
      </trkpt>
      <trkpt lat="45.58375" lon="4.56313">
        <ele>773</ele>
        <time>2013-10-23T17:02:16Z</time>
      </trkpt>
      <trkpt lat="45.58369" lon="4.56308">
        <ele>773</ele>
        <time>2013-10-23T17:02:20Z</time>
      </trkpt>
      <trkpt lat="45.58364" lon="4.56306">
        <ele>773</ele>
        <time>2013-10-23T17:02:23Z</time>
      </trkpt>
      <trkpt lat="45.58359" lon="4.56302">
        <ele>773</ele>
        <time>2013-10-23T17:02:26Z</time>
      </trkpt>
      <trkpt lat="45.58354" lon="4.56299">
        <ele>773</ele>
        <time>2013-10-23T17:02:30Z</time>
      </trkpt>
      <trkpt lat="45.58349" lon="4.56295">
        <ele>773</ele>
        <time>2013-10-23T17:02:33Z</time>
      </trkpt>
      <trkpt lat="45.58345" lon="4.56292">
        <ele>773</ele>
        <time>2013-10-23T17:02:36Z</time>
      </trkpt>
      <trkpt lat="45.58342" lon="4.5629">
        <ele>773</ele>
        <time>2013-10-23T17:02:39Z</time>
      </trkpt>
      <trkpt lat="45.58338" lon="4.56286">
        <ele>773</ele>
        <time>2013-10-23T17:02:42Z</time>
      </trkpt>
      <trkpt lat="45.58334" lon="4.5628">
        <ele>773</ele>
        <time>2013-10-23T17:02:45Z</time>
      </trkpt>
      <trkpt lat="45.58328" lon="4.56275">
        <ele>773</ele>
        <time>2013-10-23T17:02:48Z</time>
      </trkpt>
      <trkpt lat="45.58323" lon="4.56269">
        <ele>773</ele>
        <time>2013-10-23T17:02:51Z</time>
      </trkpt>
      <trkpt lat="45.58319" lon="4.56266">
        <ele>771</ele>
        <time>2013-10-23T17:02:54Z</time>
      </trkpt>
      <trkpt lat="45.58316" lon="4.56264">
        <ele>771</ele>
        <time>2013-10-23T17:02:57Z</time>
      </trkpt>
      <trkpt lat="45.58311" lon="4.56259">
        <ele>770</ele>
        <time>2013-10-23T17:03:00Z</time>
      </trkpt>
      <trkpt lat="45.58307" lon="4.56253">
        <ele>770</ele>
        <time>2013-10-23T17:03:03Z</time>
      </trkpt>
      <trkpt lat="45.58302" lon="4.56247">
        <ele>770</ele>
        <time>2013-10-23T17:03:06Z</time>
      </trkpt>
      <trkpt lat="45.58297" lon="4.56242">
        <ele>770</ele>
        <time>2013-10-23T17:03:09Z</time>
      </trkpt>
      <trkpt lat="45.58294" lon="4.56236">
        <ele>770</ele>
        <time>2013-10-23T17:03:12Z</time>
      </trkpt>
      <trkpt lat="45.58287" lon="4.56227">
        <ele>770</ele>
        <time>2013-10-23T17:03:16Z</time>
      </trkpt>
      <trkpt lat="45.58282" lon="4.5622">
        <ele>770</ele>
        <time>2013-10-23T17:03:19Z</time>
      </trkpt>
      <trkpt lat="45.58279" lon="4.56217">
        <ele>770</ele>
        <time>2013-10-23T17:03:22Z</time>
      </trkpt>
      <trkpt lat="45.58275" lon="4.5621">
        <ele>770</ele>
        <time>2013-10-23T17:03:25Z</time>
      </trkpt>
      <trkpt lat="45.5827" lon="4.56204">
        <ele>771</ele>
        <time>2013-10-23T17:03:28Z</time>
      </trkpt>
      <trkpt lat="45.58266" lon="4.56197">
        <ele>772</ele>
        <time>2013-10-23T17:03:31Z</time>
      </trkpt>
      <trkpt lat="45.58262" lon="4.56191">
        <ele>773</ele>
        <time>2013-10-23T17:03:34Z</time>
      </trkpt>
      <trkpt lat="45.58258" lon="4.56188">
        <ele>774</ele>
        <time>2013-10-23T17:03:37Z</time>
      </trkpt>
      <trkpt lat="45.58254" lon="4.56183">
        <ele>775</ele>
        <time>2013-10-23T17:03:40Z</time>
      </trkpt>
      <trkpt lat="45.58251" lon="4.56179">
        <ele>775</ele>
        <time>2013-10-23T17:03:43Z</time>
      </trkpt>
      <trkpt lat="45.58249" lon="4.56174">
        <ele>776</ele>
        <time>2013-10-23T17:03:47Z</time>
      </trkpt>
      <trkpt lat="45.58246" lon="4.56169">
        <ele>776</ele>
        <time>2013-10-23T17:03:51Z</time>
      </trkpt>
      <trkpt lat="45.58244" lon="4.56166">
        <ele>777</ele>
        <time>2013-10-23T17:03:55Z</time>
      </trkpt>
      <trkpt lat="45.58242" lon="4.56161">
        <ele>777</ele>
        <time>2013-10-23T17:03:58Z</time>
      </trkpt>
      <trkpt lat="45.58238" lon="4.56155">
        <ele>778</ele>
        <time>2013-10-23T17:04:01Z</time>
      </trkpt>
      <trkpt lat="45.58235" lon="4.56151">
        <ele>780</ele>
        <time>2013-10-23T17:04:04Z</time>
      </trkpt>
      <trkpt lat="45.58233" lon="4.56146">
        <ele>781</ele>
        <time>2013-10-23T17:04:08Z</time>
      </trkpt>
      <trkpt lat="45.58231" lon="4.5614">
        <ele>781</ele>
        <time>2013-10-23T17:04:13Z</time>
      </trkpt>
      <trkpt lat="45.58227" lon="4.56135">
        <ele>781</ele>
        <time>2013-10-23T17:04:17Z</time>
      </trkpt>
      <trkpt lat="45.58225" lon="4.5613">
        <ele>781</ele>
        <time>2013-10-23T17:04:21Z</time>
      </trkpt>
      <trkpt lat="45.58224" lon="4.56125">
        <ele>781</ele>
        <time>2013-10-23T17:04:24Z</time>
      </trkpt>
      <trkpt lat="45.58221" lon="4.56119">
        <ele>781</ele>
        <time>2013-10-23T17:04:27Z</time>
      </trkpt>
      <trkpt lat="45.58218" lon="4.56113">
        <ele>781</ele>
        <time>2013-10-23T17:04:30Z</time>
      </trkpt>
      <trkpt lat="45.58217" lon="4.56108">
        <ele>781</ele>
        <time>2013-10-23T17:04:33Z</time>
      </trkpt>
      <trkpt lat="45.58214" lon="4.56104">
        <ele>781</ele>
        <time>2013-10-23T17:04:36Z</time>
      </trkpt>
      <trkpt lat="45.5821" lon="4.56097">
        <ele>781</ele>
        <time>2013-10-23T17:04:39Z</time>
      </trkpt>
      <trkpt lat="45.58208" lon="4.56093">
        <ele>781</ele>
        <time>2013-10-23T17:04:42Z</time>
      </trkpt>
      <trkpt lat="45.58206" lon="4.56088">
        <ele>781</ele>
        <time>2013-10-23T17:04:45Z</time>
      </trkpt>
      <trkpt lat="45.58205" lon="4.56081">
        <ele>781</ele>
        <time>2013-10-23T17:04:49Z</time>
      </trkpt>
      <trkpt lat="45.58202" lon="4.56076">
        <ele>781</ele>
        <time>2013-10-23T17:04:52Z</time>
      </trkpt>
      <trkpt lat="45.582" lon="4.56071">
        <ele>781</ele>
        <time>2013-10-23T17:04:55Z</time>
      </trkpt>
      <trkpt lat="45.58197" lon="4.56067">
        <ele>781</ele>
        <time>2013-10-23T17:04:58Z</time>
      </trkpt>
      <trkpt lat="45.58195" lon="4.5606">
        <ele>781</ele>
        <time>2013-10-23T17:05:02Z</time>
      </trkpt>
      <trkpt lat="45.58193" lon="4.56055">
        <ele>781</ele>
        <time>2013-10-23T17:05:05Z</time>
      </trkpt>
      <trkpt lat="45.58191" lon="4.5605">
        <ele>782</ele>
        <time>2013-10-23T17:05:08Z</time>
      </trkpt>
      <trkpt lat="45.58187" lon="4.56043">
        <ele>783</ele>
        <time>2013-10-23T17:05:13Z</time>
      </trkpt>
      <trkpt lat="45.58184" lon="4.56037">
        <ele>784</ele>
        <time>2013-10-23T17:05:17Z</time>
      </trkpt>
      <trkpt lat="45.58183" lon="4.56033">
        <ele>784</ele>
        <time>2013-10-23T17:05:20Z</time>
      </trkpt>
      <trkpt lat="45.58179" lon="4.56028">
        <ele>784</ele>
        <time>2013-10-23T17:05:24Z</time>
      </trkpt>
      <trkpt lat="45.58176" lon="4.56023">
        <ele>784</ele>
        <time>2013-10-23T17:05:27Z</time>
      </trkpt>
      <trkpt lat="45.58173" lon="4.56017">
        <ele>785</ele>
        <time>2013-10-23T17:05:31Z</time>
      </trkpt>
      <trkpt lat="45.5817" lon="4.56013">
        <ele>785</ele>
        <time>2013-10-23T17:05:34Z</time>
      </trkpt>
      <trkpt lat="45.58167" lon="4.56007">
        <ele>785</ele>
        <time>2013-10-23T17:05:38Z</time>
      </trkpt>
      <trkpt lat="45.58165" lon="4.56004">
        <ele>785</ele>
        <time>2013-10-23T17:05:41Z</time>
      </trkpt>
      <trkpt lat="45.58161" lon="4.55998">
        <ele>785</ele>
        <time>2013-10-23T17:05:45Z</time>
      </trkpt>
      <trkpt lat="45.5816" lon="4.55994">
        <ele>785</ele>
        <time>2013-10-23T17:05:48Z</time>
      </trkpt>
      <trkpt lat="45.58157" lon="4.55989">
        <ele>785</ele>
        <time>2013-10-23T17:05:51Z</time>
      </trkpt>
      <trkpt lat="45.58155" lon="4.55983">
        <ele>785</ele>
        <time>2013-10-23T17:05:55Z</time>
      </trkpt>
      <trkpt lat="45.58152" lon="4.55978">
        <ele>785</ele>
        <time>2013-10-23T17:05:58Z</time>
      </trkpt>
      <trkpt lat="45.58151" lon="4.55973">
        <ele>785</ele>
        <time>2013-10-23T17:06:01Z</time>
      </trkpt>
      <trkpt lat="45.58148" lon="4.55969">
        <ele>785</ele>
        <time>2013-10-23T17:06:04Z</time>
      </trkpt>
      <trkpt lat="45.58144" lon="4.55961">
        <ele>785</ele>
        <time>2013-10-23T17:06:09Z</time>
      </trkpt>
      <trkpt lat="45.58142" lon="4.55957">
        <ele>785</ele>
        <time>2013-10-23T17:06:12Z</time>
      </trkpt>
      <trkpt lat="45.58141" lon="4.55952">
        <ele>785</ele>
        <time>2013-10-23T17:06:15Z</time>
      </trkpt>
      <trkpt lat="45.58137" lon="4.55946">
        <ele>785</ele>
        <time>2013-10-23T17:06:19Z</time>
      </trkpt>
      <trkpt lat="45.58134" lon="4.5594">
        <ele>785</ele>
        <time>2013-10-23T17:06:23Z</time>
      </trkpt>
      <trkpt lat="45.58132" lon="4.55935">
        <ele>785</ele>
        <time>2013-10-23T17:06:26Z</time>
      </trkpt>
      <trkpt lat="45.5813" lon="4.5593">
        <ele>785</ele>
        <time>2013-10-23T17:06:29Z</time>
      </trkpt>
      <trkpt lat="45.58126" lon="4.55924">
        <ele>785</ele>
        <time>2013-10-23T17:06:33Z</time>
      </trkpt>
      <trkpt lat="45.58124" lon="4.5592">
        <ele>785</ele>
        <time>2013-10-23T17:06:36Z</time>
      </trkpt>
      <trkpt lat="45.58121" lon="4.55914">
        <ele>785</ele>
        <time>2013-10-23T17:06:40Z</time>
      </trkpt>
      <trkpt lat="45.58118" lon="4.55908">
        <ele>786</ele>
        <time>2013-10-23T17:06:44Z</time>
      </trkpt>
      <trkpt lat="45.58115" lon="4.55903">
        <ele>786</ele>
        <time>2013-10-23T17:06:48Z</time>
      </trkpt>
      <trkpt lat="45.58112" lon="4.55899">
        <ele>786</ele>
        <time>2013-10-23T17:06:52Z</time>
      </trkpt>
      <trkpt lat="45.5811" lon="4.55895">
        <ele>786</ele>
        <time>2013-10-23T17:06:55Z</time>
      </trkpt>
      <trkpt lat="45.58107" lon="4.5589">
        <ele>786</ele>
        <time>2013-10-23T17:06:58Z</time>
      </trkpt>
      <trkpt lat="45.58104" lon="4.55885">
        <ele>786</ele>
        <time>2013-10-23T17:07:01Z</time>
      </trkpt>
      <trkpt lat="45.58103" lon="4.55879">
        <ele>786</ele>
        <time>2013-10-23T17:07:04Z</time>
      </trkpt>
      <trkpt lat="45.581" lon="4.55875">
        <ele>787</ele>
        <time>2013-10-23T17:07:07Z</time>
      </trkpt>
      <trkpt lat="45.58097" lon="4.55868">
        <ele>788</ele>
        <time>2013-10-23T17:07:11Z</time>
      </trkpt>
      <trkpt lat="45.58093" lon="4.5586">
        <ele>789</ele>
        <time>2013-10-23T17:07:15Z</time>
      </trkpt>
      <trkpt lat="45.5809" lon="4.55855">
        <ele>789</ele>
        <time>2013-10-23T17:07:18Z</time>
      </trkpt>
      <trkpt lat="45.58088" lon="4.55851">
        <ele>789</ele>
        <time>2013-10-23T17:07:21Z</time>
      </trkpt>
      <trkpt lat="45.58086" lon="4.55845">
        <ele>789</ele>
        <time>2013-10-23T17:07:24Z</time>
      </trkpt>
      <trkpt lat="45.58082" lon="4.55838">
        <ele>789</ele>
        <time>2013-10-23T17:07:28Z</time>
      </trkpt>
      <trkpt lat="45.5808" lon="4.55828">
        <ele>789</ele>
        <time>2013-10-23T17:07:31Z</time>
      </trkpt>
      <trkpt lat="45.58076" lon="4.55816">
        <ele>790</ele>
        <time>2013-10-23T17:07:35Z</time>
      </trkpt>
      <trkpt lat="45.58073" lon="4.55809">
        <ele>790</ele>
        <time>2013-10-23T17:07:38Z</time>
      </trkpt>
      <trkpt lat="45.5807" lon="4.55801">
        <ele>790</ele>
        <time>2013-10-23T17:07:41Z</time>
      </trkpt>
      <trkpt lat="45.58065" lon="4.55796">
        <ele>790</ele>
        <time>2013-10-23T17:07:44Z</time>
      </trkpt>
      <trkpt lat="45.58061" lon="4.5579">
        <ele>790</ele>
        <time>2013-10-23T17:07:47Z</time>
      </trkpt>
      <trkpt lat="45.58056" lon="4.55785">
        <ele>790</ele>
        <time>2013-10-23T17:07:50Z</time>
      </trkpt>
      <trkpt lat="45.58052" lon="4.5578">
        <ele>791</ele>
        <time>2013-10-23T17:07:54Z</time>
      </trkpt>
      <trkpt lat="45.58049" lon="4.55775">
        <ele>791</ele>
        <time>2013-10-23T17:07:58Z</time>
      </trkpt>
      <trkpt lat="45.58046" lon="4.55768">
        <ele>791</ele>
        <time>2013-10-23T17:08:03Z</time>
      </trkpt>
      <trkpt lat="45.58043" lon="4.55765">
        <ele>791</ele>
        <time>2013-10-23T17:08:07Z</time>
      </trkpt>
      <trkpt lat="45.58041" lon="4.55762">
        <ele>791</ele>
        <time>2013-10-23T17:08:10Z</time>
      </trkpt>
      <trkpt lat="45.58039" lon="4.55758">
        <ele>791</ele>
        <time>2013-10-23T17:08:13Z</time>
      </trkpt>
      <trkpt lat="45.58036" lon="4.55754">
        <ele>793</ele>
        <time>2013-10-23T17:08:17Z</time>
      </trkpt>
      <trkpt lat="45.58032" lon="4.55751">
        <ele>793</ele>
        <time>2013-10-23T17:08:20Z</time>
      </trkpt>
      <trkpt lat="45.58027" lon="4.55749">
        <ele>793</ele>
        <time>2013-10-23T17:08:24Z</time>
      </trkpt>
      <trkpt lat="45.58022" lon="4.55746">
        <ele>793</ele>
        <time>2013-10-23T17:08:28Z</time>
      </trkpt>
      <trkpt lat="45.58019" lon="4.55743">
        <ele>793</ele>
        <time>2013-10-23T17:08:31Z</time>
      </trkpt>
      <trkpt lat="45.58015" lon="4.5574">
        <ele>793</ele>
        <time>2013-10-23T17:08:35Z</time>
      </trkpt>
      <trkpt lat="45.5801" lon="4.55737">
        <ele>793</ele>
        <time>2013-10-23T17:08:39Z</time>
      </trkpt>
      <trkpt lat="45.58007" lon="4.55734">
        <ele>793</ele>
        <time>2013-10-23T17:08:42Z</time>
      </trkpt>
      <trkpt lat="45.58003" lon="4.55731">
        <ele>793</ele>
        <time>2013-10-23T17:08:45Z</time>
      </trkpt>
      <trkpt lat="45.57997" lon="4.55728">
        <ele>793</ele>
        <time>2013-10-23T17:08:49Z</time>
      </trkpt>
      <trkpt lat="45.57993" lon="4.55726">
        <ele>793</ele>
        <time>2013-10-23T17:08:52Z</time>
      </trkpt>
      <trkpt lat="45.5799" lon="4.55724">
        <ele>793</ele>
        <time>2013-10-23T17:08:55Z</time>
      </trkpt>
      <trkpt lat="45.57985" lon="4.55719">
        <ele>793</ele>
        <time>2013-10-23T17:08:59Z</time>
      </trkpt>
      <trkpt lat="45.57982" lon="4.55715">
        <ele>794</ele>
        <time>2013-10-23T17:09:02Z</time>
      </trkpt>
      <trkpt lat="45.57978" lon="4.55709">
        <ele>795</ele>
        <time>2013-10-23T17:09:06Z</time>
      </trkpt>
      <trkpt lat="45.57975" lon="4.55704">
        <ele>796</ele>
        <time>2013-10-23T17:09:09Z</time>
      </trkpt>
      <trkpt lat="45.57971" lon="4.55698">
        <ele>797</ele>
        <time>2013-10-23T17:09:13Z</time>
      </trkpt>
      <trkpt lat="45.57967" lon="4.55692">
        <ele>797</ele>
        <time>2013-10-23T17:09:16Z</time>
      </trkpt>
      <trkpt lat="45.57963" lon="4.55685">
        <ele>798</ele>
        <time>2013-10-23T17:09:19Z</time>
      </trkpt>
      <trkpt lat="45.57959" lon="4.55677">
        <ele>799</ele>
        <time>2013-10-23T17:09:22Z</time>
      </trkpt>
      <trkpt lat="45.57955" lon="4.55668">
        <ele>799</ele>
        <time>2013-10-23T17:09:25Z</time>
      </trkpt>
      <trkpt lat="45.57951" lon="4.55657">
        <ele>799</ele>
        <time>2013-10-23T17:09:28Z</time>
      </trkpt>
      <trkpt lat="45.57947" lon="4.55649">
        <ele>799</ele>
        <time>2013-10-23T17:09:31Z</time>
      </trkpt>
      <trkpt lat="45.57944" lon="4.55639">
        <ele>799</ele>
        <time>2013-10-23T17:09:34Z</time>
      </trkpt>
      <trkpt lat="45.57941" lon="4.5563">
        <ele>799</ele>
        <time>2013-10-23T17:09:37Z</time>
      </trkpt>
      <trkpt lat="45.57937" lon="4.55622">
        <ele>799</ele>
        <time>2013-10-23T17:09:40Z</time>
      </trkpt>
      <trkpt lat="45.57933" lon="4.55614">
        <ele>799</ele>
        <time>2013-10-23T17:09:43Z</time>
      </trkpt>
      <trkpt lat="45.57928" lon="4.55607">
        <ele>800</ele>
        <time>2013-10-23T17:09:46Z</time>
      </trkpt>
      <trkpt lat="45.57924" lon="4.55596">
        <ele>800</ele>
        <time>2013-10-23T17:09:50Z</time>
      </trkpt>
      <trkpt lat="45.57922" lon="4.55589">
        <ele>800</ele>
        <time>2013-10-23T17:09:53Z</time>
      </trkpt>
      <trkpt lat="45.5792" lon="4.55582">
        <ele>800</ele>
        <time>2013-10-23T17:09:56Z</time>
      </trkpt>
      <trkpt lat="45.57917" lon="4.55573">
        <ele>800</ele>
        <time>2013-10-23T17:09:59Z</time>
      </trkpt>
      <trkpt lat="45.57914" lon="4.5556">
        <ele>800</ele>
        <time>2013-10-23T17:10:03Z</time>
      </trkpt>
      <trkpt lat="45.57913" lon="4.5555">
        <ele>801</ele>
        <time>2013-10-23T17:10:06Z</time>
      </trkpt>
      <trkpt lat="45.57913" lon="4.55541">
        <ele>801</ele>
        <time>2013-10-23T17:10:09Z</time>
      </trkpt>
      <trkpt lat="45.57912" lon="4.55535">
        <ele>802</ele>
        <time>2013-10-23T17:10:12Z</time>
      </trkpt>
      <trkpt lat="45.57911" lon="4.55529">
        <ele>803</ele>
        <time>2013-10-23T17:10:16Z</time>
      </trkpt>
      <trkpt lat="45.57911" lon="4.55523">
        <ele>803</ele>
        <time>2013-10-23T17:10:19Z</time>
      </trkpt>
      <trkpt lat="45.57909" lon="4.55515">
        <ele>803</ele>
        <time>2013-10-23T17:10:22Z</time>
      </trkpt>
      <trkpt lat="45.57907" lon="4.55507">
        <ele>803</ele>
        <time>2013-10-23T17:10:25Z</time>
      </trkpt>
      <trkpt lat="45.57905" lon="4.55499">
        <ele>803</ele>
        <time>2013-10-23T17:10:28Z</time>
      </trkpt>
      <trkpt lat="45.57904" lon="4.55489">
        <ele>803</ele>
        <time>2013-10-23T17:10:31Z</time>
      </trkpt>
      <trkpt lat="45.57903" lon="4.5548">
        <ele>803</ele>
        <time>2013-10-23T17:10:34Z</time>
      </trkpt>
      <trkpt lat="45.57902" lon="4.5547">
        <ele>804</ele>
        <time>2013-10-23T17:10:37Z</time>
      </trkpt>
      <trkpt lat="45.57901" lon="4.55461">
        <ele>805</ele>
        <time>2013-10-23T17:10:40Z</time>
      </trkpt>
      <trkpt lat="45.57899" lon="4.55453">
        <ele>805</ele>
        <time>2013-10-23T17:10:43Z</time>
      </trkpt>
      <trkpt lat="45.57896" lon="4.55445">
        <ele>805</ele>
        <time>2013-10-23T17:10:46Z</time>
      </trkpt>
      <trkpt lat="45.57892" lon="4.55438">
        <ele>805</ele>
        <time>2013-10-23T17:10:49Z</time>
      </trkpt>
      <trkpt lat="45.57886" lon="4.55432">
        <ele>805</ele>
        <time>2013-10-23T17:10:52Z</time>
      </trkpt>
      <trkpt lat="45.57881" lon="4.55426">
        <ele>805</ele>
        <time>2013-10-23T17:10:55Z</time>
      </trkpt>
      <trkpt lat="45.57877" lon="4.55419">
        <ele>805</ele>
        <time>2013-10-23T17:10:58Z</time>
      </trkpt>
      <trkpt lat="45.57875" lon="4.55413">
        <ele>805</ele>
        <time>2013-10-23T17:11:01Z</time>
      </trkpt>
      <trkpt lat="45.57872" lon="4.55406">
        <ele>805</ele>
        <time>2013-10-23T17:11:04Z</time>
      </trkpt>
      <trkpt lat="45.57867" lon="4.55396">
        <ele>805</ele>
        <time>2013-10-23T17:11:08Z</time>
      </trkpt>
      <trkpt lat="45.57866" lon="4.55389">
        <ele>805</ele>
        <time>2013-10-23T17:11:11Z</time>
      </trkpt>
      <trkpt lat="45.57865" lon="4.5538">
        <ele>805</ele>
        <time>2013-10-23T17:11:14Z</time>
      </trkpt>
      <trkpt lat="45.57862" lon="4.55372">
        <ele>805</ele>
        <time>2013-10-23T17:11:17Z</time>
      </trkpt>
      <trkpt lat="45.5786" lon="4.55365">
        <ele>805</ele>
        <time>2013-10-23T17:11:20Z</time>
      </trkpt>
      <trkpt lat="45.57858" lon="4.55357">
        <ele>805</ele>
        <time>2013-10-23T17:11:23Z</time>
      </trkpt>
      <trkpt lat="45.57856" lon="4.55348">
        <ele>805</ele>
        <time>2013-10-23T17:11:26Z</time>
      </trkpt>
      <trkpt lat="45.57855" lon="4.55339">
        <ele>805</ele>
        <time>2013-10-23T17:11:29Z</time>
      </trkpt>
      <trkpt lat="45.57854" lon="4.5533">
        <ele>805</ele>
        <time>2013-10-23T17:11:32Z</time>
      </trkpt>
      <trkpt lat="45.57853" lon="4.55317">
        <ele>805</ele>
        <time>2013-10-23T17:11:36Z</time>
      </trkpt>
      <trkpt lat="45.57852" lon="4.55308">
        <ele>805</ele>
        <time>2013-10-23T17:11:39Z</time>
      </trkpt>
      <trkpt lat="45.57852" lon="4.553">
        <ele>805</ele>
        <time>2013-10-23T17:11:42Z</time>
      </trkpt>
      <trkpt lat="45.57851" lon="4.55291">
        <ele>805</ele>
        <time>2013-10-23T17:11:45Z</time>
      </trkpt>
      <trkpt lat="45.57851" lon="4.55282">
        <ele>805</ele>
        <time>2013-10-23T17:11:48Z</time>
      </trkpt>
      <trkpt lat="45.5785" lon="4.55274">
        <ele>805</ele>
        <time>2013-10-23T17:11:51Z</time>
      </trkpt>
      <trkpt lat="45.57849" lon="4.55265">
        <ele>805</ele>
        <time>2013-10-23T17:11:54Z</time>
      </trkpt>
      <trkpt lat="45.57848" lon="4.55257">
        <ele>806</ele>
        <time>2013-10-23T17:11:57Z</time>
      </trkpt>
      <trkpt lat="45.57848" lon="4.55248">
        <ele>806</ele>
        <time>2013-10-23T17:12:00Z</time>
      </trkpt>
      <trkpt lat="45.57848" lon="4.5524">
        <ele>806</ele>
        <time>2013-10-23T17:12:03Z</time>
      </trkpt>
      <trkpt lat="45.5785" lon="4.55231">
        <ele>806</ele>
        <time>2013-10-23T17:12:06Z</time>
      </trkpt>
      <trkpt lat="45.57851" lon="4.55222">
        <ele>806</ele>
        <time>2013-10-23T17:12:09Z</time>
      </trkpt>
      <trkpt lat="45.57853" lon="4.55212">
        <ele>806</ele>
        <time>2013-10-23T17:12:12Z</time>
      </trkpt>
      <trkpt lat="45.57853" lon="4.55203">
        <ele>806</ele>
        <time>2013-10-23T17:12:15Z</time>
      </trkpt>
      <trkpt lat="45.57854" lon="4.55193">
        <ele>806</ele>
        <time>2013-10-23T17:12:18Z</time>
      </trkpt>
      <trkpt lat="45.57855" lon="4.55183">
        <ele>806</ele>
        <time>2013-10-23T17:12:21Z</time>
      </trkpt>
      <trkpt lat="45.57855" lon="4.55174">
        <ele>806</ele>
        <time>2013-10-23T17:12:24Z</time>
      </trkpt>
      <trkpt lat="45.57855" lon="4.55165">
        <ele>806</ele>
        <time>2013-10-23T17:12:27Z</time>
      </trkpt>
      <trkpt lat="45.57855" lon="4.55155">
        <ele>806</ele>
        <time>2013-10-23T17:12:30Z</time>
      </trkpt>
      <trkpt lat="45.57856" lon="4.55146">
        <ele>806</ele>
        <time>2013-10-23T17:12:33Z</time>
      </trkpt>
      <trkpt lat="45.57856" lon="4.55136">
        <ele>806</ele>
        <time>2013-10-23T17:12:36Z</time>
      </trkpt>
      <trkpt lat="45.57853" lon="4.5513">
        <ele>806</ele>
        <time>2013-10-23T17:12:39Z</time>
      </trkpt>
      <trkpt lat="45.57847" lon="4.55132">
        <ele>806</ele>
        <time>2013-10-23T17:12:42Z</time>
      </trkpt>
      <trkpt lat="45.57841" lon="4.55134">
        <ele>806</ele>
        <time>2013-10-23T17:12:45Z</time>
      </trkpt>
      <trkpt lat="45.57835" lon="4.55135">
        <ele>806</ele>
        <time>2013-10-23T17:12:48Z</time>
      </trkpt>
      <trkpt lat="45.57829" lon="4.55136">
        <ele>807</ele>
        <time>2013-10-23T17:12:51Z</time>
      </trkpt>
      <trkpt lat="45.57823" lon="4.55138">
        <ele>807</ele>
        <time>2013-10-23T17:12:54Z</time>
      </trkpt>
      <trkpt lat="45.57817" lon="4.55139">
        <ele>808</ele>
        <time>2013-10-23T17:12:57Z</time>
      </trkpt>
      <trkpt lat="45.5781" lon="4.55139">
        <ele>809</ele>
        <time>2013-10-23T17:13:00Z</time>
      </trkpt>
      <trkpt lat="45.57804" lon="4.55139">
        <ele>809</ele>
        <time>2013-10-23T17:13:03Z</time>
      </trkpt>
      <trkpt lat="45.57797" lon="4.5514">
        <ele>809</ele>
        <time>2013-10-23T17:13:06Z</time>
      </trkpt>
      <trkpt lat="45.57791" lon="4.55139">
        <ele>809</ele>
        <time>2013-10-23T17:13:09Z</time>
      </trkpt>
      <trkpt lat="45.57784" lon="4.5514">
        <ele>810</ele>
        <time>2013-10-23T17:13:12Z</time>
      </trkpt>
      <trkpt lat="45.57774" lon="4.55139">
        <ele>810</ele>
        <time>2013-10-23T17:13:16Z</time>
      </trkpt>
      <trkpt lat="45.57768" lon="4.55137">
        <ele>810</ele>
        <time>2013-10-23T17:13:19Z</time>
      </trkpt>
      <trkpt lat="45.57762" lon="4.55135">
        <ele>810</ele>
        <time>2013-10-23T17:13:22Z</time>
      </trkpt>
      <trkpt lat="45.57756" lon="4.55131">
        <ele>810</ele>
        <time>2013-10-23T17:13:25Z</time>
      </trkpt>
      <trkpt lat="45.5775" lon="4.55125">
        <ele>810</ele>
        <time>2013-10-23T17:13:28Z</time>
      </trkpt>
      <trkpt lat="45.57745" lon="4.55118">
        <ele>810</ele>
        <time>2013-10-23T17:13:31Z</time>
      </trkpt>
      <trkpt lat="45.57739" lon="4.55111">
        <ele>810</ele>
        <time>2013-10-23T17:13:34Z</time>
      </trkpt>
      <trkpt lat="45.57734" lon="4.55104">
        <ele>810</ele>
        <time>2013-10-23T17:13:37Z</time>
      </trkpt>
      <trkpt lat="45.57729" lon="4.55097">
        <ele>810</ele>
        <time>2013-10-23T17:13:40Z</time>
      </trkpt>
      <trkpt lat="45.57723" lon="4.55087">
        <ele>810</ele>
        <time>2013-10-23T17:13:44Z</time>
      </trkpt>
      <trkpt lat="45.57719" lon="4.5508">
        <ele>810</ele>
        <time>2013-10-23T17:13:47Z</time>
      </trkpt>
      <trkpt lat="45.57714" lon="4.55073">
        <ele>810</ele>
        <time>2013-10-23T17:13:50Z</time>
      </trkpt>
      <trkpt lat="45.57709" lon="4.55066">
        <ele>810</ele>
        <time>2013-10-23T17:13:53Z</time>
      </trkpt>
      <trkpt lat="45.57705" lon="4.55059">
        <ele>810</ele>
        <time>2013-10-23T17:13:56Z</time>
      </trkpt>
      <trkpt lat="45.577" lon="4.55052">
        <ele>810</ele>
        <time>2013-10-23T17:13:59Z</time>
      </trkpt>
      <trkpt lat="45.57695" lon="4.55044">
        <ele>809</ele>
        <time>2013-10-23T17:14:02Z</time>
      </trkpt>
      <trkpt lat="45.5769" lon="4.55036">
        <ele>809</ele>
        <time>2013-10-23T17:14:05Z</time>
      </trkpt>
      <trkpt lat="45.57686" lon="4.55027">
        <ele>808</ele>
        <time>2013-10-23T17:14:08Z</time>
      </trkpt>
      <trkpt lat="45.57681" lon="4.55019">
        <ele>807</ele>
        <time>2013-10-23T17:14:11Z</time>
      </trkpt>
      <trkpt lat="45.57676" lon="4.55011">
        <ele>807</ele>
        <time>2013-10-23T17:14:14Z</time>
      </trkpt>
      <trkpt lat="45.57673" lon="4.55003">
        <ele>806</ele>
        <time>2013-10-23T17:14:17Z</time>
      </trkpt>
      <trkpt lat="45.57669" lon="4.54995">
        <ele>805</ele>
        <time>2013-10-23T17:14:20Z</time>
      </trkpt>
      <trkpt lat="45.57665" lon="4.54987">
        <ele>805</ele>
        <time>2013-10-23T17:14:23Z</time>
      </trkpt>
      <trkpt lat="45.57661" lon="4.54979">
        <ele>804</ele>
        <time>2013-10-23T17:14:26Z</time>
      </trkpt>
      <trkpt lat="45.57656" lon="4.54971">
        <ele>803</ele>
        <time>2013-10-23T17:14:29Z</time>
      </trkpt>
      <trkpt lat="45.57653" lon="4.54965">
        <ele>803</ele>
        <time>2013-10-23T17:14:32Z</time>
      </trkpt>
      <trkpt lat="45.57646" lon="4.54958">
        <ele>802</ele>
        <time>2013-10-23T17:14:36Z</time>
      </trkpt>
      <trkpt lat="45.57641" lon="4.54952">
        <ele>802</ele>
        <time>2013-10-23T17:14:39Z</time>
      </trkpt>
      <trkpt lat="45.57635" lon="4.54946">
        <ele>801</ele>
        <time>2013-10-23T17:14:42Z</time>
      </trkpt>
      <trkpt lat="45.57633" lon="4.54943">
        <ele>801</ele>
        <time>2013-10-23T17:14:48Z</time>
      </trkpt>
      <trkpt lat="45.57632" lon="4.54943">
        <ele>801</ele>
        <time>2013-10-23T17:14:57Z</time>
      </trkpt>
      <trkpt lat="45.57632" lon="4.54945">
        <ele>801</ele>
        <time>2013-10-23T17:15:03Z</time>
      </trkpt>
      <trkpt lat="45.57632" lon="4.54943">
        <ele>801</ele>
        <time>2013-10-23T17:15:10Z</time>
      </trkpt>
      <trkpt lat="45.5763" lon="4.54942">
        <ele>801</ele>
        <time>2013-10-23T17:15:19Z</time>
      </trkpt>
      <trkpt lat="45.57629" lon="4.54941">
        <ele>801</ele>
        <time>2013-10-23T17:15:22Z</time>
      </trkpt>
      <trkpt lat="45.57627" lon="4.54939">
        <ele>801</ele>
        <time>2013-10-23T17:15:25Z</time>
      </trkpt>
      <trkpt lat="45.57625" lon="4.54938">
        <ele>801</ele>
        <time>2013-10-23T17:15:29Z</time>
      </trkpt>
      <trkpt lat="45.57621" lon="4.54938">
        <ele>801</ele>
        <time>2013-10-23T17:15:33Z</time>
      </trkpt>
      <trkpt lat="45.57617" lon="4.54936">
        <ele>801</ele>
        <time>2013-10-23T17:15:37Z</time>
      </trkpt>
      <trkpt lat="45.57614" lon="4.54935">
        <ele>801</ele>
        <time>2013-10-23T17:15:40Z</time>
      </trkpt>
      <trkpt lat="45.5761" lon="4.54932">
        <ele>801</ele>
        <time>2013-10-23T17:15:43Z</time>
      </trkpt>
      <trkpt lat="45.57606" lon="4.5493">
        <ele>801</ele>
        <time>2013-10-23T17:15:46Z</time>
      </trkpt>
      <trkpt lat="45.576" lon="4.54927">
        <ele>801</ele>
        <time>2013-10-23T17:15:49Z</time>
      </trkpt>
      <trkpt lat="45.57591" lon="4.5492">
        <ele>801</ele>
        <time>2013-10-23T17:15:53Z</time>
      </trkpt>
      <trkpt lat="45.57584" lon="4.54916">
        <ele>801</ele>
        <time>2013-10-23T17:15:56Z</time>
      </trkpt>
      <trkpt lat="45.57576" lon="4.54907">
        <ele>801</ele>
        <time>2013-10-23T17:16:00Z</time>
      </trkpt>
      <trkpt lat="45.57571" lon="4.54901">
        <ele>801</ele>
        <time>2013-10-23T17:16:03Z</time>
      </trkpt>
      <trkpt lat="45.57565" lon="4.54895">
        <ele>801</ele>
        <time>2013-10-23T17:16:06Z</time>
      </trkpt>
      <trkpt lat="45.5756" lon="4.54888">
        <ele>801</ele>
        <time>2013-10-23T17:16:09Z</time>
      </trkpt>
      <trkpt lat="45.57554" lon="4.54881">
        <ele>801</ele>
        <time>2013-10-23T17:16:12Z</time>
      </trkpt>
      <trkpt lat="45.57548" lon="4.54877">
        <ele>800</ele>
        <time>2013-10-23T17:16:15Z</time>
      </trkpt>
      <trkpt lat="45.57542" lon="4.54872">
        <ele>797</ele>
        <time>2013-10-23T17:16:18Z</time>
      </trkpt>
      <trkpt lat="45.57537" lon="4.54868">
        <ele>796</ele>
        <time>2013-10-23T17:16:21Z</time>
      </trkpt>
      <trkpt lat="45.57533" lon="4.54862">
        <ele>794</ele>
        <time>2013-10-23T17:16:24Z</time>
      </trkpt>
      <trkpt lat="45.57527" lon="4.54855">
        <ele>792</ele>
        <time>2013-10-23T17:16:27Z</time>
      </trkpt>
      <trkpt lat="45.57522" lon="4.54848">
        <ele>791</ele>
        <time>2013-10-23T17:16:30Z</time>
      </trkpt>
      <trkpt lat="45.57515" lon="4.54839">
        <ele>790</ele>
        <time>2013-10-23T17:16:34Z</time>
      </trkpt>
      <trkpt lat="45.5751" lon="4.54832">
        <ele>790</ele>
        <time>2013-10-23T17:16:37Z</time>
      </trkpt>
      <trkpt lat="45.57504" lon="4.54825">
        <ele>790</ele>
        <time>2013-10-23T17:16:40Z</time>
      </trkpt>
      <trkpt lat="45.57498" lon="4.54818">
        <ele>790</ele>
        <time>2013-10-23T17:16:43Z</time>
      </trkpt>
      <trkpt lat="45.57492" lon="4.54813">
        <ele>790</ele>
        <time>2013-10-23T17:16:46Z</time>
      </trkpt>
      <trkpt lat="45.57487" lon="4.54806">
        <ele>790</ele>
        <time>2013-10-23T17:16:49Z</time>
      </trkpt>
      <trkpt lat="45.57481" lon="4.54799">
        <ele>790</ele>
        <time>2013-10-23T17:16:52Z</time>
      </trkpt>
      <trkpt lat="45.57476" lon="4.54789">
        <ele>790</ele>
        <time>2013-10-23T17:16:56Z</time>
      </trkpt>
      <trkpt lat="45.57469" lon="4.54781">
        <ele>790</ele>
        <time>2013-10-23T17:17:00Z</time>
      </trkpt>
      <trkpt lat="45.57463" lon="4.54772">
        <ele>790</ele>
        <time>2013-10-23T17:17:04Z</time>
      </trkpt>
      <trkpt lat="45.57458" lon="4.54764">
        <ele>790</ele>
        <time>2013-10-23T17:17:07Z</time>
      </trkpt>
      <trkpt lat="45.57452" lon="4.54757">
        <ele>790</ele>
        <time>2013-10-23T17:17:10Z</time>
      </trkpt>
      <trkpt lat="45.57446" lon="4.54751">
        <ele>790</ele>
        <time>2013-10-23T17:17:13Z</time>
      </trkpt>
      <trkpt lat="45.5744" lon="4.54745">
        <ele>790</ele>
        <time>2013-10-23T17:17:16Z</time>
      </trkpt>
      <trkpt lat="45.57433" lon="4.54737">
        <ele>790</ele>
        <time>2013-10-23T17:17:19Z</time>
      </trkpt>
      <trkpt lat="45.57425" lon="4.54728">
        <ele>790</ele>
        <time>2013-10-23T17:17:23Z</time>
      </trkpt>
      <trkpt lat="45.5742" lon="4.54724">
        <ele>790</ele>
        <time>2013-10-23T17:17:26Z</time>
      </trkpt>
      <trkpt lat="45.57413" lon="4.54719">
        <ele>790</ele>
        <time>2013-10-23T17:17:29Z</time>
      </trkpt>
      <trkpt lat="45.57407" lon="4.54715">
        <ele>790</ele>
        <time>2013-10-23T17:17:32Z</time>
      </trkpt>
      <trkpt lat="45.57401" lon="4.54709">
        <ele>790</ele>
        <time>2013-10-23T17:17:35Z</time>
      </trkpt>
      <trkpt lat="45.57394" lon="4.54705">
        <ele>790</ele>
        <time>2013-10-23T17:17:38Z</time>
      </trkpt>
      <trkpt lat="45.57388" lon="4.54702">
        <ele>790</ele>
        <time>2013-10-23T17:17:41Z</time>
      </trkpt>
      <trkpt lat="45.57381" lon="4.54699">
        <ele>790</ele>
        <time>2013-10-23T17:17:44Z</time>
      </trkpt>
      <trkpt lat="45.57376" lon="4.54694">
        <ele>790</ele>
        <time>2013-10-23T17:17:47Z</time>
      </trkpt>
      <trkpt lat="45.5737" lon="4.54692">
        <ele>790</ele>
        <time>2013-10-23T17:17:50Z</time>
      </trkpt>
      <trkpt lat="45.57363" lon="4.54687">
        <ele>790</ele>
        <time>2013-10-23T17:17:54Z</time>
      </trkpt>
      <trkpt lat="45.57356" lon="4.54688">
        <ele>790</ele>
        <time>2013-10-23T17:17:57Z</time>
      </trkpt>
      <trkpt lat="45.57349" lon="4.54685">
        <ele>789</ele>
        <time>2013-10-23T17:18:00Z</time>
      </trkpt>
      <trkpt lat="45.57342" lon="4.54681">
        <ele>787</ele>
        <time>2013-10-23T17:18:03Z</time>
      </trkpt>
      <trkpt lat="45.57335" lon="4.54678">
        <ele>785</ele>
        <time>2013-10-23T17:18:06Z</time>
      </trkpt>
      <trkpt lat="45.57329" lon="4.54676">
        <ele>784</ele>
        <time>2013-10-23T17:18:09Z</time>
      </trkpt>
      <trkpt lat="45.57323" lon="4.54673">
        <ele>783</ele>
        <time>2013-10-23T17:18:12Z</time>
      </trkpt>
      <trkpt lat="45.57319" lon="4.5467">
        <ele>782</ele>
        <time>2013-10-23T17:18:15Z</time>
      </trkpt>
      <trkpt lat="45.57313" lon="4.54665">
        <ele>780</ele>
        <time>2013-10-23T17:18:18Z</time>
      </trkpt>
      <trkpt lat="45.57306" lon="4.54662">
        <ele>779</ele>
        <time>2013-10-23T17:18:21Z</time>
      </trkpt>
      <trkpt lat="45.57301" lon="4.54655">
        <ele>777</ele>
        <time>2013-10-23T17:18:24Z</time>
      </trkpt>
      <trkpt lat="45.57295" lon="4.54649">
        <ele>777</ele>
        <time>2013-10-23T17:18:27Z</time>
      </trkpt>
      <trkpt lat="45.57288" lon="4.54644">
        <ele>776</ele>
        <time>2013-10-23T17:18:30Z</time>
      </trkpt>
      <trkpt lat="45.57283" lon="4.54641">
        <ele>776</ele>
        <time>2013-10-23T17:18:33Z</time>
      </trkpt>
      <trkpt lat="45.57277" lon="4.54636">
        <ele>776</ele>
        <time>2013-10-23T17:18:36Z</time>
      </trkpt>
      <trkpt lat="45.57271" lon="4.54632">
        <ele>776</ele>
        <time>2013-10-23T17:18:39Z</time>
      </trkpt>
      <trkpt lat="45.57265" lon="4.54624">
        <ele>776</ele>
        <time>2013-10-23T17:18:42Z</time>
      </trkpt>
      <trkpt lat="45.5726" lon="4.54616">
        <ele>776</ele>
        <time>2013-10-23T17:18:45Z</time>
      </trkpt>
      <trkpt lat="45.57253" lon="4.54604">
        <ele>776</ele>
        <time>2013-10-23T17:18:49Z</time>
      </trkpt>
      <trkpt lat="45.57248" lon="4.54596">
        <ele>776</ele>
        <time>2013-10-23T17:18:52Z</time>
      </trkpt>
      <trkpt lat="45.57243" lon="4.54587">
        <ele>776</ele>
        <time>2013-10-23T17:18:55Z</time>
      </trkpt>
      <trkpt lat="45.57236" lon="4.54576">
        <ele>776</ele>
        <time>2013-10-23T17:18:59Z</time>
      </trkpt>
      <trkpt lat="45.5723" lon="4.54567">
        <ele>776</ele>
        <time>2013-10-23T17:19:02Z</time>
      </trkpt>
      <trkpt lat="45.57223" lon="4.54559">
        <ele>775</ele>
        <time>2013-10-23T17:19:06Z</time>
      </trkpt>
      <trkpt lat="45.57217" lon="4.54555">
        <ele>774</ele>
        <time>2013-10-23T17:19:09Z</time>
      </trkpt>
      <trkpt lat="45.5721" lon="4.54551">
        <ele>773</ele>
        <time>2013-10-23T17:19:12Z</time>
      </trkpt>
      <trkpt lat="45.57201" lon="4.5455">
        <ele>773</ele>
        <time>2013-10-23T17:19:16Z</time>
      </trkpt>
      <trkpt lat="45.57194" lon="4.54548">
        <ele>773</ele>
        <time>2013-10-23T17:19:19Z</time>
      </trkpt>
      <trkpt lat="45.57186" lon="4.54548">
        <ele>773</ele>
        <time>2013-10-23T17:19:22Z</time>
      </trkpt>
      <trkpt lat="45.57179" lon="4.54547">
        <ele>773</ele>
        <time>2013-10-23T17:19:25Z</time>
      </trkpt>
      <trkpt lat="45.57172" lon="4.54548">
        <ele>774</ele>
        <time>2013-10-23T17:19:28Z</time>
      </trkpt>
      <trkpt lat="45.57164" lon="4.54548">
        <ele>775</ele>
        <time>2013-10-23T17:19:31Z</time>
      </trkpt>
      <trkpt lat="45.57158" lon="4.54549">
        <ele>775</ele>
        <time>2013-10-23T17:19:34Z</time>
      </trkpt>
      <trkpt lat="45.57153" lon="4.54549">
        <ele>775</ele>
        <time>2013-10-23T17:19:37Z</time>
      </trkpt>
      <trkpt lat="45.57146" lon="4.54551">
        <ele>775</ele>
        <time>2013-10-23T17:19:40Z</time>
      </trkpt>
      <trkpt lat="45.57141" lon="4.54553">
        <ele>775</ele>
        <time>2013-10-23T17:19:43Z</time>
      </trkpt>
      <trkpt lat="45.57132" lon="4.54556">
        <ele>774</ele>
        <time>2013-10-23T17:19:47Z</time>
      </trkpt>
      <trkpt lat="45.57128" lon="4.54558">
        <ele>772</ele>
        <time>2013-10-23T17:19:50Z</time>
      </trkpt>
      <trkpt lat="45.57123" lon="4.54561">
        <ele>771</ele>
        <time>2013-10-23T17:19:53Z</time>
      </trkpt>
      <trkpt lat="45.57118" lon="4.54567">
        <ele>771</ele>
        <time>2013-10-23T17:19:56Z</time>
      </trkpt>
      <trkpt lat="45.57113" lon="4.54574">
        <ele>771</ele>
        <time>2013-10-23T17:19:59Z</time>
      </trkpt>
      <trkpt lat="45.57109" lon="4.5458">
        <ele>771</ele>
        <time>2013-10-23T17:20:02Z</time>
      </trkpt>
      <trkpt lat="45.57104" lon="4.54585">
        <ele>771</ele>
        <time>2013-10-23T17:20:05Z</time>
      </trkpt>
      <trkpt lat="45.57097" lon="4.54588">
        <ele>771</ele>
        <time>2013-10-23T17:20:09Z</time>
      </trkpt>
      <trkpt lat="45.5709" lon="4.5459">
        <ele>770</ele>
        <time>2013-10-23T17:20:13Z</time>
      </trkpt>
      <trkpt lat="45.57083" lon="4.54592">
        <ele>767</ele>
        <time>2013-10-23T17:20:16Z</time>
      </trkpt>
      <trkpt lat="45.57076" lon="4.54591">
        <ele>766</ele>
        <time>2013-10-23T17:20:19Z</time>
      </trkpt>
      <trkpt lat="45.57071" lon="4.54585">
        <ele>766</ele>
        <time>2013-10-23T17:20:22Z</time>
      </trkpt>
      <trkpt lat="45.57072" lon="4.5458">
        <ele>766</ele>
        <time>2013-10-23T17:20:26Z</time>
      </trkpt>
      <trkpt lat="45.57073" lon="4.54573">
        <ele>766</ele>
        <time>2013-10-23T17:20:30Z</time>
      </trkpt>
      <trkpt lat="45.57073" lon="4.54568">
        <ele>766</ele>
        <time>2013-10-23T17:20:33Z</time>
      </trkpt>
      <trkpt lat="45.57073" lon="4.54563">
        <ele>766</ele>
        <time>2013-10-23T17:20:36Z</time>
      </trkpt>
      <trkpt lat="45.57073" lon="4.54557">
        <ele>766</ele>
        <time>2013-10-23T17:20:40Z</time>
      </trkpt>
      <trkpt lat="45.57073" lon="4.54553">
        <ele>766</ele>
        <time>2013-10-23T17:20:44Z</time>
      </trkpt>
      <trkpt lat="45.57074" lon="4.54548">
        <ele>766</ele>
        <time>2013-10-23T17:20:47Z</time>
      </trkpt>
      <trkpt lat="45.57074" lon="4.54542">
        <ele>766</ele>
        <time>2013-10-23T17:20:50Z</time>
      </trkpt>
      <trkpt lat="45.57075" lon="4.54536">
        <ele>766</ele>
        <time>2013-10-23T17:20:53Z</time>
      </trkpt>
      <trkpt lat="45.57076" lon="4.54531">
        <ele>766</ele>
        <time>2013-10-23T17:20:56Z</time>
      </trkpt>
      <trkpt lat="45.57077" lon="4.54526">
        <ele>766</ele>
        <time>2013-10-23T17:20:59Z</time>
      </trkpt>
      <trkpt lat="45.57078" lon="4.54519">
        <ele>766</ele>
        <time>2013-10-23T17:21:03Z</time>
      </trkpt>
      <trkpt lat="45.57077" lon="4.54512">
        <ele>767</ele>
        <time>2013-10-23T17:21:06Z</time>
      </trkpt>
      <trkpt lat="45.57078" lon="4.54508">
        <ele>767</ele>
        <time>2013-10-23T17:21:09Z</time>
      </trkpt>
      <trkpt lat="45.57079" lon="4.54503">
        <ele>767</ele>
        <time>2013-10-23T17:21:12Z</time>
      </trkpt>
      <trkpt lat="45.57079" lon="4.54498">
        <ele>768</ele>
        <time>2013-10-23T17:21:15Z</time>
      </trkpt>
      <trkpt lat="45.57078" lon="4.54492">
        <ele>769</ele>
        <time>2013-10-23T17:21:18Z</time>
      </trkpt>
      <trkpt lat="45.57078" lon="4.54487">
        <ele>770</ele>
        <time>2013-10-23T17:21:21Z</time>
      </trkpt>
      <trkpt lat="45.57078" lon="4.54479">
        <ele>772</ele>
        <time>2013-10-23T17:21:25Z</time>
      </trkpt>
      <trkpt lat="45.57078" lon="4.54472">
        <ele>773</ele>
        <time>2013-10-23T17:21:29Z</time>
      </trkpt>
      <trkpt lat="45.57078" lon="4.54468">
        <ele>773</ele>
        <time>2013-10-23T17:21:33Z</time>
      </trkpt>
      <trkpt lat="45.57078" lon="4.54464">
        <ele>773</ele>
        <time>2013-10-23T17:21:37Z</time>
      </trkpt>
      <trkpt lat="45.57079" lon="4.5446">
        <ele>773</ele>
        <time>2013-10-23T17:21:40Z</time>
      </trkpt>
      <trkpt lat="45.57079" lon="4.54455">
        <ele>773</ele>
        <time>2013-10-23T17:21:43Z</time>
      </trkpt>
      <trkpt lat="45.5708" lon="4.5445">
        <ele>773</ele>
        <time>2013-10-23T17:21:46Z</time>
      </trkpt>
      <trkpt lat="45.57082" lon="4.54442">
        <ele>773</ele>
        <time>2013-10-23T17:21:50Z</time>
      </trkpt>
      <trkpt lat="45.57085" lon="4.54438">
        <ele>773</ele>
        <time>2013-10-23T17:21:53Z</time>
      </trkpt>
      <trkpt lat="45.57086" lon="4.54433">
        <ele>773</ele>
        <time>2013-10-23T17:21:56Z</time>
      </trkpt>
      <trkpt lat="45.57087" lon="4.54429">
        <ele>773</ele>
        <time>2013-10-23T17:21:59Z</time>
      </trkpt>
      <trkpt lat="45.57088" lon="4.54424">
        <ele>773</ele>
        <time>2013-10-23T17:22:02Z</time>
      </trkpt>
      <trkpt lat="45.57089" lon="4.5442">
        <ele>773</ele>
        <time>2013-10-23T17:22:05Z</time>
      </trkpt>
      <trkpt lat="45.5709" lon="4.54417">
        <ele>773</ele>
        <time>2013-10-23T17:22:08Z</time>
      </trkpt>
      <trkpt lat="45.57091" lon="4.54412">
        <ele>773</ele>
        <time>2013-10-23T17:22:12Z</time>
      </trkpt>
      <trkpt lat="45.57093" lon="4.54408">
        <ele>773</ele>
        <time>2013-10-23T17:22:16Z</time>
      </trkpt>
      <trkpt lat="45.57094" lon="4.54403">
        <ele>773</ele>
        <time>2013-10-23T17:22:20Z</time>
      </trkpt>
      <trkpt lat="45.57095" lon="4.54398">
        <ele>773</ele>
        <time>2013-10-23T17:22:23Z</time>
      </trkpt>
      <trkpt lat="45.57097" lon="4.54393">
        <ele>773</ele>
        <time>2013-10-23T17:22:27Z</time>
      </trkpt>
      <trkpt lat="45.57098" lon="4.54388">
        <ele>774</ele>
        <time>2013-10-23T17:22:31Z</time>
      </trkpt>
      <trkpt lat="45.57099" lon="4.54384">
        <ele>775</ele>
        <time>2013-10-23T17:22:34Z</time>
      </trkpt>
      <trkpt lat="45.571" lon="4.5438">
        <ele>776</ele>
        <time>2013-10-23T17:22:37Z</time>
      </trkpt>
      <trkpt lat="45.57101" lon="4.54376">
        <ele>776</ele>
        <time>2013-10-23T17:22:40Z</time>
      </trkpt>
      <trkpt lat="45.57103" lon="4.54371">
        <ele>776</ele>
        <time>2013-10-23T17:22:44Z</time>
      </trkpt>
      <trkpt lat="45.57105" lon="4.54366">
        <ele>776</ele>
        <time>2013-10-23T17:22:48Z</time>
      </trkpt>
      <trkpt lat="45.57106" lon="4.54362">
        <ele>776</ele>
        <time>2013-10-23T17:22:51Z</time>
      </trkpt>
      <trkpt lat="45.57108" lon="4.54358">
        <ele>776</ele>
        <time>2013-10-23T17:22:54Z</time>
      </trkpt>
      <trkpt lat="45.57109" lon="4.54353">
        <ele>776</ele>
        <time>2013-10-23T17:22:58Z</time>
      </trkpt>
      <trkpt lat="45.57109" lon="4.54349">
        <ele>776</ele>
        <time>2013-10-23T17:23:01Z</time>
      </trkpt>
      <trkpt lat="45.57109" lon="4.54345">
        <ele>776</ele>
        <time>2013-10-23T17:23:04Z</time>
      </trkpt>
      <trkpt lat="45.57109" lon="4.5434">
        <ele>776</ele>
        <time>2013-10-23T17:23:07Z</time>
      </trkpt>
      <trkpt lat="45.5711" lon="4.54335">
        <ele>776</ele>
        <time>2013-10-23T17:23:10Z</time>
      </trkpt>
      <trkpt lat="45.57111" lon="4.54331">
        <ele>776</ele>
        <time>2013-10-23T17:23:13Z</time>
      </trkpt>
      <trkpt lat="45.5711" lon="4.54326">
        <ele>776</ele>
        <time>2013-10-23T17:23:16Z</time>
      </trkpt>
      <trkpt lat="45.5711" lon="4.54321">
        <ele>779</ele>
        <time>2013-10-23T17:23:19Z</time>
      </trkpt>
      <trkpt lat="45.57109" lon="4.54316">
        <ele>782</ele>
        <time>2013-10-23T17:23:22Z</time>
      </trkpt>
      <trkpt lat="45.5711" lon="4.5431">
        <ele>783</ele>
        <time>2013-10-23T17:23:26Z</time>
      </trkpt>
      <trkpt lat="45.57111" lon="4.54306">
        <ele>784</ele>
        <time>2013-10-23T17:23:29Z</time>
      </trkpt>
      <trkpt lat="45.57111" lon="4.54301">
        <ele>784</ele>
        <time>2013-10-23T17:23:32Z</time>
      </trkpt>
      <trkpt lat="45.57111" lon="4.54294">
        <ele>784</ele>
        <time>2013-10-23T17:23:36Z</time>
      </trkpt>
      <trkpt lat="45.57112" lon="4.54289">
        <ele>786</ele>
        <time>2013-10-23T17:23:39Z</time>
      </trkpt>
      <trkpt lat="45.57114" lon="4.54285">
        <ele>786</ele>
        <time>2013-10-23T17:23:42Z</time>
      </trkpt>
      <trkpt lat="45.57115" lon="4.54279">
        <ele>787</ele>
        <time>2013-10-23T17:23:45Z</time>
      </trkpt>
      <trkpt lat="45.57116" lon="4.54274">
        <ele>787</ele>
        <time>2013-10-23T17:23:48Z</time>
      </trkpt>
      <trkpt lat="45.57117" lon="4.54267">
        <ele>789</ele>
        <time>2013-10-23T17:23:52Z</time>
      </trkpt>
      <trkpt lat="45.57118" lon="4.5426">
        <ele>791</ele>
        <time>2013-10-23T17:23:56Z</time>
      </trkpt>
      <trkpt lat="45.57119" lon="4.54254">
        <ele>792</ele>
        <time>2013-10-23T17:24:00Z</time>
      </trkpt>
      <trkpt lat="45.57121" lon="4.5425">
        <ele>792</ele>
        <time>2013-10-23T17:24:03Z</time>
      </trkpt>
      <trkpt lat="45.57122" lon="4.54245">
        <ele>792</ele>
        <time>2013-10-23T17:24:06Z</time>
      </trkpt>
      <trkpt lat="45.57123" lon="4.5424">
        <ele>792</ele>
        <time>2013-10-23T17:24:09Z</time>
      </trkpt>
      <trkpt lat="45.57124" lon="4.54235">
        <ele>792</ele>
        <time>2013-10-23T17:24:12Z</time>
      </trkpt>
      <trkpt lat="45.57125" lon="4.54229">
        <ele>792</ele>
        <time>2013-10-23T17:24:16Z</time>
      </trkpt>
      <trkpt lat="45.57126" lon="4.54224">
        <ele>792</ele>
        <time>2013-10-23T17:24:19Z</time>
      </trkpt>
      <trkpt lat="45.57127" lon="4.54219">
        <ele>793</ele>
        <time>2013-10-23T17:24:22Z</time>
      </trkpt>
      <trkpt lat="45.57127" lon="4.54214">
        <ele>794</ele>
        <time>2013-10-23T17:24:25Z</time>
      </trkpt>
      <trkpt lat="45.57128" lon="4.54209">
        <ele>795</ele>
        <time>2013-10-23T17:24:28Z</time>
      </trkpt>
      <trkpt lat="45.5713" lon="4.54204">
        <ele>796</ele>
        <time>2013-10-23T17:24:31Z</time>
      </trkpt>
      <trkpt lat="45.5713" lon="4.54199">
        <ele>797</ele>
        <time>2013-10-23T17:24:34Z</time>
      </trkpt>
      <trkpt lat="45.57131" lon="4.54194">
        <ele>797</ele>
        <time>2013-10-23T17:24:37Z</time>
      </trkpt>
      <trkpt lat="45.57131" lon="4.54188">
        <ele>799</ele>
        <time>2013-10-23T17:24:41Z</time>
      </trkpt>
      <trkpt lat="45.57132" lon="4.54182">
        <ele>800</ele>
        <time>2013-10-23T17:24:45Z</time>
      </trkpt>
      <trkpt lat="45.57134" lon="4.54176">
        <ele>800</ele>
        <time>2013-10-23T17:24:48Z</time>
      </trkpt>
      <trkpt lat="45.57135" lon="4.5417">
        <ele>801</ele>
        <time>2013-10-23T17:24:51Z</time>
      </trkpt>
      <trkpt lat="45.57135" lon="4.54165">
        <ele>801</ele>
        <time>2013-10-23T17:24:54Z</time>
      </trkpt>
      <trkpt lat="45.57137" lon="4.54159">
        <ele>801</ele>
        <time>2013-10-23T17:24:58Z</time>
      </trkpt>
      <trkpt lat="45.57138" lon="4.54155">
        <ele>801</ele>
        <time>2013-10-23T17:25:01Z</time>
      </trkpt>
      <trkpt lat="45.5714" lon="4.5415">
        <ele>801</ele>
        <time>2013-10-23T17:25:04Z</time>
      </trkpt>
      <trkpt lat="45.57142" lon="4.54144">
        <ele>802</ele>
        <time>2013-10-23T17:25:08Z</time>
      </trkpt>
      <trkpt lat="45.57143" lon="4.54141">
        <ele>803</ele>
        <time>2013-10-23T17:25:11Z</time>
      </trkpt>
      <trkpt lat="45.57145" lon="4.54135">
        <ele>805</ele>
        <time>2013-10-23T17:25:15Z</time>
      </trkpt>
      <trkpt lat="45.57146" lon="4.54131">
        <ele>805</ele>
        <time>2013-10-23T17:25:18Z</time>
      </trkpt>
      <trkpt lat="45.57148" lon="4.54125">
        <ele>805</ele>
        <time>2013-10-23T17:25:22Z</time>
      </trkpt>
      <trkpt lat="45.57149" lon="4.54121">
        <ele>806</ele>
        <time>2013-10-23T17:25:25Z</time>
      </trkpt>
      <trkpt lat="45.5715" lon="4.54116">
        <ele>806</ele>
        <time>2013-10-23T17:25:28Z</time>
      </trkpt>
      <trkpt lat="45.57152" lon="4.5411">
        <ele>806</ele>
        <time>2013-10-23T17:25:32Z</time>
      </trkpt>
      <trkpt lat="45.57155" lon="4.54107">
        <ele>806</ele>
        <time>2013-10-23T17:25:36Z</time>
      </trkpt>
      <trkpt lat="45.57157" lon="4.54102">
        <ele>806</ele>
        <time>2013-10-23T17:25:40Z</time>
      </trkpt>
      <trkpt lat="45.5716" lon="4.54096">
        <ele>806</ele>
        <time>2013-10-23T17:25:43Z</time>
      </trkpt>
      <trkpt lat="45.57161" lon="4.5409">
        <ele>807</ele>
        <time>2013-10-23T17:25:46Z</time>
      </trkpt>
      <trkpt lat="45.57161" lon="4.54086">
        <ele>807</ele>
        <time>2013-10-23T17:25:49Z</time>
      </trkpt>
      <trkpt lat="45.57163" lon="4.54082">
        <ele>808</ele>
        <time>2013-10-23T17:25:52Z</time>
      </trkpt>
      <trkpt lat="45.57165" lon="4.54076">
        <ele>808</ele>
        <time>2013-10-23T17:25:56Z</time>
      </trkpt>
      <trkpt lat="45.57166" lon="4.54072">
        <ele>809</ele>
        <time>2013-10-23T17:25:59Z</time>
      </trkpt>
      <trkpt lat="45.57167" lon="4.54064">
        <ele>810</ele>
        <time>2013-10-23T17:26:03Z</time>
      </trkpt>
      <trkpt lat="45.57169" lon="4.5406">
        <ele>811</ele>
        <time>2013-10-23T17:26:06Z</time>
      </trkpt>
      <trkpt lat="45.57171" lon="4.54055">
        <ele>811</ele>
        <time>2013-10-23T17:26:09Z</time>
      </trkpt>
      <trkpt lat="45.57173" lon="4.5405">
        <ele>811</ele>
        <time>2013-10-23T17:26:12Z</time>
      </trkpt>
      <trkpt lat="45.57175" lon="4.54045">
        <ele>811</ele>
        <time>2013-10-23T17:26:15Z</time>
      </trkpt>
      <trkpt lat="45.57177" lon="4.5404">
        <ele>811</ele>
        <time>2013-10-23T17:26:18Z</time>
      </trkpt>
      <trkpt lat="45.57178" lon="4.54036">
        <ele>811</ele>
        <time>2013-10-23T17:26:21Z</time>
      </trkpt>
      <trkpt lat="45.57179" lon="4.5403">
        <ele>811</ele>
        <time>2013-10-23T17:26:24Z</time>
      </trkpt>
      <trkpt lat="45.57181" lon="4.54022">
        <ele>811</ele>
        <time>2013-10-23T17:26:29Z</time>
      </trkpt>
      <trkpt lat="45.57182" lon="4.54016">
        <ele>812</ele>
        <time>2013-10-23T17:26:32Z</time>
      </trkpt>
      <trkpt lat="45.57183" lon="4.54009">
        <ele>813</ele>
        <time>2013-10-23T17:26:36Z</time>
      </trkpt>
      <trkpt lat="45.57184" lon="4.54003">
        <ele>814</ele>
        <time>2013-10-23T17:26:39Z</time>
      </trkpt>
      <trkpt lat="45.57185" lon="4.53997">
        <ele>816</ele>
        <time>2013-10-23T17:26:43Z</time>
      </trkpt>
      <trkpt lat="45.57187" lon="4.5399">
        <ele>816</ele>
        <time>2013-10-23T17:26:47Z</time>
      </trkpt>
      <trkpt lat="45.57189" lon="4.53984">
        <ele>817</ele>
        <time>2013-10-23T17:26:51Z</time>
      </trkpt>
      <trkpt lat="45.57191" lon="4.53979">
        <ele>818</ele>
        <time>2013-10-23T17:26:54Z</time>
      </trkpt>
      <trkpt lat="45.57192" lon="4.53975">
        <ele>819</ele>
        <time>2013-10-23T17:26:57Z</time>
      </trkpt>
      <trkpt lat="45.57195" lon="4.53969">
        <ele>820</ele>
        <time>2013-10-23T17:27:01Z</time>
      </trkpt>
      <trkpt lat="45.57196" lon="4.53965">
        <ele>822</ele>
        <time>2013-10-23T17:27:04Z</time>
      </trkpt>
      <trkpt lat="45.57198" lon="4.53959">
        <ele>823</ele>
        <time>2013-10-23T17:27:08Z</time>
      </trkpt>
      <trkpt lat="45.57201" lon="4.53955">
        <ele>824</ele>
        <time>2013-10-23T17:27:12Z</time>
      </trkpt>
      <trkpt lat="45.57202" lon="4.53951">
        <ele>825</ele>
        <time>2013-10-23T17:27:16Z</time>
      </trkpt>
      <trkpt lat="45.57204" lon="4.53947">
        <ele>826</ele>
        <time>2013-10-23T17:27:20Z</time>
      </trkpt>
      <trkpt lat="45.57206" lon="4.53943">
        <ele>827</ele>
        <time>2013-10-23T17:27:24Z</time>
      </trkpt>
      <trkpt lat="45.57209" lon="4.5394">
        <ele>827</ele>
        <time>2013-10-23T17:27:28Z</time>
      </trkpt>
      <trkpt lat="45.57212" lon="4.53936">
        <ele>828</ele>
        <time>2013-10-23T17:27:32Z</time>
      </trkpt>
      <trkpt lat="45.57214" lon="4.53932">
        <ele>828</ele>
        <time>2013-10-23T17:27:36Z</time>
      </trkpt>
      <trkpt lat="45.57218" lon="4.53928">
        <ele>829</ele>
        <time>2013-10-23T17:27:40Z</time>
      </trkpt>
      <trkpt lat="45.5722" lon="4.53923">
        <ele>829</ele>
        <time>2013-10-23T17:27:44Z</time>
      </trkpt>
      <trkpt lat="45.57223" lon="4.53919">
        <ele>830</ele>
        <time>2013-10-23T17:27:48Z</time>
      </trkpt>
      <trkpt lat="45.57225" lon="4.53915">
        <ele>832</ele>
        <time>2013-10-23T17:27:52Z</time>
      </trkpt>
      <trkpt lat="45.57228" lon="4.53911">
        <ele>833</ele>
        <time>2013-10-23T17:27:56Z</time>
      </trkpt>
      <trkpt lat="45.5723" lon="4.53906">
        <ele>834</ele>
        <time>2013-10-23T17:28:00Z</time>
      </trkpt>
      <trkpt lat="45.57233" lon="4.53902">
        <ele>835</ele>
        <time>2013-10-23T17:28:04Z</time>
      </trkpt>
      <trkpt lat="45.57235" lon="4.53898">
        <ele>836</ele>
        <time>2013-10-23T17:28:08Z</time>
      </trkpt>
      <trkpt lat="45.57237" lon="4.53894">
        <ele>837</ele>
        <time>2013-10-23T17:28:12Z</time>
      </trkpt>
      <trkpt lat="45.5724" lon="4.5389">
        <ele>838</ele>
        <time>2013-10-23T17:28:16Z</time>
      </trkpt>
      <trkpt lat="45.57243" lon="4.53886">
        <ele>839</ele>
        <time>2013-10-23T17:28:20Z</time>
      </trkpt>
      <trkpt lat="45.57245" lon="4.53883">
        <ele>840</ele>
        <time>2013-10-23T17:28:24Z</time>
      </trkpt>
      <trkpt lat="45.57249" lon="4.53881">
        <ele>840</ele>
        <time>2013-10-23T17:28:28Z</time>
      </trkpt>
      <trkpt lat="45.57253" lon="4.53879">
        <ele>840</ele>
        <time>2013-10-23T17:28:32Z</time>
      </trkpt>
      <trkpt lat="45.57256" lon="4.53877">
        <ele>841</ele>
        <time>2013-10-23T17:28:36Z</time>
      </trkpt>
      <trkpt lat="45.57259" lon="4.53874">
        <ele>842</ele>
        <time>2013-10-23T17:28:40Z</time>
      </trkpt>
      <trkpt lat="45.57261" lon="4.5387">
        <ele>843</ele>
        <time>2013-10-23T17:28:44Z</time>
      </trkpt>
      <trkpt lat="45.57263" lon="4.53864">
        <ele>844</ele>
        <time>2013-10-23T17:28:48Z</time>
      </trkpt>
      <trkpt lat="45.57265" lon="4.5386">
        <ele>845</ele>
        <time>2013-10-23T17:28:52Z</time>
      </trkpt>
      <trkpt lat="45.57266" lon="4.53856">
        <ele>846</ele>
        <time>2013-10-23T17:28:56Z</time>
      </trkpt>
      <trkpt lat="45.57267" lon="4.5385">
        <ele>848</ele>
        <time>2013-10-23T17:29:00Z</time>
      </trkpt>
      <trkpt lat="45.57268" lon="4.53845">
        <ele>849</ele>
        <time>2013-10-23T17:29:03Z</time>
      </trkpt>
      <trkpt lat="45.57268" lon="4.53839">
        <ele>849</ele>
        <time>2013-10-23T17:29:06Z</time>
      </trkpt>
      <trkpt lat="45.57269" lon="4.53832">
        <ele>850</ele>
        <time>2013-10-23T17:29:10Z</time>
      </trkpt>
      <trkpt lat="45.57269" lon="4.53827">
        <ele>851</ele>
        <time>2013-10-23T17:29:13Z</time>
      </trkpt>
      <trkpt lat="45.57269" lon="4.53821">
        <ele>851</ele>
        <time>2013-10-23T17:29:16Z</time>
      </trkpt>
      <trkpt lat="45.57269" lon="4.53814">
        <ele>851</ele>
        <time>2013-10-23T17:29:20Z</time>
      </trkpt>
      <trkpt lat="45.57269" lon="4.53809">
        <ele>851</ele>
        <time>2013-10-23T17:29:23Z</time>
      </trkpt>
      <trkpt lat="45.57269" lon="4.53803">
        <ele>851</ele>
        <time>2013-10-23T17:29:26Z</time>
      </trkpt>
      <trkpt lat="45.57269" lon="4.53797">
        <ele>852</ele>
        <time>2013-10-23T17:29:29Z</time>
      </trkpt>
      <trkpt lat="45.57269" lon="4.5379">
        <ele>852</ele>
        <time>2013-10-23T17:29:33Z</time>
      </trkpt>
      <trkpt lat="45.5727" lon="4.53782">
        <ele>852</ele>
        <time>2013-10-23T17:29:37Z</time>
      </trkpt>
      <trkpt lat="45.5727" lon="4.53777">
        <ele>853</ele>
        <time>2013-10-23T17:29:40Z</time>
      </trkpt>
      <trkpt lat="45.5727" lon="4.53771">
        <ele>854</ele>
        <time>2013-10-23T17:29:44Z</time>
      </trkpt>
      <trkpt lat="45.57269" lon="4.53765">
        <ele>855</ele>
        <time>2013-10-23T17:29:49Z</time>
      </trkpt>
      <trkpt lat="45.57267" lon="4.53763">
        <ele>855</ele>
        <time>2013-10-23T17:30:01Z</time>
      </trkpt>
      <trkpt lat="45.57264" lon="4.53767">
        <ele>855</ele>
        <time>2013-10-23T17:30:05Z</time>
      </trkpt>
      <trkpt lat="45.5726" lon="4.53765">
        <ele>855</ele>
        <time>2013-10-23T17:30:09Z</time>
      </trkpt>
      <trkpt lat="45.57257" lon="4.53763">
        <ele>855</ele>
        <time>2013-10-23T17:30:12Z</time>
      </trkpt>
      <trkpt lat="45.57252" lon="4.5376">
        <ele>855</ele>
        <time>2013-10-23T17:30:16Z</time>
      </trkpt>
      <trkpt lat="45.57247" lon="4.53756">
        <ele>855</ele>
        <time>2013-10-23T17:30:20Z</time>
      </trkpt>
      <trkpt lat="45.57244" lon="4.53752">
        <ele>854</ele>
        <time>2013-10-23T17:30:24Z</time>
      </trkpt>
      <trkpt lat="45.57241" lon="4.53748">
        <ele>853</ele>
        <time>2013-10-23T17:30:28Z</time>
      </trkpt>
      <trkpt lat="45.57238" lon="4.53743">
        <ele>852</ele>
        <time>2013-10-23T17:30:32Z</time>
      </trkpt>
      <trkpt lat="45.57233" lon="4.53737">
        <ele>851</ele>
        <time>2013-10-23T17:30:35Z</time>
      </trkpt>
      <trkpt lat="45.57227" lon="4.5373">
        <ele>850</ele>
        <time>2013-10-23T17:30:39Z</time>
      </trkpt>
      <trkpt lat="45.5722" lon="4.53724">
        <ele>849</ele>
        <time>2013-10-23T17:30:43Z</time>
      </trkpt>
      <trkpt lat="45.57215" lon="4.5372">
        <ele>848</ele>
        <time>2013-10-23T17:30:46Z</time>
      </trkpt>
      <trkpt lat="45.57211" lon="4.53714">
        <ele>847</ele>
        <time>2013-10-23T17:30:49Z</time>
      </trkpt>
      <trkpt lat="45.57205" lon="4.53706">
        <ele>846</ele>
        <time>2013-10-23T17:30:53Z</time>
      </trkpt>
      <trkpt lat="45.57201" lon="4.53698">
        <ele>845</ele>
        <time>2013-10-23T17:30:56Z</time>
      </trkpt>
      <trkpt lat="45.57198" lon="4.5369">
        <ele>844</ele>
        <time>2013-10-23T17:30:59Z</time>
      </trkpt>
      <trkpt lat="45.57194" lon="4.53678">
        <ele>843</ele>
        <time>2013-10-23T17:31:03Z</time>
      </trkpt>
      <trkpt lat="45.57191" lon="4.5367">
        <ele>842</ele>
        <time>2013-10-23T17:31:06Z</time>
      </trkpt>
      <trkpt lat="45.57188" lon="4.53661">
        <ele>841</ele>
        <time>2013-10-23T17:31:09Z</time>
      </trkpt>
      <trkpt lat="45.57185" lon="4.5365">
        <ele>840</ele>
        <time>2013-10-23T17:31:13Z</time>
      </trkpt>
      <trkpt lat="45.57183" lon="4.53641">
        <ele>840</ele>
        <time>2013-10-23T17:31:16Z</time>
      </trkpt>
      <trkpt lat="45.5718" lon="4.53632">
        <ele>840</ele>
        <time>2013-10-23T17:31:19Z</time>
      </trkpt>
      <trkpt lat="45.57175" lon="4.53622">
        <ele>840</ele>
        <time>2013-10-23T17:31:23Z</time>
      </trkpt>
      <trkpt lat="45.57172" lon="4.53615">
        <ele>839</ele>
        <time>2013-10-23T17:31:26Z</time>
      </trkpt>
      <trkpt lat="45.57169" lon="4.53607">
        <ele>838</ele>
        <time>2013-10-23T17:31:29Z</time>
      </trkpt>
      <trkpt lat="45.57165" lon="4.53595">
        <ele>837</ele>
        <time>2013-10-23T17:31:33Z</time>
      </trkpt>
      <trkpt lat="45.57162" lon="4.53587">
        <ele>835</ele>
        <time>2013-10-23T17:31:36Z</time>
      </trkpt>
      <trkpt lat="45.57161" lon="4.53576">
        <ele>833</ele>
        <time>2013-10-23T17:31:39Z</time>
      </trkpt>
      <trkpt lat="45.57156" lon="4.53566">
        <ele>832</ele>
        <time>2013-10-23T17:31:43Z</time>
      </trkpt>
      <trkpt lat="45.57149" lon="4.53563">
        <ele>830</ele>
        <time>2013-10-23T17:31:46Z</time>
      </trkpt>
      <trkpt lat="45.57144" lon="4.53558">
        <ele>829</ele>
        <time>2013-10-23T17:31:49Z</time>
      </trkpt>
      <trkpt lat="45.57138" lon="4.5355">
        <ele>827</ele>
        <time>2013-10-23T17:31:52Z</time>
      </trkpt>
      <trkpt lat="45.57135" lon="4.53542">
        <ele>826</ele>
        <time>2013-10-23T17:31:55Z</time>
      </trkpt>
      <trkpt lat="45.57132" lon="4.53534">
        <ele>826</ele>
        <time>2013-10-23T17:31:58Z</time>
      </trkpt>
      <trkpt lat="45.5713" lon="4.53525">
        <ele>826</ele>
        <time>2013-10-23T17:32:01Z</time>
      </trkpt>
      <trkpt lat="45.57129" lon="4.53515">
        <ele>825</ele>
        <time>2013-10-23T17:32:04Z</time>
      </trkpt>
      <trkpt lat="45.57127" lon="4.53508">
        <ele>825</ele>
        <time>2013-10-23T17:32:07Z</time>
      </trkpt>
      <trkpt lat="45.57123" lon="4.535">
        <ele>825</ele>
        <time>2013-10-23T17:32:10Z</time>
      </trkpt>
      <trkpt lat="45.5712" lon="4.53491">
        <ele>825</ele>
        <time>2013-10-23T17:32:13Z</time>
      </trkpt>
      <trkpt lat="45.57118" lon="4.53481">
        <ele>825</ele>
        <time>2013-10-23T17:32:16Z</time>
      </trkpt>
      <trkpt lat="45.57116" lon="4.53469">
        <ele>825</ele>
        <time>2013-10-23T17:32:20Z</time>
      </trkpt>
      <trkpt lat="45.57114" lon="4.53461">
        <ele>825</ele>
        <time>2013-10-23T17:32:23Z</time>
      </trkpt>
      <trkpt lat="45.57113" lon="4.53452">
        <ele>825</ele>
        <time>2013-10-23T17:32:26Z</time>
      </trkpt>
      <trkpt lat="45.57112" lon="4.53444">
        <ele>825</ele>
        <time>2013-10-23T17:32:30Z</time>
      </trkpt>
      <trkpt lat="45.57112" lon="4.53439">
        <ele>825</ele>
        <time>2013-10-23T17:32:33Z</time>
      </trkpt>
      <trkpt lat="45.57111" lon="4.53434">
        <ele>825</ele>
        <time>2013-10-23T17:32:36Z</time>
      </trkpt>
      <trkpt lat="45.57109" lon="4.53427">
        <ele>825</ele>
        <time>2013-10-23T17:32:39Z</time>
      </trkpt>
      <trkpt lat="45.57106" lon="4.53417">
        <ele>826</ele>
        <time>2013-10-23T17:32:42Z</time>
      </trkpt>
      <trkpt lat="45.57104" lon="4.53407">
        <ele>827</ele>
        <time>2013-10-23T17:32:45Z</time>
      </trkpt>
      <trkpt lat="45.57101" lon="4.53397">
        <ele>827</ele>
        <time>2013-10-23T17:32:48Z</time>
      </trkpt>
      <trkpt lat="45.57097" lon="4.53386">
        <ele>828</ele>
        <time>2013-10-23T17:32:51Z</time>
      </trkpt>
      <trkpt lat="45.57095" lon="4.53375">
        <ele>828</ele>
        <time>2013-10-23T17:32:54Z</time>
      </trkpt>
      <trkpt lat="45.57094" lon="4.53365">
        <ele>828</ele>
        <time>2013-10-23T17:32:57Z</time>
      </trkpt>
      <trkpt lat="45.57092" lon="4.53354">
        <ele>828</ele>
        <time>2013-10-23T17:33:00Z</time>
      </trkpt>
      <trkpt lat="45.5709" lon="4.53344">
        <ele>828</ele>
        <time>2013-10-23T17:33:03Z</time>
      </trkpt>
      <trkpt lat="45.57089" lon="4.53333">
        <ele>829</ele>
        <time>2013-10-23T17:33:06Z</time>
      </trkpt>
      <trkpt lat="45.57088" lon="4.53322">
        <ele>829</ele>
        <time>2013-10-23T17:33:09Z</time>
      </trkpt>
      <trkpt lat="45.57088" lon="4.53307">
        <ele>829</ele>
        <time>2013-10-23T17:33:13Z</time>
      </trkpt>
      <trkpt lat="45.57089" lon="4.53296">
        <ele>829</ele>
        <time>2013-10-23T17:33:16Z</time>
      </trkpt>
      <trkpt lat="45.5709" lon="4.53281">
        <ele>829</ele>
        <time>2013-10-23T17:33:20Z</time>
      </trkpt>
      <trkpt lat="45.57092" lon="4.53271">
        <ele>829</ele>
        <time>2013-10-23T17:33:23Z</time>
      </trkpt>
      <trkpt lat="45.57096" lon="4.53258">
        <ele>829</ele>
        <time>2013-10-23T17:33:27Z</time>
      </trkpt>
      <trkpt lat="45.57099" lon="4.53249">
        <ele>829</ele>
        <time>2013-10-23T17:33:30Z</time>
      </trkpt>
      <trkpt lat="45.57102" lon="4.5324">
        <ele>829</ele>
        <time>2013-10-23T17:33:33Z</time>
      </trkpt>
      <trkpt lat="45.57106" lon="4.53232">
        <ele>830</ele>
        <time>2013-10-23T17:33:36Z</time>
      </trkpt>
      <trkpt lat="45.57112" lon="4.53224">
        <ele>831</ele>
        <time>2013-10-23T17:33:39Z</time>
      </trkpt>
      <trkpt lat="45.57116" lon="4.53218">
        <ele>832</ele>
        <time>2013-10-23T17:33:42Z</time>
      </trkpt>
      <trkpt lat="45.5712" lon="4.53213">
        <ele>832</ele>
        <time>2013-10-23T17:33:45Z</time>
      </trkpt>
      <trkpt lat="45.57125" lon="4.53207">
        <ele>833</ele>
        <time>2013-10-23T17:33:48Z</time>
      </trkpt>
      <trkpt lat="45.57132" lon="4.53197">
        <ele>833</ele>
        <time>2013-10-23T17:33:52Z</time>
      </trkpt>
      <trkpt lat="45.57137" lon="4.53189">
        <ele>833</ele>
        <time>2013-10-23T17:33:55Z</time>
      </trkpt>
      <trkpt lat="45.57143" lon="4.53182">
        <ele>833</ele>
        <time>2013-10-23T17:33:58Z</time>
      </trkpt>
      <trkpt lat="45.5715" lon="4.53177">
        <ele>833</ele>
        <time>2013-10-23T17:34:01Z</time>
      </trkpt>
      <trkpt lat="45.57156" lon="4.53172">
        <ele>833</ele>
        <time>2013-10-23T17:34:04Z</time>
      </trkpt>
      <trkpt lat="45.57164" lon="4.53168">
        <ele>831</ele>
        <time>2013-10-23T17:34:07Z</time>
      </trkpt>
      <trkpt lat="45.5717" lon="4.53163">
        <ele>829</ele>
        <time>2013-10-23T17:34:10Z</time>
      </trkpt>
      <trkpt lat="45.57177" lon="4.53152">
        <ele>828</ele>
        <time>2013-10-23T17:34:14Z</time>
      </trkpt>
      <trkpt lat="45.57176" lon="4.53137">
        <ele>826</ele>
        <time>2013-10-23T17:34:18Z</time>
      </trkpt>
      <trkpt lat="45.57171" lon="4.53124">
        <ele>824</ele>
        <time>2013-10-23T17:34:22Z</time>
      </trkpt>
      <trkpt lat="45.57168" lon="4.53114">
        <ele>822</ele>
        <time>2013-10-23T17:34:25Z</time>
      </trkpt>
      <trkpt lat="45.57166" lon="4.53099">
        <ele>819</ele>
        <time>2013-10-23T17:34:29Z</time>
      </trkpt>
      <trkpt lat="45.57164" lon="4.53088">
        <ele>817</ele>
        <time>2013-10-23T17:34:32Z</time>
      </trkpt>
      <trkpt lat="45.57163" lon="4.53077">
        <ele>815</ele>
        <time>2013-10-23T17:34:35Z</time>
      </trkpt>
      <trkpt lat="45.57164" lon="4.53066">
        <ele>813</ele>
        <time>2013-10-23T17:34:38Z</time>
      </trkpt>
      <trkpt lat="45.57164" lon="4.53056">
        <ele>812</ele>
        <time>2013-10-23T17:34:41Z</time>
      </trkpt>
      <trkpt lat="45.57163" lon="4.53044">
        <ele>810</ele>
        <time>2013-10-23T17:34:45Z</time>
      </trkpt>
      <trkpt lat="45.57159" lon="4.53034">
        <ele>810</ele>
        <time>2013-10-23T17:34:48Z</time>
      </trkpt>
      <trkpt lat="45.57156" lon="4.53024">
        <ele>810</ele>
        <time>2013-10-23T17:34:51Z</time>
      </trkpt>
      <trkpt lat="45.57154" lon="4.53014">
        <ele>810</ele>
        <time>2013-10-23T17:34:54Z</time>
      </trkpt>
      <trkpt lat="45.57151" lon="4.53004">
        <ele>810</ele>
        <time>2013-10-23T17:34:57Z</time>
      </trkpt>
      <trkpt lat="45.57149" lon="4.52993">
        <ele>809</ele>
        <time>2013-10-23T17:35:00Z</time>
      </trkpt>
      <trkpt lat="45.57146" lon="4.52983">
        <ele>808</ele>
        <time>2013-10-23T17:35:03Z</time>
      </trkpt>
      <trkpt lat="45.57141" lon="4.5297">
        <ele>806</ele>
        <time>2013-10-23T17:35:07Z</time>
      </trkpt>
      <trkpt lat="45.57138" lon="4.52961">
        <ele>804</ele>
        <time>2013-10-23T17:35:10Z</time>
      </trkpt>
      <trkpt lat="45.57135" lon="4.52952">
        <ele>803</ele>
        <time>2013-10-23T17:35:13Z</time>
      </trkpt>
      <trkpt lat="45.57132" lon="4.52943">
        <ele>802</ele>
        <time>2013-10-23T17:35:16Z</time>
      </trkpt>
      <trkpt lat="45.57127" lon="4.52935">
        <ele>801</ele>
        <time>2013-10-23T17:35:19Z</time>
      </trkpt>
      <trkpt lat="45.57122" lon="4.52927">
        <ele>800</ele>
        <time>2013-10-23T17:35:22Z</time>
      </trkpt>
      <trkpt lat="45.57116" lon="4.52918">
        <ele>799</ele>
        <time>2013-10-23T17:35:25Z</time>
      </trkpt>
      <trkpt lat="45.57111" lon="4.5291">
        <ele>798</ele>
        <time>2013-10-23T17:35:28Z</time>
      </trkpt>
      <trkpt lat="45.57106" lon="4.52901">
        <ele>797</ele>
        <time>2013-10-23T17:35:31Z</time>
      </trkpt>
      <trkpt lat="45.571" lon="4.52893">
        <ele>796</ele>
        <time>2013-10-23T17:35:34Z</time>
      </trkpt>
      <trkpt lat="45.57093" lon="4.52882">
        <ele>795</ele>
        <time>2013-10-23T17:35:38Z</time>
      </trkpt>
      <trkpt lat="45.57086" lon="4.52874">
        <ele>794</ele>
        <time>2013-10-23T17:35:41Z</time>
      </trkpt>
      <trkpt lat="45.57079" lon="4.52869">
        <ele>793</ele>
        <time>2013-10-23T17:35:44Z</time>
      </trkpt>
      <trkpt lat="45.57072" lon="4.52864">
        <ele>792</ele>
        <time>2013-10-23T17:35:47Z</time>
      </trkpt>
      <trkpt lat="45.57063" lon="4.52859">
        <ele>791</ele>
        <time>2013-10-23T17:35:50Z</time>
      </trkpt>
      <trkpt lat="45.57056" lon="4.52855">
        <ele>790</ele>
        <time>2013-10-23T17:35:53Z</time>
      </trkpt>
      <trkpt lat="45.57047" lon="4.5285">
        <ele>790</ele>
        <time>2013-10-23T17:35:56Z</time>
      </trkpt>
      <trkpt lat="45.57037" lon="4.52842">
        <ele>789</ele>
        <time>2013-10-23T17:36:00Z</time>
      </trkpt>
      <trkpt lat="45.5703" lon="4.52837">
        <ele>788</ele>
        <time>2013-10-23T17:36:03Z</time>
      </trkpt>
      <trkpt lat="45.57023" lon="4.5283">
        <ele>787</ele>
        <time>2013-10-23T17:36:06Z</time>
      </trkpt>
      <trkpt lat="45.57017" lon="4.52825">
        <ele>786</ele>
        <time>2013-10-23T17:36:09Z</time>
      </trkpt>
      <trkpt lat="45.57005" lon="4.52815">
        <ele>785</ele>
        <time>2013-10-23T17:36:13Z</time>
      </trkpt>
      <trkpt lat="45.56998" lon="4.52809">
        <ele>784</ele>
        <time>2013-10-23T17:36:16Z</time>
      </trkpt>
      <trkpt lat="45.5699" lon="4.52804">
        <ele>783</ele>
        <time>2013-10-23T17:36:19Z</time>
      </trkpt>
      <trkpt lat="45.56981" lon="4.52795">
        <ele>783</ele>
        <time>2013-10-23T17:36:23Z</time>
      </trkpt>
      <trkpt lat="45.56974" lon="4.52789">
        <ele>783</ele>
        <time>2013-10-23T17:36:26Z</time>
      </trkpt>
      <trkpt lat="45.56967" lon="4.52781">
        <ele>782</ele>
        <time>2013-10-23T17:36:29Z</time>
      </trkpt>
      <trkpt lat="45.56959" lon="4.52774">
        <ele>782</ele>
        <time>2013-10-23T17:36:32Z</time>
      </trkpt>
      <trkpt lat="45.56953" lon="4.52768">
        <ele>782</ele>
        <time>2013-10-23T17:36:35Z</time>
      </trkpt>
      <trkpt lat="45.56945" lon="4.52759">
        <ele>782</ele>
        <time>2013-10-23T17:36:38Z</time>
      </trkpt>
      <trkpt lat="45.56938" lon="4.52752">
        <ele>781</ele>
        <time>2013-10-23T17:36:41Z</time>
      </trkpt>
      <trkpt lat="45.56932" lon="4.52745">
        <ele>779</ele>
        <time>2013-10-23T17:36:44Z</time>
      </trkpt>
      <trkpt lat="45.56924" lon="4.52738">
        <ele>777</ele>
        <time>2013-10-23T17:36:47Z</time>
      </trkpt>
      <trkpt lat="45.56918" lon="4.52731">
        <ele>775</ele>
        <time>2013-10-23T17:36:50Z</time>
      </trkpt>
      <trkpt lat="45.5691" lon="4.52721">
        <ele>774</ele>
        <time>2013-10-23T17:36:54Z</time>
      </trkpt>
      <trkpt lat="45.56904" lon="4.52712">
        <ele>772</ele>
        <time>2013-10-23T17:36:57Z</time>
      </trkpt>
      <trkpt lat="45.56899" lon="4.52702">
        <ele>771</ele>
        <time>2013-10-23T17:37:00Z</time>
      </trkpt>
      <trkpt lat="45.56894" lon="4.52693">
        <ele>770</ele>
        <time>2013-10-23T17:37:03Z</time>
      </trkpt>
      <trkpt lat="45.56889" lon="4.52683">
        <ele>769</ele>
        <time>2013-10-23T17:37:06Z</time>
      </trkpt>
      <trkpt lat="45.56884" lon="4.52674">
        <ele>768</ele>
        <time>2013-10-23T17:37:09Z</time>
      </trkpt>
      <trkpt lat="45.56877" lon="4.52667">
        <ele>767</ele>
        <time>2013-10-23T17:37:12Z</time>
      </trkpt>
      <trkpt lat="45.56872" lon="4.5266">
        <ele>767</ele>
        <time>2013-10-23T17:37:15Z</time>
      </trkpt>
      <trkpt lat="45.56866" lon="4.52653">
        <ele>767</ele>
        <time>2013-10-23T17:37:18Z</time>
      </trkpt>
      <trkpt lat="45.5686" lon="4.52647">
        <ele>767</ele>
        <time>2013-10-23T17:37:21Z</time>
      </trkpt>
      <trkpt lat="45.56853" lon="4.5264">
        <ele>765</ele>
        <time>2013-10-23T17:37:24Z</time>
      </trkpt>
      <trkpt lat="45.56848" lon="4.52633">
        <ele>764</ele>
        <time>2013-10-23T17:37:27Z</time>
      </trkpt>
      <trkpt lat="45.56842" lon="4.52626">
        <ele>762</ele>
        <time>2013-10-23T17:37:30Z</time>
      </trkpt>
      <trkpt lat="45.56836" lon="4.52619">
        <ele>760</ele>
        <time>2013-10-23T17:37:33Z</time>
      </trkpt>
      <trkpt lat="45.56828" lon="4.52614">
        <ele>759</ele>
        <time>2013-10-23T17:37:36Z</time>
      </trkpt>
      <trkpt lat="45.5682" lon="4.5261">
        <ele>758</ele>
        <time>2013-10-23T17:37:39Z</time>
      </trkpt>
      <trkpt lat="45.56814" lon="4.52605">
        <ele>758</ele>
        <time>2013-10-23T17:37:42Z</time>
      </trkpt>
      <trkpt lat="45.56807" lon="4.52598">
        <ele>757</ele>
        <time>2013-10-23T17:37:45Z</time>
      </trkpt>
      <trkpt lat="45.568" lon="4.52591">
        <ele>756</ele>
        <time>2013-10-23T17:37:48Z</time>
      </trkpt>
      <trkpt lat="45.56793" lon="4.52586">
        <ele>756</ele>
        <time>2013-10-23T17:37:51Z</time>
      </trkpt>
      <trkpt lat="45.56784" lon="4.5258">
        <ele>754</ele>
        <time>2013-10-23T17:37:54Z</time>
      </trkpt>
      <trkpt lat="45.56777" lon="4.52575">
        <ele>752</ele>
        <time>2013-10-23T17:37:57Z</time>
      </trkpt>
      <trkpt lat="45.5677" lon="4.52571">
        <ele>750</ele>
        <time>2013-10-23T17:38:00Z</time>
      </trkpt>
      <trkpt lat="45.56763" lon="4.52567">
        <ele>748</ele>
        <time>2013-10-23T17:38:03Z</time>
      </trkpt>
      <trkpt lat="45.56752" lon="4.52565">
        <ele>747</ele>
        <time>2013-10-23T17:38:07Z</time>
      </trkpt>
      <trkpt lat="45.56744" lon="4.52563">
        <ele>746</ele>
        <time>2013-10-23T17:38:10Z</time>
      </trkpt>
      <trkpt lat="45.56736" lon="4.52563">
        <ele>745</ele>
        <time>2013-10-23T17:38:13Z</time>
      </trkpt>
      <trkpt lat="45.56728" lon="4.52563">
        <ele>744</ele>
        <time>2013-10-23T17:38:16Z</time>
      </trkpt>
      <trkpt lat="45.5672" lon="4.52562">
        <ele>743</ele>
        <time>2013-10-23T17:38:19Z</time>
      </trkpt>
      <trkpt lat="45.56712" lon="4.52562">
        <ele>743</ele>
        <time>2013-10-23T17:38:22Z</time>
      </trkpt>
      <trkpt lat="45.56703" lon="4.52564">
        <ele>743</ele>
        <time>2013-10-23T17:38:25Z</time>
      </trkpt>
      <trkpt lat="45.56696" lon="4.52565">
        <ele>743</ele>
        <time>2013-10-23T17:38:28Z</time>
      </trkpt>
      <trkpt lat="45.56685" lon="4.52569">
        <ele>743</ele>
        <time>2013-10-23T17:38:32Z</time>
      </trkpt>
      <trkpt lat="45.56678" lon="4.52572">
        <ele>743</ele>
        <time>2013-10-23T17:38:35Z</time>
      </trkpt>
      <trkpt lat="45.56671" lon="4.52575">
        <ele>743</ele>
        <time>2013-10-23T17:38:38Z</time>
      </trkpt>
      <trkpt lat="45.56662" lon="4.52579">
        <ele>743</ele>
        <time>2013-10-23T17:38:41Z</time>
      </trkpt>
      <trkpt lat="45.56654" lon="4.52581">
        <ele>743</ele>
        <time>2013-10-23T17:38:44Z</time>
      </trkpt>
      <trkpt lat="45.56646" lon="4.52584">
        <ele>743</ele>
        <time>2013-10-23T17:38:47Z</time>
      </trkpt>
      <trkpt lat="45.56639" lon="4.52588">
        <ele>743</ele>
        <time>2013-10-23T17:38:50Z</time>
      </trkpt>
      <trkpt lat="45.56631" lon="4.52592">
        <ele>743</ele>
        <time>2013-10-23T17:38:53Z</time>
      </trkpt>
      <trkpt lat="45.56623" lon="4.52596">
        <ele>743</ele>
        <time>2013-10-23T17:38:56Z</time>
      </trkpt>
      <trkpt lat="45.56615" lon="4.52598">
        <ele>743</ele>
        <time>2013-10-23T17:38:59Z</time>
      </trkpt>
      <trkpt lat="45.56604" lon="4.526">
        <ele>743</ele>
        <time>2013-10-23T17:39:03Z</time>
      </trkpt>
      <trkpt lat="45.56596" lon="4.52601">
        <ele>743</ele>
        <time>2013-10-23T17:39:06Z</time>
      </trkpt>
      <trkpt lat="45.56588" lon="4.52602">
        <ele>743</ele>
        <time>2013-10-23T17:39:09Z</time>
      </trkpt>
      <trkpt lat="45.5658" lon="4.52603">
        <ele>743</ele>
        <time>2013-10-23T17:39:12Z</time>
      </trkpt>
      <trkpt lat="45.56572" lon="4.52603">
        <ele>743</ele>
        <time>2013-10-23T17:39:15Z</time>
      </trkpt>
      <trkpt lat="45.56565" lon="4.526">
        <ele>742</ele>
        <time>2013-10-23T17:39:18Z</time>
      </trkpt>
      <trkpt lat="45.56558" lon="4.52595">
        <ele>742</ele>
        <time>2013-10-23T17:39:21Z</time>
      </trkpt>
      <trkpt lat="45.56553" lon="4.52587">
        <ele>742</ele>
        <time>2013-10-23T17:39:24Z</time>
      </trkpt>
      <trkpt lat="45.56547" lon="4.52574">
        <ele>741</ele>
        <time>2013-10-23T17:39:28Z</time>
      </trkpt>
      <trkpt lat="45.56545" lon="4.52567">
        <ele>740</ele>
        <time>2013-10-23T17:39:31Z</time>
      </trkpt>
      <trkpt lat="45.56541" lon="4.52566">
        <ele>739</ele>
        <time>2013-10-23T17:39:34Z</time>
      </trkpt>
      <trkpt lat="45.56538" lon="4.52574">
        <ele>738</ele>
        <time>2013-10-23T17:39:37Z</time>
      </trkpt>
      <trkpt lat="45.56535" lon="4.52581">
        <ele>737</ele>
        <time>2013-10-23T17:39:40Z</time>
      </trkpt>
      <trkpt lat="45.5653" lon="4.5259">
        <ele>736</ele>
        <time>2013-10-23T17:39:43Z</time>
      </trkpt>
      <trkpt lat="45.56526" lon="4.52601">
        <ele>735</ele>
        <time>2013-10-23T17:39:47Z</time>
      </trkpt>
      <trkpt lat="45.56524" lon="4.5261">
        <ele>735</ele>
        <time>2013-10-23T17:39:50Z</time>
      </trkpt>
      <trkpt lat="45.56523" lon="4.5262">
        <ele>735</ele>
        <time>2013-10-23T17:39:53Z</time>
      </trkpt>
      <trkpt lat="45.56523" lon="4.52629">
        <ele>734</ele>
        <time>2013-10-23T17:39:56Z</time>
      </trkpt>
      <trkpt lat="45.56523" lon="4.52638">
        <ele>734</ele>
        <time>2013-10-23T17:39:59Z</time>
      </trkpt>
      <trkpt lat="45.56525" lon="4.52647">
        <ele>733</ele>
        <time>2013-10-23T17:40:02Z</time>
      </trkpt>
      <trkpt lat="45.56527" lon="4.52655">
        <ele>732</ele>
        <time>2013-10-23T17:40:05Z</time>
      </trkpt>
      <trkpt lat="45.56531" lon="4.52665">
        <ele>731</ele>
        <time>2013-10-23T17:40:09Z</time>
      </trkpt>
      <trkpt lat="45.56532" lon="4.52672">
        <ele>730</ele>
        <time>2013-10-23T17:40:12Z</time>
      </trkpt>
      <trkpt lat="45.56532" lon="4.52679">
        <ele>729</ele>
        <time>2013-10-23T17:40:15Z</time>
      </trkpt>
      <trkpt lat="45.56532" lon="4.52687">
        <ele>726</ele>
        <time>2013-10-23T17:40:19Z</time>
      </trkpt>
      <trkpt lat="45.5653" lon="4.52693">
        <ele>725</ele>
        <time>2013-10-23T17:40:22Z</time>
      </trkpt>
      <trkpt lat="45.56527" lon="4.52699">
        <ele>723</ele>
        <time>2013-10-23T17:40:26Z</time>
      </trkpt>
      <trkpt lat="45.56522" lon="4.52703">
        <ele>722</ele>
        <time>2013-10-23T17:40:29Z</time>
      </trkpt>
      <trkpt lat="45.56516" lon="4.52707">
        <ele>720</ele>
        <time>2013-10-23T17:40:32Z</time>
      </trkpt>
      <trkpt lat="45.56511" lon="4.52711">
        <ele>718</ele>
        <time>2013-10-23T17:40:35Z</time>
      </trkpt>
      <trkpt lat="45.56504" lon="4.52716">
        <ele>716</ele>
        <time>2013-10-23T17:40:38Z</time>
      </trkpt>
      <trkpt lat="45.56499" lon="4.52723">
        <ele>715</ele>
        <time>2013-10-23T17:40:42Z</time>
      </trkpt>
      <trkpt lat="45.56504" lon="4.52728">
        <ele>713</ele>
        <time>2013-10-23T17:40:46Z</time>
      </trkpt>
      <trkpt lat="45.56509" lon="4.52731">
        <ele>711</ele>
        <time>2013-10-23T17:40:49Z</time>
      </trkpt>
      <trkpt lat="45.56514" lon="4.52735">
        <ele>709</ele>
        <time>2013-10-23T17:40:52Z</time>
      </trkpt>
      <trkpt lat="45.56519" lon="4.52739">
        <ele>707</ele>
        <time>2013-10-23T17:40:55Z</time>
      </trkpt>
      <trkpt lat="45.56524" lon="4.52741">
        <ele>706</ele>
        <time>2013-10-23T17:40:58Z</time>
      </trkpt>
      <trkpt lat="45.56527" lon="4.52747">
        <ele>705</ele>
        <time>2013-10-23T17:41:01Z</time>
      </trkpt>
      <trkpt lat="45.56531" lon="4.52752">
        <ele>703</ele>
        <time>2013-10-23T17:41:04Z</time>
      </trkpt>
      <trkpt lat="45.56536" lon="4.5276">
        <ele>701</ele>
        <time>2013-10-23T17:41:08Z</time>
      </trkpt>
      <trkpt lat="45.5654" lon="4.52766">
        <ele>699</ele>
        <time>2013-10-23T17:41:11Z</time>
      </trkpt>
      <trkpt lat="45.56543" lon="4.52771">
        <ele>697</ele>
        <time>2013-10-23T17:41:14Z</time>
      </trkpt>
      <trkpt lat="45.5655" lon="4.52776">
        <ele>695</ele>
        <time>2013-10-23T17:41:17Z</time>
      </trkpt>
      <trkpt lat="45.56557" lon="4.52781">
        <ele>694</ele>
        <time>2013-10-23T17:41:20Z</time>
      </trkpt>
      <trkpt lat="45.56561" lon="4.52784">
        <ele>694</ele>
        <time>2013-10-23T17:41:23Z</time>
      </trkpt>
      <trkpt lat="45.56565" lon="4.52787">
        <ele>693</ele>
        <time>2013-10-23T17:41:26Z</time>
      </trkpt>
      <trkpt lat="45.56565" lon="4.52792">
        <ele>693</ele>
        <time>2013-10-23T17:41:29Z</time>
      </trkpt>
      <trkpt lat="45.56562" lon="4.52797">
        <ele>692</ele>
        <time>2013-10-23T17:41:33Z</time>
      </trkpt>
      <trkpt lat="45.5656" lon="4.52801">
        <ele>691</ele>
        <time>2013-10-23T17:41:36Z</time>
      </trkpt>
      <trkpt lat="45.56557" lon="4.52808">
        <ele>690</ele>
        <time>2013-10-23T17:41:39Z</time>
      </trkpt>
      <trkpt lat="45.56553" lon="4.52813">
        <ele>689</ele>
        <time>2013-10-23T17:41:42Z</time>
      </trkpt>
      <trkpt lat="45.56548" lon="4.52814">
        <ele>688</ele>
        <time>2013-10-23T17:41:46Z</time>
      </trkpt>
      <trkpt lat="45.56542" lon="4.52819">
        <ele>687</ele>
        <time>2013-10-23T17:41:50Z</time>
      </trkpt>
      <trkpt lat="45.56535" lon="4.52822">
        <ele>686</ele>
        <time>2013-10-23T17:41:53Z</time>
      </trkpt>
      <trkpt lat="45.5653" lon="4.52824">
        <ele>686</ele>
        <time>2013-10-23T17:41:56Z</time>
      </trkpt>
      <trkpt lat="45.56524" lon="4.52829">
        <ele>684</ele>
        <time>2013-10-23T17:42:00Z</time>
      </trkpt>
      <trkpt lat="45.56521" lon="4.52834">
        <ele>683</ele>
        <time>2013-10-23T17:42:03Z</time>
      </trkpt>
      <trkpt lat="45.56518" lon="4.52838">
        <ele>682</ele>
        <time>2013-10-23T17:42:06Z</time>
      </trkpt>
      <trkpt lat="45.56514" lon="4.5284">
        <ele>681</ele>
        <time>2013-10-23T17:42:09Z</time>
      </trkpt>
      <trkpt lat="45.56508" lon="4.52842">
        <ele>680</ele>
        <time>2013-10-23T17:42:12Z</time>
      </trkpt>
      <trkpt lat="45.56503" lon="4.52844">
        <ele>678</ele>
        <time>2013-10-23T17:42:15Z</time>
      </trkpt>
      <trkpt lat="45.56497" lon="4.52848">
        <ele>678</ele>
        <time>2013-10-23T17:42:18Z</time>
      </trkpt>
      <trkpt lat="45.5649" lon="4.52852">
        <ele>676</ele>
        <time>2013-10-23T17:42:22Z</time>
      </trkpt>
      <trkpt lat="45.56485" lon="4.52859">
        <ele>675</ele>
        <time>2013-10-23T17:42:25Z</time>
      </trkpt>
      <trkpt lat="45.56479" lon="4.52864">
        <ele>674</ele>
        <time>2013-10-23T17:42:28Z</time>
      </trkpt>
      <trkpt lat="45.56473" lon="4.52868">
        <ele>673</ele>
        <time>2013-10-23T17:42:31Z</time>
      </trkpt>
      <trkpt lat="45.56467" lon="4.52876">
        <ele>673</ele>
        <time>2013-10-23T17:42:34Z</time>
      </trkpt>
      <trkpt lat="45.56461" lon="4.52887">
        <ele>673</ele>
        <time>2013-10-23T17:42:37Z</time>
      </trkpt>
      <trkpt lat="45.56454" lon="4.52898">
        <ele>673</ele>
        <time>2013-10-23T17:42:40Z</time>
      </trkpt>
      <trkpt lat="45.56448" lon="4.52907">
        <ele>673</ele>
        <time>2013-10-23T17:42:43Z</time>
      </trkpt>
      <trkpt lat="45.56443" lon="4.52914">
        <ele>674</ele>
        <time>2013-10-23T17:42:46Z</time>
      </trkpt>
      <trkpt lat="45.56438" lon="4.5292">
        <ele>675</ele>
        <time>2013-10-23T17:42:49Z</time>
      </trkpt>
      <trkpt lat="45.56433" lon="4.52926">
        <ele>675</ele>
        <time>2013-10-23T17:42:52Z</time>
      </trkpt>
      <trkpt lat="45.56428" lon="4.52933">
        <ele>675</ele>
        <time>2013-10-23T17:42:56Z</time>
      </trkpt>
      <trkpt lat="45.56424" lon="4.52942">
        <ele>675</ele>
        <time>2013-10-23T17:42:59Z</time>
      </trkpt>
      <trkpt lat="45.56422" lon="4.52952">
        <ele>676</ele>
        <time>2013-10-23T17:43:02Z</time>
      </trkpt>
      <trkpt lat="45.56419" lon="4.52959">
        <ele>676</ele>
        <time>2013-10-23T17:43:05Z</time>
      </trkpt>
      <trkpt lat="45.56416" lon="4.52966">
        <ele>676</ele>
        <time>2013-10-23T17:43:08Z</time>
      </trkpt>
      <trkpt lat="45.56413" lon="4.52972">
        <ele>676</ele>
        <time>2013-10-23T17:43:11Z</time>
      </trkpt>
      <trkpt lat="45.56409" lon="4.5298">
        <ele>675</ele>
        <time>2013-10-23T17:43:15Z</time>
      </trkpt>
      <trkpt lat="45.56405" lon="4.52989">
        <ele>674</ele>
        <time>2013-10-23T17:43:19Z</time>
      </trkpt>
      <trkpt lat="45.56402" lon="4.52995">
        <ele>672</ele>
        <time>2013-10-23T17:43:22Z</time>
      </trkpt>
      <trkpt lat="45.564" lon="4.53003">
        <ele>670</ele>
        <time>2013-10-23T17:43:25Z</time>
      </trkpt>
      <trkpt lat="45.56398" lon="4.5301">
        <ele>669</ele>
        <time>2013-10-23T17:43:28Z</time>
      </trkpt>
      <trkpt lat="45.56395" lon="4.53018">
        <ele>669</ele>
        <time>2013-10-23T17:43:31Z</time>
      </trkpt>
      <trkpt lat="45.56392" lon="4.53023">
        <ele>667</ele>
        <time>2013-10-23T17:43:34Z</time>
      </trkpt>
      <trkpt lat="45.5639" lon="4.53031">
        <ele>665</ele>
        <time>2013-10-23T17:43:37Z</time>
      </trkpt>
      <trkpt lat="45.56387" lon="4.53039">
        <ele>665</ele>
        <time>2013-10-23T17:43:40Z</time>
      </trkpt>
      <trkpt lat="45.56386" lon="4.53046">
        <ele>663</ele>
        <time>2013-10-23T17:43:44Z</time>
      </trkpt>
      <trkpt lat="45.56383" lon="4.5305">
        <ele>660</ele>
        <time>2013-10-23T17:43:48Z</time>
      </trkpt>
      <trkpt lat="45.5638" lon="4.53056">
        <ele>658</ele>
        <time>2013-10-23T17:43:52Z</time>
      </trkpt>
      <trkpt lat="45.56374" lon="4.53064">
        <ele>658</ele>
        <time>2013-10-23T17:43:56Z</time>
      </trkpt>
      <trkpt lat="45.56371" lon="4.53071">
        <ele>658</ele>
        <time>2013-10-23T17:43:59Z</time>
      </trkpt>
      <trkpt lat="45.56367" lon="4.53079">
        <ele>657</ele>
        <time>2013-10-23T17:44:02Z</time>
      </trkpt>
      <trkpt lat="45.56365" lon="4.53086">
        <ele>657</ele>
        <time>2013-10-23T17:44:05Z</time>
      </trkpt>
      <trkpt lat="45.56364" lon="4.53091">
        <ele>657</ele>
        <time>2013-10-23T17:44:08Z</time>
      </trkpt>
      <trkpt lat="45.56362" lon="4.53097">
        <ele>657</ele>
        <time>2013-10-23T17:44:11Z</time>
      </trkpt>
      <trkpt lat="45.56359" lon="4.53104">
        <ele>655</ele>
        <time>2013-10-23T17:44:14Z</time>
      </trkpt>
      <trkpt lat="45.56356" lon="4.53109">
        <ele>654</ele>
        <time>2013-10-23T17:44:17Z</time>
      </trkpt>
      <trkpt lat="45.56354" lon="4.53118">
        <ele>653</ele>
        <time>2013-10-23T17:44:20Z</time>
      </trkpt>
      <trkpt lat="45.56351" lon="4.53124">
        <ele>651</ele>
        <time>2013-10-23T17:44:23Z</time>
      </trkpt>
      <trkpt lat="45.56348" lon="4.5313">
        <ele>650</ele>
        <time>2013-10-23T17:44:26Z</time>
      </trkpt>
      <trkpt lat="45.56347" lon="4.53139">
        <ele>649</ele>
        <time>2013-10-23T17:44:30Z</time>
      </trkpt>
      <trkpt lat="45.56347" lon="4.53146">
        <ele>647</ele>
        <time>2013-10-23T17:44:34Z</time>
      </trkpt>
      <trkpt lat="45.56345" lon="4.53149">
        <ele>645</ele>
        <time>2013-10-23T17:44:50Z</time>
      </trkpt>
      <trkpt lat="45.56346" lon="4.53148">
        <ele>645</ele>
        <time>2013-10-23T17:44:54Z</time>
      </trkpt>
      <trkpt lat="45.56347" lon="4.53146">
        <ele>645</ele>
        <time>2013-10-23T17:44:57Z</time>
      </trkpt>
      <trkpt lat="45.56346" lon="4.53148">
        <ele>644</ele>
        <time>2013-10-23T17:45:03Z</time>
      </trkpt>
      <trkpt lat="45.56345" lon="4.53151">
        <ele>644</ele>
        <time>2013-10-23T17:45:06Z</time>
      </trkpt>
      <trkpt lat="45.56342" lon="4.53154">
        <ele>643</ele>
        <time>2013-10-23T17:45:10Z</time>
      </trkpt>
      <trkpt lat="45.56339" lon="4.53159">
        <ele>643</ele>
        <time>2013-10-23T17:45:14Z</time>
      </trkpt>
      <trkpt lat="45.56336" lon="4.53163">
        <ele>643</ele>
        <time>2013-10-23T17:45:17Z</time>
      </trkpt>
      <trkpt lat="45.56333" lon="4.53167">
        <ele>642</ele>
        <time>2013-10-23T17:45:20Z</time>
      </trkpt>
      <trkpt lat="45.56331" lon="4.53172">
        <ele>642</ele>
        <time>2013-10-23T17:45:24Z</time>
      </trkpt>
      <trkpt lat="45.56329" lon="4.53176">
        <ele>641</ele>
        <time>2013-10-23T17:45:27Z</time>
      </trkpt>
      <trkpt lat="45.56326" lon="4.53182">
        <ele>640</ele>
        <time>2013-10-23T17:45:30Z</time>
      </trkpt>
      <trkpt lat="45.56324" lon="4.53188">
        <ele>639</ele>
        <time>2013-10-23T17:45:33Z</time>
      </trkpt>
      <trkpt lat="45.56321" lon="4.53194">
        <ele>638</ele>
        <time>2013-10-23T17:45:36Z</time>
      </trkpt>
      <trkpt lat="45.56318" lon="4.53201">
        <ele>637</ele>
        <time>2013-10-23T17:45:39Z</time>
      </trkpt>
      <trkpt lat="45.56315" lon="4.53207">
        <ele>636</ele>
        <time>2013-10-23T17:45:42Z</time>
      </trkpt>
      <trkpt lat="45.56311" lon="4.53214">
        <ele>635</ele>
        <time>2013-10-23T17:45:45Z</time>
      </trkpt>
      <trkpt lat="45.56308" lon="4.53221">
        <ele>634</ele>
        <time>2013-10-23T17:45:48Z</time>
      </trkpt>
      <trkpt lat="45.56303" lon="4.53231">
        <ele>632</ele>
        <time>2013-10-23T17:45:52Z</time>
      </trkpt>
      <trkpt lat="45.563" lon="4.5324">
        <ele>632</ele>
        <time>2013-10-23T17:45:55Z</time>
      </trkpt>
      <trkpt lat="45.56298" lon="4.53249">
        <ele>631</ele>
        <time>2013-10-23T17:45:58Z</time>
      </trkpt>
      <trkpt lat="45.56296" lon="4.53258">
        <ele>631</ele>
        <time>2013-10-23T17:46:01Z</time>
      </trkpt>
      <trkpt lat="45.56295" lon="4.53267">
        <ele>631</ele>
        <time>2013-10-23T17:46:04Z</time>
      </trkpt>
      <trkpt lat="45.56293" lon="4.53275">
        <ele>631</ele>
        <time>2013-10-23T17:46:07Z</time>
      </trkpt>
      <trkpt lat="45.56293" lon="4.53282">
        <ele>630</ele>
        <time>2013-10-23T17:46:10Z</time>
      </trkpt>
      <trkpt lat="45.56293" lon="4.53288">
        <ele>630</ele>
        <time>2013-10-23T17:46:14Z</time>
      </trkpt>
      <trkpt lat="45.56292" lon="4.53294">
        <ele>629</ele>
        <time>2013-10-23T17:46:18Z</time>
      </trkpt>
      <trkpt lat="45.56291" lon="4.53299">
        <ele>629</ele>
        <time>2013-10-23T17:46:21Z</time>
      </trkpt>
      <trkpt lat="45.56291" lon="4.53304">
        <ele>628</ele>
        <time>2013-10-23T17:46:24Z</time>
      </trkpt>
      <trkpt lat="45.5629" lon="4.5331">
        <ele>628</ele>
        <time>2013-10-23T17:46:27Z</time>
      </trkpt>
      <trkpt lat="45.56288" lon="4.53317">
        <ele>627</ele>
        <time>2013-10-23T17:46:30Z</time>
      </trkpt>
      <trkpt lat="45.56288" lon="4.53321">
        <ele>627</ele>
        <time>2013-10-23T17:46:33Z</time>
      </trkpt>
      <trkpt lat="45.56288" lon="4.53327">
        <ele>626</ele>
        <time>2013-10-23T17:46:37Z</time>
      </trkpt>
      <trkpt lat="45.56286" lon="4.53334">
        <ele>625</ele>
        <time>2013-10-23T17:46:41Z</time>
      </trkpt>
      <trkpt lat="45.56285" lon="4.53339">
        <ele>624</ele>
        <time>2013-10-23T17:46:44Z</time>
      </trkpt>
      <trkpt lat="45.56284" lon="4.53343">
        <ele>624</ele>
        <time>2013-10-23T17:46:47Z</time>
      </trkpt>
      <trkpt lat="45.56284" lon="4.53348">
        <ele>623</ele>
        <time>2013-10-23T17:46:50Z</time>
      </trkpt>
      <trkpt lat="45.56284" lon="4.53354">
        <ele>623</ele>
        <time>2013-10-23T17:46:53Z</time>
      </trkpt>
      <trkpt lat="45.56283" lon="4.5336">
        <ele>622</ele>
        <time>2013-10-23T17:46:56Z</time>
      </trkpt>
      <trkpt lat="45.56282" lon="4.53365">
        <ele>621</ele>
        <time>2013-10-23T17:46:59Z</time>
      </trkpt>
      <trkpt lat="45.56283" lon="4.53371">
        <ele>620</ele>
        <time>2013-10-23T17:47:02Z</time>
      </trkpt>
      <trkpt lat="45.56283" lon="4.53376">
        <ele>619</ele>
        <time>2013-10-23T17:47:05Z</time>
      </trkpt>
      <trkpt lat="45.56282" lon="4.53385">
        <ele>619</ele>
        <time>2013-10-23T17:47:09Z</time>
      </trkpt>
      <trkpt lat="45.56281" lon="4.53391">
        <ele>618</ele>
        <time>2013-10-23T17:47:12Z</time>
      </trkpt>
      <trkpt lat="45.56279" lon="4.53399">
        <ele>617</ele>
        <time>2013-10-23T17:47:15Z</time>
      </trkpt>
      <trkpt lat="45.56277" lon="4.53408">
        <ele>617</ele>
        <time>2013-10-23T17:47:18Z</time>
      </trkpt>
      <trkpt lat="45.56276" lon="4.53417">
        <ele>616</ele>
        <time>2013-10-23T17:47:21Z</time>
      </trkpt>
      <trkpt lat="45.56273" lon="4.53426">
        <ele>615</ele>
        <time>2013-10-23T17:47:24Z</time>
      </trkpt>
      <trkpt lat="45.5627" lon="4.53432">
        <ele>613</ele>
        <time>2013-10-23T17:47:27Z</time>
      </trkpt>
      <trkpt lat="45.56268" lon="4.53441">
        <ele>612</ele>
        <time>2013-10-23T17:47:30Z</time>
      </trkpt>
      <trkpt lat="45.56265" lon="4.53447">
        <ele>611</ele>
        <time>2013-10-23T17:47:33Z</time>
      </trkpt>
      <trkpt lat="45.56264" lon="4.53455">
        <ele>609</ele>
        <time>2013-10-23T17:47:36Z</time>
      </trkpt>
      <trkpt lat="45.56263" lon="4.53464">
        <ele>608</ele>
        <time>2013-10-23T17:47:39Z</time>
      </trkpt>
      <trkpt lat="45.56261" lon="4.53472">
        <ele>607</ele>
        <time>2013-10-23T17:47:42Z</time>
      </trkpt>
      <trkpt lat="45.56259" lon="4.53483">
        <ele>607</ele>
        <time>2013-10-23T17:47:45Z</time>
      </trkpt>
      <trkpt lat="45.56258" lon="4.53498">
        <ele>606</ele>
        <time>2013-10-23T17:47:49Z</time>
      </trkpt>
      <trkpt lat="45.56255" lon="4.53509">
        <ele>605</ele>
        <time>2013-10-23T17:47:52Z</time>
      </trkpt>
      <trkpt lat="45.56251" lon="4.53517">
        <ele>604</ele>
        <time>2013-10-23T17:47:56Z</time>
      </trkpt>
      <trkpt lat="45.56247" lon="4.53522">
        <ele>604</ele>
        <time>2013-10-23T17:47:59Z</time>
      </trkpt>
      <trkpt lat="45.56242" lon="4.53527">
        <ele>603</ele>
        <time>2013-10-23T17:48:02Z</time>
      </trkpt>
      <trkpt lat="45.5624" lon="4.5353">
        <ele>603</ele>
        <time>2013-10-23T17:48:05Z</time>
      </trkpt>
      <trkpt lat="45.56241" lon="4.53534">
        <ele>603</ele>
        <time>2013-10-23T17:48:10Z</time>
      </trkpt>
      <trkpt lat="45.56242" lon="4.53534">
        <ele>602</ele>
        <time>2013-10-23T17:48:17Z</time>
      </trkpt>
      <trkpt lat="45.5625" lon="4.5353">
        <ele>602</ele>
        <time>2013-10-23T17:48:21Z</time>
      </trkpt>
      <trkpt lat="45.56256" lon="4.53526">
        <ele>601</ele>
        <time>2013-10-23T17:48:24Z</time>
      </trkpt>
      <trkpt lat="45.56263" lon="4.53521">
        <ele>600</ele>
        <time>2013-10-23T17:48:27Z</time>
      </trkpt>
      <trkpt lat="45.5627" lon="4.53516">
        <ele>598</ele>
        <time>2013-10-23T17:48:30Z</time>
      </trkpt>
      <trkpt lat="45.56277" lon="4.53511">
        <ele>597</ele>
        <time>2013-10-23T17:48:33Z</time>
      </trkpt>
      <trkpt lat="45.56277" lon="4.53513">
        <ele>597</ele>
        <time>2013-10-23T17:48:37Z</time>
      </trkpt>
      <trkpt lat="45.56275" lon="4.53518">
        <ele>597</ele>
        <time>2013-10-23T17:48:41Z</time>
      </trkpt>
      <trkpt lat="45.56273" lon="4.53522">
        <ele>597</ele>
        <time>2013-10-23T17:48:45Z</time>
      </trkpt>
      <trkpt lat="45.56271" lon="4.53526">
        <ele>597</ele>
        <time>2013-10-23T17:48:48Z</time>
      </trkpt>
      <trkpt lat="45.56268" lon="4.53531">
        <ele>596</ele>
        <time>2013-10-23T17:48:51Z</time>
      </trkpt>
      <trkpt lat="45.56265" lon="4.53537">
        <ele>595</ele>
        <time>2013-10-23T17:48:54Z</time>
      </trkpt>
      <trkpt lat="45.56261" lon="4.53544">
        <ele>595</ele>
        <time>2013-10-23T17:48:57Z</time>
      </trkpt>
      <trkpt lat="45.56259" lon="4.53552">
        <ele>594</ele>
        <time>2013-10-23T17:49:00Z</time>
      </trkpt>
      <trkpt lat="45.56256" lon="4.53563">
        <ele>593</ele>
        <time>2013-10-23T17:49:03Z</time>
      </trkpt>
      <trkpt lat="45.56255" lon="4.53574">
        <ele>592</ele>
        <time>2013-10-23T17:49:06Z</time>
      </trkpt>
      <trkpt lat="45.56254" lon="4.53585">
        <ele>591</ele>
        <time>2013-10-23T17:49:09Z</time>
      </trkpt>
      <trkpt lat="45.56253" lon="4.53595">
        <ele>590</ele>
        <time>2013-10-23T17:49:12Z</time>
      </trkpt>
      <trkpt lat="45.56251" lon="4.53607">
        <ele>589</ele>
        <time>2013-10-23T17:49:15Z</time>
      </trkpt>
      <trkpt lat="45.5625" lon="4.53618">
        <ele>587</ele>
        <time>2013-10-23T17:49:18Z</time>
      </trkpt>
      <trkpt lat="45.56247" lon="4.53629">
        <ele>586</ele>
        <time>2013-10-23T17:49:21Z</time>
      </trkpt>
      <trkpt lat="45.56246" lon="4.5364">
        <ele>585</ele>
        <time>2013-10-23T17:49:24Z</time>
      </trkpt>
      <trkpt lat="45.56245" lon="4.5365">
        <ele>584</ele>
        <time>2013-10-23T17:49:27Z</time>
      </trkpt>
      <trkpt lat="45.56242" lon="4.5366">
        <ele>583</ele>
        <time>2013-10-23T17:49:30Z</time>
      </trkpt>
      <trkpt lat="45.56239" lon="4.5367">
        <ele>582</ele>
        <time>2013-10-23T17:49:33Z</time>
      </trkpt>
      <trkpt lat="45.56237" lon="4.5368">
        <ele>580</ele>
        <time>2013-10-23T17:49:36Z</time>
      </trkpt>
      <trkpt lat="45.56235" lon="4.53689">
        <ele>578</ele>
        <time>2013-10-23T17:49:39Z</time>
      </trkpt>
      <trkpt lat="45.56233" lon="4.53699">
        <ele>577</ele>
        <time>2013-10-23T17:49:43Z</time>
      </trkpt>
      <trkpt lat="45.56232" lon="4.53709">
        <ele>577</ele>
        <time>2013-10-23T17:49:46Z</time>
      </trkpt>
      <trkpt lat="45.56229" lon="4.53718">
        <ele>576</ele>
        <time>2013-10-23T17:49:49Z</time>
      </trkpt>
      <trkpt lat="45.56227" lon="4.53727">
        <ele>575</ele>
        <time>2013-10-23T17:49:52Z</time>
      </trkpt>
      <trkpt lat="45.56225" lon="4.53737">
        <ele>574</ele>
        <time>2013-10-23T17:49:55Z</time>
      </trkpt>
      <trkpt lat="45.56221" lon="4.53749">
        <ele>573</ele>
        <time>2013-10-23T17:49:59Z</time>
      </trkpt>
      <trkpt lat="45.56218" lon="4.53763">
        <ele>572</ele>
        <time>2013-10-23T17:50:03Z</time>
      </trkpt>
      <trkpt lat="45.56216" lon="4.53772">
        <ele>572</ele>
        <time>2013-10-23T17:50:06Z</time>
      </trkpt>
      <trkpt lat="45.56213" lon="4.53781">
        <ele>572</ele>
        <time>2013-10-23T17:50:09Z</time>
      </trkpt>
      <trkpt lat="45.56208" lon="4.53789">
        <ele>571</ele>
        <time>2013-10-23T17:50:12Z</time>
      </trkpt>
      <trkpt lat="45.56203" lon="4.53797">
        <ele>571</ele>
        <time>2013-10-23T17:50:15Z</time>
      </trkpt>
      <trkpt lat="45.56197" lon="4.53808">
        <ele>570</ele>
        <time>2013-10-23T17:50:19Z</time>
      </trkpt>
      <trkpt lat="45.56193" lon="4.53816">
        <ele>570</ele>
        <time>2013-10-23T17:50:22Z</time>
      </trkpt>
      <trkpt lat="45.56192" lon="4.5383">
        <ele>569</ele>
        <time>2013-10-23T17:50:26Z</time>
      </trkpt>
      <trkpt lat="45.56192" lon="4.53841">
        <ele>568</ele>
        <time>2013-10-23T17:50:29Z</time>
      </trkpt>
      <trkpt lat="45.56192" lon="4.5385">
        <ele>568</ele>
        <time>2013-10-23T17:50:32Z</time>
      </trkpt>
      <trkpt lat="45.56195" lon="4.53853">
        <ele>567</ele>
        <time>2013-10-23T17:50:36Z</time>
      </trkpt>
      <trkpt lat="45.562" lon="4.53848">
        <ele>566</ele>
        <time>2013-10-23T17:50:39Z</time>
      </trkpt>
      <trkpt lat="45.56205" lon="4.53841">
        <ele>565</ele>
        <time>2013-10-23T17:50:42Z</time>
      </trkpt>
      <trkpt lat="45.56209" lon="4.53836">
        <ele>564</ele>
        <time>2013-10-23T17:50:45Z</time>
      </trkpt>
      <trkpt lat="45.56213" lon="4.53831">
        <ele>563</ele>
        <time>2013-10-23T17:50:48Z</time>
      </trkpt>
      <trkpt lat="45.56217" lon="4.53825">
        <ele>562</ele>
        <time>2013-10-23T17:50:51Z</time>
      </trkpt>
      <trkpt lat="45.56224" lon="4.53816">
        <ele>560</ele>
        <time>2013-10-23T17:50:55Z</time>
      </trkpt>
      <trkpt lat="45.56228" lon="4.5381">
        <ele>558</ele>
        <time>2013-10-23T17:50:58Z</time>
      </trkpt>
      <trkpt lat="45.56234" lon="4.538">
        <ele>556</ele>
        <time>2013-10-23T17:51:02Z</time>
      </trkpt>
      <trkpt lat="45.56239" lon="4.53793">
        <ele>554</ele>
        <time>2013-10-23T17:51:05Z</time>
      </trkpt>
      <trkpt lat="45.56244" lon="4.53785">
        <ele>553</ele>
        <time>2013-10-23T17:51:08Z</time>
      </trkpt>
      <trkpt lat="45.5625" lon="4.53778">
        <ele>552</ele>
        <time>2013-10-23T17:51:11Z</time>
      </trkpt>
      <trkpt lat="45.5626" lon="4.53769">
        <ele>552</ele>
        <time>2013-10-23T17:51:15Z</time>
      </trkpt>
      <trkpt lat="45.56266" lon="4.53761">
        <ele>552</ele>
        <time>2013-10-23T17:51:18Z</time>
      </trkpt>
      <trkpt lat="45.5627" lon="4.53754">
        <ele>552</ele>
        <time>2013-10-23T17:51:21Z</time>
      </trkpt>
      <trkpt lat="45.56275" lon="4.53746">
        <ele>552</ele>
        <time>2013-10-23T17:51:24Z</time>
      </trkpt>
      <trkpt lat="45.5628" lon="4.53737">
        <ele>551</ele>
        <time>2013-10-23T17:51:27Z</time>
      </trkpt>
      <trkpt lat="45.56287" lon="4.53728">
        <ele>549</ele>
        <time>2013-10-23T17:51:31Z</time>
      </trkpt>
      <trkpt lat="45.56292" lon="4.53722">
        <ele>548</ele>
        <time>2013-10-23T17:51:34Z</time>
      </trkpt>
      <trkpt lat="45.56297" lon="4.53713">
        <ele>548</ele>
        <time>2013-10-23T17:51:37Z</time>
      </trkpt>
      <trkpt lat="45.56301" lon="4.53704">
        <ele>548</ele>
        <time>2013-10-23T17:51:40Z</time>
      </trkpt>
      <trkpt lat="45.56306" lon="4.53692">
        <ele>548</ele>
        <time>2013-10-23T17:51:44Z</time>
      </trkpt>
      <trkpt lat="45.56311" lon="4.53683">
        <ele>548</ele>
        <time>2013-10-23T17:51:47Z</time>
      </trkpt>
      <trkpt lat="45.56316" lon="4.53676">
        <ele>548</ele>
        <time>2013-10-23T17:51:51Z</time>
      </trkpt>
      <trkpt lat="45.5632" lon="4.53678">
        <ele>548</ele>
        <time>2013-10-23T17:51:54Z</time>
      </trkpt>
      <trkpt lat="45.5632" lon="4.53686">
        <ele>548</ele>
        <time>2013-10-23T17:51:57Z</time>
      </trkpt>
      <trkpt lat="45.56319" lon="4.53696">
        <ele>548</ele>
        <time>2013-10-23T17:52:00Z</time>
      </trkpt>
      <trkpt lat="45.56319" lon="4.53706">
        <ele>548</ele>
        <time>2013-10-23T17:52:03Z</time>
      </trkpt>
      <trkpt lat="45.56319" lon="4.53717">
        <ele>548</ele>
        <time>2013-10-23T17:52:06Z</time>
      </trkpt>
      <trkpt lat="45.56318" lon="4.53727">
        <ele>548</ele>
        <time>2013-10-23T17:52:09Z</time>
      </trkpt>
      <trkpt lat="45.5632" lon="4.53738">
        <ele>548</ele>
        <time>2013-10-23T17:52:12Z</time>
      </trkpt>
      <trkpt lat="45.56323" lon="4.53747">
        <ele>548</ele>
        <time>2013-10-23T17:52:15Z</time>
      </trkpt>
      <trkpt lat="45.56324" lon="4.53756">
        <ele>548</ele>
        <time>2013-10-23T17:52:18Z</time>
      </trkpt>
      <trkpt lat="45.56324" lon="4.53765">
        <ele>548</ele>
        <time>2013-10-23T17:52:21Z</time>
      </trkpt>
      <trkpt lat="45.56324" lon="4.53774">
        <ele>548</ele>
        <time>2013-10-23T17:52:24Z</time>
      </trkpt>
      <trkpt lat="45.56324" lon="4.53784">
        <ele>548</ele>
        <time>2013-10-23T17:52:27Z</time>
      </trkpt>
      <trkpt lat="45.56325" lon="4.53792">
        <ele>548</ele>
        <time>2013-10-23T17:52:30Z</time>
      </trkpt>
      <trkpt lat="45.56326" lon="4.53801">
        <ele>548</ele>
        <time>2013-10-23T17:52:33Z</time>
      </trkpt>
      <trkpt lat="45.56328" lon="4.5381">
        <ele>548</ele>
        <time>2013-10-23T17:52:36Z</time>
      </trkpt>
      <trkpt lat="45.56328" lon="4.53821">
        <ele>548</ele>
        <time>2013-10-23T17:52:39Z</time>
      </trkpt>
      <trkpt lat="45.56328" lon="4.53831">
        <ele>548</ele>
        <time>2013-10-23T17:52:42Z</time>
      </trkpt>
      <trkpt lat="45.56327" lon="4.53842">
        <ele>548</ele>
        <time>2013-10-23T17:52:45Z</time>
      </trkpt>
      <trkpt lat="45.56327" lon="4.53852">
        <ele>547</ele>
        <time>2013-10-23T17:52:48Z</time>
      </trkpt>
      <trkpt lat="45.56327" lon="4.53863">
        <ele>546</ele>
        <time>2013-10-23T17:52:51Z</time>
      </trkpt>
      <trkpt lat="45.56327" lon="4.53875">
        <ele>545</ele>
        <time>2013-10-23T17:52:54Z</time>
      </trkpt>
      <trkpt lat="45.56326" lon="4.53889">
        <ele>544</ele>
        <time>2013-10-23T17:52:58Z</time>
      </trkpt>
      <trkpt lat="45.56326" lon="4.539">
        <ele>543</ele>
        <time>2013-10-23T17:53:01Z</time>
      </trkpt>
      <trkpt lat="45.56329" lon="4.5391">
        <ele>542</ele>
        <time>2013-10-23T17:53:04Z</time>
      </trkpt>
      <trkpt lat="45.56331" lon="4.5392">
        <ele>540</ele>
        <time>2013-10-23T17:53:07Z</time>
      </trkpt>
      <trkpt lat="45.56332" lon="4.53926">
        <ele>539</ele>
        <time>2013-10-23T17:53:11Z</time>
      </trkpt>
      <trkpt lat="45.5633" lon="4.53928">
        <ele>538</ele>
        <time>2013-10-23T17:53:14Z</time>
      </trkpt>
      <trkpt lat="45.56327" lon="4.53931">
        <ele>537</ele>
        <time>2013-10-23T17:53:18Z</time>
      </trkpt>
      <trkpt lat="45.56324" lon="4.53931">
        <ele>537</ele>
        <time>2013-10-23T17:53:21Z</time>
      </trkpt>
      <trkpt lat="45.56317" lon="4.53935">
        <ele>536</ele>
        <time>2013-10-23T17:53:25Z</time>
      </trkpt>
      <trkpt lat="45.56312" lon="4.53938">
        <ele>534</ele>
        <time>2013-10-23T17:53:29Z</time>
      </trkpt>
      <trkpt lat="45.5631" lon="4.53938">
        <ele>532</ele>
        <time>2013-10-23T17:53:34Z</time>
      </trkpt>
      <trkpt lat="45.5631" lon="4.53936">
        <ele>532</ele>
        <time>2013-10-23T17:53:57Z</time>
      </trkpt>
      <trkpt lat="45.56311" lon="4.53934">
        <ele>532</ele>
        <time>2013-10-23T17:54:00Z</time>
      </trkpt>
      <trkpt lat="45.56313" lon="4.53933">
        <ele>532</ele>
        <time>2013-10-23T17:54:03Z</time>
      </trkpt>
      <trkpt lat="45.56316" lon="4.5393">
        <ele>532</ele>
        <time>2013-10-23T17:54:07Z</time>
      </trkpt>
      <trkpt lat="45.56317" lon="4.53929">
        <ele>532</ele>
        <time>2013-10-23T17:54:10Z</time>
      </trkpt>
      <trkpt lat="45.5632" lon="4.53927">
        <ele>532</ele>
        <time>2013-10-23T17:54:14Z</time>
      </trkpt>
      <trkpt lat="45.56321" lon="4.53927">
        <ele>532</ele>
        <time>2013-10-23T17:54:17Z</time>
      </trkpt>
      <trkpt lat="45.56325" lon="4.53928">
        <ele>532</ele>
        <time>2013-10-23T17:54:21Z</time>
      </trkpt>
      <trkpt lat="45.56328" lon="4.53928">
        <ele>532</ele>
        <time>2013-10-23T17:54:25Z</time>
      </trkpt>
      <trkpt lat="45.5633" lon="4.53929">
        <ele>532</ele>
        <time>2013-10-23T17:54:29Z</time>
      </trkpt>
      <trkpt lat="45.56332" lon="4.53933">
        <ele>532</ele>
        <time>2013-10-23T17:54:34Z</time>
      </trkpt>
      <trkpt lat="45.56331" lon="4.53935">
        <ele>533</ele>
        <time>2013-10-23T17:54:55Z</time>
      </trkpt>
      <trkpt lat="45.56333" lon="4.53934">
        <ele>534</ele>
        <time>2013-10-23T17:55:05Z</time>
      </trkpt>
      <trkpt lat="45.56334" lon="4.53936">
        <ele>535</ele>
        <time>2013-10-23T17:55:08Z</time>
      </trkpt>
      <trkpt lat="45.56334" lon="4.53939">
        <ele>535</ele>
        <time>2013-10-23T17:55:12Z</time>
      </trkpt>
      <trkpt lat="45.56335" lon="4.5394">
        <ele>536</ele>
        <time>2013-10-23T17:55:18Z</time>
      </trkpt>
      <trkpt lat="45.56337" lon="4.53944">
        <ele>536</ele>
        <time>2013-10-23T17:55:21Z</time>
      </trkpt>
      <trkpt lat="45.56337" lon="4.53949">
        <ele>536</ele>
        <time>2013-10-23T17:55:24Z</time>
      </trkpt>
      <trkpt lat="45.56336" lon="4.53954">
        <ele>537</ele>
        <time>2013-10-23T17:55:28Z</time>
      </trkpt>
      <trkpt lat="45.5633" lon="4.53958">
        <ele>537</ele>
        <time>2013-10-23T17:55:32Z</time>
      </trkpt>
      <trkpt lat="45.56323" lon="4.5396">
        <ele>537</ele>
        <time>2013-10-23T17:55:35Z</time>
      </trkpt>
      <trkpt lat="45.56314" lon="4.5396">
        <ele>537</ele>
        <time>2013-10-23T17:55:39Z</time>
      </trkpt>
      <trkpt lat="45.56307" lon="4.53959">
        <ele>537</ele>
        <time>2013-10-23T17:55:42Z</time>
      </trkpt>
      <trkpt lat="45.563" lon="4.53961">
        <ele>537</ele>
        <time>2013-10-23T17:55:45Z</time>
      </trkpt>
      <trkpt lat="45.56294" lon="4.53967">
        <ele>536</ele>
        <time>2013-10-23T17:55:48Z</time>
      </trkpt>
      <trkpt lat="45.5629" lon="4.53973">
        <ele>535</ele>
        <time>2013-10-23T17:55:51Z</time>
      </trkpt>
      <trkpt lat="45.56287" lon="4.53976">
        <ele>535</ele>
        <time>2013-10-23T17:55:54Z</time>
      </trkpt>
      <trkpt lat="45.56284" lon="4.53979">
        <ele>534</ele>
        <time>2013-10-23T17:55:57Z</time>
      </trkpt>
      <trkpt lat="45.56281" lon="4.53983">
        <ele>534</ele>
        <time>2013-10-23T17:56:00Z</time>
      </trkpt>
      <trkpt lat="45.56278" lon="4.53988">
        <ele>533</ele>
        <time>2013-10-23T17:56:04Z</time>
      </trkpt>
      <trkpt lat="45.56276" lon="4.53991">
        <ele>532</ele>
        <time>2013-10-23T17:56:07Z</time>
      </trkpt>
      <trkpt lat="45.56272" lon="4.53994">
        <ele>531</ele>
        <time>2013-10-23T17:56:11Z</time>
      </trkpt>
      <trkpt lat="45.56268" lon="4.53998">
        <ele>530</ele>
        <time>2013-10-23T17:56:15Z</time>
      </trkpt>
      <trkpt lat="45.56265" lon="4.53999">
        <ele>529</ele>
        <time>2013-10-23T17:56:19Z</time>
      </trkpt>
      <trkpt lat="45.5626" lon="4.54003">
        <ele>528</ele>
        <time>2013-10-23T17:56:22Z</time>
      </trkpt>
      <trkpt lat="45.56257" lon="4.54004">
        <ele>528</ele>
        <time>2013-10-23T17:56:25Z</time>
      </trkpt>
      <trkpt lat="45.56257" lon="4.54006">
        <ele>527</ele>
        <time>2013-10-23T17:56:30Z</time>
      </trkpt>
      <trkpt lat="45.56255" lon="4.54006">
        <ele>526</ele>
        <time>2013-10-23T17:56:41Z</time>
      </trkpt>
      <trkpt lat="45.56254" lon="4.54006">
        <ele>526</ele>
        <time>2013-10-23T17:56:46Z</time>
      </trkpt>
      <trkpt lat="45.56255" lon="4.54008">
        <ele>526</ele>
        <time>2013-10-23T17:56:51Z</time>
      </trkpt>
      <trkpt lat="45.56253" lon="4.54013">
        <ele>526</ele>
        <time>2013-10-23T17:56:54Z</time>
      </trkpt>
      <trkpt lat="45.56251" lon="4.54021">
        <ele>526</ele>
        <time>2013-10-23T17:56:57Z</time>
      </trkpt>
      <trkpt lat="45.5625" lon="4.54026">
        <ele>526</ele>
        <time>2013-10-23T17:57:00Z</time>
      </trkpt>
      <trkpt lat="45.56248" lon="4.54031">
        <ele>525</ele>
        <time>2013-10-23T17:57:03Z</time>
      </trkpt>
      <trkpt lat="45.56245" lon="4.54039">
        <ele>524</ele>
        <time>2013-10-23T17:57:06Z</time>
      </trkpt>
      <trkpt lat="45.56242" lon="4.54046">
        <ele>524</ele>
        <time>2013-10-23T17:57:09Z</time>
      </trkpt>
      <trkpt lat="45.5624" lon="4.54053">
        <ele>523</ele>
        <time>2013-10-23T17:57:12Z</time>
      </trkpt>
      <trkpt lat="45.56237" lon="4.54062">
        <ele>523</ele>
        <time>2013-10-23T17:57:16Z</time>
      </trkpt>
      <trkpt lat="45.56234" lon="4.5407">
        <ele>523</ele>
        <time>2013-10-23T17:57:19Z</time>
      </trkpt>
      <trkpt lat="45.56231" lon="4.54079">
        <ele>523</ele>
        <time>2013-10-23T17:57:22Z</time>
      </trkpt>
      <trkpt lat="45.56228" lon="4.54086">
        <ele>523</ele>
        <time>2013-10-23T17:57:25Z</time>
      </trkpt>
      <trkpt lat="45.56223" lon="4.54096">
        <ele>523</ele>
        <time>2013-10-23T17:57:29Z</time>
      </trkpt>
      <trkpt lat="45.56221" lon="4.54104">
        <ele>522</ele>
        <time>2013-10-23T17:57:32Z</time>
      </trkpt>
      <trkpt lat="45.56219" lon="4.54114">
        <ele>521</ele>
        <time>2013-10-23T17:57:36Z</time>
      </trkpt>
      <trkpt lat="45.56216" lon="4.54121">
        <ele>521</ele>
        <time>2013-10-23T17:57:39Z</time>
      </trkpt>
      <trkpt lat="45.56213" lon="4.54134">
        <ele>520</ele>
        <time>2013-10-23T17:57:43Z</time>
      </trkpt>
      <trkpt lat="45.56211" lon="4.54142">
        <ele>520</ele>
        <time>2013-10-23T17:57:46Z</time>
      </trkpt>
      <trkpt lat="45.56209" lon="4.5415">
        <ele>520</ele>
        <time>2013-10-23T17:57:49Z</time>
      </trkpt>
      <trkpt lat="45.56207" lon="4.54163">
        <ele>520</ele>
        <time>2013-10-23T17:57:53Z</time>
      </trkpt>
      <trkpt lat="45.56205" lon="4.54172">
        <ele>520</ele>
        <time>2013-10-23T17:57:56Z</time>
      </trkpt>
      <trkpt lat="45.56203" lon="4.54182">
        <ele>520</ele>
        <time>2013-10-23T17:57:59Z</time>
      </trkpt>
      <trkpt lat="45.56202" lon="4.5419">
        <ele>520</ele>
        <time>2013-10-23T17:58:02Z</time>
      </trkpt>
      <trkpt lat="45.56202" lon="4.54202">
        <ele>520</ele>
        <time>2013-10-23T17:58:06Z</time>
      </trkpt>
      <trkpt lat="45.56202" lon="4.54207">
        <ele>520</ele>
        <time>2013-10-23T17:58:09Z</time>
      </trkpt>
      <trkpt lat="45.562" lon="4.54212">
        <ele>520</ele>
        <time>2013-10-23T17:58:13Z</time>
      </trkpt>
      <trkpt lat="45.56197" lon="4.54213">
        <ele>520</ele>
        <time>2013-10-23T17:58:16Z</time>
      </trkpt>
      <trkpt lat="45.56195" lon="4.54212">
        <ele>520</ele>
        <time>2013-10-23T17:58:21Z</time>
      </trkpt>
      <trkpt lat="45.56195" lon="4.5421">
        <ele>520</ele>
        <time>2013-10-23T17:58:25Z</time>
      </trkpt>
      <trkpt lat="45.56194" lon="4.54209">
        <ele>520</ele>
        <time>2013-10-23T17:58:30Z</time>
      </trkpt>
      <trkpt lat="45.56192" lon="4.54205">
        <ele>519</ele>
        <time>2013-10-23T17:58:34Z</time>
      </trkpt>
      <trkpt lat="45.56191" lon="4.54198">
        <ele>518</ele>
        <time>2013-10-23T17:58:38Z</time>
      </trkpt>
      <trkpt lat="45.56191" lon="4.5419">
        <ele>518</ele>
        <time>2013-10-23T17:58:41Z</time>
      </trkpt>
      <trkpt lat="45.56191" lon="4.54181">
        <ele>517</ele>
        <time>2013-10-23T17:58:44Z</time>
      </trkpt>
      <trkpt lat="45.5619" lon="4.54171">
        <ele>517</ele>
        <time>2013-10-23T17:58:47Z</time>
      </trkpt>
      <trkpt lat="45.56189" lon="4.54157">
        <ele>516</ele>
        <time>2013-10-23T17:58:51Z</time>
      </trkpt>
      <trkpt lat="45.56189" lon="4.54147">
        <ele>515</ele>
        <time>2013-10-23T17:58:54Z</time>
      </trkpt>
      <trkpt lat="45.5619" lon="4.54139">
        <ele>515</ele>
        <time>2013-10-23T17:58:57Z</time>
      </trkpt>
      <trkpt lat="45.56187" lon="4.54134">
        <ele>514</ele>
        <time>2013-10-23T17:59:00Z</time>
      </trkpt>
      <trkpt lat="45.56182" lon="4.54139">
        <ele>513</ele>
        <time>2013-10-23T17:59:04Z</time>
      </trkpt>
      <trkpt lat="45.56179" lon="4.54145">
        <ele>512</ele>
        <time>2013-10-23T17:59:07Z</time>
      </trkpt>
      <trkpt lat="45.56177" lon="4.54149">
        <ele>512</ele>
        <time>2013-10-23T17:59:10Z</time>
      </trkpt>
      <trkpt lat="45.56176" lon="4.54152">
        <ele>510</ele>
        <time>2013-10-23T17:59:17Z</time>
      </trkpt>
      <trkpt lat="45.56176" lon="4.54154">
        <ele>510</ele>
        <time>2013-10-23T17:59:21Z</time>
      </trkpt>
      <trkpt lat="45.56177" lon="4.54158">
        <ele>510</ele>
        <time>2013-10-23T17:59:25Z</time>
      </trkpt>
      <trkpt lat="45.56175" lon="4.54161">
        <ele>510</ele>
        <time>2013-10-23T17:59:29Z</time>
      </trkpt>
      <trkpt lat="45.56173" lon="4.54166">
        <ele>510</ele>
        <time>2013-10-23T17:59:32Z</time>
      </trkpt>
      <trkpt lat="45.56173" lon="4.54171">
        <ele>510</ele>
        <time>2013-10-23T17:59:35Z</time>
      </trkpt>
      <trkpt lat="45.56174" lon="4.54175">
        <ele>510</ele>
        <time>2013-10-23T17:59:38Z</time>
      </trkpt>
      <trkpt lat="45.56174" lon="4.5418">
        <ele>510</ele>
        <time>2013-10-23T17:59:41Z</time>
      </trkpt>
      <trkpt lat="45.56174" lon="4.54184">
        <ele>510</ele>
        <time>2013-10-23T17:59:44Z</time>
      </trkpt>
      <trkpt lat="45.56176" lon="4.54189">
        <ele>510</ele>
        <time>2013-10-23T17:59:47Z</time>
      </trkpt>
      <trkpt lat="45.56174" lon="4.54195">
        <ele>510</ele>
        <time>2013-10-23T17:59:51Z</time>
      </trkpt>
      <trkpt lat="45.56173" lon="4.542">
        <ele>510</ele>
        <time>2013-10-23T17:59:54Z</time>
      </trkpt>
      <trkpt lat="45.56173" lon="4.54205">
        <ele>510</ele>
        <time>2013-10-23T17:59:57Z</time>
      </trkpt>
      <trkpt lat="45.56173" lon="4.54211">
        <ele>510</ele>
        <time>2013-10-23T18:00:00Z</time>
      </trkpt>
      <trkpt lat="45.56172" lon="4.54216">
        <ele>510</ele>
        <time>2013-10-23T18:00:03Z</time>
      </trkpt>
      <trkpt lat="45.56171" lon="4.54223">
        <ele>510</ele>
        <time>2013-10-23T18:00:06Z</time>
      </trkpt>
      <trkpt lat="45.56171" lon="4.54234">
        <ele>510</ele>
        <time>2013-10-23T18:00:09Z</time>
      </trkpt>
      <trkpt lat="45.56174" lon="4.54244">
        <ele>510</ele>
        <time>2013-10-23T18:00:12Z</time>
      </trkpt>
      <trkpt lat="45.56178" lon="4.54254">
        <ele>510</ele>
        <time>2013-10-23T18:00:15Z</time>
      </trkpt>
      <trkpt lat="45.56181" lon="4.54264">
        <ele>510</ele>
        <time>2013-10-23T18:00:18Z</time>
      </trkpt>
      <trkpt lat="45.56183" lon="4.54273">
        <ele>510</ele>
        <time>2013-10-23T18:00:21Z</time>
      </trkpt>
      <trkpt lat="45.56183" lon="4.54283">
        <ele>510</ele>
        <time>2013-10-23T18:00:24Z</time>
      </trkpt>
      <trkpt lat="45.56178" lon="4.54292">
        <ele>510</ele>
        <time>2013-10-23T18:00:27Z</time>
      </trkpt>
      <trkpt lat="45.56172" lon="4.54298">
        <ele>510</ele>
        <time>2013-10-23T18:00:30Z</time>
      </trkpt>
      <trkpt lat="45.56165" lon="4.54301">
        <ele>510</ele>
        <time>2013-10-23T18:00:33Z</time>
      </trkpt>
      <trkpt lat="45.5616" lon="4.54304">
        <ele>510</ele>
        <time>2013-10-23T18:00:36Z</time>
      </trkpt>
      <trkpt lat="45.56152" lon="4.54307">
        <ele>510</ele>
        <time>2013-10-23T18:00:40Z</time>
      </trkpt>
      <trkpt lat="45.56147" lon="4.54311">
        <ele>510</ele>
        <time>2013-10-23T18:00:43Z</time>
      </trkpt>
      <trkpt lat="45.56142" lon="4.54314">
        <ele>511</ele>
        <time>2013-10-23T18:00:46Z</time>
      </trkpt>
      <trkpt lat="45.56136" lon="4.5432">
        <ele>511</ele>
        <time>2013-10-23T18:00:51Z</time>
      </trkpt>
      <trkpt lat="45.56133" lon="4.54324">
        <ele>511</ele>
        <time>2013-10-23T18:00:54Z</time>
      </trkpt>
      <trkpt lat="45.56129" lon="4.54327">
        <ele>511</ele>
        <time>2013-10-23T18:00:57Z</time>
      </trkpt>
      <trkpt lat="45.56124" lon="4.54331">
        <ele>511</ele>
        <time>2013-10-23T18:01:00Z</time>
      </trkpt>
      <trkpt lat="45.5612" lon="4.54336">
        <ele>511</ele>
        <time>2013-10-23T18:01:04Z</time>
      </trkpt>
      <trkpt lat="45.56116" lon="4.54341">
        <ele>511</ele>
        <time>2013-10-23T18:01:08Z</time>
      </trkpt>
      <trkpt lat="45.56112" lon="4.54345">
        <ele>511</ele>
        <time>2013-10-23T18:01:11Z</time>
      </trkpt>
      <trkpt lat="45.56108" lon="4.54349">
        <ele>511</ele>
        <time>2013-10-23T18:01:15Z</time>
      </trkpt>
      <trkpt lat="45.56104" lon="4.54353">
        <ele>511</ele>
        <time>2013-10-23T18:01:18Z</time>
      </trkpt>
      <trkpt lat="45.561" lon="4.54356">
        <ele>511</ele>
        <time>2013-10-23T18:01:21Z</time>
      </trkpt>
      <trkpt lat="45.56096" lon="4.54361">
        <ele>511</ele>
        <time>2013-10-23T18:01:25Z</time>
      </trkpt>
      <trkpt lat="45.56091" lon="4.54367">
        <ele>511</ele>
        <time>2013-10-23T18:01:29Z</time>
      </trkpt>
      <trkpt lat="45.56087" lon="4.54372">
        <ele>511</ele>
        <time>2013-10-23T18:01:33Z</time>
      </trkpt>
      <trkpt lat="45.56083" lon="4.54378">
        <ele>511</ele>
        <time>2013-10-23T18:01:37Z</time>
      </trkpt>
      <trkpt lat="45.56079" lon="4.54382">
        <ele>511</ele>
        <time>2013-10-23T18:01:40Z</time>
      </trkpt>
      <trkpt lat="45.56076" lon="4.54387">
        <ele>511</ele>
        <time>2013-10-23T18:01:43Z</time>
      </trkpt>
      <trkpt lat="45.56072" lon="4.54393">
        <ele>511</ele>
        <time>2013-10-23T18:01:47Z</time>
      </trkpt>
      <trkpt lat="45.5607" lon="4.54398">
        <ele>512</ele>
        <time>2013-10-23T18:01:50Z</time>
      </trkpt>
      <trkpt lat="45.56068" lon="4.54403">
        <ele>512</ele>
        <time>2013-10-23T18:01:53Z</time>
      </trkpt>
      <trkpt lat="45.56066" lon="4.54409">
        <ele>512</ele>
        <time>2013-10-23T18:01:56Z</time>
      </trkpt>
      <trkpt lat="45.56065" lon="4.54415">
        <ele>513</ele>
        <time>2013-10-23T18:01:59Z</time>
      </trkpt>
      <trkpt lat="45.56064" lon="4.54421">
        <ele>513</ele>
        <time>2013-10-23T18:02:02Z</time>
      </trkpt>
      <trkpt lat="45.56064" lon="4.54427">
        <ele>513</ele>
        <time>2013-10-23T18:02:05Z</time>
      </trkpt>
      <trkpt lat="45.56063" lon="4.54433">
        <ele>513</ele>
        <time>2013-10-23T18:02:08Z</time>
      </trkpt>
      <trkpt lat="45.56063" lon="4.54439">
        <ele>514</ele>
        <time>2013-10-23T18:02:11Z</time>
      </trkpt>
      <trkpt lat="45.56063" lon="4.54445">
        <ele>514</ele>
        <time>2013-10-23T18:02:14Z</time>
      </trkpt>
      <trkpt lat="45.56063" lon="4.54451">
        <ele>514</ele>
        <time>2013-10-23T18:02:17Z</time>
      </trkpt>
      <trkpt lat="45.56063" lon="4.54457">
        <ele>515</ele>
        <time>2013-10-23T18:02:20Z</time>
      </trkpt>
      <trkpt lat="45.56063" lon="4.54463">
        <ele>515</ele>
        <time>2013-10-23T18:02:23Z</time>
      </trkpt>
      <trkpt lat="45.56063" lon="4.54469">
        <ele>515</ele>
        <time>2013-10-23T18:02:26Z</time>
      </trkpt>
      <trkpt lat="45.56062" lon="4.54475">
        <ele>516</ele>
        <time>2013-10-23T18:02:29Z</time>
      </trkpt>
      <trkpt lat="45.56061" lon="4.54481">
        <ele>516</ele>
        <time>2013-10-23T18:02:32Z</time>
      </trkpt>
      <trkpt lat="45.5606" lon="4.54487">
        <ele>517</ele>
        <time>2013-10-23T18:02:35Z</time>
      </trkpt>
      <trkpt lat="45.56058" lon="4.54492">
        <ele>517</ele>
        <time>2013-10-23T18:02:38Z</time>
      </trkpt>
      <trkpt lat="45.56056" lon="4.54498">
        <ele>517</ele>
        <time>2013-10-23T18:02:41Z</time>
      </trkpt>
      <trkpt lat="45.56053" lon="4.54505">
        <ele>518</ele>
        <time>2013-10-23T18:02:45Z</time>
      </trkpt>
      <trkpt lat="45.56049" lon="4.5451">
        <ele>518</ele>
        <time>2013-10-23T18:02:49Z</time>
      </trkpt>
      <trkpt lat="45.56047" lon="4.54516">
        <ele>519</ele>
        <time>2013-10-23T18:02:52Z</time>
      </trkpt>
      <trkpt lat="45.56043" lon="4.54523">
        <ele>520</ele>
        <time>2013-10-23T18:02:57Z</time>
      </trkpt>
      <trkpt lat="45.56039" lon="4.54529">
        <ele>520</ele>
        <time>2013-10-23T18:03:01Z</time>
      </trkpt>
      <trkpt lat="45.56036" lon="4.54534">
        <ele>520</ele>
        <time>2013-10-23T18:03:04Z</time>
      </trkpt>
      <trkpt lat="45.56033" lon="4.54539">
        <ele>520</ele>
        <time>2013-10-23T18:03:07Z</time>
      </trkpt>
      <trkpt lat="45.56029" lon="4.54545">
        <ele>520</ele>
        <time>2013-10-23T18:03:10Z</time>
      </trkpt>
      <trkpt lat="45.56025" lon="4.5455">
        <ele>520</ele>
        <time>2013-10-23T18:03:13Z</time>
      </trkpt>
      <trkpt lat="45.56022" lon="4.54555">
        <ele>520</ele>
        <time>2013-10-23T18:03:16Z</time>
      </trkpt>
      <trkpt lat="45.56019" lon="4.54561">
        <ele>520</ele>
        <time>2013-10-23T18:03:19Z</time>
      </trkpt>
      <trkpt lat="45.56015" lon="4.54568">
        <ele>520</ele>
        <time>2013-10-23T18:03:22Z</time>
      </trkpt>
      <trkpt lat="45.5601" lon="4.54576">
        <ele>521</ele>
        <time>2013-10-23T18:03:26Z</time>
      </trkpt>
      <trkpt lat="45.56008" lon="4.54582">
        <ele>521</ele>
        <time>2013-10-23T18:03:30Z</time>
      </trkpt>
      <trkpt lat="45.56005" lon="4.54588">
        <ele>522</ele>
        <time>2013-10-23T18:03:34Z</time>
      </trkpt>
      <trkpt lat="45.56002" lon="4.54594">
        <ele>523</ele>
        <time>2013-10-23T18:03:37Z</time>
      </trkpt>
      <trkpt lat="45.56" lon="4.54598">
        <ele>524</ele>
        <time>2013-10-23T18:03:40Z</time>
      </trkpt>
      <trkpt lat="45.55996" lon="4.54603">
        <ele>525</ele>
        <time>2013-10-23T18:03:43Z</time>
      </trkpt>
      <trkpt lat="45.55993" lon="4.54609">
        <ele>525</ele>
        <time>2013-10-23T18:03:46Z</time>
      </trkpt>
      <trkpt lat="45.55989" lon="4.54614">
        <ele>526</ele>
        <time>2013-10-23T18:03:50Z</time>
      </trkpt>
      <trkpt lat="45.55985" lon="4.54622">
        <ele>526</ele>
        <time>2013-10-23T18:03:55Z</time>
      </trkpt>
      <trkpt lat="45.55982" lon="4.54626">
        <ele>526</ele>
        <time>2013-10-23T18:03:58Z</time>
      </trkpt>
      <trkpt lat="45.55979" lon="4.54632">
        <ele>527</ele>
        <time>2013-10-23T18:04:02Z</time>
      </trkpt>
      <trkpt lat="45.55976" lon="4.54639">
        <ele>528</ele>
        <time>2013-10-23T18:04:06Z</time>
      </trkpt>
      <trkpt lat="45.55974" lon="4.54644">
        <ele>528</ele>
        <time>2013-10-23T18:04:09Z</time>
      </trkpt>
      <trkpt lat="45.5597" lon="4.54651">
        <ele>529</ele>
        <time>2013-10-23T18:04:13Z</time>
      </trkpt>
      <trkpt lat="45.55967" lon="4.54658">
        <ele>529</ele>
        <time>2013-10-23T18:04:16Z</time>
      </trkpt>
      <trkpt lat="45.55964" lon="4.54666">
        <ele>530</ele>
        <time>2013-10-23T18:04:19Z</time>
      </trkpt>
      <trkpt lat="45.55962" lon="4.54671">
        <ele>530</ele>
        <time>2013-10-23T18:04:22Z</time>
      </trkpt>
      <trkpt lat="45.5596" lon="4.5468">
        <ele>531</ele>
        <time>2013-10-23T18:04:26Z</time>
      </trkpt>
      <trkpt lat="45.55958" lon="4.54687">
        <ele>531</ele>
        <time>2013-10-23T18:04:30Z</time>
      </trkpt>
      <trkpt lat="45.55957" lon="4.54694">
        <ele>531</ele>
        <time>2013-10-23T18:04:33Z</time>
      </trkpt>
      <trkpt lat="45.55956" lon="4.547">
        <ele>532</ele>
        <time>2013-10-23T18:04:36Z</time>
      </trkpt>
      <trkpt lat="45.55954" lon="4.54706">
        <ele>532</ele>
        <time>2013-10-23T18:04:39Z</time>
      </trkpt>
      <trkpt lat="45.55954" lon="4.54713">
        <ele>532</ele>
        <time>2013-10-23T18:04:42Z</time>
      </trkpt>
      <trkpt lat="45.55954" lon="4.54719">
        <ele>533</ele>
        <time>2013-10-23T18:04:45Z</time>
      </trkpt>
      <trkpt lat="45.55954" lon="4.54726">
        <ele>533</ele>
        <time>2013-10-23T18:04:48Z</time>
      </trkpt>
      <trkpt lat="45.55953" lon="4.54732">
        <ele>533</ele>
        <time>2013-10-23T18:04:51Z</time>
      </trkpt>
      <trkpt lat="45.55952" lon="4.54738">
        <ele>533</ele>
        <time>2013-10-23T18:04:54Z</time>
      </trkpt>
      <trkpt lat="45.55952" lon="4.54745">
        <ele>533</ele>
        <time>2013-10-23T18:04:57Z</time>
      </trkpt>
      <trkpt lat="45.55951" lon="4.54751">
        <ele>533</ele>
        <time>2013-10-23T18:05:00Z</time>
      </trkpt>
      <trkpt lat="45.5595" lon="4.54757">
        <ele>533</ele>
        <time>2013-10-23T18:05:03Z</time>
      </trkpt>
      <trkpt lat="45.5595" lon="4.54763">
        <ele>533</ele>
        <time>2013-10-23T18:05:06Z</time>
      </trkpt>
      <trkpt lat="45.5595" lon="4.54769">
        <ele>533</ele>
        <time>2013-10-23T18:05:09Z</time>
      </trkpt>
      <trkpt lat="45.55949" lon="4.54776">
        <ele>534</ele>
        <time>2013-10-23T18:05:12Z</time>
      </trkpt>
      <trkpt lat="45.55949" lon="4.54781">
        <ele>534</ele>
        <time>2013-10-23T18:05:15Z</time>
      </trkpt>
      <trkpt lat="45.55949" lon="4.54788">
        <ele>534</ele>
        <time>2013-10-23T18:05:18Z</time>
      </trkpt>
      <trkpt lat="45.55949" lon="4.54796">
        <ele>535</ele>
        <time>2013-10-23T18:05:22Z</time>
      </trkpt>
      <trkpt lat="45.55949" lon="4.54802">
        <ele>535</ele>
        <time>2013-10-23T18:05:25Z</time>
      </trkpt>
      <trkpt lat="45.55949" lon="4.54808">
        <ele>535</ele>
        <time>2013-10-23T18:05:28Z</time>
      </trkpt>
      <trkpt lat="45.5595" lon="4.54815">
        <ele>536</ele>
        <time>2013-10-23T18:05:31Z</time>
      </trkpt>
      <trkpt lat="45.5595" lon="4.54821">
        <ele>536</ele>
        <time>2013-10-23T18:05:34Z</time>
      </trkpt>
      <trkpt lat="45.5595" lon="4.54826">
        <ele>537</ele>
        <time>2013-10-23T18:05:37Z</time>
      </trkpt>
      <trkpt lat="45.5595" lon="4.54833">
        <ele>537</ele>
        <time>2013-10-23T18:05:40Z</time>
      </trkpt>
      <trkpt lat="45.55951" lon="4.54839">
        <ele>537</ele>
        <time>2013-10-23T18:05:43Z</time>
      </trkpt>
      <trkpt lat="45.55951" lon="4.54845">
        <ele>537</ele>
        <time>2013-10-23T18:05:46Z</time>
      </trkpt>
      <trkpt lat="45.55952" lon="4.5485">
        <ele>538</ele>
        <time>2013-10-23T18:05:49Z</time>
      </trkpt>
      <trkpt lat="45.55953" lon="4.54859">
        <ele>538</ele>
        <time>2013-10-23T18:05:53Z</time>
      </trkpt>
      <trkpt lat="45.55954" lon="4.54866">
        <ele>538</ele>
        <time>2013-10-23T18:05:56Z</time>
      </trkpt>
      <trkpt lat="45.55955" lon="4.54872">
        <ele>538</ele>
        <time>2013-10-23T18:05:59Z</time>
      </trkpt>
      <trkpt lat="45.55954" lon="4.54879">
        <ele>539</ele>
        <time>2013-10-23T18:06:02Z</time>
      </trkpt>
      <trkpt lat="45.55953" lon="4.54885">
        <ele>540</ele>
        <time>2013-10-23T18:06:05Z</time>
      </trkpt>
      <trkpt lat="45.55952" lon="4.54891">
        <ele>540</ele>
        <time>2013-10-23T18:06:08Z</time>
      </trkpt>
      <trkpt lat="45.5595" lon="4.54898">
        <ele>541</ele>
        <time>2013-10-23T18:06:11Z</time>
      </trkpt>
      <trkpt lat="45.55947" lon="4.54906">
        <ele>541</ele>
        <time>2013-10-23T18:06:15Z</time>
      </trkpt>
      <trkpt lat="45.55945" lon="4.54912">
        <ele>541</ele>
        <time>2013-10-23T18:06:18Z</time>
      </trkpt>
      <trkpt lat="45.55943" lon="4.54917">
        <ele>542</ele>
        <time>2013-10-23T18:06:21Z</time>
      </trkpt>
      <trkpt lat="45.55939" lon="4.54923">
        <ele>542</ele>
        <time>2013-10-23T18:06:25Z</time>
      </trkpt>
      <trkpt lat="45.55936" lon="4.54929">
        <ele>542</ele>
        <time>2013-10-23T18:06:28Z</time>
      </trkpt>
      <trkpt lat="45.55932" lon="4.54935">
        <ele>542</ele>
        <time>2013-10-23T18:06:32Z</time>
      </trkpt>
      <trkpt lat="45.55929" lon="4.5494">
        <ele>542</ele>
        <time>2013-10-23T18:06:35Z</time>
      </trkpt>
      <trkpt lat="45.55925" lon="4.54947">
        <ele>543</ele>
        <time>2013-10-23T18:06:39Z</time>
      </trkpt>
      <trkpt lat="45.55922" lon="4.54952">
        <ele>543</ele>
        <time>2013-10-23T18:06:42Z</time>
      </trkpt>
      <trkpt lat="45.55918" lon="4.54958">
        <ele>543</ele>
        <time>2013-10-23T18:06:46Z</time>
      </trkpt>
      <trkpt lat="45.55915" lon="4.54964">
        <ele>543</ele>
        <time>2013-10-23T18:06:49Z</time>
      </trkpt>
      <trkpt lat="45.55913" lon="4.5497">
        <ele>543</ele>
        <time>2013-10-23T18:06:52Z</time>
      </trkpt>
      <trkpt lat="45.55911" lon="4.54975">
        <ele>543</ele>
        <time>2013-10-23T18:06:55Z</time>
      </trkpt>
      <trkpt lat="45.55909" lon="4.54981">
        <ele>544</ele>
        <time>2013-10-23T18:06:58Z</time>
      </trkpt>
      <trkpt lat="45.55908" lon="4.54989">
        <ele>544</ele>
        <time>2013-10-23T18:07:02Z</time>
      </trkpt>
      <trkpt lat="45.55907" lon="4.54995">
        <ele>545</ele>
        <time>2013-10-23T18:07:05Z</time>
      </trkpt>
      <trkpt lat="45.55905" lon="4.55003">
        <ele>546</ele>
        <time>2013-10-23T18:07:09Z</time>
      </trkpt>
      <trkpt lat="45.55904" lon="4.5501">
        <ele>546</ele>
        <time>2013-10-23T18:07:12Z</time>
      </trkpt>
      <trkpt lat="45.55904" lon="4.55016">
        <ele>547</ele>
        <time>2013-10-23T18:07:15Z</time>
      </trkpt>
      <trkpt lat="45.55904" lon="4.55022">
        <ele>547</ele>
        <time>2013-10-23T18:07:18Z</time>
      </trkpt>
      <trkpt lat="45.55904" lon="4.55029">
        <ele>547</ele>
        <time>2013-10-23T18:07:21Z</time>
      </trkpt>
      <trkpt lat="45.55904" lon="4.55037">
        <ele>547</ele>
        <time>2013-10-23T18:07:25Z</time>
      </trkpt>
      <trkpt lat="45.55905" lon="4.55043">
        <ele>548</ele>
        <time>2013-10-23T18:07:28Z</time>
      </trkpt>
      <trkpt lat="45.55905" lon="4.5505">
        <ele>549</ele>
        <time>2013-10-23T18:07:31Z</time>
      </trkpt>
      <trkpt lat="45.55906" lon="4.55055">
        <ele>549</ele>
        <time>2013-10-23T18:07:34Z</time>
      </trkpt>
      <trkpt lat="45.55907" lon="4.55062">
        <ele>549</ele>
        <time>2013-10-23T18:07:37Z</time>
      </trkpt>
      <trkpt lat="45.55908" lon="4.55067">
        <ele>549</ele>
        <time>2013-10-23T18:07:40Z</time>
      </trkpt>
      <trkpt lat="45.5591" lon="4.55073">
        <ele>549</ele>
        <time>2013-10-23T18:07:43Z</time>
      </trkpt>
      <trkpt lat="45.55911" lon="4.55081">
        <ele>549</ele>
        <time>2013-10-23T18:07:47Z</time>
      </trkpt>
      <trkpt lat="45.55913" lon="4.55089">
        <ele>549</ele>
        <time>2013-10-23T18:07:51Z</time>
      </trkpt>
      <trkpt lat="45.55915" lon="4.55095">
        <ele>549</ele>
        <time>2013-10-23T18:07:54Z</time>
      </trkpt>
      <trkpt lat="45.55917" lon="4.55101">
        <ele>549</ele>
        <time>2013-10-23T18:07:57Z</time>
      </trkpt>
      <trkpt lat="45.55917" lon="4.55107">
        <ele>549</ele>
        <time>2013-10-23T18:08:00Z</time>
      </trkpt>
      <trkpt lat="45.55917" lon="4.55114">
        <ele>549</ele>
        <time>2013-10-23T18:08:03Z</time>
      </trkpt>
      <trkpt lat="45.55919" lon="4.55123">
        <ele>549</ele>
        <time>2013-10-23T18:08:07Z</time>
      </trkpt>
      <trkpt lat="45.5592" lon="4.55129">
        <ele>549</ele>
        <time>2013-10-23T18:08:10Z</time>
      </trkpt>
      <trkpt lat="45.5592" lon="4.55134">
        <ele>549</ele>
        <time>2013-10-23T18:08:13Z</time>
      </trkpt>
      <trkpt lat="45.55921" lon="4.5514">
        <ele>549</ele>
        <time>2013-10-23T18:08:16Z</time>
      </trkpt>
      <trkpt lat="45.55922" lon="4.55149">
        <ele>549</ele>
        <time>2013-10-23T18:08:20Z</time>
      </trkpt>
      <trkpt lat="45.55921" lon="4.55155">
        <ele>549</ele>
        <time>2013-10-23T18:08:23Z</time>
      </trkpt>
      <trkpt lat="45.55921" lon="4.5516">
        <ele>550</ele>
        <time>2013-10-23T18:08:26Z</time>
      </trkpt>
      <trkpt lat="45.55922" lon="4.55168">
        <ele>551</ele>
        <time>2013-10-23T18:08:30Z</time>
      </trkpt>
      <trkpt lat="45.55922" lon="4.55174">
        <ele>551</ele>
        <time>2013-10-23T18:08:33Z</time>
      </trkpt>
      <trkpt lat="45.55922" lon="4.5518">
        <ele>552</ele>
        <time>2013-10-23T18:08:36Z</time>
      </trkpt>
      <trkpt lat="45.55922" lon="4.55186">
        <ele>552</ele>
        <time>2013-10-23T18:08:39Z</time>
      </trkpt>
      <trkpt lat="45.55923" lon="4.55192">
        <ele>552</ele>
        <time>2013-10-23T18:08:42Z</time>
      </trkpt>
      <trkpt lat="45.55924" lon="4.55201">
        <ele>553</ele>
        <time>2013-10-23T18:08:46Z</time>
      </trkpt>
      <trkpt lat="45.55926" lon="4.55208">
        <ele>554</ele>
        <time>2013-10-23T18:08:50Z</time>
      </trkpt>
      <trkpt lat="45.55927" lon="4.55215">
        <ele>554</ele>
        <time>2013-10-23T18:08:53Z</time>
      </trkpt>
      <trkpt lat="45.55928" lon="4.55221">
        <ele>554</ele>
        <time>2013-10-23T18:08:56Z</time>
      </trkpt>
      <trkpt lat="45.55931" lon="4.55228">
        <ele>555</ele>
        <time>2013-10-23T18:09:00Z</time>
      </trkpt>
      <trkpt lat="45.55935" lon="4.55235">
        <ele>555</ele>
        <time>2013-10-23T18:09:04Z</time>
      </trkpt>
      <trkpt lat="45.55938" lon="4.55239">
        <ele>556</ele>
        <time>2013-10-23T18:09:07Z</time>
      </trkpt>
      <trkpt lat="45.55943" lon="4.55245">
        <ele>556</ele>
        <time>2013-10-23T18:09:11Z</time>
      </trkpt>
      <trkpt lat="45.55946" lon="4.5525">
        <ele>556</ele>
        <time>2013-10-23T18:09:14Z</time>
      </trkpt>
      <trkpt lat="45.5595" lon="4.55254">
        <ele>556</ele>
        <time>2013-10-23T18:09:17Z</time>
      </trkpt>
      <trkpt lat="45.55955" lon="4.55261">
        <ele>556</ele>
        <time>2013-10-23T18:09:21Z</time>
      </trkpt>
      <trkpt lat="45.55958" lon="4.55265">
        <ele>556</ele>
        <time>2013-10-23T18:09:24Z</time>
      </trkpt>
      <trkpt lat="45.55961" lon="4.5527">
        <ele>557</ele>
        <time>2013-10-23T18:09:27Z</time>
      </trkpt>
      <trkpt lat="45.55964" lon="4.55275">
        <ele>557</ele>
        <time>2013-10-23T18:09:30Z</time>
      </trkpt>
      <trkpt lat="45.55966" lon="4.5528">
        <ele>557</ele>
        <time>2013-10-23T18:09:33Z</time>
      </trkpt>
      <trkpt lat="45.5597" lon="4.55287">
        <ele>557</ele>
        <time>2013-10-23T18:09:37Z</time>
      </trkpt>
      <trkpt lat="45.55973" lon="4.55293">
        <ele>557</ele>
        <time>2013-10-23T18:09:41Z</time>
      </trkpt>
      <trkpt lat="45.55976" lon="4.55297">
        <ele>557</ele>
        <time>2013-10-23T18:09:44Z</time>
      </trkpt>
      <trkpt lat="45.55978" lon="4.55302">
        <ele>557</ele>
        <time>2013-10-23T18:09:47Z</time>
      </trkpt>
      <trkpt lat="45.55981" lon="4.55307">
        <ele>557</ele>
        <time>2013-10-23T18:09:50Z</time>
      </trkpt>
      <trkpt lat="45.55985" lon="4.55311">
        <ele>557</ele>
        <time>2013-10-23T18:09:53Z</time>
      </trkpt>
      <trkpt lat="45.55989" lon="4.55319">
        <ele>557</ele>
        <time>2013-10-23T18:09:57Z</time>
      </trkpt>
      <trkpt lat="45.55993" lon="4.55324">
        <ele>558</ele>
        <time>2013-10-23T18:10:00Z</time>
      </trkpt>
      <trkpt lat="45.55994" lon="4.55329">
        <ele>558</ele>
        <time>2013-10-23T18:10:03Z</time>
      </trkpt>
      <trkpt lat="45.55998" lon="4.55336">
        <ele>558</ele>
        <time>2013-10-23T18:10:07Z</time>
      </trkpt>
      <trkpt lat="45.56" lon="4.55341">
        <ele>558</ele>
        <time>2013-10-23T18:10:10Z</time>
      </trkpt>
      <trkpt lat="45.56002" lon="4.55346">
        <ele>558</ele>
        <time>2013-10-23T18:10:13Z</time>
      </trkpt>
      <trkpt lat="45.56004" lon="4.55354">
        <ele>558</ele>
        <time>2013-10-23T18:10:17Z</time>
      </trkpt>
      <trkpt lat="45.56006" lon="4.55361">
        <ele>558</ele>
        <time>2013-10-23T18:10:20Z</time>
      </trkpt>
      <trkpt lat="45.56008" lon="4.55368">
        <ele>558</ele>
        <time>2013-10-23T18:10:24Z</time>
      </trkpt>
      <trkpt lat="45.5601" lon="4.55376">
        <ele>558</ele>
        <time>2013-10-23T18:10:28Z</time>
      </trkpt>
      <trkpt lat="45.56012" lon="4.55382">
        <ele>558</ele>
        <time>2013-10-23T18:10:31Z</time>
      </trkpt>
      <trkpt lat="45.56014" lon="4.55388">
        <ele>559</ele>
        <time>2013-10-23T18:10:34Z</time>
      </trkpt>
      <trkpt lat="45.56016" lon="4.55394">
        <ele>560</ele>
        <time>2013-10-23T18:10:37Z</time>
      </trkpt>
      <trkpt lat="45.56017" lon="4.554">
        <ele>561</ele>
        <time>2013-10-23T18:10:40Z</time>
      </trkpt>
      <trkpt lat="45.56019" lon="4.55406">
        <ele>561</ele>
        <time>2013-10-23T18:10:43Z</time>
      </trkpt>
      <trkpt lat="45.56022" lon="4.55411">
        <ele>562</ele>
        <time>2013-10-23T18:10:46Z</time>
      </trkpt>
      <trkpt lat="45.56025" lon="4.55418">
        <ele>563</ele>
        <time>2013-10-23T18:10:50Z</time>
      </trkpt>
      <trkpt lat="45.56027" lon="4.55424">
        <ele>563</ele>
        <time>2013-10-23T18:10:53Z</time>
      </trkpt>
      <trkpt lat="45.56031" lon="4.5543">
        <ele>564</ele>
        <time>2013-10-23T18:10:57Z</time>
      </trkpt>
      <trkpt lat="45.56033" lon="4.55436">
        <ele>564</ele>
        <time>2013-10-23T18:11:00Z</time>
      </trkpt>
      <trkpt lat="45.56036" lon="4.55441">
        <ele>564</ele>
        <time>2013-10-23T18:11:03Z</time>
      </trkpt>
      <trkpt lat="45.56039" lon="4.55445">
        <ele>565</ele>
        <time>2013-10-23T18:11:06Z</time>
      </trkpt>
      <trkpt lat="45.56043" lon="4.55452">
        <ele>565</ele>
        <time>2013-10-23T18:11:10Z</time>
      </trkpt>
      <trkpt lat="45.56045" lon="4.55457">
        <ele>565</ele>
        <time>2013-10-23T18:11:13Z</time>
      </trkpt>
      <trkpt lat="45.56048" lon="4.55462">
        <ele>566</ele>
        <time>2013-10-23T18:11:16Z</time>
      </trkpt>
      <trkpt lat="45.56051" lon="4.55467">
        <ele>566</ele>
        <time>2013-10-23T18:11:22Z</time>
      </trkpt>
      <trkpt lat="45.56054" lon="4.55471">
        <ele>566</ele>
        <time>2013-10-23T18:11:25Z</time>
      </trkpt>
      <trkpt lat="45.56057" lon="4.55476">
        <ele>567</ele>
        <time>2013-10-23T18:11:28Z</time>
      </trkpt>
      <trkpt lat="45.5606" lon="4.5548">
        <ele>567</ele>
        <time>2013-10-23T18:11:31Z</time>
      </trkpt>
      <trkpt lat="45.56064" lon="4.55487">
        <ele>567</ele>
        <time>2013-10-23T18:11:35Z</time>
      </trkpt>
      <trkpt lat="45.56066" lon="4.55492">
        <ele>568</ele>
        <time>2013-10-23T18:11:38Z</time>
      </trkpt>
      <trkpt lat="45.56069" lon="4.55497">
        <ele>568</ele>
        <time>2013-10-23T18:11:41Z</time>
      </trkpt>
      <trkpt lat="45.56073" lon="4.55503">
        <ele>568</ele>
        <time>2013-10-23T18:11:45Z</time>
      </trkpt>
      <trkpt lat="45.56076" lon="4.55507">
        <ele>568</ele>
        <time>2013-10-23T18:11:48Z</time>
      </trkpt>
      <trkpt lat="45.56079" lon="4.55512">
        <ele>568</ele>
        <time>2013-10-23T18:11:52Z</time>
      </trkpt>
      <trkpt lat="45.56084" lon="4.55518">
        <ele>568</ele>
        <time>2013-10-23T18:11:56Z</time>
      </trkpt>
      <trkpt lat="45.56087" lon="4.55522">
        <ele>569</ele>
        <time>2013-10-23T18:11:59Z</time>
      </trkpt>
      <trkpt lat="45.56089" lon="4.55528">
        <ele>569</ele>
        <time>2013-10-23T18:12:02Z</time>
      </trkpt>
      <trkpt lat="45.56092" lon="4.55537">
        <ele>569</ele>
        <time>2013-10-23T18:12:06Z</time>
      </trkpt>
      <trkpt lat="45.56093" lon="4.55545">
        <ele>569</ele>
        <time>2013-10-23T18:12:10Z</time>
      </trkpt>
      <trkpt lat="45.56092" lon="4.55553">
        <ele>569</ele>
        <time>2013-10-23T18:12:14Z</time>
      </trkpt>
      <trkpt lat="45.5609" lon="4.55562">
        <ele>569</ele>
        <time>2013-10-23T18:12:18Z</time>
      </trkpt>
      <trkpt lat="45.56089" lon="4.5557">
        <ele>570</ele>
        <time>2013-10-23T18:12:22Z</time>
      </trkpt>
      <trkpt lat="45.56089" lon="4.55579">
        <ele>570</ele>
        <time>2013-10-23T18:12:26Z</time>
      </trkpt>
      <trkpt lat="45.56087" lon="4.55584">
        <ele>570</ele>
        <time>2013-10-23T18:12:29Z</time>
      </trkpt>
      <trkpt lat="45.56086" lon="4.5559">
        <ele>570</ele>
        <time>2013-10-23T18:12:32Z</time>
      </trkpt>
      <trkpt lat="45.56085" lon="4.55597">
        <ele>570</ele>
        <time>2013-10-23T18:12:35Z</time>
      </trkpt>
      <trkpt lat="45.56085" lon="4.55606">
        <ele>570</ele>
        <time>2013-10-23T18:12:38Z</time>
      </trkpt>
      <trkpt lat="45.56084" lon="4.55615">
        <ele>570</ele>
        <time>2013-10-23T18:12:41Z</time>
      </trkpt>
      <trkpt lat="45.56082" lon="4.55629">
        <ele>570</ele>
        <time>2013-10-23T18:12:45Z</time>
      </trkpt>
      <trkpt lat="45.56081" lon="4.5564">
        <ele>570</ele>
        <time>2013-10-23T18:12:48Z</time>
      </trkpt>
      <trkpt lat="45.5608" lon="4.55652">
        <ele>570</ele>
        <time>2013-10-23T18:12:51Z</time>
      </trkpt>
      <trkpt lat="45.56079" lon="4.55662">
        <ele>570</ele>
        <time>2013-10-23T18:12:54Z</time>
      </trkpt>
      <trkpt lat="45.56078" lon="4.55672">
        <ele>570</ele>
        <time>2013-10-23T18:12:57Z</time>
      </trkpt>
      <trkpt lat="45.56078" lon="4.55683">
        <ele>570</ele>
        <time>2013-10-23T18:13:00Z</time>
      </trkpt>
      <trkpt lat="45.56076" lon="4.55694">
        <ele>570</ele>
        <time>2013-10-23T18:13:03Z</time>
      </trkpt>
      <trkpt lat="45.56075" lon="4.55705">
        <ele>570</ele>
        <time>2013-10-23T18:13:06Z</time>
      </trkpt>
      <trkpt lat="45.56073" lon="4.55716">
        <ele>570</ele>
        <time>2013-10-23T18:13:09Z</time>
      </trkpt>
      <trkpt lat="45.56072" lon="4.55727">
        <ele>570</ele>
        <time>2013-10-23T18:13:12Z</time>
      </trkpt>
      <trkpt lat="45.5607" lon="4.55738">
        <ele>570</ele>
        <time>2013-10-23T18:13:15Z</time>
      </trkpt>
      <trkpt lat="45.5607" lon="4.55747">
        <ele>570</ele>
        <time>2013-10-23T18:13:18Z</time>
      </trkpt>
      <trkpt lat="45.56069" lon="4.55758">
        <ele>570</ele>
        <time>2013-10-23T18:13:21Z</time>
      </trkpt>
      <trkpt lat="45.56067" lon="4.55769">
        <ele>570</ele>
        <time>2013-10-23T18:13:24Z</time>
      </trkpt>
      <trkpt lat="45.56065" lon="4.5578">
        <ele>570</ele>
        <time>2013-10-23T18:13:27Z</time>
      </trkpt>
      <trkpt lat="45.56064" lon="4.5579">
        <ele>570</ele>
        <time>2013-10-23T18:13:30Z</time>
      </trkpt>
      <trkpt lat="45.56062" lon="4.55804">
        <ele>570</ele>
        <time>2013-10-23T18:13:34Z</time>
      </trkpt>
      <trkpt lat="45.56061" lon="4.55815">
        <ele>570</ele>
        <time>2013-10-23T18:13:37Z</time>
      </trkpt>
      <trkpt lat="45.56059" lon="4.55828">
        <ele>570</ele>
        <time>2013-10-23T18:13:41Z</time>
      </trkpt>
      <trkpt lat="45.56058" lon="4.55837">
        <ele>570</ele>
        <time>2013-10-23T18:13:44Z</time>
      </trkpt>
      <trkpt lat="45.56057" lon="4.55847">
        <ele>570</ele>
        <time>2013-10-23T18:13:47Z</time>
      </trkpt>
      <trkpt lat="45.56055" lon="4.55857">
        <ele>570</ele>
        <time>2013-10-23T18:13:50Z</time>
      </trkpt>
      <trkpt lat="45.56054" lon="4.55867">
        <ele>570</ele>
        <time>2013-10-23T18:13:53Z</time>
      </trkpt>
      <trkpt lat="45.56054" lon="4.55876">
        <ele>570</ele>
        <time>2013-10-23T18:13:56Z</time>
      </trkpt>
      <trkpt lat="45.56054" lon="4.55885">
        <ele>570</ele>
        <time>2013-10-23T18:13:59Z</time>
      </trkpt>
      <trkpt lat="45.56055" lon="4.55894">
        <ele>571</ele>
        <time>2013-10-23T18:14:02Z</time>
      </trkpt>
      <trkpt lat="45.56057" lon="4.55904">
        <ele>571</ele>
        <time>2013-10-23T18:14:05Z</time>
      </trkpt>
      <trkpt lat="45.56057" lon="4.55912">
        <ele>572</ele>
        <time>2013-10-23T18:14:08Z</time>
      </trkpt>
      <trkpt lat="45.56058" lon="4.55921">
        <ele>572</ele>
        <time>2013-10-23T18:14:11Z</time>
      </trkpt>
      <trkpt lat="45.56059" lon="4.55932">
        <ele>573</ele>
        <time>2013-10-23T18:14:15Z</time>
      </trkpt>
      <trkpt lat="45.56059" lon="4.5594">
        <ele>573</ele>
        <time>2013-10-23T18:14:18Z</time>
      </trkpt>
      <trkpt lat="45.5606" lon="4.55947">
        <ele>574</ele>
        <time>2013-10-23T18:14:21Z</time>
      </trkpt>
      <trkpt lat="45.56062" lon="4.55952">
        <ele>574</ele>
        <time>2013-10-23T18:14:24Z</time>
      </trkpt>
      <trkpt lat="45.56062" lon="4.55958">
        <ele>574</ele>
        <time>2013-10-23T18:14:27Z</time>
      </trkpt>
      <trkpt lat="45.56063" lon="4.55964">
        <ele>575</ele>
        <time>2013-10-23T18:14:30Z</time>
      </trkpt>
      <trkpt lat="45.56064" lon="4.55971">
        <ele>576</ele>
        <time>2013-10-23T18:14:33Z</time>
      </trkpt>
      <trkpt lat="45.56065" lon="4.55979">
        <ele>577</ele>
        <time>2013-10-23T18:14:37Z</time>
      </trkpt>
      <trkpt lat="45.56065" lon="4.55985">
        <ele>577</ele>
        <time>2013-10-23T18:14:40Z</time>
      </trkpt>
      <trkpt lat="45.56065" lon="4.55991">
        <ele>577</ele>
        <time>2013-10-23T18:14:43Z</time>
      </trkpt>
      <trkpt lat="45.56066" lon="4.55997">
        <ele>577</ele>
        <time>2013-10-23T18:14:46Z</time>
      </trkpt>
      <trkpt lat="45.56068" lon="4.56005">
        <ele>577</ele>
        <time>2013-10-23T18:14:50Z</time>
      </trkpt>
      <trkpt lat="45.56068" lon="4.56011">
        <ele>577</ele>
        <time>2013-10-23T18:14:53Z</time>
      </trkpt>
      <trkpt lat="45.56069" lon="4.56019">
        <ele>577</ele>
        <time>2013-10-23T18:14:56Z</time>
      </trkpt>
      <trkpt lat="45.56071" lon="4.56027">
        <ele>578</ele>
        <time>2013-10-23T18:15:00Z</time>
      </trkpt>
      <trkpt lat="45.56071" lon="4.56033">
        <ele>578</ele>
        <time>2013-10-23T18:15:03Z</time>
      </trkpt>
      <trkpt lat="45.56072" lon="4.5604">
        <ele>578</ele>
        <time>2013-10-23T18:15:06Z</time>
      </trkpt>
      <trkpt lat="45.56074" lon="4.56047">
        <ele>579</ele>
        <time>2013-10-23T18:15:09Z</time>
      </trkpt>
      <trkpt lat="45.56075" lon="4.56053">
        <ele>579</ele>
        <time>2013-10-23T18:15:12Z</time>
      </trkpt>
      <trkpt lat="45.56077" lon="4.56059">
        <ele>579</ele>
        <time>2013-10-23T18:15:15Z</time>
      </trkpt>
      <trkpt lat="45.56079" lon="4.56066">
        <ele>579</ele>
        <time>2013-10-23T18:15:18Z</time>
      </trkpt>
      <trkpt lat="45.56082" lon="4.56074">
        <ele>580</ele>
        <time>2013-10-23T18:15:22Z</time>
      </trkpt>
      <trkpt lat="45.56084" lon="4.56078">
        <ele>580</ele>
        <time>2013-10-23T18:15:25Z</time>
      </trkpt>
      <trkpt lat="45.56085" lon="4.56084">
        <ele>580</ele>
        <time>2013-10-23T18:15:28Z</time>
      </trkpt>
      <trkpt lat="45.56086" lon="4.5609">
        <ele>580</ele>
        <time>2013-10-23T18:15:31Z</time>
      </trkpt>
      <trkpt lat="45.56087" lon="4.56097">
        <ele>580</ele>
        <time>2013-10-23T18:15:34Z</time>
      </trkpt>
      <trkpt lat="45.56089" lon="4.56104">
        <ele>580</ele>
        <time>2013-10-23T18:15:37Z</time>
      </trkpt>
      <trkpt lat="45.56091" lon="4.56111">
        <ele>580</ele>
        <time>2013-10-23T18:15:40Z</time>
      </trkpt>
      <trkpt lat="45.56092" lon="4.56118">
        <ele>580</ele>
        <time>2013-10-23T18:15:43Z</time>
      </trkpt>
      <trkpt lat="45.56093" lon="4.56124">
        <ele>580</ele>
        <time>2013-10-23T18:15:46Z</time>
      </trkpt>
      <trkpt lat="45.56095" lon="4.56132">
        <ele>580</ele>
        <time>2013-10-23T18:15:50Z</time>
      </trkpt>
      <trkpt lat="45.56096" lon="4.56138">
        <ele>580</ele>
        <time>2013-10-23T18:15:53Z</time>
      </trkpt>
      <trkpt lat="45.56098" lon="4.56145">
        <ele>580</ele>
        <time>2013-10-23T18:15:56Z</time>
      </trkpt>
      <trkpt lat="45.561" lon="4.56151">
        <ele>580</ele>
        <time>2013-10-23T18:15:59Z</time>
      </trkpt>
      <trkpt lat="45.56102" lon="4.56159">
        <ele>580</ele>
        <time>2013-10-23T18:16:03Z</time>
      </trkpt>
      <trkpt lat="45.56104" lon="4.56168">
        <ele>580</ele>
        <time>2013-10-23T18:16:07Z</time>
      </trkpt>
      <trkpt lat="45.56104" lon="4.56175">
        <ele>581</ele>
        <time>2013-10-23T18:16:10Z</time>
      </trkpt>
      <trkpt lat="45.56105" lon="4.56181">
        <ele>581</ele>
        <time>2013-10-23T18:16:13Z</time>
      </trkpt>
      <trkpt lat="45.56106" lon="4.56188">
        <ele>581</ele>
        <time>2013-10-23T18:16:16Z</time>
      </trkpt>
      <trkpt lat="45.56108" lon="4.56195">
        <ele>581</ele>
        <time>2013-10-23T18:16:19Z</time>
      </trkpt>
      <trkpt lat="45.56109" lon="4.56202">
        <ele>581</ele>
        <time>2013-10-23T18:16:22Z</time>
      </trkpt>
      <trkpt lat="45.5611" lon="4.56211">
        <ele>581</ele>
        <time>2013-10-23T18:16:26Z</time>
      </trkpt>
      <trkpt lat="45.56111" lon="4.56219">
        <ele>582</ele>
        <time>2013-10-23T18:16:30Z</time>
      </trkpt>
      <trkpt lat="45.56111" lon="4.56226">
        <ele>582</ele>
        <time>2013-10-23T18:16:33Z</time>
      </trkpt>
      <trkpt lat="45.56112" lon="4.56233">
        <ele>583</ele>
        <time>2013-10-23T18:16:36Z</time>
      </trkpt>
      <trkpt lat="45.56113" lon="4.5624">
        <ele>583</ele>
        <time>2013-10-23T18:16:39Z</time>
      </trkpt>
      <trkpt lat="45.56114" lon="4.56246">
        <ele>583</ele>
        <time>2013-10-23T18:16:42Z</time>
      </trkpt>
      <trkpt lat="45.56115" lon="4.56255">
        <ele>584</ele>
        <time>2013-10-23T18:16:46Z</time>
      </trkpt>
      <trkpt lat="45.56116" lon="4.56266">
        <ele>584</ele>
        <time>2013-10-23T18:16:50Z</time>
      </trkpt>
      <trkpt lat="45.56118" lon="4.56275">
        <ele>584</ele>
        <time>2013-10-23T18:16:53Z</time>
      </trkpt>
      <trkpt lat="45.5612" lon="4.56285">
        <ele>584</ele>
        <time>2013-10-23T18:16:56Z</time>
      </trkpt>
      <trkpt lat="45.56122" lon="4.56296">
        <ele>584</ele>
        <time>2013-10-23T18:16:59Z</time>
      </trkpt>
      <trkpt lat="45.56124" lon="4.56308">
        <ele>585</ele>
        <time>2013-10-23T18:17:02Z</time>
      </trkpt>
      <trkpt lat="45.56127" lon="4.5632">
        <ele>585</ele>
        <time>2013-10-23T18:17:06Z</time>
      </trkpt>
      <trkpt lat="45.56128" lon="4.56328">
        <ele>585</ele>
        <time>2013-10-23T18:17:09Z</time>
      </trkpt>
      <trkpt lat="45.56127" lon="4.56338">
        <ele>585</ele>
        <time>2013-10-23T18:17:12Z</time>
      </trkpt>
      <trkpt lat="45.56128" lon="4.56347">
        <ele>585</ele>
        <time>2013-10-23T18:17:15Z</time>
      </trkpt>
      <trkpt lat="45.56129" lon="4.56357">
        <ele>585</ele>
        <time>2013-10-23T18:17:18Z</time>
      </trkpt>
      <trkpt lat="45.56128" lon="4.56369">
        <ele>585</ele>
        <time>2013-10-23T18:17:21Z</time>
      </trkpt>
      <trkpt lat="45.56128" lon="4.56379">
        <ele>584</ele>
        <time>2013-10-23T18:17:24Z</time>
      </trkpt>
      <trkpt lat="45.56127" lon="4.56389">
        <ele>583</ele>
        <time>2013-10-23T18:17:27Z</time>
      </trkpt>
      <trkpt lat="45.56125" lon="4.56403">
        <ele>582</ele>
        <time>2013-10-23T18:17:31Z</time>
      </trkpt>
      <trkpt lat="45.56123" lon="4.56413">
        <ele>581</ele>
        <time>2013-10-23T18:17:34Z</time>
      </trkpt>
      <trkpt lat="45.56121" lon="4.56422">
        <ele>581</ele>
        <time>2013-10-23T18:17:37Z</time>
      </trkpt>
      <trkpt lat="45.5612" lon="4.56431">
        <ele>580</ele>
        <time>2013-10-23T18:17:40Z</time>
      </trkpt>
      <trkpt lat="45.56119" lon="4.56445">
        <ele>579</ele>
        <time>2013-10-23T18:17:44Z</time>
      </trkpt>
      <trkpt lat="45.56121" lon="4.56456">
        <ele>578</ele>
        <time>2013-10-23T18:17:47Z</time>
      </trkpt>
      <trkpt lat="45.56121" lon="4.56464">
        <ele>577</ele>
        <time>2013-10-23T18:17:50Z</time>
      </trkpt>
      <trkpt lat="45.56124" lon="4.56474">
        <ele>577</ele>
        <time>2013-10-23T18:17:53Z</time>
      </trkpt>
      <trkpt lat="45.56126" lon="4.56484">
        <ele>577</ele>
        <time>2013-10-23T18:17:56Z</time>
      </trkpt>
      <trkpt lat="45.56128" lon="4.56494">
        <ele>577</ele>
        <time>2013-10-23T18:17:59Z</time>
      </trkpt>
      <trkpt lat="45.56131" lon="4.56504">
        <ele>577</ele>
        <time>2013-10-23T18:18:02Z</time>
      </trkpt>
      <trkpt lat="45.56133" lon="4.56514">
        <ele>577</ele>
        <time>2013-10-23T18:18:05Z</time>
      </trkpt>
      <trkpt lat="45.56134" lon="4.56524">
        <ele>577</ele>
        <time>2013-10-23T18:18:08Z</time>
      </trkpt>
      <trkpt lat="45.56136" lon="4.56534">
        <ele>577</ele>
        <time>2013-10-23T18:18:11Z</time>
      </trkpt>
      <trkpt lat="45.56137" lon="4.56544">
        <ele>577</ele>
        <time>2013-10-23T18:18:14Z</time>
      </trkpt>
      <trkpt lat="45.56138" lon="4.56554">
        <ele>577</ele>
        <time>2013-10-23T18:18:17Z</time>
      </trkpt>
      <trkpt lat="45.5614" lon="4.56563">
        <ele>577</ele>
        <time>2013-10-23T18:18:20Z</time>
      </trkpt>
      <trkpt lat="45.56141" lon="4.56572">
        <ele>577</ele>
        <time>2013-10-23T18:18:23Z</time>
      </trkpt>
      <trkpt lat="45.56143" lon="4.56581">
        <ele>577</ele>
        <time>2013-10-23T18:18:26Z</time>
      </trkpt>
      <trkpt lat="45.56144" lon="4.5659">
        <ele>577</ele>
        <time>2013-10-23T18:18:29Z</time>
      </trkpt>
      <trkpt lat="45.56143" lon="4.56598">
        <ele>577</ele>
        <time>2013-10-23T18:18:32Z</time>
      </trkpt>
      <trkpt lat="45.56144" lon="4.56611">
        <ele>577</ele>
        <time>2013-10-23T18:18:36Z</time>
      </trkpt>
      <trkpt lat="45.56144" lon="4.56621">
        <ele>577</ele>
        <time>2013-10-23T18:18:39Z</time>
      </trkpt>
      <trkpt lat="45.56144" lon="4.56631">
        <ele>577</ele>
        <time>2013-10-23T18:18:42Z</time>
      </trkpt>
      <trkpt lat="45.56142" lon="4.56641">
        <ele>577</ele>
        <time>2013-10-23T18:18:45Z</time>
      </trkpt>
      <trkpt lat="45.56141" lon="4.56651">
        <ele>577</ele>
        <time>2013-10-23T18:18:48Z</time>
      </trkpt>
      <trkpt lat="45.56139" lon="4.56662">
        <ele>577</ele>
        <time>2013-10-23T18:18:51Z</time>
      </trkpt>
      <trkpt lat="45.56139" lon="4.56672">
        <ele>577</ele>
        <time>2013-10-23T18:18:54Z</time>
      </trkpt>
      <trkpt lat="45.56137" lon="4.56682">
        <ele>577</ele>
        <time>2013-10-23T18:18:57Z</time>
      </trkpt>
      <trkpt lat="45.56136" lon="4.56693">
        <ele>578</ele>
        <time>2013-10-23T18:19:00Z</time>
      </trkpt>
      <trkpt lat="45.56136" lon="4.56708">
        <ele>578</ele>
        <time>2013-10-23T18:19:04Z</time>
      </trkpt>
      <trkpt lat="45.56136" lon="4.56718">
        <ele>578</ele>
        <time>2013-10-23T18:19:07Z</time>
      </trkpt>
      <trkpt lat="45.56137" lon="4.56727">
        <ele>578</ele>
        <time>2013-10-23T18:19:10Z</time>
      </trkpt>
      <trkpt lat="45.5614" lon="4.56737">
        <ele>578</ele>
        <time>2013-10-23T18:19:13Z</time>
      </trkpt>
      <trkpt lat="45.56142" lon="4.56748">
        <ele>578</ele>
        <time>2013-10-23T18:19:16Z</time>
      </trkpt>
      <trkpt lat="45.56145" lon="4.56759">
        <ele>578</ele>
        <time>2013-10-23T18:19:19Z</time>
      </trkpt>
      <trkpt lat="45.56146" lon="4.5677">
        <ele>578</ele>
        <time>2013-10-23T18:19:22Z</time>
      </trkpt>
      <trkpt lat="45.56148" lon="4.56781">
        <ele>578</ele>
        <time>2013-10-23T18:19:25Z</time>
      </trkpt>
      <trkpt lat="45.56149" lon="4.56792">
        <ele>578</ele>
        <time>2013-10-23T18:19:28Z</time>
      </trkpt>
      <trkpt lat="45.5615" lon="4.56803">
        <ele>578</ele>
        <time>2013-10-23T18:19:31Z</time>
      </trkpt>
      <trkpt lat="45.56149" lon="4.56815">
        <ele>578</ele>
        <time>2013-10-23T18:19:34Z</time>
      </trkpt>
      <trkpt lat="45.56147" lon="4.56826">
        <ele>578</ele>
        <time>2013-10-23T18:19:37Z</time>
      </trkpt>
      <trkpt lat="45.56146" lon="4.56837">
        <ele>578</ele>
        <time>2013-10-23T18:19:40Z</time>
      </trkpt>
      <trkpt lat="45.56144" lon="4.56848">
        <ele>578</ele>
        <time>2013-10-23T18:19:43Z</time>
      </trkpt>
      <trkpt lat="45.56142" lon="4.56858">
        <ele>577</ele>
        <time>2013-10-23T18:19:46Z</time>
      </trkpt>
      <trkpt lat="45.5614" lon="4.56869">
        <ele>577</ele>
        <time>2013-10-23T18:19:49Z</time>
      </trkpt>
      <trkpt lat="45.56137" lon="4.56882">
        <ele>577</ele>
        <time>2013-10-23T18:19:53Z</time>
      </trkpt>
      <trkpt lat="45.56135" lon="4.56892">
        <ele>577</ele>
        <time>2013-10-23T18:19:56Z</time>
      </trkpt>
      <trkpt lat="45.56132" lon="4.56901">
        <ele>577</ele>
        <time>2013-10-23T18:19:59Z</time>
      </trkpt>
      <trkpt lat="45.56132" lon="4.56912">
        <ele>577</ele>
        <time>2013-10-23T18:20:02Z</time>
      </trkpt>
      <trkpt lat="45.56133" lon="4.56921">
        <ele>577</ele>
        <time>2013-10-23T18:20:05Z</time>
      </trkpt>
      <trkpt lat="45.56136" lon="4.56931">
        <ele>577</ele>
        <time>2013-10-23T18:20:08Z</time>
      </trkpt>
      <trkpt lat="45.56138" lon="4.56939">
        <ele>577</ele>
        <time>2013-10-23T18:20:11Z</time>
      </trkpt>
      <trkpt lat="45.56138" lon="4.56944">
        <ele>575</ele>
        <time>2013-10-23T18:20:16Z</time>
      </trkpt>
      <trkpt lat="45.56138" lon="4.56947">
        <ele>575</ele>
        <time>2013-10-23T18:20:21Z</time>
      </trkpt>
      <trkpt lat="45.56139" lon="4.56952">
        <ele>575</ele>
        <time>2013-10-23T18:20:25Z</time>
      </trkpt>
      <trkpt lat="45.5614" lon="4.56958">
        <ele>575</ele>
        <time>2013-10-23T18:20:29Z</time>
      </trkpt>
      <trkpt lat="45.56141" lon="4.56962">
        <ele>575</ele>
        <time>2013-10-23T18:20:32Z</time>
      </trkpt>
      <trkpt lat="45.56142" lon="4.56967">
        <ele>575</ele>
        <time>2013-10-23T18:20:35Z</time>
      </trkpt>
      <trkpt lat="45.56142" lon="4.56975">
        <ele>575</ele>
        <time>2013-10-23T18:20:38Z</time>
      </trkpt>
      <trkpt lat="45.56142" lon="4.56982">
        <ele>575</ele>
        <time>2013-10-23T18:20:41Z</time>
      </trkpt>
      <trkpt lat="45.56143" lon="4.56988">
        <ele>575</ele>
        <time>2013-10-23T18:20:44Z</time>
      </trkpt>
      <trkpt lat="45.56143" lon="4.56993">
        <ele>575</ele>
        <time>2013-10-23T18:20:47Z</time>
      </trkpt>
      <trkpt lat="45.56144" lon="4.57">
        <ele>575</ele>
        <time>2013-10-23T18:20:51Z</time>
      </trkpt>
      <trkpt lat="45.56145" lon="4.57006">
        <ele>575</ele>
        <time>2013-10-23T18:20:54Z</time>
      </trkpt>
      <trkpt lat="45.56145" lon="4.57013">
        <ele>575</ele>
        <time>2013-10-23T18:20:57Z</time>
      </trkpt>
      <trkpt lat="45.56147" lon="4.5702">
        <ele>575</ele>
        <time>2013-10-23T18:21:00Z</time>
      </trkpt>
      <trkpt lat="45.56147" lon="4.57026">
        <ele>575</ele>
        <time>2013-10-23T18:21:03Z</time>
      </trkpt>
      <trkpt lat="45.56148" lon="4.57032">
        <ele>575</ele>
        <time>2013-10-23T18:21:06Z</time>
      </trkpt>
      <trkpt lat="45.56149" lon="4.57039">
        <ele>575</ele>
        <time>2013-10-23T18:21:10Z</time>
      </trkpt>
      <trkpt lat="45.5615" lon="4.57046">
        <ele>575</ele>
        <time>2013-10-23T18:21:13Z</time>
      </trkpt>
      <trkpt lat="45.5615" lon="4.57053">
        <ele>575</ele>
        <time>2013-10-23T18:21:16Z</time>
      </trkpt>
      <trkpt lat="45.5615" lon="4.57061">
        <ele>575</ele>
        <time>2013-10-23T18:21:20Z</time>
      </trkpt>
      <trkpt lat="45.56149" lon="4.57069">
        <ele>575</ele>
        <time>2013-10-23T18:21:24Z</time>
      </trkpt>
      <trkpt lat="45.56149" lon="4.57075">
        <ele>575</ele>
        <time>2013-10-23T18:21:27Z</time>
      </trkpt>
      <trkpt lat="45.56148" lon="4.57082">
        <ele>575</ele>
        <time>2013-10-23T18:21:30Z</time>
      </trkpt>
      <trkpt lat="45.56147" lon="4.5709">
        <ele>576</ele>
        <time>2013-10-23T18:21:34Z</time>
      </trkpt>
      <trkpt lat="45.56146" lon="4.57096">
        <ele>576</ele>
        <time>2013-10-23T18:21:37Z</time>
      </trkpt>
      <trkpt lat="45.56144" lon="4.57102">
        <ele>576</ele>
        <time>2013-10-23T18:21:40Z</time>
      </trkpt>
      <trkpt lat="45.56144" lon="4.57108">
        <ele>576</ele>
        <time>2013-10-23T18:21:43Z</time>
      </trkpt>
      <trkpt lat="45.56143" lon="4.57113">
        <ele>577</ele>
        <time>2013-10-23T18:21:46Z</time>
      </trkpt>
      <trkpt lat="45.5614" lon="4.5712">
        <ele>577</ele>
        <time>2013-10-23T18:21:49Z</time>
      </trkpt>
      <trkpt lat="45.56139" lon="4.57126">
        <ele>577</ele>
        <time>2013-10-23T18:21:52Z</time>
      </trkpt>
      <trkpt lat="45.56139" lon="4.57132">
        <ele>577</ele>
        <time>2013-10-23T18:21:55Z</time>
      </trkpt>
      <trkpt lat="45.56137" lon="4.57139">
        <ele>577</ele>
        <time>2013-10-23T18:21:58Z</time>
      </trkpt>
      <trkpt lat="45.56137" lon="4.57146">
        <ele>577</ele>
        <time>2013-10-23T18:22:01Z</time>
      </trkpt>
      <trkpt lat="45.56136" lon="4.57152">
        <ele>577</ele>
        <time>2013-10-23T18:22:04Z</time>
      </trkpt>
      <trkpt lat="45.56135" lon="4.57158">
        <ele>577</ele>
        <time>2013-10-23T18:22:07Z</time>
      </trkpt>
      <trkpt lat="45.56134" lon="4.57168">
        <ele>577</ele>
        <time>2013-10-23T18:22:11Z</time>
      </trkpt>
      <trkpt lat="45.56133" lon="4.57176">
        <ele>577</ele>
        <time>2013-10-23T18:22:14Z</time>
      </trkpt>
      <trkpt lat="45.56133" lon="4.57182">
        <ele>578</ele>
        <time>2013-10-23T18:22:17Z</time>
      </trkpt>
      <trkpt lat="45.56132" lon="4.57189">
        <ele>578</ele>
        <time>2013-10-23T18:22:20Z</time>
      </trkpt>
      <trkpt lat="45.5613" lon="4.57197">
        <ele>578</ele>
        <time>2013-10-23T18:22:23Z</time>
      </trkpt>
      <trkpt lat="45.56127" lon="4.57205">
        <ele>578</ele>
        <time>2013-10-23T18:22:26Z</time>
      </trkpt>
      <trkpt lat="45.56123" lon="4.57214">
        <ele>578</ele>
        <time>2013-10-23T18:22:29Z</time>
      </trkpt>
      <trkpt lat="45.56119" lon="4.57222">
        <ele>578</ele>
        <time>2013-10-23T18:22:32Z</time>
      </trkpt>
      <trkpt lat="45.56114" lon="4.5723">
        <ele>578</ele>
        <time>2013-10-23T18:22:35Z</time>
      </trkpt>
      <trkpt lat="45.56108" lon="4.57237">
        <ele>578</ele>
        <time>2013-10-23T18:22:38Z</time>
      </trkpt>
      <trkpt lat="45.56103" lon="4.57244">
        <ele>578</ele>
        <time>2013-10-23T18:22:41Z</time>
      </trkpt>
      <trkpt lat="45.56097" lon="4.57251">
        <ele>578</ele>
        <time>2013-10-23T18:22:44Z</time>
      </trkpt>
      <trkpt lat="45.56092" lon="4.57258">
        <ele>578</ele>
        <time>2013-10-23T18:22:47Z</time>
      </trkpt>
      <trkpt lat="45.56088" lon="4.57266">
        <ele>578</ele>
        <time>2013-10-23T18:22:50Z</time>
      </trkpt>
      <trkpt lat="45.56084" lon="4.57275">
        <ele>578</ele>
        <time>2013-10-23T18:22:53Z</time>
      </trkpt>
      <trkpt lat="45.56081" lon="4.57285">
        <ele>578</ele>
        <time>2013-10-23T18:22:56Z</time>
      </trkpt>
      <trkpt lat="45.56078" lon="4.57295">
        <ele>578</ele>
        <time>2013-10-23T18:22:59Z</time>
      </trkpt>
      <trkpt lat="45.56076" lon="4.57305">
        <ele>578</ele>
        <time>2013-10-23T18:23:02Z</time>
      </trkpt>
      <trkpt lat="45.56074" lon="4.57318">
        <ele>578</ele>
        <time>2013-10-23T18:23:06Z</time>
      </trkpt>
      <trkpt lat="45.56073" lon="4.57329">
        <ele>578</ele>
        <time>2013-10-23T18:23:09Z</time>
      </trkpt>
      <trkpt lat="45.5607" lon="4.57339">
        <ele>578</ele>
        <time>2013-10-23T18:23:12Z</time>
      </trkpt>
      <trkpt lat="45.56068" lon="4.57347">
        <ele>578</ele>
        <time>2013-10-23T18:23:15Z</time>
      </trkpt>
      <trkpt lat="45.56063" lon="4.5735">
        <ele>578</ele>
        <time>2013-10-23T18:23:18Z</time>
      </trkpt>
      <trkpt lat="45.56057" lon="4.57349">
        <ele>578</ele>
        <time>2013-10-23T18:23:21Z</time>
      </trkpt>
      <trkpt lat="45.56052" lon="4.57346">
        <ele>578</ele>
        <time>2013-10-23T18:23:24Z</time>
      </trkpt>
      <trkpt lat="45.56048" lon="4.57344">
        <ele>578</ele>
        <time>2013-10-23T18:23:27Z</time>
      </trkpt>
      <trkpt lat="45.56043" lon="4.57342">
        <ele>578</ele>
        <time>2013-10-23T18:23:31Z</time>
      </trkpt>
      <trkpt lat="45.56038" lon="4.57339">
        <ele>578</ele>
        <time>2013-10-23T18:23:35Z</time>
      </trkpt>
      <trkpt lat="45.56033" lon="4.57338">
        <ele>578</ele>
        <time>2013-10-23T18:23:38Z</time>
      </trkpt>
      <trkpt lat="45.56029" lon="4.57337">
        <ele>578</ele>
        <time>2013-10-23T18:23:41Z</time>
      </trkpt>
      <trkpt lat="45.56025" lon="4.57336">
        <ele>578</ele>
        <time>2013-10-23T18:23:44Z</time>
      </trkpt>
      <trkpt lat="45.56021" lon="4.57333">
        <ele>579</ele>
        <time>2013-10-23T18:23:47Z</time>
      </trkpt>
      <trkpt lat="45.56016" lon="4.57332">
        <ele>579</ele>
        <time>2013-10-23T18:23:50Z</time>
      </trkpt>
      <trkpt lat="45.56012" lon="4.5733">
        <ele>579</ele>
        <time>2013-10-23T18:23:53Z</time>
      </trkpt>
      <trkpt lat="45.56008" lon="4.57329">
        <ele>580</ele>
        <time>2013-10-23T18:23:56Z</time>
      </trkpt>
      <trkpt lat="45.56004" lon="4.57329">
        <ele>580</ele>
        <time>2013-10-23T18:23:59Z</time>
      </trkpt>
      <trkpt lat="45.56" lon="4.57328">
        <ele>581</ele>
        <time>2013-10-23T18:24:02Z</time>
      </trkpt>
      <trkpt lat="45.55995" lon="4.57327">
        <ele>581</ele>
        <time>2013-10-23T18:24:05Z</time>
      </trkpt>
      <trkpt lat="45.55991" lon="4.57327">
        <ele>581</ele>
        <time>2013-10-23T18:24:08Z</time>
      </trkpt>
      <trkpt lat="45.55985" lon="4.57326">
        <ele>581</ele>
        <time>2013-10-23T18:24:11Z</time>
      </trkpt>
      <trkpt lat="45.55978" lon="4.57325">
        <ele>582</ele>
        <time>2013-10-23T18:24:14Z</time>
      </trkpt>
      <trkpt lat="45.55972" lon="4.57322">
        <ele>582</ele>
        <time>2013-10-23T18:24:17Z</time>
      </trkpt>
      <trkpt lat="45.55962" lon="4.5732">
        <ele>582</ele>
        <time>2013-10-23T18:24:21Z</time>
      </trkpt>
      <trkpt lat="45.55954" lon="4.57316">
        <ele>582</ele>
        <time>2013-10-23T18:24:25Z</time>
      </trkpt>
      <trkpt lat="45.55948" lon="4.57311">
        <ele>582</ele>
        <time>2013-10-23T18:24:28Z</time>
      </trkpt>
      <trkpt lat="45.55941" lon="4.57306">
        <ele>582</ele>
        <time>2013-10-23T18:24:32Z</time>
      </trkpt>
      <trkpt lat="45.55937" lon="4.57303">
        <ele>582</ele>
        <time>2013-10-23T18:24:35Z</time>
      </trkpt>
      <trkpt lat="45.5593" lon="4.57299">
        <ele>581</ele>
        <time>2013-10-23T18:24:38Z</time>
      </trkpt>
      <trkpt lat="45.55924" lon="4.57296">
        <ele>580</ele>
        <time>2013-10-23T18:24:41Z</time>
      </trkpt>
      <trkpt lat="45.55917" lon="4.57293">
        <ele>579</ele>
        <time>2013-10-23T18:24:44Z</time>
      </trkpt>
      <trkpt lat="45.55909" lon="4.57289">
        <ele>578</ele>
        <time>2013-10-23T18:24:47Z</time>
      </trkpt>
      <trkpt lat="45.55901" lon="4.57285">
        <ele>577</ele>
        <time>2013-10-23T18:24:50Z</time>
      </trkpt>
      <trkpt lat="45.55895" lon="4.57282">
        <ele>576</ele>
        <time>2013-10-23T18:24:53Z</time>
      </trkpt>
      <trkpt lat="45.55888" lon="4.57278">
        <ele>575</ele>
        <time>2013-10-23T18:24:56Z</time>
      </trkpt>
      <trkpt lat="45.5588" lon="4.57275">
        <ele>574</ele>
        <time>2013-10-23T18:24:59Z</time>
      </trkpt>
      <trkpt lat="45.55872" lon="4.57273">
        <ele>573</ele>
        <time>2013-10-23T18:25:02Z</time>
      </trkpt>
      <trkpt lat="45.55864" lon="4.57271">
        <ele>573</ele>
        <time>2013-10-23T18:25:05Z</time>
      </trkpt>
      <trkpt lat="45.55857" lon="4.57268">
        <ele>572</ele>
        <time>2013-10-23T18:25:08Z</time>
      </trkpt>
      <trkpt lat="45.55848" lon="4.57265">
        <ele>572</ele>
        <time>2013-10-23T18:25:11Z</time>
      </trkpt>
      <trkpt lat="45.55839" lon="4.57259">
        <ele>572</ele>
        <time>2013-10-23T18:25:14Z</time>
      </trkpt>
      <trkpt lat="45.55831" lon="4.57254">
        <ele>572</ele>
        <time>2013-10-23T18:25:17Z</time>
      </trkpt>
      <trkpt lat="45.55823" lon="4.57249">
        <ele>572</ele>
        <time>2013-10-23T18:25:20Z</time>
      </trkpt>
      <trkpt lat="45.55815" lon="4.57243">
        <ele>571</ele>
        <time>2013-10-23T18:25:23Z</time>
      </trkpt>
      <trkpt lat="45.55806" lon="4.57239">
        <ele>571</ele>
        <time>2013-10-23T18:25:26Z</time>
      </trkpt>
      <trkpt lat="45.55796" lon="4.57234">
        <ele>570</ele>
        <time>2013-10-23T18:25:29Z</time>
      </trkpt>
      <trkpt lat="45.55788" lon="4.5723">
        <ele>569</ele>
        <time>2013-10-23T18:25:32Z</time>
      </trkpt>
      <trkpt lat="45.5578" lon="4.57227">
        <ele>568</ele>
        <time>2013-10-23T18:25:35Z</time>
      </trkpt>
      <trkpt lat="45.55773" lon="4.57225">
        <ele>567</ele>
        <time>2013-10-23T18:25:38Z</time>
      </trkpt>
      <trkpt lat="45.55765" lon="4.57224">
        <ele>566</ele>
        <time>2013-10-23T18:25:41Z</time>
      </trkpt>
      <trkpt lat="45.55759" lon="4.57223">
        <ele>564</ele>
        <time>2013-10-23T18:25:44Z</time>
      </trkpt>
      <trkpt lat="45.55753" lon="4.57224">
        <ele>563</ele>
        <time>2013-10-23T18:25:47Z</time>
      </trkpt>
      <trkpt lat="45.55746" lon="4.57225">
        <ele>562</ele>
        <time>2013-10-23T18:25:50Z</time>
      </trkpt>
      <trkpt lat="45.55739" lon="4.57224">
        <ele>561</ele>
        <time>2013-10-23T18:25:53Z</time>
      </trkpt>
      <trkpt lat="45.55732" lon="4.57224">
        <ele>560</ele>
        <time>2013-10-23T18:25:56Z</time>
      </trkpt>
      <trkpt lat="45.55724" lon="4.57224">
        <ele>559</ele>
        <time>2013-10-23T18:25:59Z</time>
      </trkpt>
      <trkpt lat="45.55715" lon="4.57222">
        <ele>559</ele>
        <time>2013-10-23T18:26:02Z</time>
      </trkpt>
      <trkpt lat="45.55707" lon="4.57222">
        <ele>558</ele>
        <time>2013-10-23T18:26:05Z</time>
      </trkpt>
      <trkpt lat="45.55699" lon="4.5722">
        <ele>558</ele>
        <time>2013-10-23T18:26:08Z</time>
      </trkpt>
      <trkpt lat="45.55691" lon="4.57219">
        <ele>557</ele>
        <time>2013-10-23T18:26:11Z</time>
      </trkpt>
      <trkpt lat="45.55684" lon="4.57216">
        <ele>557</ele>
        <time>2013-10-23T18:26:14Z</time>
      </trkpt>
      <trkpt lat="45.55678" lon="4.57214">
        <ele>557</ele>
        <time>2013-10-23T18:26:17Z</time>
      </trkpt>
      <trkpt lat="45.55672" lon="4.57211">
        <ele>557</ele>
        <time>2013-10-23T18:26:20Z</time>
      </trkpt>
      <trkpt lat="45.55666" lon="4.57209">
        <ele>557</ele>
        <time>2013-10-23T18:26:23Z</time>
      </trkpt>
      <trkpt lat="45.5566" lon="4.57206">
        <ele>557</ele>
        <time>2013-10-23T18:26:26Z</time>
      </trkpt>
      <trkpt lat="45.55654" lon="4.57205">
        <ele>557</ele>
        <time>2013-10-23T18:26:29Z</time>
      </trkpt>
      <trkpt lat="45.55648" lon="4.57203">
        <ele>557</ele>
        <time>2013-10-23T18:26:32Z</time>
      </trkpt>
      <trkpt lat="45.5564" lon="4.57201">
        <ele>557</ele>
        <time>2013-10-23T18:26:35Z</time>
      </trkpt>
      <trkpt lat="45.55633" lon="4.57199">
        <ele>557</ele>
        <time>2013-10-23T18:26:38Z</time>
      </trkpt>
      <trkpt lat="45.55627" lon="4.57198">
        <ele>557</ele>
        <time>2013-10-23T18:26:41Z</time>
      </trkpt>
      <trkpt lat="45.5562" lon="4.57195">
        <ele>557</ele>
        <time>2013-10-23T18:26:44Z</time>
      </trkpt>
      <trkpt lat="45.55613" lon="4.57193">
        <ele>557</ele>
        <time>2013-10-23T18:26:47Z</time>
      </trkpt>
      <trkpt lat="45.55606" lon="4.5719">
        <ele>557</ele>
        <time>2013-10-23T18:26:50Z</time>
      </trkpt>
      <trkpt lat="45.55599" lon="4.57189">
        <ele>557</ele>
        <time>2013-10-23T18:26:53Z</time>
      </trkpt>
      <trkpt lat="45.55594" lon="4.57188">
        <ele>557</ele>
        <time>2013-10-23T18:26:56Z</time>
      </trkpt>
      <trkpt lat="45.55587" lon="4.57186">
        <ele>556</ele>
        <time>2013-10-23T18:26:59Z</time>
      </trkpt>
      <trkpt lat="45.55578" lon="4.57185">
        <ele>556</ele>
        <time>2013-10-23T18:27:03Z</time>
      </trkpt>
      <trkpt lat="45.55571" lon="4.57185">
        <ele>556</ele>
        <time>2013-10-23T18:27:06Z</time>
      </trkpt>
      <trkpt lat="45.55565" lon="4.57184">
        <ele>556</ele>
        <time>2013-10-23T18:27:09Z</time>
      </trkpt>
      <trkpt lat="45.55559" lon="4.57184">
        <ele>556</ele>
        <time>2013-10-23T18:27:12Z</time>
      </trkpt>
      <trkpt lat="45.55552" lon="4.57184">
        <ele>556</ele>
        <time>2013-10-23T18:27:15Z</time>
      </trkpt>
      <trkpt lat="45.55546" lon="4.57183">
        <ele>556</ele>
        <time>2013-10-23T18:27:18Z</time>
      </trkpt>
      <trkpt lat="45.5554" lon="4.57183">
        <ele>556</ele>
        <time>2013-10-23T18:27:21Z</time>
      </trkpt>
      <trkpt lat="45.55534" lon="4.57182">
        <ele>556</ele>
        <time>2013-10-23T18:27:24Z</time>
      </trkpt>
      <trkpt lat="45.55528" lon="4.57182">
        <ele>556</ele>
        <time>2013-10-23T18:27:27Z</time>
      </trkpt>
      <trkpt lat="45.55523" lon="4.57181">
        <ele>556</ele>
        <time>2013-10-23T18:27:30Z</time>
      </trkpt>
      <trkpt lat="45.55517" lon="4.57181">
        <ele>556</ele>
        <time>2013-10-23T18:27:34Z</time>
      </trkpt>
      <trkpt lat="45.55513" lon="4.57181">
        <ele>556</ele>
        <time>2013-10-23T18:27:37Z</time>
      </trkpt>
      <trkpt lat="45.5551" lon="4.57182">
        <ele>556</ele>
        <time>2013-10-23T18:27:40Z</time>
      </trkpt>
      <trkpt lat="45.55505" lon="4.57183">
        <ele>557</ele>
        <time>2013-10-23T18:27:43Z</time>
      </trkpt>
      <trkpt lat="45.55501" lon="4.57184">
        <ele>557</ele>
        <time>2013-10-23T18:27:46Z</time>
      </trkpt>
      <trkpt lat="45.55497" lon="4.57185">
        <ele>558</ele>
        <time>2013-10-23T18:27:49Z</time>
      </trkpt>
      <trkpt lat="45.55493" lon="4.57187">
        <ele>558</ele>
        <time>2013-10-23T18:27:53Z</time>
      </trkpt>
      <trkpt lat="45.55488" lon="4.57187">
        <ele>558</ele>
        <time>2013-10-23T18:27:56Z</time>
      </trkpt>
      <trkpt lat="45.55484" lon="4.57188">
        <ele>558</ele>
        <time>2013-10-23T18:27:59Z</time>
      </trkpt>
      <trkpt lat="45.5548" lon="4.57189">
        <ele>558</ele>
        <time>2013-10-23T18:28:02Z</time>
      </trkpt>
      <trkpt lat="45.55476" lon="4.57191">
        <ele>558</ele>
        <time>2013-10-23T18:28:06Z</time>
      </trkpt>
      <trkpt lat="45.55474" lon="4.57193">
        <ele>558</ele>
        <time>2013-10-23T18:28:09Z</time>
      </trkpt>
      <trkpt lat="45.5547" lon="4.57196">
        <ele>558</ele>
        <time>2013-10-23T18:28:13Z</time>
      </trkpt>
      <trkpt lat="45.55465" lon="4.57201">
        <ele>558</ele>
        <time>2013-10-23T18:28:16Z</time>
      </trkpt>
      <trkpt lat="45.55462" lon="4.57204">
        <ele>558</ele>
        <time>2013-10-23T18:28:19Z</time>
      </trkpt>
      <trkpt lat="45.55457" lon="4.57208">
        <ele>558</ele>
        <time>2013-10-23T18:28:22Z</time>
      </trkpt>
      <trkpt lat="45.55452" lon="4.57213">
        <ele>558</ele>
        <time>2013-10-23T18:28:26Z</time>
      </trkpt>
      <trkpt lat="45.55448" lon="4.57218">
        <ele>558</ele>
        <time>2013-10-23T18:28:29Z</time>
      </trkpt>
      <trkpt lat="45.55443" lon="4.57225">
        <ele>558</ele>
        <time>2013-10-23T18:28:33Z</time>
      </trkpt>
      <trkpt lat="45.55437" lon="4.57232">
        <ele>558</ele>
        <time>2013-10-23T18:28:36Z</time>
      </trkpt>
      <trkpt lat="45.55434" lon="4.57242">
        <ele>559</ele>
        <time>2013-10-23T18:28:39Z</time>
      </trkpt>
      <trkpt lat="45.55431" lon="4.5725">
        <ele>560</ele>
        <time>2013-10-23T18:28:42Z</time>
      </trkpt>
      <trkpt lat="45.55428" lon="4.57258">
        <ele>561</ele>
        <time>2013-10-23T18:28:45Z</time>
      </trkpt>
      <trkpt lat="45.55424" lon="4.57264">
        <ele>561</ele>
        <time>2013-10-23T18:28:48Z</time>
      </trkpt>
      <trkpt lat="45.55419" lon="4.57273">
        <ele>561</ele>
        <time>2013-10-23T18:28:52Z</time>
      </trkpt>
      <trkpt lat="45.55415" lon="4.57282">
        <ele>561</ele>
        <time>2013-10-23T18:28:55Z</time>
      </trkpt>
      <trkpt lat="45.55412" lon="4.57291">
        <ele>561</ele>
        <time>2013-10-23T18:28:58Z</time>
      </trkpt>
      <trkpt lat="45.55408" lon="4.57299">
        <ele>561</ele>
        <time>2013-10-23T18:29:01Z</time>
      </trkpt>
      <trkpt lat="45.55406" lon="4.57307">
        <ele>561</ele>
        <time>2013-10-23T18:29:04Z</time>
      </trkpt>
      <trkpt lat="45.55403" lon="4.57318">
        <ele>561</ele>
        <time>2013-10-23T18:29:08Z</time>
      </trkpt>
      <trkpt lat="45.554" lon="4.57325">
        <ele>561</ele>
        <time>2013-10-23T18:29:11Z</time>
      </trkpt>
      <trkpt lat="45.55396" lon="4.57331">
        <ele>561</ele>
        <time>2013-10-23T18:29:14Z</time>
      </trkpt>
      <trkpt lat="45.55396" lon="4.57338">
        <ele>560</ele>
        <time>2013-10-23T18:29:17Z</time>
      </trkpt>
      <trkpt lat="45.55395" lon="4.57345">
        <ele>559</ele>
        <time>2013-10-23T18:29:20Z</time>
      </trkpt>
      <trkpt lat="45.55394" lon="4.57353">
        <ele>558</ele>
        <time>2013-10-23T18:29:23Z</time>
      </trkpt>
      <trkpt lat="45.55392" lon="4.5736">
        <ele>557</ele>
        <time>2013-10-23T18:29:26Z</time>
      </trkpt>
      <trkpt lat="45.55391" lon="4.57366">
        <ele>556</ele>
        <time>2013-10-23T18:29:29Z</time>
      </trkpt>
      <trkpt lat="45.55388" lon="4.57372">
        <ele>555</ele>
        <time>2013-10-23T18:29:32Z</time>
      </trkpt>
      <trkpt lat="45.55385" lon="4.57378">
        <ele>554</ele>
        <time>2013-10-23T18:29:35Z</time>
      </trkpt>
      <trkpt lat="45.55381" lon="4.57383">
        <ele>552</ele>
        <time>2013-10-23T18:29:38Z</time>
      </trkpt>
      <trkpt lat="45.55378" lon="4.57388">
        <ele>552</ele>
        <time>2013-10-23T18:29:41Z</time>
      </trkpt>
      <trkpt lat="45.55372" lon="4.57392">
        <ele>552</ele>
        <time>2013-10-23T18:29:44Z</time>
      </trkpt>
      <trkpt lat="45.55367" lon="4.57397">
        <ele>551</ele>
        <time>2013-10-23T18:29:47Z</time>
      </trkpt>
      <trkpt lat="45.55362" lon="4.57402">
        <ele>550</ele>
        <time>2013-10-23T18:29:50Z</time>
      </trkpt>
      <trkpt lat="45.55357" lon="4.57407">
        <ele>549</ele>
        <time>2013-10-23T18:29:54Z</time>
      </trkpt>
      <trkpt lat="45.55351" lon="4.57412">
        <ele>548</ele>
        <time>2013-10-23T18:29:58Z</time>
      </trkpt>
      <trkpt lat="45.55347" lon="4.57416">
        <ele>547</ele>
        <time>2013-10-23T18:30:01Z</time>
      </trkpt>
      <trkpt lat="45.55344" lon="4.57419">
        <ele>546</ele>
        <time>2013-10-23T18:30:04Z</time>
      </trkpt>
      <trkpt lat="45.5534" lon="4.57417">
        <ele>544</ele>
        <time>2013-10-23T18:30:07Z</time>
      </trkpt>
      <trkpt lat="45.55336" lon="4.57416">
        <ele>543</ele>
        <time>2013-10-23T18:30:10Z</time>
      </trkpt>
      <trkpt lat="45.55332" lon="4.57418">
        <ele>542</ele>
        <time>2013-10-23T18:30:13Z</time>
      </trkpt>
      <trkpt lat="45.55327" lon="4.57421">
        <ele>541</ele>
        <time>2013-10-23T18:30:17Z</time>
      </trkpt>
      <trkpt lat="45.55324" lon="4.57423">
        <ele>541</ele>
        <time>2013-10-23T18:30:20Z</time>
      </trkpt>
      <trkpt lat="45.5532" lon="4.57425">
        <ele>540</ele>
        <time>2013-10-23T18:30:23Z</time>
      </trkpt>
      <trkpt lat="45.55316" lon="4.57423">
        <ele>538</ele>
        <time>2013-10-23T18:30:26Z</time>
      </trkpt>
      <trkpt lat="45.55311" lon="4.57423">
        <ele>537</ele>
        <time>2013-10-23T18:30:29Z</time>
      </trkpt>
      <trkpt lat="45.55308" lon="4.57425">
        <ele>536</ele>
        <time>2013-10-23T18:30:32Z</time>
      </trkpt>
      <trkpt lat="45.55304" lon="4.5743">
        <ele>535</ele>
        <time>2013-10-23T18:30:36Z</time>
      </trkpt>
      <trkpt lat="45.55302" lon="4.57435">
        <ele>533</ele>
        <time>2013-10-23T18:30:39Z</time>
      </trkpt>
      <trkpt lat="45.55297" lon="4.57433">
        <ele>533</ele>
        <time>2013-10-23T18:30:42Z</time>
      </trkpt>
      <trkpt lat="45.55293" lon="4.57429">
        <ele>532</ele>
        <time>2013-10-23T18:30:45Z</time>
      </trkpt>
      <trkpt lat="45.55289" lon="4.57428">
        <ele>531</ele>
        <time>2013-10-23T18:30:48Z</time>
      </trkpt>
      <trkpt lat="45.55286" lon="4.57432">
        <ele>530</ele>
        <time>2013-10-23T18:30:51Z</time>
      </trkpt>
      <trkpt lat="45.55282" lon="4.57435">
        <ele>529</ele>
        <time>2013-10-23T18:30:54Z</time>
      </trkpt>
      <trkpt lat="45.5528" lon="4.57441">
        <ele>528</ele>
        <time>2013-10-23T18:30:57Z</time>
      </trkpt>
      <trkpt lat="45.5528" lon="4.57449">
        <ele>527</ele>
        <time>2013-10-23T18:31:00Z</time>
      </trkpt>
      <trkpt lat="45.5528" lon="4.57458">
        <ele>527</ele>
        <time>2013-10-23T18:31:03Z</time>
      </trkpt>
      <trkpt lat="45.5528" lon="4.57464">
        <ele>526</ele>
        <time>2013-10-23T18:31:06Z</time>
      </trkpt>
      <trkpt lat="45.55278" lon="4.57471">
        <ele>526</ele>
        <time>2013-10-23T18:31:09Z</time>
      </trkpt>
      <trkpt lat="45.55276" lon="4.57477">
        <ele>526</ele>
        <time>2013-10-23T18:31:12Z</time>
      </trkpt>
      <trkpt lat="45.55272" lon="4.57483">
        <ele>525</ele>
        <time>2013-10-23T18:31:15Z</time>
      </trkpt>
      <trkpt lat="45.5527" lon="4.5749">
        <ele>524</ele>
        <time>2013-10-23T18:31:20Z</time>
      </trkpt>
      <trkpt lat="45.55267" lon="4.57498">
        <ele>523</ele>
        <time>2013-10-23T18:31:23Z</time>
      </trkpt>
      <trkpt lat="45.55263" lon="4.57503">
        <ele>522</ele>
        <time>2013-10-23T18:31:26Z</time>
      </trkpt>
      <trkpt lat="45.55259" lon="4.57508">
        <ele>521</ele>
        <time>2013-10-23T18:31:29Z</time>
      </trkpt>
      <trkpt lat="45.55254" lon="4.57515">
        <ele>520</ele>
        <time>2013-10-23T18:31:32Z</time>
      </trkpt>
      <trkpt lat="45.55251" lon="4.57522">
        <ele>519</ele>
        <time>2013-10-23T18:31:35Z</time>
      </trkpt>
      <trkpt lat="45.55246" lon="4.5753">
        <ele>519</ele>
        <time>2013-10-23T18:31:38Z</time>
      </trkpt>
      <trkpt lat="45.55239" lon="4.57537">
        <ele>518</ele>
        <time>2013-10-23T18:31:41Z</time>
      </trkpt>
      <trkpt lat="45.55233" lon="4.57543">
        <ele>518</ele>
        <time>2013-10-23T18:31:44Z</time>
      </trkpt>
      <trkpt lat="45.55228" lon="4.57549">
        <ele>517</ele>
        <time>2013-10-23T18:31:47Z</time>
      </trkpt>
      <trkpt lat="45.55222" lon="4.57556">
        <ele>516</ele>
        <time>2013-10-23T18:31:50Z</time>
      </trkpt>
      <trkpt lat="45.55216" lon="4.57562">
        <ele>516</ele>
        <time>2013-10-23T18:31:53Z</time>
      </trkpt>
      <trkpt lat="45.5521" lon="4.57568">
        <ele>516</ele>
        <time>2013-10-23T18:31:56Z</time>
      </trkpt>
      <trkpt lat="45.55204" lon="4.57574">
        <ele>516</ele>
        <time>2013-10-23T18:31:59Z</time>
      </trkpt>
      <trkpt lat="45.55198" lon="4.57579">
        <ele>515</ele>
        <time>2013-10-23T18:32:02Z</time>
      </trkpt>
      <trkpt lat="45.55193" lon="4.57584">
        <ele>514</ele>
        <time>2013-10-23T18:32:05Z</time>
      </trkpt>
      <trkpt lat="45.55187" lon="4.5759">
        <ele>514</ele>
        <time>2013-10-23T18:32:08Z</time>
      </trkpt>
      <trkpt lat="45.55181" lon="4.57595">
        <ele>513</ele>
        <time>2013-10-23T18:32:11Z</time>
      </trkpt>
      <trkpt lat="45.55175" lon="4.57599">
        <ele>513</ele>
        <time>2013-10-23T18:32:14Z</time>
      </trkpt>
      <trkpt lat="45.55169" lon="4.57601">
        <ele>512</ele>
        <time>2013-10-23T18:32:17Z</time>
      </trkpt>
      <trkpt lat="45.55159" lon="4.57605">
        <ele>512</ele>
        <time>2013-10-23T18:32:21Z</time>
      </trkpt>
      <trkpt lat="45.55154" lon="4.57608">
        <ele>511</ele>
        <time>2013-10-23T18:32:24Z</time>
      </trkpt>
      <trkpt lat="45.55146" lon="4.57619">
        <ele>511</ele>
        <time>2013-10-23T18:32:28Z</time>
      </trkpt>
      <trkpt lat="45.55142" lon="4.57626">
        <ele>511</ele>
        <time>2013-10-23T18:32:31Z</time>
      </trkpt>
      <trkpt lat="45.55137" lon="4.57632">
        <ele>510</ele>
        <time>2013-10-23T18:32:34Z</time>
      </trkpt>
      <trkpt lat="45.55132" lon="4.57637">
        <ele>510</ele>
        <time>2013-10-23T18:32:37Z</time>
      </trkpt>
      <trkpt lat="45.55127" lon="4.57643">
        <ele>510</ele>
        <time>2013-10-23T18:32:40Z</time>
      </trkpt>
      <trkpt lat="45.55121" lon="4.57648">
        <ele>510</ele>
        <time>2013-10-23T18:32:43Z</time>
      </trkpt>
      <trkpt lat="45.55115" lon="4.57652">
        <ele>510</ele>
        <time>2013-10-23T18:32:46Z</time>
      </trkpt>
      <trkpt lat="45.55109" lon="4.57656">
        <ele>509</ele>
        <time>2013-10-23T18:32:49Z</time>
      </trkpt>
      <trkpt lat="45.55102" lon="4.57661">
        <ele>508</ele>
        <time>2013-10-23T18:32:52Z</time>
      </trkpt>
      <trkpt lat="45.55096" lon="4.57667">
        <ele>508</ele>
        <time>2013-10-23T18:32:55Z</time>
      </trkpt>
      <trkpt lat="45.5509" lon="4.57672">
        <ele>508</ele>
        <time>2013-10-23T18:32:58Z</time>
      </trkpt>
      <trkpt lat="45.55085" lon="4.57677">
        <ele>507</ele>
        <time>2013-10-23T18:33:01Z</time>
      </trkpt>
      <trkpt lat="45.55079" lon="4.57682">
        <ele>507</ele>
        <time>2013-10-23T18:33:04Z</time>
      </trkpt>
      <trkpt lat="45.55073" lon="4.57687">
        <ele>506</ele>
        <time>2013-10-23T18:33:07Z</time>
      </trkpt>
      <trkpt lat="45.55067" lon="4.57691">
        <ele>506</ele>
        <time>2013-10-23T18:33:10Z</time>
      </trkpt>
      <trkpt lat="45.5506" lon="4.57692">
        <ele>505</ele>
        <time>2013-10-23T18:33:13Z</time>
      </trkpt>
      <trkpt lat="45.55053" lon="4.57693">
        <ele>504</ele>
        <time>2013-10-23T18:33:16Z</time>
      </trkpt>
      <trkpt lat="45.55045" lon="4.57694">
        <ele>503</ele>
        <time>2013-10-23T18:33:19Z</time>
      </trkpt>
      <trkpt lat="45.55038" lon="4.57695">
        <ele>502</ele>
        <time>2013-10-23T18:33:22Z</time>
      </trkpt>
      <trkpt lat="45.55031" lon="4.57696">
        <ele>501</ele>
        <time>2013-10-23T18:33:25Z</time>
      </trkpt>
      <trkpt lat="45.55024" lon="4.57699">
        <ele>500</ele>
        <time>2013-10-23T18:33:28Z</time>
      </trkpt>
      <trkpt lat="45.55017" lon="4.57701">
        <ele>499</ele>
        <time>2013-10-23T18:33:31Z</time>
      </trkpt>
      <trkpt lat="45.5501" lon="4.57701">
        <ele>498</ele>
        <time>2013-10-23T18:33:34Z</time>
      </trkpt>
      <trkpt lat="45.55003" lon="4.57702">
        <ele>498</ele>
        <time>2013-10-23T18:33:37Z</time>
      </trkpt>
      <trkpt lat="45.54996" lon="4.57703">
        <ele>497</ele>
        <time>2013-10-23T18:33:40Z</time>
      </trkpt>
      <trkpt lat="45.5499" lon="4.57709">
        <ele>496</ele>
        <time>2013-10-23T18:33:43Z</time>
      </trkpt>
      <trkpt lat="45.54985" lon="4.57718">
        <ele>496</ele>
        <time>2013-10-23T18:33:46Z</time>
      </trkpt>
      <trkpt lat="45.54982" lon="4.57729">
        <ele>495</ele>
        <time>2013-10-23T18:33:49Z</time>
      </trkpt>
      <trkpt lat="45.5498" lon="4.57741">
        <ele>494</ele>
        <time>2013-10-23T18:33:52Z</time>
      </trkpt>
      <trkpt lat="45.54976" lon="4.57752">
        <ele>494</ele>
        <time>2013-10-23T18:33:55Z</time>
      </trkpt>
      <trkpt lat="45.54971" lon="4.57762">
        <ele>493</ele>
        <time>2013-10-23T18:33:58Z</time>
      </trkpt>
      <trkpt lat="45.54968" lon="4.57772">
        <ele>493</ele>
        <time>2013-10-23T18:34:01Z</time>
      </trkpt>
      <trkpt lat="45.54966" lon="4.57783">
        <ele>493</ele>
        <time>2013-10-23T18:34:04Z</time>
      </trkpt>
      <trkpt lat="45.54963" lon="4.57792">
        <ele>493</ele>
        <time>2013-10-23T18:34:07Z</time>
      </trkpt>
      <trkpt lat="45.54961" lon="4.57801">
        <ele>493</ele>
        <time>2013-10-23T18:34:10Z</time>
      </trkpt>
      <trkpt lat="45.54959" lon="4.57809">
        <ele>493</ele>
        <time>2013-10-23T18:34:13Z</time>
      </trkpt>
      <trkpt lat="45.54955" lon="4.57817">
        <ele>493</ele>
        <time>2013-10-23T18:34:16Z</time>
      </trkpt>
      <trkpt lat="45.54952" lon="4.57826">
        <ele>493</ele>
        <time>2013-10-23T18:34:19Z</time>
      </trkpt>
      <trkpt lat="45.54949" lon="4.57834">
        <ele>493</ele>
        <time>2013-10-23T18:34:22Z</time>
      </trkpt>
      <trkpt lat="45.54946" lon="4.57842">
        <ele>493</ele>
        <time>2013-10-23T18:34:25Z</time>
      </trkpt>
      <trkpt lat="45.54943" lon="4.5785">
        <ele>493</ele>
        <time>2013-10-23T18:34:28Z</time>
      </trkpt>
      <trkpt lat="45.54939" lon="4.57858">
        <ele>493</ele>
        <time>2013-10-23T18:34:31Z</time>
      </trkpt>
      <trkpt lat="45.54935" lon="4.57866">
        <ele>493</ele>
        <time>2013-10-23T18:34:34Z</time>
      </trkpt>
      <trkpt lat="45.54932" lon="4.57875">
        <ele>492</ele>
        <time>2013-10-23T18:34:37Z</time>
      </trkpt>
      <trkpt lat="45.54927" lon="4.57882">
        <ele>492</ele>
        <time>2013-10-23T18:34:40Z</time>
      </trkpt>
      <trkpt lat="45.54923" lon="4.5789">
        <ele>492</ele>
        <time>2013-10-23T18:34:43Z</time>
      </trkpt>
      <trkpt lat="45.54919" lon="4.57898">
        <ele>492</ele>
        <time>2013-10-23T18:34:46Z</time>
      </trkpt>
      <trkpt lat="45.54916" lon="4.57905">
        <ele>492</ele>
        <time>2013-10-23T18:34:49Z</time>
      </trkpt>
      <trkpt lat="45.54912" lon="4.57913">
        <ele>492</ele>
        <time>2013-10-23T18:34:52Z</time>
      </trkpt>
      <trkpt lat="45.54907" lon="4.5792">
        <ele>492</ele>
        <time>2013-10-23T18:34:55Z</time>
      </trkpt>
      <trkpt lat="45.54902" lon="4.57926">
        <ele>492</ele>
        <time>2013-10-23T18:34:58Z</time>
      </trkpt>
      <trkpt lat="45.54897" lon="4.57932">
        <ele>491</ele>
        <time>2013-10-23T18:35:01Z</time>
      </trkpt>
      <trkpt lat="45.54892" lon="4.57937">
        <ele>491</ele>
        <time>2013-10-23T18:35:04Z</time>
      </trkpt>
      <trkpt lat="45.54887" lon="4.57943">
        <ele>491</ele>
        <time>2013-10-23T18:35:07Z</time>
      </trkpt>
      <trkpt lat="45.54882" lon="4.57948">
        <ele>490</ele>
        <time>2013-10-23T18:35:10Z</time>
      </trkpt>
      <trkpt lat="45.54878" lon="4.57951">
        <ele>489</ele>
        <time>2013-10-23T18:35:13Z</time>
      </trkpt>
      <trkpt lat="45.54874" lon="4.57955">
        <ele>488</ele>
        <time>2013-10-23T18:35:17Z</time>
      </trkpt>
      <trkpt lat="45.5487" lon="4.57958">
        <ele>487</ele>
        <time>2013-10-23T18:35:21Z</time>
      </trkpt>
      <trkpt lat="45.54867" lon="4.57961">
        <ele>486</ele>
        <time>2013-10-23T18:35:25Z</time>
      </trkpt>
      <trkpt lat="45.54865" lon="4.57963">
        <ele>485</ele>
        <time>2013-10-23T18:35:28Z</time>
      </trkpt>
      <trkpt lat="45.54864" lon="4.57964">
        <ele>485</ele>
        <time>2013-10-23T18:35:37Z</time>
      </trkpt>
      <trkpt lat="45.54863" lon="4.57965">
        <ele>485</ele>
        <time>2013-10-23T18:35:44Z</time>
      </trkpt>
      <trkpt lat="45.54861" lon="4.57967">
        <ele>485</ele>
        <time>2013-10-23T18:35:47Z</time>
      </trkpt>
      <trkpt lat="45.54858" lon="4.57968">
        <ele>485</ele>
        <time>2013-10-23T18:35:51Z</time>
      </trkpt>
      <trkpt lat="45.54855" lon="4.57968">
        <ele>485</ele>
        <time>2013-10-23T18:35:55Z</time>
      </trkpt>
      <trkpt lat="45.54854" lon="4.57971">
        <ele>485</ele>
        <time>2013-10-23T18:35:58Z</time>
      </trkpt>
      <trkpt lat="45.54851" lon="4.57971">
        <ele>484</ele>
        <time>2013-10-23T18:36:01Z</time>
      </trkpt>
      <trkpt lat="45.54848" lon="4.57971">
        <ele>484</ele>
        <time>2013-10-23T18:36:04Z</time>
      </trkpt>
      <trkpt lat="45.54844" lon="4.57971">
        <ele>484</ele>
        <time>2013-10-23T18:36:08Z</time>
      </trkpt>
      <trkpt lat="45.5484" lon="4.57972">
        <ele>483</ele>
        <time>2013-10-23T18:36:12Z</time>
      </trkpt>
      <trkpt lat="45.54838" lon="4.57976">
        <ele>483</ele>
        <time>2013-10-23T18:36:16Z</time>
      </trkpt>
      <trkpt lat="45.54837" lon="4.5798">
        <ele>483</ele>
        <time>2013-10-23T18:36:19Z</time>
      </trkpt>
      <trkpt lat="45.54838" lon="4.57985">
        <ele>483</ele>
        <time>2013-10-23T18:36:22Z</time>
      </trkpt>
      <trkpt lat="45.54839" lon="4.57991">
        <ele>483</ele>
        <time>2013-10-23T18:36:25Z</time>
      </trkpt>
      <trkpt lat="45.54839" lon="4.57996">
        <ele>483</ele>
        <time>2013-10-23T18:36:28Z</time>
      </trkpt>
      <trkpt lat="45.54839" lon="4.58001">
        <ele>483</ele>
        <time>2013-10-23T18:36:31Z</time>
      </trkpt>
      <trkpt lat="45.54839" lon="4.58006">
        <ele>482</ele>
        <time>2013-10-23T18:36:34Z</time>
      </trkpt>
      <trkpt lat="45.54839" lon="4.58011">
        <ele>481</ele>
        <time>2013-10-23T18:36:37Z</time>
      </trkpt>
      <trkpt lat="45.54839" lon="4.58017">
        <ele>480</ele>
        <time>2013-10-23T18:36:40Z</time>
      </trkpt>
      <trkpt lat="45.54839" lon="4.58024">
        <ele>479</ele>
        <time>2013-10-23T18:36:43Z</time>
      </trkpt>
      <trkpt lat="45.5484" lon="4.5803">
        <ele>479</ele>
        <time>2013-10-23T18:36:46Z</time>
      </trkpt>
      <trkpt lat="45.5484" lon="4.58037">
        <ele>478</ele>
        <time>2013-10-23T18:36:49Z</time>
      </trkpt>
      <trkpt lat="45.54841" lon="4.58043">
        <ele>477</ele>
        <time>2013-10-23T18:36:52Z</time>
      </trkpt>
      <trkpt lat="45.54841" lon="4.58051">
        <ele>476</ele>
        <time>2013-10-23T18:36:55Z</time>
      </trkpt>
      <trkpt lat="45.54842" lon="4.5806">
        <ele>475</ele>
        <time>2013-10-23T18:36:58Z</time>
      </trkpt>
      <trkpt lat="45.54843" lon="4.58069">
        <ele>474</ele>
        <time>2013-10-23T18:37:01Z</time>
      </trkpt>
      <trkpt lat="45.54843" lon="4.58077">
        <ele>472</ele>
        <time>2013-10-23T18:37:04Z</time>
      </trkpt>
      <trkpt lat="45.54844" lon="4.58086">
        <ele>471</ele>
        <time>2013-10-23T18:37:07Z</time>
      </trkpt>
      <trkpt lat="45.54845" lon="4.58095">
        <ele>470</ele>
        <time>2013-10-23T18:37:10Z</time>
      </trkpt>
      <trkpt lat="45.54847" lon="4.58103">
        <ele>469</ele>
        <time>2013-10-23T18:37:13Z</time>
      </trkpt>
      <trkpt lat="45.54848" lon="4.58111">
        <ele>469</ele>
        <time>2013-10-23T18:37:16Z</time>
      </trkpt>
      <trkpt lat="45.54849" lon="4.5812">
        <ele>469</ele>
        <time>2013-10-23T18:37:19Z</time>
      </trkpt>
      <trkpt lat="45.5485" lon="4.58128">
        <ele>469</ele>
        <time>2013-10-23T18:37:22Z</time>
      </trkpt>
      <trkpt lat="45.54853" lon="4.58134">
        <ele>468</ele>
        <time>2013-10-23T18:37:25Z</time>
      </trkpt>
      <trkpt lat="45.54858" lon="4.58136">
        <ele>468</ele>
        <time>2013-10-23T18:37:28Z</time>
      </trkpt>
      <trkpt lat="45.54863" lon="4.58136">
        <ele>468</ele>
        <time>2013-10-23T18:37:31Z</time>
      </trkpt>
      <trkpt lat="45.54868" lon="4.58137">
        <ele>468</ele>
        <time>2013-10-23T18:37:34Z</time>
      </trkpt>
      <trkpt lat="45.54874" lon="4.58139">
        <ele>467</ele>
        <time>2013-10-23T18:37:37Z</time>
      </trkpt>
      <trkpt lat="45.5488" lon="4.5814">
        <ele>467</ele>
        <time>2013-10-23T18:37:40Z</time>
      </trkpt>
      <trkpt lat="45.54886" lon="4.58141">
        <ele>466</ele>
        <time>2013-10-23T18:37:43Z</time>
      </trkpt>
      <trkpt lat="45.54892" lon="4.58142">
        <ele>466</ele>
        <time>2013-10-23T18:37:46Z</time>
      </trkpt>
      <trkpt lat="45.54898" lon="4.58143">
        <ele>465</ele>
        <time>2013-10-23T18:37:49Z</time>
      </trkpt>
      <trkpt lat="45.54904" lon="4.58145">
        <ele>465</ele>
        <time>2013-10-23T18:37:52Z</time>
      </trkpt>
      <trkpt lat="45.5491" lon="4.58144">
        <ele>464</ele>
        <time>2013-10-23T18:37:55Z</time>
      </trkpt>
      <trkpt lat="45.54916" lon="4.58144">
        <ele>464</ele>
        <time>2013-10-23T18:37:58Z</time>
      </trkpt>
      <trkpt lat="45.54916" lon="4.5814">
        <ele>464</ele>
        <time>2013-10-23T18:38:02Z</time>
      </trkpt>
      <trkpt lat="45.54916" lon="4.58139">
        <ele>464</ele>
        <time>2013-10-23T18:38:14Z</time>
      </trkpt>
      <trkpt lat="45.54914" lon="4.58138">
        <ele>464</ele>
        <time>2013-10-23T18:38:24Z</time>
      </trkpt>
      <trkpt lat="45.54917" lon="4.58138">
        <ele>464</ele>
        <time>2013-10-23T18:38:42Z</time>
      </trkpt>
      <trkpt lat="45.54926" lon="4.58139">
        <ele>464</ele>
        <time>2013-10-23T18:38:45Z</time>
      </trkpt>
      <trkpt lat="45.54933" lon="4.58138">
        <ele>464</ele>
        <time>2013-10-23T18:38:48Z</time>
      </trkpt>
      <trkpt lat="45.5494" lon="4.58137">
        <ele>464</ele>
        <time>2013-10-23T18:38:51Z</time>
      </trkpt>
      <trkpt lat="45.54947" lon="4.58134">
        <ele>464</ele>
        <time>2013-10-23T18:38:54Z</time>
      </trkpt>
      <trkpt lat="45.54954" lon="4.58132">
        <ele>464</ele>
        <time>2013-10-23T18:38:57Z</time>
      </trkpt>
      <trkpt lat="45.54965" lon="4.58126">
        <ele>464</ele>
        <time>2013-10-23T18:39:01Z</time>
      </trkpt>
      <trkpt lat="45.54973" lon="4.58123">
        <ele>464</ele>
        <time>2013-10-23T18:39:04Z</time>
      </trkpt>
      <trkpt lat="45.54982" lon="4.5812">
        <ele>464</ele>
        <time>2013-10-23T18:39:07Z</time>
      </trkpt>
      <trkpt lat="45.5499" lon="4.58114">
        <ele>464</ele>
        <time>2013-10-23T18:39:10Z</time>
      </trkpt>
      <trkpt lat="45.54998" lon="4.58111">
        <ele>464</ele>
        <time>2013-10-23T18:39:13Z</time>
      </trkpt>
      <trkpt lat="45.55008" lon="4.58105">
        <ele>464</ele>
        <time>2013-10-23T18:39:16Z</time>
      </trkpt>
      <trkpt lat="45.55016" lon="4.58099">
        <ele>464</ele>
        <time>2013-10-23T18:39:19Z</time>
      </trkpt>
      <trkpt lat="45.55024" lon="4.58094">
        <ele>464</ele>
        <time>2013-10-23T18:39:22Z</time>
      </trkpt>
      <trkpt lat="45.55034" lon="4.58088">
        <ele>464</ele>
        <time>2013-10-23T18:39:25Z</time>
      </trkpt>
      <trkpt lat="45.55042" lon="4.58082">
        <ele>464</ele>
        <time>2013-10-23T18:39:28Z</time>
      </trkpt>
      <trkpt lat="45.55049" lon="4.58078">
        <ele>464</ele>
        <time>2013-10-23T18:39:31Z</time>
      </trkpt>
      <trkpt lat="45.55056" lon="4.58073">
        <ele>464</ele>
        <time>2013-10-23T18:39:34Z</time>
      </trkpt>
      <trkpt lat="45.55064" lon="4.58067">
        <ele>464</ele>
        <time>2013-10-23T18:39:38Z</time>
      </trkpt>
      <trkpt lat="45.55071" lon="4.58063">
        <ele>464</ele>
        <time>2013-10-23T18:39:41Z</time>
      </trkpt>
      <trkpt lat="45.55077" lon="4.58059">
        <ele>463</ele>
        <time>2013-10-23T18:39:44Z</time>
      </trkpt>
      <trkpt lat="45.55085" lon="4.58055">
        <ele>461</ele>
        <time>2013-10-23T18:39:47Z</time>
      </trkpt>
      <trkpt lat="45.55093" lon="4.58049">
        <ele>460</ele>
        <time>2013-10-23T18:39:50Z</time>
      </trkpt>
      <trkpt lat="45.55101" lon="4.58046">
        <ele>459</ele>
        <time>2013-10-23T18:39:53Z</time>
      </trkpt>
      <trkpt lat="45.55108" lon="4.58043">
        <ele>459</ele>
        <time>2013-10-23T18:39:56Z</time>
      </trkpt>
      <trkpt lat="45.55115" lon="4.58037">
        <ele>459</ele>
        <time>2013-10-23T18:39:59Z</time>
      </trkpt>
      <trkpt lat="45.55124" lon="4.58031">
        <ele>458</ele>
        <time>2013-10-23T18:40:03Z</time>
      </trkpt>
      <trkpt lat="45.55132" lon="4.58027">
        <ele>456</ele>
        <time>2013-10-23T18:40:06Z</time>
      </trkpt>
      <trkpt lat="45.55141" lon="4.58025">
        <ele>455</ele>
        <time>2013-10-23T18:40:09Z</time>
      </trkpt>
      <trkpt lat="45.5515" lon="4.58023">
        <ele>455</ele>
        <time>2013-10-23T18:40:12Z</time>
      </trkpt>
      <trkpt lat="45.55162" lon="4.58025">
        <ele>455</ele>
        <time>2013-10-23T18:40:15Z</time>
      </trkpt>
      <trkpt lat="45.55172" lon="4.58029">
        <ele>455</ele>
        <time>2013-10-23T18:40:18Z</time>
      </trkpt>
      <trkpt lat="45.55184" lon="4.58037">
        <ele>456</ele>
        <time>2013-10-23T18:40:22Z</time>
      </trkpt>
      <trkpt lat="45.55191" lon="4.58046">
        <ele>456</ele>
        <time>2013-10-23T18:40:25Z</time>
      </trkpt>
      <trkpt lat="45.55196" lon="4.58057">
        <ele>456</ele>
        <time>2013-10-23T18:40:28Z</time>
      </trkpt>
      <trkpt lat="45.55201" lon="4.58069">
        <ele>456</ele>
        <time>2013-10-23T18:40:31Z</time>
      </trkpt>
      <trkpt lat="45.55205" lon="4.58081">
        <ele>456</ele>
        <time>2013-10-23T18:40:34Z</time>
      </trkpt>
      <trkpt lat="45.55208" lon="4.58092">
        <ele>456</ele>
        <time>2013-10-23T18:40:37Z</time>
      </trkpt>
      <trkpt lat="45.55208" lon="4.58103">
        <ele>456</ele>
        <time>2013-10-23T18:40:40Z</time>
      </trkpt>
      <trkpt lat="45.55208" lon="4.58115">
        <ele>456</ele>
        <time>2013-10-23T18:40:43Z</time>
      </trkpt>
      <trkpt lat="45.55207" lon="4.58127">
        <ele>455</ele>
        <time>2013-10-23T18:40:46Z</time>
      </trkpt>
      <trkpt lat="45.55206" lon="4.58143">
        <ele>455</ele>
        <time>2013-10-23T18:40:50Z</time>
      </trkpt>
      <trkpt lat="45.55205" lon="4.58155">
        <ele>455</ele>
        <time>2013-10-23T18:40:53Z</time>
      </trkpt>
      <trkpt lat="45.55203" lon="4.58168">
        <ele>455</ele>
        <time>2013-10-23T18:40:56Z</time>
      </trkpt>
      <trkpt lat="45.55201" lon="4.5818">
        <ele>455</ele>
        <time>2013-10-23T18:40:59Z</time>
      </trkpt>
      <trkpt lat="45.55196" lon="4.58194">
        <ele>455</ele>
        <time>2013-10-23T18:41:03Z</time>
      </trkpt>
      <trkpt lat="45.55191" lon="4.58203">
        <ele>455</ele>
        <time>2013-10-23T18:41:06Z</time>
      </trkpt>
      <trkpt lat="45.55185" lon="4.5821">
        <ele>455</ele>
        <time>2013-10-23T18:41:09Z</time>
      </trkpt>
      <trkpt lat="45.55178" lon="4.58214">
        <ele>455</ele>
        <time>2013-10-23T18:41:12Z</time>
      </trkpt>
      <trkpt lat="45.55171" lon="4.58217">
        <ele>455</ele>
        <time>2013-10-23T18:41:15Z</time>
      </trkpt>
      <trkpt lat="45.55164" lon="4.5822">
        <ele>455</ele>
        <time>2013-10-23T18:41:18Z</time>
      </trkpt>
      <trkpt lat="45.55156" lon="4.58221">
        <ele>455</ele>
        <time>2013-10-23T18:41:21Z</time>
      </trkpt>
      <trkpt lat="45.55148" lon="4.58223">
        <ele>455</ele>
        <time>2013-10-23T18:41:24Z</time>
      </trkpt>
      <trkpt lat="45.55141" lon="4.58225">
        <ele>455</ele>
        <time>2013-10-23T18:41:27Z</time>
      </trkpt>
      <trkpt lat="45.55133" lon="4.58229">
        <ele>455</ele>
        <time>2013-10-23T18:41:30Z</time>
      </trkpt>
      <trkpt lat="45.55126" lon="4.58235">
        <ele>455</ele>
        <time>2013-10-23T18:41:33Z</time>
      </trkpt>
      <trkpt lat="45.55119" lon="4.58241">
        <ele>455</ele>
        <time>2013-10-23T18:41:36Z</time>
      </trkpt>
      <trkpt lat="45.55113" lon="4.58249">
        <ele>455</ele>
        <time>2013-10-23T18:41:39Z</time>
      </trkpt>
      <trkpt lat="45.55107" lon="4.58257">
        <ele>455</ele>
        <time>2013-10-23T18:41:42Z</time>
      </trkpt>
      <trkpt lat="45.551" lon="4.58265">
        <ele>455</ele>
        <time>2013-10-23T18:41:45Z</time>
      </trkpt>
      <trkpt lat="45.55095" lon="4.58275">
        <ele>455</ele>
        <time>2013-10-23T18:41:48Z</time>
      </trkpt>
      <trkpt lat="45.55089" lon="4.58286">
        <ele>455</ele>
        <time>2013-10-23T18:41:51Z</time>
      </trkpt>
      <trkpt lat="45.55085" lon="4.58297">
        <ele>455</ele>
        <time>2013-10-23T18:41:54Z</time>
      </trkpt>
      <trkpt lat="45.5508" lon="4.58311">
        <ele>455</ele>
        <time>2013-10-23T18:41:58Z</time>
      </trkpt>
      <trkpt lat="45.55075" lon="4.58325">
        <ele>455</ele>
        <time>2013-10-23T18:42:02Z</time>
      </trkpt>
      <trkpt lat="45.55074" lon="4.58336">
        <ele>455</ele>
        <time>2013-10-23T18:42:05Z</time>
      </trkpt>
      <trkpt lat="45.55073" lon="4.58351">
        <ele>455</ele>
        <time>2013-10-23T18:42:08Z</time>
      </trkpt>
      <trkpt lat="45.55073" lon="4.58363">
        <ele>455</ele>
        <time>2013-10-23T18:42:11Z</time>
      </trkpt>
      <trkpt lat="45.55072" lon="4.58374">
        <ele>455</ele>
        <time>2013-10-23T18:42:14Z</time>
      </trkpt>
      <trkpt lat="45.55074" lon="4.58386">
        <ele>455</ele>
        <time>2013-10-23T18:42:17Z</time>
      </trkpt>
      <trkpt lat="45.55077" lon="4.58395">
        <ele>455</ele>
        <time>2013-10-23T18:42:20Z</time>
      </trkpt>
      <trkpt lat="45.5508" lon="4.58406">
        <ele>455</ele>
        <time>2013-10-23T18:42:23Z</time>
      </trkpt>
      <trkpt lat="45.55084" lon="4.58415">
        <ele>455</ele>
        <time>2013-10-23T18:42:26Z</time>
      </trkpt>
      <trkpt lat="45.55091" lon="4.58427">
        <ele>455</ele>
        <time>2013-10-23T18:42:30Z</time>
      </trkpt>
      <trkpt lat="45.55096" lon="4.58436">
        <ele>455</ele>
        <time>2013-10-23T18:42:33Z</time>
      </trkpt>
      <trkpt lat="45.55103" lon="4.58444">
        <ele>455</ele>
        <time>2013-10-23T18:42:36Z</time>
      </trkpt>
      <trkpt lat="45.5511" lon="4.58451">
        <ele>455</ele>
        <time>2013-10-23T18:42:39Z</time>
      </trkpt>
      <trkpt lat="45.55121" lon="4.58459">
        <ele>456</ele>
        <time>2013-10-23T18:42:43Z</time>
      </trkpt>
      <trkpt lat="45.55128" lon="4.58464">
        <ele>457</ele>
        <time>2013-10-23T18:42:46Z</time>
      </trkpt>
      <trkpt lat="45.55136" lon="4.58469">
        <ele>458</ele>
        <time>2013-10-23T18:42:49Z</time>
      </trkpt>
      <trkpt lat="45.55145" lon="4.58474">
        <ele>458</ele>
        <time>2013-10-23T18:42:53Z</time>
      </trkpt>
      <trkpt lat="45.55152" lon="4.58476">
        <ele>458</ele>
        <time>2013-10-23T18:42:56Z</time>
      </trkpt>
      <trkpt lat="45.55158" lon="4.5848">
        <ele>459</ele>
        <time>2013-10-23T18:42:59Z</time>
      </trkpt>
      <trkpt lat="45.55164" lon="4.58484">
        <ele>459</ele>
        <time>2013-10-23T18:43:02Z</time>
      </trkpt>
      <trkpt lat="45.55172" lon="4.5849">
        <ele>459</ele>
        <time>2013-10-23T18:43:06Z</time>
      </trkpt>
      <trkpt lat="45.55178" lon="4.58495">
        <ele>459</ele>
        <time>2013-10-23T18:43:09Z</time>
      </trkpt>
      <trkpt lat="45.55187" lon="4.58503">
        <ele>459</ele>
        <time>2013-10-23T18:43:13Z</time>
      </trkpt>
      <trkpt lat="45.55193" lon="4.58506">
        <ele>460</ele>
        <time>2013-10-23T18:43:16Z</time>
      </trkpt>
      <trkpt lat="45.552" lon="4.5851">
        <ele>461</ele>
        <time>2013-10-23T18:43:19Z</time>
      </trkpt>
      <trkpt lat="45.55206" lon="4.58516">
        <ele>461</ele>
        <time>2013-10-23T18:43:22Z</time>
      </trkpt>
      <trkpt lat="45.55211" lon="4.58522">
        <ele>462</ele>
        <time>2013-10-23T18:43:25Z</time>
      </trkpt>
      <trkpt lat="45.55216" lon="4.58529">
        <ele>462</ele>
        <time>2013-10-23T18:43:28Z</time>
      </trkpt>
      <trkpt lat="45.55221" lon="4.58536">
        <ele>462</ele>
        <time>2013-10-23T18:43:31Z</time>
      </trkpt>
      <trkpt lat="45.55225" lon="4.58544">
        <ele>462</ele>
        <time>2013-10-23T18:43:34Z</time>
      </trkpt>
      <trkpt lat="45.55231" lon="4.58558">
        <ele>463</ele>
        <time>2013-10-23T18:43:38Z</time>
      </trkpt>
      <trkpt lat="45.55235" lon="4.58568">
        <ele>463</ele>
        <time>2013-10-23T18:43:41Z</time>
      </trkpt>
      <trkpt lat="45.55239" lon="4.58582">
        <ele>463</ele>
        <time>2013-10-23T18:43:45Z</time>
      </trkpt>
      <trkpt lat="45.55242" lon="4.58592">
        <ele>463</ele>
        <time>2013-10-23T18:43:48Z</time>
      </trkpt>
      <trkpt lat="45.55244" lon="4.58603">
        <ele>463</ele>
        <time>2013-10-23T18:43:51Z</time>
      </trkpt>
      <trkpt lat="45.55244" lon="4.58613">
        <ele>463</ele>
        <time>2013-10-23T18:43:54Z</time>
      </trkpt>
      <trkpt lat="45.55243" lon="4.58624">
        <ele>463</ele>
        <time>2013-10-23T18:43:57Z</time>
      </trkpt>
      <trkpt lat="45.55241" lon="4.58635">
        <ele>463</ele>
        <time>2013-10-23T18:44:00Z</time>
      </trkpt>
      <trkpt lat="45.55238" lon="4.58644">
        <ele>463</ele>
        <time>2013-10-23T18:44:03Z</time>
      </trkpt>
      <trkpt lat="45.55237" lon="4.58654">
        <ele>463</ele>
        <time>2013-10-23T18:44:06Z</time>
      </trkpt>
      <trkpt lat="45.55235" lon="4.58668">
        <ele>463</ele>
        <time>2013-10-23T18:44:10Z</time>
      </trkpt>
      <trkpt lat="45.55231" lon="4.58678">
        <ele>463</ele>
        <time>2013-10-23T18:44:13Z</time>
      </trkpt>
      <trkpt lat="45.55229" lon="4.58688">
        <ele>463</ele>
        <time>2013-10-23T18:44:16Z</time>
      </trkpt>
      <trkpt lat="45.55227" lon="4.58699">
        <ele>463</ele>
        <time>2013-10-23T18:44:19Z</time>
      </trkpt>
      <trkpt lat="45.55224" lon="4.58708">
        <ele>463</ele>
        <time>2013-10-23T18:44:22Z</time>
      </trkpt>
      <trkpt lat="45.55221" lon="4.58721">
        <ele>463</ele>
        <time>2013-10-23T18:44:26Z</time>
      </trkpt>
      <trkpt lat="45.5522" lon="4.58734">
        <ele>463</ele>
        <time>2013-10-23T18:44:30Z</time>
      </trkpt>
      <trkpt lat="45.55218" lon="4.58743">
        <ele>463</ele>
        <time>2013-10-23T18:44:33Z</time>
      </trkpt>
      <trkpt lat="45.55214" lon="4.58754">
        <ele>463</ele>
        <time>2013-10-23T18:44:37Z</time>
      </trkpt>
      <trkpt lat="45.55211" lon="4.58763">
        <ele>463</ele>
        <time>2013-10-23T18:44:40Z</time>
      </trkpt>
      <trkpt lat="45.55208" lon="4.58772">
        <ele>463</ele>
        <time>2013-10-23T18:44:43Z</time>
      </trkpt>
      <trkpt lat="45.55202" lon="4.58782">
        <ele>463</ele>
        <time>2013-10-23T18:44:47Z</time>
      </trkpt>
      <trkpt lat="45.55197" lon="4.58789">
        <ele>463</ele>
        <time>2013-10-23T18:44:50Z</time>
      </trkpt>
      <trkpt lat="45.55191" lon="4.58795">
        <ele>463</ele>
        <time>2013-10-23T18:44:53Z</time>
      </trkpt>
      <trkpt lat="45.55184" lon="4.58801">
        <ele>463</ele>
        <time>2013-10-23T18:44:56Z</time>
      </trkpt>
      <trkpt lat="45.55178" lon="4.58806">
        <ele>464</ele>
        <time>2013-10-23T18:44:59Z</time>
      </trkpt>
      <trkpt lat="45.55171" lon="4.58812">
        <ele>464</ele>
        <time>2013-10-23T18:45:03Z</time>
      </trkpt>
      <trkpt lat="45.55164" lon="4.58815">
        <ele>465</ele>
        <time>2013-10-23T18:45:06Z</time>
      </trkpt>
      <trkpt lat="45.55158" lon="4.58818">
        <ele>465</ele>
        <time>2013-10-23T18:45:09Z</time>
      </trkpt>
      <trkpt lat="45.55149" lon="4.5882">
        <ele>465</ele>
        <time>2013-10-23T18:45:13Z</time>
      </trkpt>
      <trkpt lat="45.55141" lon="4.58821">
        <ele>466</ele>
        <time>2013-10-23T18:45:16Z</time>
      </trkpt>
      <trkpt lat="45.55135" lon="4.58821">
        <ele>466</ele>
        <time>2013-10-23T18:45:19Z</time>
      </trkpt>
      <trkpt lat="45.55125" lon="4.58821">
        <ele>467</ele>
        <time>2013-10-23T18:45:23Z</time>
      </trkpt>
      <trkpt lat="45.55118" lon="4.58821">
        <ele>467</ele>
        <time>2013-10-23T18:45:26Z</time>
      </trkpt>
      <trkpt lat="45.55111" lon="4.5882">
        <ele>467</ele>
        <time>2013-10-23T18:45:29Z</time>
      </trkpt>
      <trkpt lat="45.55103" lon="4.5882">
        <ele>468</ele>
        <time>2013-10-23T18:45:33Z</time>
      </trkpt>
      <trkpt lat="45.55096" lon="4.5882">
        <ele>468</ele>
        <time>2013-10-23T18:45:36Z</time>
      </trkpt>
      <trkpt lat="45.55089" lon="4.58818">
        <ele>468</ele>
        <time>2013-10-23T18:45:39Z</time>
      </trkpt>
      <trkpt lat="45.55083" lon="4.58817">
        <ele>468</ele>
        <time>2013-10-23T18:45:42Z</time>
      </trkpt>
      <trkpt lat="45.55076" lon="4.58818">
        <ele>468</ele>
        <time>2013-10-23T18:45:45Z</time>
      </trkpt>
      <trkpt lat="45.55067" lon="4.58818">
        <ele>468</ele>
        <time>2013-10-23T18:45:49Z</time>
      </trkpt>
      <trkpt lat="45.5506" lon="4.58818">
        <ele>468</ele>
        <time>2013-10-23T18:45:52Z</time>
      </trkpt>
      <trkpt lat="45.55052" lon="4.5882">
        <ele>468</ele>
        <time>2013-10-23T18:45:55Z</time>
      </trkpt>
      <trkpt lat="45.55043" lon="4.5882">
        <ele>468</ele>
        <time>2013-10-23T18:45:59Z</time>
      </trkpt>
      <trkpt lat="45.55036" lon="4.58821">
        <ele>468</ele>
        <time>2013-10-23T18:46:02Z</time>
      </trkpt>
      <trkpt lat="45.55029" lon="4.5882">
        <ele>468</ele>
        <time>2013-10-23T18:46:05Z</time>
      </trkpt>
      <trkpt lat="45.55019" lon="4.58821">
        <ele>468</ele>
        <time>2013-10-23T18:46:09Z</time>
      </trkpt>
      <trkpt lat="45.55013" lon="4.5882">
        <ele>468</ele>
        <time>2013-10-23T18:46:12Z</time>
      </trkpt>
      <trkpt lat="45.55006" lon="4.58821">
        <ele>468</ele>
        <time>2013-10-23T18:46:15Z</time>
      </trkpt>
      <trkpt lat="45.54998" lon="4.58821">
        <ele>468</ele>
        <time>2013-10-23T18:46:18Z</time>
      </trkpt>
      <trkpt lat="45.54988" lon="4.58824">
        <ele>468</ele>
        <time>2013-10-23T18:46:22Z</time>
      </trkpt>
      <trkpt lat="45.54981" lon="4.58825">
        <ele>469</ele>
        <time>2013-10-23T18:46:25Z</time>
      </trkpt>
      <trkpt lat="45.54973" lon="4.58827">
        <ele>469</ele>
        <time>2013-10-23T18:46:28Z</time>
      </trkpt>
      <trkpt lat="45.54966" lon="4.58829">
        <ele>469</ele>
        <time>2013-10-23T18:46:31Z</time>
      </trkpt>
      <trkpt lat="45.54959" lon="4.58833">
        <ele>469</ele>
        <time>2013-10-23T18:46:34Z</time>
      </trkpt>
      <trkpt lat="45.54953" lon="4.58838">
        <ele>469</ele>
        <time>2013-10-23T18:46:37Z</time>
      </trkpt>
      <trkpt lat="45.54946" lon="4.58842">
        <ele>469</ele>
        <time>2013-10-23T18:46:40Z</time>
      </trkpt>
      <trkpt lat="45.54939" lon="4.58845">
        <ele>469</ele>
        <time>2013-10-23T18:46:43Z</time>
      </trkpt>
      <trkpt lat="45.54932" lon="4.58849">
        <ele>469</ele>
        <time>2013-10-23T18:46:46Z</time>
      </trkpt>
      <trkpt lat="45.54922" lon="4.58852">
        <ele>469</ele>
        <time>2013-10-23T18:46:50Z</time>
      </trkpt>
      <trkpt lat="45.54916" lon="4.58856">
        <ele>469</ele>
        <time>2013-10-23T18:46:53Z</time>
      </trkpt>
      <trkpt lat="45.54908" lon="4.58859">
        <ele>469</ele>
        <time>2013-10-23T18:46:56Z</time>
      </trkpt>
      <trkpt lat="45.549" lon="4.58863">
        <ele>469</ele>
        <time>2013-10-23T18:46:59Z</time>
      </trkpt>
      <trkpt lat="45.54892" lon="4.58866">
        <ele>469</ele>
        <time>2013-10-23T18:47:02Z</time>
      </trkpt>
      <trkpt lat="45.54884" lon="4.58871">
        <ele>469</ele>
        <time>2013-10-23T18:47:05Z</time>
      </trkpt>
      <trkpt lat="45.54877" lon="4.58875">
        <ele>469</ele>
        <time>2013-10-23T18:47:08Z</time>
      </trkpt>
      <trkpt lat="45.54869" lon="4.58879">
        <ele>469</ele>
        <time>2013-10-23T18:47:11Z</time>
      </trkpt>
      <trkpt lat="45.54861" lon="4.58883">
        <ele>469</ele>
        <time>2013-10-23T18:47:14Z</time>
      </trkpt>
      <trkpt lat="45.54854" lon="4.58886">
        <ele>469</ele>
        <time>2013-10-23T18:47:17Z</time>
      </trkpt>
      <trkpt lat="45.54847" lon="4.58889">
        <ele>469</ele>
        <time>2013-10-23T18:47:20Z</time>
      </trkpt>
      <trkpt lat="45.5484" lon="4.58892">
        <ele>469</ele>
        <time>2013-10-23T18:47:23Z</time>
      </trkpt>
      <trkpt lat="45.54833" lon="4.58896">
        <ele>469</ele>
        <time>2013-10-23T18:47:26Z</time>
      </trkpt>
      <trkpt lat="45.54824" lon="4.58903">
        <ele>469</ele>
        <time>2013-10-23T18:47:30Z</time>
      </trkpt>
      <trkpt lat="45.54818" lon="4.58909">
        <ele>469</ele>
        <time>2013-10-23T18:47:33Z</time>
      </trkpt>
      <trkpt lat="45.54812" lon="4.58916">
        <ele>469</ele>
        <time>2013-10-23T18:47:36Z</time>
      </trkpt>
      <trkpt lat="45.54806" lon="4.58928">
        <ele>469</ele>
        <time>2013-10-23T18:47:40Z</time>
      </trkpt>
      <trkpt lat="45.54802" lon="4.58938">
        <ele>469</ele>
        <time>2013-10-23T18:47:43Z</time>
      </trkpt>
      <trkpt lat="45.54799" lon="4.58948">
        <ele>469</ele>
        <time>2013-10-23T18:47:46Z</time>
      </trkpt>
      <trkpt lat="45.54795" lon="4.58962">
        <ele>469</ele>
        <time>2013-10-23T18:47:50Z</time>
      </trkpt>
      <trkpt lat="45.54795" lon="4.58973">
        <ele>469</ele>
        <time>2013-10-23T18:47:53Z</time>
      </trkpt>
      <trkpt lat="45.54794" lon="4.58984">
        <ele>469</ele>
        <time>2013-10-23T18:47:56Z</time>
      </trkpt>
      <trkpt lat="45.54794" lon="4.58993">
        <ele>469</ele>
        <time>2013-10-23T18:47:59Z</time>
      </trkpt>
      <trkpt lat="45.54797" lon="4.59003">
        <ele>469</ele>
        <time>2013-10-23T18:48:02Z</time>
      </trkpt>
      <trkpt lat="45.54799" lon="4.59016">
        <ele>469</ele>
        <time>2013-10-23T18:48:06Z</time>
      </trkpt>
      <trkpt lat="45.54803" lon="4.59028">
        <ele>469</ele>
        <time>2013-10-23T18:48:10Z</time>
      </trkpt>
      <trkpt lat="45.54807" lon="4.59036">
        <ele>469</ele>
        <time>2013-10-23T18:48:13Z</time>
      </trkpt>
      <trkpt lat="45.54811" lon="4.59044">
        <ele>469</ele>
        <time>2013-10-23T18:48:16Z</time>
      </trkpt>
      <trkpt lat="45.54815" lon="4.59049">
        <ele>469</ele>
        <time>2013-10-23T18:48:20Z</time>
      </trkpt>
      <trkpt lat="45.54818" lon="4.59053">
        <ele>469</ele>
        <time>2013-10-23T18:48:24Z</time>
      </trkpt>
      <trkpt lat="45.5482" lon="4.59057">
        <ele>469</ele>
        <time>2013-10-23T18:48:28Z</time>
      </trkpt>
      <trkpt lat="45.54823" lon="4.59062">
        <ele>469</ele>
        <time>2013-10-23T18:48:32Z</time>
      </trkpt>
      <trkpt lat="45.54827" lon="4.59065">
        <ele>469</ele>
        <time>2013-10-23T18:48:36Z</time>
      </trkpt>
      <trkpt lat="45.54831" lon="4.59067">
        <ele>469</ele>
        <time>2013-10-23T18:48:39Z</time>
      </trkpt>
      <trkpt lat="45.54835" lon="4.5907">
        <ele>469</ele>
        <time>2013-10-23T18:48:42Z</time>
      </trkpt>
      <trkpt lat="45.5484" lon="4.59072">
        <ele>469</ele>
        <time>2013-10-23T18:48:45Z</time>
      </trkpt>
      <trkpt lat="45.54845" lon="4.59075">
        <ele>469</ele>
        <time>2013-10-23T18:48:48Z</time>
      </trkpt>
      <trkpt lat="45.5485" lon="4.59077">
        <ele>469</ele>
        <time>2013-10-23T18:48:51Z</time>
      </trkpt>
      <trkpt lat="45.54854" lon="4.59079">
        <ele>469</ele>
        <time>2013-10-23T18:48:54Z</time>
      </trkpt>
      <trkpt lat="45.54859" lon="4.5908">
        <ele>469</ele>
        <time>2013-10-23T18:48:57Z</time>
      </trkpt>
      <trkpt lat="45.54864" lon="4.59082">
        <ele>469</ele>
        <time>2013-10-23T18:49:00Z</time>
      </trkpt>
      <trkpt lat="45.54869" lon="4.59083">
        <ele>469</ele>
        <time>2013-10-23T18:49:03Z</time>
      </trkpt>
      <trkpt lat="45.54873" lon="4.59084">
        <ele>469</ele>
        <time>2013-10-23T18:49:06Z</time>
      </trkpt>
      <trkpt lat="45.54877" lon="4.59084">
        <ele>469</ele>
        <time>2013-10-23T18:49:10Z</time>
      </trkpt>
      <trkpt lat="45.54882" lon="4.59085">
        <ele>469</ele>
        <time>2013-10-23T18:49:13Z</time>
      </trkpt>
      <trkpt lat="45.54889" lon="4.59088">
        <ele>469</ele>
        <time>2013-10-23T18:49:16Z</time>
      </trkpt>
      <trkpt lat="45.54896" lon="4.59091">
        <ele>470</ele>
        <time>2013-10-23T18:49:19Z</time>
      </trkpt>
      <trkpt lat="45.54904" lon="4.59094">
        <ele>470</ele>
        <time>2013-10-23T18:49:22Z</time>
      </trkpt>
      <trkpt lat="45.54911" lon="4.59096">
        <ele>470</ele>
        <time>2013-10-23T18:49:25Z</time>
      </trkpt>
      <trkpt lat="45.54919" lon="4.59098">
        <ele>470</ele>
        <time>2013-10-23T18:49:28Z</time>
      </trkpt>
      <trkpt lat="45.54928" lon="4.59101">
        <ele>470</ele>
        <time>2013-10-23T18:49:32Z</time>
      </trkpt>
      <trkpt lat="45.54935" lon="4.59104">
        <ele>470</ele>
        <time>2013-10-23T18:49:35Z</time>
      </trkpt>
      <trkpt lat="45.54942" lon="4.59107">
        <ele>470</ele>
        <time>2013-10-23T18:49:38Z</time>
      </trkpt>
      <trkpt lat="45.5495" lon="4.59111">
        <ele>470</ele>
        <time>2013-10-23T18:49:41Z</time>
      </trkpt>
      <trkpt lat="45.54956" lon="4.59113">
        <ele>470</ele>
        <time>2013-10-23T18:49:44Z</time>
      </trkpt>
      <trkpt lat="45.54962" lon="4.59114">
        <ele>470</ele>
        <time>2013-10-23T18:49:47Z</time>
      </trkpt>
      <trkpt lat="45.5497" lon="4.59117">
        <ele>470</ele>
        <time>2013-10-23T18:49:50Z</time>
      </trkpt>
      <trkpt lat="45.54977" lon="4.59118">
        <ele>470</ele>
        <time>2013-10-23T18:49:53Z</time>
      </trkpt>
      <trkpt lat="45.54984" lon="4.5912">
        <ele>470</ele>
        <time>2013-10-23T18:49:56Z</time>
      </trkpt>
      <trkpt lat="45.54991" lon="4.59121">
        <ele>470</ele>
        <time>2013-10-23T18:49:59Z</time>
      </trkpt>
      <trkpt lat="45.54997" lon="4.59124">
        <ele>470</ele>
        <time>2013-10-23T18:50:02Z</time>
      </trkpt>
      <trkpt lat="45.55004" lon="4.59127">
        <ele>470</ele>
        <time>2013-10-23T18:50:05Z</time>
      </trkpt>
      <trkpt lat="45.55009" lon="4.5913">
        <ele>470</ele>
        <time>2013-10-23T18:50:08Z</time>
      </trkpt>
      <trkpt lat="45.55016" lon="4.59134">
        <ele>470</ele>
        <time>2013-10-23T18:50:11Z</time>
      </trkpt>
      <trkpt lat="45.55022" lon="4.59138">
        <ele>470</ele>
        <time>2013-10-23T18:50:14Z</time>
      </trkpt>
      <trkpt lat="45.55028" lon="4.59141">
        <ele>470</ele>
        <time>2013-10-23T18:50:17Z</time>
      </trkpt>
      <trkpt lat="45.55036" lon="4.59146">
        <ele>470</ele>
        <time>2013-10-23T18:50:21Z</time>
      </trkpt>
      <trkpt lat="45.55043" lon="4.59149">
        <ele>470</ele>
        <time>2013-10-23T18:50:24Z</time>
      </trkpt>
      <trkpt lat="45.5505" lon="4.59153">
        <ele>470</ele>
        <time>2013-10-23T18:50:27Z</time>
      </trkpt>
      <trkpt lat="45.55056" lon="4.59157">
        <ele>470</ele>
        <time>2013-10-23T18:50:30Z</time>
      </trkpt>
      <trkpt lat="45.55062" lon="4.59159">
        <ele>470</ele>
        <time>2013-10-23T18:50:33Z</time>
      </trkpt>
      <trkpt lat="45.55068" lon="4.59163">
        <ele>471</ele>
        <time>2013-10-23T18:50:36Z</time>
      </trkpt>
      <trkpt lat="45.55075" lon="4.59166">
        <ele>471</ele>
        <time>2013-10-23T18:50:39Z</time>
      </trkpt>
      <trkpt lat="45.5508" lon="4.5917">
        <ele>471</ele>
        <time>2013-10-23T18:50:42Z</time>
      </trkpt>
      <trkpt lat="45.55087" lon="4.59174">
        <ele>472</ele>
        <time>2013-10-23T18:50:45Z</time>
      </trkpt>
      <trkpt lat="45.55093" lon="4.59178">
        <ele>472</ele>
        <time>2013-10-23T18:50:48Z</time>
      </trkpt>
      <trkpt lat="45.55101" lon="4.59184">
        <ele>472</ele>
        <time>2013-10-23T18:50:52Z</time>
      </trkpt>
      <trkpt lat="45.55108" lon="4.5919">
        <ele>472</ele>
        <time>2013-10-23T18:50:55Z</time>
      </trkpt>
      <trkpt lat="45.55114" lon="4.59197">
        <ele>472</ele>
        <time>2013-10-23T18:50:58Z</time>
      </trkpt>
      <trkpt lat="45.5512" lon="4.59203">
        <ele>472</ele>
        <time>2013-10-23T18:51:01Z</time>
      </trkpt>
      <trkpt lat="45.55126" lon="4.59208">
        <ele>472</ele>
        <time>2013-10-23T18:51:04Z</time>
      </trkpt>
      <trkpt lat="45.55133" lon="4.59213">
        <ele>472</ele>
        <time>2013-10-23T18:51:07Z</time>
      </trkpt>
      <trkpt lat="45.5514" lon="4.59218">
        <ele>472</ele>
        <time>2013-10-23T18:51:10Z</time>
      </trkpt>
      <trkpt lat="45.55148" lon="4.59223">
        <ele>472</ele>
        <time>2013-10-23T18:51:13Z</time>
      </trkpt>
      <trkpt lat="45.55154" lon="4.59228">
        <ele>472</ele>
        <time>2013-10-23T18:51:16Z</time>
      </trkpt>
      <trkpt lat="45.55162" lon="4.59233">
        <ele>472</ele>
        <time>2013-10-23T18:51:19Z</time>
      </trkpt>
      <trkpt lat="45.55168" lon="4.59236">
        <ele>473</ele>
        <time>2013-10-23T18:51:22Z</time>
      </trkpt>
      <trkpt lat="45.55174" lon="4.5924">
        <ele>473</ele>
        <time>2013-10-23T18:51:25Z</time>
      </trkpt>
      <trkpt lat="45.5518" lon="4.59246">
        <ele>473</ele>
        <time>2013-10-23T18:51:28Z</time>
      </trkpt>
      <trkpt lat="45.55188" lon="4.5925">
        <ele>473</ele>
        <time>2013-10-23T18:51:31Z</time>
      </trkpt>
      <trkpt lat="45.55195" lon="4.59256">
        <ele>474</ele>
        <time>2013-10-23T18:51:34Z</time>
      </trkpt>
      <trkpt lat="45.55201" lon="4.59261">
        <ele>474</ele>
        <time>2013-10-23T18:51:37Z</time>
      </trkpt>
      <trkpt lat="45.55209" lon="4.59267">
        <ele>474</ele>
        <time>2013-10-23T18:51:40Z</time>
      </trkpt>
      <trkpt lat="45.55216" lon="4.5927">
        <ele>474</ele>
        <time>2013-10-23T18:51:43Z</time>
      </trkpt>
      <trkpt lat="45.55223" lon="4.59277">
        <ele>474</ele>
        <time>2013-10-23T18:51:46Z</time>
      </trkpt>
      <trkpt lat="45.5523" lon="4.59281">
        <ele>474</ele>
        <time>2013-10-23T18:51:49Z</time>
      </trkpt>
      <trkpt lat="45.55237" lon="4.59285">
        <ele>474</ele>
        <time>2013-10-23T18:51:52Z</time>
      </trkpt>
      <trkpt lat="45.55243" lon="4.5929">
        <ele>474</ele>
        <time>2013-10-23T18:51:55Z</time>
      </trkpt>
      <trkpt lat="45.55249" lon="4.59294">
        <ele>474</ele>
        <time>2013-10-23T18:51:58Z</time>
      </trkpt>
      <trkpt lat="45.55256" lon="4.59296">
        <ele>474</ele>
        <time>2013-10-23T18:52:01Z</time>
      </trkpt>
      <trkpt lat="45.55262" lon="4.59298">
        <ele>474</ele>
        <time>2013-10-23T18:52:04Z</time>
      </trkpt>
      <trkpt lat="45.55268" lon="4.593">
        <ele>474</ele>
        <time>2013-10-23T18:52:07Z</time>
      </trkpt>
      <trkpt lat="45.55276" lon="4.593">
        <ele>474</ele>
        <time>2013-10-23T18:52:11Z</time>
      </trkpt>
      <trkpt lat="45.5528" lon="4.59301">
        <ele>474</ele>
        <time>2013-10-23T18:52:14Z</time>
      </trkpt>
      <trkpt lat="45.55283" lon="4.59301">
        <ele>474</ele>
        <time>2013-10-23T18:52:17Z</time>
      </trkpt>
      <trkpt lat="45.55287" lon="4.59301">
        <ele>474</ele>
        <time>2013-10-23T18:52:20Z</time>
      </trkpt>
      <trkpt lat="45.55291" lon="4.59302">
        <ele>474</ele>
        <time>2013-10-23T18:52:23Z</time>
      </trkpt>
      <trkpt lat="45.55296" lon="4.59303">
        <ele>474</ele>
        <time>2013-10-23T18:52:26Z</time>
      </trkpt>
      <trkpt lat="45.55299" lon="4.59303">
        <ele>474</ele>
        <time>2013-10-23T18:52:29Z</time>
      </trkpt>
      <trkpt lat="45.55304" lon="4.59303">
        <ele>474</ele>
        <time>2013-10-23T18:52:32Z</time>
      </trkpt>
      <trkpt lat="45.55308" lon="4.59304">
        <ele>474</ele>
        <time>2013-10-23T18:52:35Z</time>
      </trkpt>
      <trkpt lat="45.55312" lon="4.59304">
        <ele>473</ele>
        <time>2013-10-23T18:52:38Z</time>
      </trkpt>
      <trkpt lat="45.55316" lon="4.59304">
        <ele>473</ele>
        <time>2013-10-23T18:52:41Z</time>
      </trkpt>
      <trkpt lat="45.5532" lon="4.59305">
        <ele>473</ele>
        <time>2013-10-23T18:52:44Z</time>
      </trkpt>
      <trkpt lat="45.55324" lon="4.59305">
        <ele>473</ele>
        <time>2013-10-23T18:52:47Z</time>
      </trkpt>
      <trkpt lat="45.55329" lon="4.59306">
        <ele>473</ele>
        <time>2013-10-23T18:52:50Z</time>
      </trkpt>
      <trkpt lat="45.55333" lon="4.59306">
        <ele>473</ele>
        <time>2013-10-23T18:52:53Z</time>
      </trkpt>
      <trkpt lat="45.55338" lon="4.59306">
        <ele>473</ele>
        <time>2013-10-23T18:52:57Z</time>
      </trkpt>
      <trkpt lat="45.55341" lon="4.59306">
        <ele>473</ele>
        <time>2013-10-23T18:53:00Z</time>
      </trkpt>
      <trkpt lat="45.55345" lon="4.59305">
        <ele>473</ele>
        <time>2013-10-23T18:53:03Z</time>
      </trkpt>
      <trkpt lat="45.55349" lon="4.59305">
        <ele>473</ele>
        <time>2013-10-23T18:53:06Z</time>
      </trkpt>
      <trkpt lat="45.55353" lon="4.59305">
        <ele>473</ele>
        <time>2013-10-23T18:53:09Z</time>
      </trkpt>
      <trkpt lat="45.55357" lon="4.59306">
        <ele>473</ele>
        <time>2013-10-23T18:53:12Z</time>
      </trkpt>
      <trkpt lat="45.55361" lon="4.59306">
        <ele>472</ele>
        <time>2013-10-23T18:53:15Z</time>
      </trkpt>
      <trkpt lat="45.55365" lon="4.59306">
        <ele>472</ele>
        <time>2013-10-23T18:53:18Z</time>
      </trkpt>
      <trkpt lat="45.5537" lon="4.59305">
        <ele>472</ele>
        <time>2013-10-23T18:53:22Z</time>
      </trkpt>
      <trkpt lat="45.55375" lon="4.59304">
        <ele>472</ele>
        <time>2013-10-23T18:53:25Z</time>
      </trkpt>
      <trkpt lat="45.55379" lon="4.59304">
        <ele>472</ele>
        <time>2013-10-23T18:53:28Z</time>
      </trkpt>
      <trkpt lat="45.55384" lon="4.59304">
        <ele>472</ele>
        <time>2013-10-23T18:53:32Z</time>
      </trkpt>
      <trkpt lat="45.55389" lon="4.59303">
        <ele>472</ele>
        <time>2013-10-23T18:53:35Z</time>
      </trkpt>
      <trkpt lat="45.55392" lon="4.59302">
        <ele>472</ele>
        <time>2013-10-23T18:53:38Z</time>
      </trkpt>
      <trkpt lat="45.55396" lon="4.59301">
        <ele>472</ele>
        <time>2013-10-23T18:53:41Z</time>
      </trkpt>
      <trkpt lat="45.554" lon="4.59301">
        <ele>471</ele>
        <time>2013-10-23T18:53:44Z</time>
      </trkpt>
      <trkpt lat="45.55405" lon="4.59301">
        <ele>471</ele>
        <time>2013-10-23T18:53:47Z</time>
      </trkpt>
      <trkpt lat="45.55408" lon="4.593">
        <ele>470</ele>
        <time>2013-10-23T18:53:50Z</time>
      </trkpt>
      <trkpt lat="45.55413" lon="4.593">
        <ele>470</ele>
        <time>2013-10-23T18:53:53Z</time>
      </trkpt>
      <trkpt lat="45.55417" lon="4.59298">
        <ele>470</ele>
        <time>2013-10-23T18:53:56Z</time>
      </trkpt>
      <trkpt lat="45.55421" lon="4.59297">
        <ele>469</ele>
        <time>2013-10-23T18:53:59Z</time>
      </trkpt>
      <trkpt lat="45.55425" lon="4.59296">
        <ele>469</ele>
        <time>2013-10-23T18:54:02Z</time>
      </trkpt>
      <trkpt lat="45.55429" lon="4.59295">
        <ele>469</ele>
        <time>2013-10-23T18:54:05Z</time>
      </trkpt>
      <trkpt lat="45.55433" lon="4.59294">
        <ele>469</ele>
        <time>2013-10-23T18:54:08Z</time>
      </trkpt>
      <trkpt lat="45.55437" lon="4.59294">
        <ele>468</ele>
        <time>2013-10-23T18:54:11Z</time>
      </trkpt>
      <trkpt lat="45.55441" lon="4.59293">
        <ele>468</ele>
        <time>2013-10-23T18:54:14Z</time>
      </trkpt>
      <trkpt lat="45.55445" lon="4.59291">
        <ele>468</ele>
        <time>2013-10-23T18:54:17Z</time>
      </trkpt>
      <trkpt lat="45.55449" lon="4.5929">
        <ele>468</ele>
        <time>2013-10-23T18:54:20Z</time>
      </trkpt>
      <trkpt lat="45.55453" lon="4.59289">
        <ele>468</ele>
        <time>2013-10-23T18:54:23Z</time>
      </trkpt>
      <trkpt lat="45.55457" lon="4.59288">
        <ele>468</ele>
        <time>2013-10-23T18:54:26Z</time>
      </trkpt>
      <trkpt lat="45.5546" lon="4.59287">
        <ele>468</ele>
        <time>2013-10-23T18:54:29Z</time>
      </trkpt>
      <trkpt lat="45.55465" lon="4.59286">
        <ele>468</ele>
        <time>2013-10-23T18:54:32Z</time>
      </trkpt>
      <trkpt lat="45.55468" lon="4.59285">
        <ele>468</ele>
        <time>2013-10-23T18:54:35Z</time>
      </trkpt>
      <trkpt lat="45.55472" lon="4.59284">
        <ele>468</ele>
        <time>2013-10-23T18:54:38Z</time>
      </trkpt>
      <trkpt lat="45.55476" lon="4.59283">
        <ele>468</ele>
        <time>2013-10-23T18:54:41Z</time>
      </trkpt>
      <trkpt lat="45.5548" lon="4.59282">
        <ele>468</ele>
        <time>2013-10-23T18:54:44Z</time>
      </trkpt>
      <trkpt lat="45.55484" lon="4.59281">
        <ele>467</ele>
        <time>2013-10-23T18:54:47Z</time>
      </trkpt>
      <trkpt lat="45.55489" lon="4.59281">
        <ele>467</ele>
        <time>2013-10-23T18:54:50Z</time>
      </trkpt>
      <trkpt lat="45.55493" lon="4.5928">
        <ele>467</ele>
        <time>2013-10-23T18:54:53Z</time>
      </trkpt>
      <trkpt lat="45.55497" lon="4.59279">
        <ele>467</ele>
        <time>2013-10-23T18:54:56Z</time>
      </trkpt>
      <trkpt lat="45.55501" lon="4.59278">
        <ele>467</ele>
        <time>2013-10-23T18:54:59Z</time>
      </trkpt>
      <trkpt lat="45.55505" lon="4.59277">
        <ele>467</ele>
        <time>2013-10-23T18:55:02Z</time>
      </trkpt>
      <trkpt lat="45.55509" lon="4.59277">
        <ele>467</ele>
        <time>2013-10-23T18:55:05Z</time>
      </trkpt>
      <trkpt lat="45.55513" lon="4.59275">
        <ele>467</ele>
        <time>2013-10-23T18:55:08Z</time>
      </trkpt>
      <trkpt lat="45.55516" lon="4.59274">
        <ele>467</ele>
        <time>2013-10-23T18:55:12Z</time>
      </trkpt>
      <trkpt lat="45.55521" lon="4.59273">
        <ele>467</ele>
        <time>2013-10-23T18:55:15Z</time>
      </trkpt>
      <trkpt lat="45.55525" lon="4.59272">
        <ele>467</ele>
        <time>2013-10-23T18:55:18Z</time>
      </trkpt>
      <trkpt lat="45.55529" lon="4.5927">
        <ele>467</ele>
        <time>2013-10-23T18:55:21Z</time>
      </trkpt>
      <trkpt lat="45.55533" lon="4.59268">
        <ele>467</ele>
        <time>2013-10-23T18:55:24Z</time>
      </trkpt>
      <trkpt lat="45.55536" lon="4.59266">
        <ele>467</ele>
        <time>2013-10-23T18:55:27Z</time>
      </trkpt>
      <trkpt lat="45.5554" lon="4.59264">
        <ele>467</ele>
        <time>2013-10-23T18:55:30Z</time>
      </trkpt>
      <trkpt lat="45.55544" lon="4.59261">
        <ele>466</ele>
        <time>2013-10-23T18:55:33Z</time>
      </trkpt>
      <trkpt lat="45.5555" lon="4.59257">
        <ele>466</ele>
        <time>2013-10-23T18:55:36Z</time>
      </trkpt>
      <trkpt lat="45.55555" lon="4.59252">
        <ele>466</ele>
        <time>2013-10-23T18:55:39Z</time>
      </trkpt>
      <trkpt lat="45.5556" lon="4.59246">
        <ele>466</ele>
        <time>2013-10-23T18:55:42Z</time>
      </trkpt>
      <trkpt lat="45.55564" lon="4.59239">
        <ele>466</ele>
        <time>2013-10-23T18:55:45Z</time>
      </trkpt>
      <trkpt lat="45.55569" lon="4.59234">
        <ele>466</ele>
        <time>2013-10-23T18:55:48Z</time>
      </trkpt>
      <trkpt lat="45.55575" lon="4.59227">
        <ele>466</ele>
        <time>2013-10-23T18:55:51Z</time>
      </trkpt>
      <trkpt lat="45.55579" lon="4.5922">
        <ele>466</ele>
        <time>2013-10-23T18:55:54Z</time>
      </trkpt>
      <trkpt lat="45.55582" lon="4.59212">
        <ele>466</ele>
        <time>2013-10-23T18:55:57Z</time>
      </trkpt>
      <trkpt lat="45.55587" lon="4.59205">
        <ele>466</ele>
        <time>2013-10-23T18:56:01Z</time>
      </trkpt>
      <trkpt lat="45.55592" lon="4.59194">
        <ele>466</ele>
        <time>2013-10-23T18:56:04Z</time>
      </trkpt>
      <trkpt lat="45.55598" lon="4.59182">
        <ele>466</ele>
        <time>2013-10-23T18:56:08Z</time>
      </trkpt>
      <trkpt lat="45.55605" lon="4.59178">
        <ele>466</ele>
        <time>2013-10-23T18:56:12Z</time>
      </trkpt>
      <trkpt lat="45.55612" lon="4.59173">
        <ele>466</ele>
        <time>2013-10-23T18:56:16Z</time>
      </trkpt>
      <trkpt lat="45.55622" lon="4.59164">
        <ele>466</ele>
        <time>2013-10-23T18:56:20Z</time>
      </trkpt>
      <trkpt lat="45.55631" lon="4.5916">
        <ele>465</ele>
        <time>2013-10-23T18:56:24Z</time>
      </trkpt>
      <trkpt lat="45.55637" lon="4.59157">
        <ele>464</ele>
        <time>2013-10-23T18:56:27Z</time>
      </trkpt>
      <trkpt lat="45.55647" lon="4.59157">
        <ele>463</ele>
        <time>2013-10-23T18:56:31Z</time>
      </trkpt>
      <trkpt lat="45.55655" lon="4.59159">
        <ele>462</ele>
        <time>2013-10-23T18:56:34Z</time>
      </trkpt>
      <trkpt lat="45.55665" lon="4.59161">
        <ele>462</ele>
        <time>2013-10-23T18:56:38Z</time>
      </trkpt>
      <trkpt lat="45.55674" lon="4.59165">
        <ele>462</ele>
        <time>2013-10-23T18:56:42Z</time>
      </trkpt>
      <trkpt lat="45.55681" lon="4.59169">
        <ele>462</ele>
        <time>2013-10-23T18:56:46Z</time>
      </trkpt>
      <trkpt lat="45.55689" lon="4.59176">
        <ele>461</ele>
        <time>2013-10-23T18:56:50Z</time>
      </trkpt>
      <trkpt lat="45.55697" lon="4.59183">
        <ele>460</ele>
        <time>2013-10-23T18:56:54Z</time>
      </trkpt>
      <trkpt lat="45.55705" lon="4.59193">
        <ele>460</ele>
        <time>2013-10-23T18:56:57Z</time>
      </trkpt>
      <trkpt lat="45.55713" lon="4.59203">
        <ele>460</ele>
        <time>2013-10-23T18:57:01Z</time>
      </trkpt>
      <trkpt lat="45.5572" lon="4.59213">
        <ele>460</ele>
        <time>2013-10-23T18:57:05Z</time>
      </trkpt>
      <trkpt lat="45.55724" lon="4.59225">
        <ele>460</ele>
        <time>2013-10-23T18:57:10Z</time>
      </trkpt>
      <trkpt lat="45.5573" lon="4.59239">
        <ele>459</ele>
        <time>2013-10-23T18:57:14Z</time>
      </trkpt>
      <trkpt lat="45.55732" lon="4.59249">
        <ele>459</ele>
        <time>2013-10-23T18:57:18Z</time>
      </trkpt>
      <trkpt lat="45.55735" lon="4.59261">
        <ele>459</ele>
        <time>2013-10-23T18:57:21Z</time>
      </trkpt>
      <trkpt lat="45.55737" lon="4.59274">
        <ele>459</ele>
        <time>2013-10-23T18:57:25Z</time>
      </trkpt>
      <trkpt lat="45.55737" lon="4.59287">
        <ele>458</ele>
        <time>2013-10-23T18:57:28Z</time>
      </trkpt>
      <trkpt lat="45.55736" lon="4.59301">
        <ele>457</ele>
        <time>2013-10-23T18:57:32Z</time>
      </trkpt>
      <trkpt lat="45.55735" lon="4.59316">
        <ele>456</ele>
        <time>2013-10-23T18:57:37Z</time>
      </trkpt>
      <trkpt lat="45.55732" lon="4.59331">
        <ele>456</ele>
        <time>2013-10-23T18:57:41Z</time>
      </trkpt>
      <trkpt lat="45.55729" lon="4.59344">
        <ele>456</ele>
        <time>2013-10-23T18:57:45Z</time>
      </trkpt>
      <trkpt lat="45.55726" lon="4.59356">
        <ele>455</ele>
        <time>2013-10-23T18:57:49Z</time>
      </trkpt>
      <trkpt lat="45.55721" lon="4.59368">
        <ele>455</ele>
        <time>2013-10-23T18:57:53Z</time>
      </trkpt>
      <trkpt lat="45.55714" lon="4.5938">
        <ele>455</ele>
        <time>2013-10-23T18:57:56Z</time>
      </trkpt>
      <trkpt lat="45.55708" lon="4.59389">
        <ele>454</ele>
        <time>2013-10-23T18:58:00Z</time>
      </trkpt>
      <trkpt lat="45.55702" lon="4.59396">
        <ele>453</ele>
        <time>2013-10-23T18:58:03Z</time>
      </trkpt>
      <trkpt lat="45.55694" lon="4.59406">
        <ele>452</ele>
        <time>2013-10-23T18:58:07Z</time>
      </trkpt>
      <trkpt lat="45.55687" lon="4.59416">
        <ele>451</ele>
        <time>2013-10-23T18:58:11Z</time>
      </trkpt>
      <trkpt lat="45.55679" lon="4.59426">
        <ele>451</ele>
        <time>2013-10-23T18:58:15Z</time>
      </trkpt>
      <trkpt lat="45.55671" lon="4.59435">
        <ele>451</ele>
        <time>2013-10-23T18:58:19Z</time>
      </trkpt>
      <trkpt lat="45.55664" lon="4.59443">
        <ele>451</ele>
        <time>2013-10-23T18:58:23Z</time>
      </trkpt>
      <trkpt lat="45.55657" lon="4.59452">
        <ele>451</ele>
        <time>2013-10-23T18:58:27Z</time>
      </trkpt>
      <trkpt lat="45.55653" lon="4.59459">
        <ele>451</ele>
        <time>2013-10-23T18:58:31Z</time>
      </trkpt>
      <trkpt lat="45.55647" lon="4.59468">
        <ele>450</ele>
        <time>2013-10-23T18:58:34Z</time>
      </trkpt>
      <trkpt lat="45.55642" lon="4.59478">
        <ele>450</ele>
        <time>2013-10-23T18:58:38Z</time>
      </trkpt>
      <trkpt lat="45.55638" lon="4.59485">
        <ele>449</ele>
        <time>2013-10-23T18:58:41Z</time>
      </trkpt>
      <trkpt lat="45.55635" lon="4.59492">
        <ele>449</ele>
        <time>2013-10-23T18:58:45Z</time>
      </trkpt>
      <trkpt lat="45.55632" lon="4.595">
        <ele>448</ele>
        <time>2013-10-23T18:58:48Z</time>
      </trkpt>
      <trkpt lat="45.55627" lon="4.5951">
        <ele>448</ele>
        <time>2013-10-23T18:58:51Z</time>
      </trkpt>
      <trkpt lat="45.55622" lon="4.59521">
        <ele>448</ele>
        <time>2013-10-23T18:58:55Z</time>
      </trkpt>
      <trkpt lat="45.55619" lon="4.5953">
        <ele>448</ele>
        <time>2013-10-23T18:58:58Z</time>
      </trkpt>
      <trkpt lat="45.55615" lon="4.59541">
        <ele>448</ele>
        <time>2013-10-23T18:59:02Z</time>
      </trkpt>
      <trkpt lat="45.5561" lon="4.59551">
        <ele>448</ele>
        <time>2013-10-23T18:59:07Z</time>
      </trkpt>
      <trkpt lat="45.55607" lon="4.59563">
        <ele>448</ele>
        <time>2013-10-23T18:59:10Z</time>
      </trkpt>
      <trkpt lat="45.55602" lon="4.59574">
        <ele>448</ele>
        <time>2013-10-23T18:59:14Z</time>
      </trkpt>
      <trkpt lat="45.55598" lon="4.59581">
        <ele>448</ele>
        <time>2013-10-23T18:59:17Z</time>
      </trkpt>
      <trkpt lat="45.55592" lon="4.59591">
        <ele>448</ele>
        <time>2013-10-23T18:59:21Z</time>
      </trkpt>
      <trkpt lat="45.55586" lon="4.59601">
        <ele>448</ele>
        <time>2013-10-23T18:59:25Z</time>
      </trkpt>
      <trkpt lat="45.5558" lon="4.5961">
        <ele>448</ele>
        <time>2013-10-23T18:59:29Z</time>
      </trkpt>
      <trkpt lat="45.55576" lon="4.59617">
        <ele>448</ele>
        <time>2013-10-23T18:59:33Z</time>
      </trkpt>
      <trkpt lat="45.55569" lon="4.59626">
        <ele>448</ele>
        <time>2013-10-23T18:59:37Z</time>
      </trkpt>
      <trkpt lat="45.55562" lon="4.59635">
        <ele>448</ele>
        <time>2013-10-23T18:59:40Z</time>
      </trkpt>
      <trkpt lat="45.55557" lon="4.59642">
        <ele>448</ele>
        <time>2013-10-23T18:59:43Z</time>
      </trkpt>
      <trkpt lat="45.55552" lon="4.59648">
        <ele>448</ele>
        <time>2013-10-23T18:59:47Z</time>
      </trkpt>
      <trkpt lat="45.55546" lon="4.59657">
        <ele>448</ele>
        <time>2013-10-23T18:59:51Z</time>
      </trkpt>
      <trkpt lat="45.5554" lon="4.59667">
        <ele>448</ele>
        <time>2013-10-23T18:59:55Z</time>
      </trkpt>
      <trkpt lat="45.55534" lon="4.59676">
        <ele>448</ele>
        <time>2013-10-23T18:59:58Z</time>
      </trkpt>
      <trkpt lat="45.55529" lon="4.59686">
        <ele>447</ele>
        <time>2013-10-23T19:00:02Z</time>
      </trkpt>
      <trkpt lat="45.55524" lon="4.59696">
        <ele>446</ele>
        <time>2013-10-23T19:00:07Z</time>
      </trkpt>
      <trkpt lat="45.55521" lon="4.59707">
        <ele>445</ele>
        <time>2013-10-23T19:00:10Z</time>
      </trkpt>
      <trkpt lat="45.55517" lon="4.59719">
        <ele>444</ele>
        <time>2013-10-23T19:00:14Z</time>
      </trkpt>
      <trkpt lat="45.55515" lon="4.5973">
        <ele>443</ele>
        <time>2013-10-23T19:00:18Z</time>
      </trkpt>
      <trkpt lat="45.55513" lon="4.59742">
        <ele>443</ele>
        <time>2013-10-23T19:00:22Z</time>
      </trkpt>
      <trkpt lat="45.55511" lon="4.5975">
        <ele>443</ele>
        <time>2013-10-23T19:00:26Z</time>
      </trkpt>
      <trkpt lat="45.5551" lon="4.59757">
        <ele>442</ele>
        <time>2013-10-23T19:00:30Z</time>
      </trkpt>
      <trkpt lat="45.55509" lon="4.59763">
        <ele>441</ele>
        <time>2013-10-23T19:00:34Z</time>
      </trkpt>
      <trkpt lat="45.55507" lon="4.59769">
        <ele>440</ele>
        <time>2013-10-23T19:00:38Z</time>
      </trkpt>
      <trkpt lat="45.55505" lon="4.59776">
        <ele>439</ele>
        <time>2013-10-23T19:00:41Z</time>
      </trkpt>
      <trkpt lat="45.55505" lon="4.59784">
        <ele>438</ele>
        <time>2013-10-23T19:00:45Z</time>
      </trkpt>
      <trkpt lat="45.55503" lon="4.59791">
        <ele>437</ele>
        <time>2013-10-23T19:00:49Z</time>
      </trkpt>
      <trkpt lat="45.55501" lon="4.59799">
        <ele>437</ele>
        <time>2013-10-23T19:00:53Z</time>
      </trkpt>
      <trkpt lat="45.55497" lon="4.59808">
        <ele>436</ele>
        <time>2013-10-23T19:00:57Z</time>
      </trkpt>
      <trkpt lat="45.55494" lon="4.59817">
        <ele>436</ele>
        <time>2013-10-23T19:01:00Z</time>
      </trkpt>
      <trkpt lat="45.55488" lon="4.59829">
        <ele>436</ele>
        <time>2013-10-23T19:01:04Z</time>
      </trkpt>
      <trkpt lat="45.55482" lon="4.59839">
        <ele>436</ele>
        <time>2013-10-23T19:01:08Z</time>
      </trkpt>
      <trkpt lat="45.55477" lon="4.59846">
        <ele>436</ele>
        <time>2013-10-23T19:01:12Z</time>
      </trkpt>
      <trkpt lat="45.55473" lon="4.59854">
        <ele>436</ele>
        <time>2013-10-23T19:01:15Z</time>
      </trkpt>
      <trkpt lat="45.55467" lon="4.59865">
        <ele>436</ele>
        <time>2013-10-23T19:01:19Z</time>
      </trkpt>
      <trkpt lat="45.55463" lon="4.59877">
        <ele>436</ele>
        <time>2013-10-23T19:01:22Z</time>
      </trkpt>
      <trkpt lat="45.5546" lon="4.5989">
        <ele>436</ele>
        <time>2013-10-23T19:01:27Z</time>
      </trkpt>
      <trkpt lat="45.55458" lon="4.59903">
        <ele>436</ele>
        <time>2013-10-23T19:01:31Z</time>
      </trkpt>
      <trkpt lat="45.55455" lon="4.59915">
        <ele>436</ele>
        <time>2013-10-23T19:01:35Z</time>
      </trkpt>
      <trkpt lat="45.55451" lon="4.59928">
        <ele>436</ele>
        <time>2013-10-23T19:01:38Z</time>
      </trkpt>
      <trkpt lat="45.55448" lon="4.59941">
        <ele>436</ele>
        <time>2013-10-23T19:01:42Z</time>
      </trkpt>
      <trkpt lat="45.55446" lon="4.59955">
        <ele>436</ele>
        <time>2013-10-23T19:01:46Z</time>
      </trkpt>
      <trkpt lat="45.55444" lon="4.59964">
        <ele>436</ele>
        <time>2013-10-23T19:01:49Z</time>
      </trkpt>
      <trkpt lat="45.55441" lon="4.59978">
        <ele>436</ele>
        <time>2013-10-23T19:01:53Z</time>
      </trkpt>
      <trkpt lat="45.55438" lon="4.59988">
        <ele>435</ele>
        <time>2013-10-23T19:01:57Z</time>
      </trkpt>
      <trkpt lat="45.55435" lon="4.60003">
        <ele>434</ele>
        <time>2013-10-23T19:02:01Z</time>
      </trkpt>
      <trkpt lat="45.55433" lon="4.60016">
        <ele>434</ele>
        <time>2013-10-23T19:02:05Z</time>
      </trkpt>
      <trkpt lat="45.55433" lon="4.6003">
        <ele>434</ele>
        <time>2013-10-23T19:02:09Z</time>
      </trkpt>
      <trkpt lat="45.55432" lon="4.60039">
        <ele>434</ele>
        <time>2013-10-23T19:02:13Z</time>
      </trkpt>
      <trkpt lat="45.55433" lon="4.60053">
        <ele>434</ele>
        <time>2013-10-23T19:02:17Z</time>
      </trkpt>
      <trkpt lat="45.55433" lon="4.60068">
        <ele>434</ele>
        <time>2013-10-23T19:02:20Z</time>
      </trkpt>
      <trkpt lat="45.55432" lon="4.60081">
        <ele>434</ele>
        <time>2013-10-23T19:02:24Z</time>
      </trkpt>
      <trkpt lat="45.55431" lon="4.60094">
        <ele>433</ele>
        <time>2013-10-23T19:02:28Z</time>
      </trkpt>
      <trkpt lat="45.5543" lon="4.60106">
        <ele>433</ele>
        <time>2013-10-23T19:02:32Z</time>
      </trkpt>
      <trkpt lat="45.55429" lon="4.60119">
        <ele>433</ele>
        <time>2013-10-23T19:02:36Z</time>
      </trkpt>
      <trkpt lat="45.55428" lon="4.60132">
        <ele>433</ele>
        <time>2013-10-23T19:02:40Z</time>
      </trkpt>
      <trkpt lat="45.55428" lon="4.60145">
        <ele>433</ele>
        <time>2013-10-23T19:02:44Z</time>
      </trkpt>
      <trkpt lat="45.55426" lon="4.60158">
        <ele>433</ele>
        <time>2013-10-23T19:02:48Z</time>
      </trkpt>
      <trkpt lat="45.55424" lon="4.60171">
        <ele>433</ele>
        <time>2013-10-23T19:02:53Z</time>
      </trkpt>
      <trkpt lat="45.55422" lon="4.60183">
        <ele>433</ele>
        <time>2013-10-23T19:02:57Z</time>
      </trkpt>
      <trkpt lat="45.55421" lon="4.60196">
        <ele>433</ele>
        <time>2013-10-23T19:03:01Z</time>
      </trkpt>
      <trkpt lat="45.55421" lon="4.60208">
        <ele>433</ele>
        <time>2013-10-23T19:03:05Z</time>
      </trkpt>
      <trkpt lat="45.55418" lon="4.60214">
        <ele>433</ele>
        <time>2013-10-23T19:03:08Z</time>
      </trkpt>
      <trkpt lat="45.55411" lon="4.60212">
        <ele>432</ele>
        <time>2013-10-23T19:03:12Z</time>
      </trkpt>
      <trkpt lat="45.55404" lon="4.60208">
        <ele>430</ele>
        <time>2013-10-23T19:03:16Z</time>
      </trkpt>
      <trkpt lat="45.55398" lon="4.60201">
        <ele>429</ele>
        <time>2013-10-23T19:03:21Z</time>
      </trkpt>
      <trkpt lat="45.55394" lon="4.60194">
        <ele>428</ele>
        <time>2013-10-23T19:03:24Z</time>
      </trkpt>
      <trkpt lat="45.5539" lon="4.60185">
        <ele>427</ele>
        <time>2013-10-23T19:03:28Z</time>
      </trkpt>
      <trkpt lat="45.55386" lon="4.60176">
        <ele>426</ele>
        <time>2013-10-23T19:03:32Z</time>
      </trkpt>
      <trkpt lat="45.55382" lon="4.60167">
        <ele>426</ele>
        <time>2013-10-23T19:03:35Z</time>
      </trkpt>
      <trkpt lat="45.55379" lon="4.60158">
        <ele>424</ele>
        <time>2013-10-23T19:03:39Z</time>
      </trkpt>
      <trkpt lat="45.55375" lon="4.60151">
        <ele>423</ele>
        <time>2013-10-23T19:03:43Z</time>
      </trkpt>
      <trkpt lat="45.55371" lon="4.60144">
        <ele>421</ele>
        <time>2013-10-23T19:03:47Z</time>
      </trkpt>
      <trkpt lat="45.55369" lon="4.60138">
        <ele>418</ele>
        <time>2013-10-23T19:03:51Z</time>
      </trkpt>
      <trkpt lat="45.55366" lon="4.60129">
        <ele>416</ele>
        <time>2013-10-23T19:03:55Z</time>
      </trkpt>
      <trkpt lat="45.55363" lon="4.6012">
        <ele>414</ele>
        <time>2013-10-23T19:03:59Z</time>
      </trkpt>
      <trkpt lat="45.55359" lon="4.60111">
        <ele>412</ele>
        <time>2013-10-23T19:04:02Z</time>
      </trkpt>
      <trkpt lat="45.55354" lon="4.60103">
        <ele>412</ele>
        <time>2013-10-23T19:04:06Z</time>
      </trkpt>
      <trkpt lat="45.55349" lon="4.60094">
        <ele>411</ele>
        <time>2013-10-23T19:04:10Z</time>
      </trkpt>
      <trkpt lat="45.55344" lon="4.60085">
        <ele>410</ele>
        <time>2013-10-23T19:04:14Z</time>
      </trkpt>
      <trkpt lat="45.55339" lon="4.60077">
        <ele>410</ele>
        <time>2013-10-23T19:04:18Z</time>
      </trkpt>
      <trkpt lat="45.55334" lon="4.6007">
        <ele>409</ele>
        <time>2013-10-23T19:04:22Z</time>
      </trkpt>
      <trkpt lat="45.55332" lon="4.60063">
        <ele>407</ele>
        <time>2013-10-23T19:04:25Z</time>
      </trkpt>
      <trkpt lat="45.55327" lon="4.60055">
        <ele>405</ele>
        <time>2013-10-23T19:04:30Z</time>
      </trkpt>
      <trkpt lat="45.55323" lon="4.60049">
        <ele>403</ele>
        <time>2013-10-23T19:04:35Z</time>
      </trkpt>
      <trkpt lat="45.55318" lon="4.60042">
        <ele>401</ele>
        <time>2013-10-23T19:04:40Z</time>
      </trkpt>
      <trkpt lat="45.55313" lon="4.60034">
        <ele>401</ele>
        <time>2013-10-23T19:04:45Z</time>
      </trkpt>
      <trkpt lat="45.55309" lon="4.60028">
        <ele>401</ele>
        <time>2013-10-23T19:04:49Z</time>
      </trkpt>
      <trkpt lat="45.55304" lon="4.6002">
        <ele>401</ele>
        <time>2013-10-23T19:04:53Z</time>
      </trkpt>
      <trkpt lat="45.55301" lon="4.60015">
        <ele>401</ele>
        <time>2013-10-23T19:04:56Z</time>
      </trkpt>
      <trkpt lat="45.55296" lon="4.60009">
        <ele>401</ele>
        <time>2013-10-23T19:05:00Z</time>
      </trkpt>
      <trkpt lat="45.55292" lon="4.60004">
        <ele>401</ele>
        <time>2013-10-23T19:05:04Z</time>
      </trkpt>
      <trkpt lat="45.55288" lon="4.60001">
        <ele>401</ele>
        <time>2013-10-23T19:05:08Z</time>
      </trkpt>
      <trkpt lat="45.55281" lon="4.59998">
        <ele>401</ele>
        <time>2013-10-23T19:05:11Z</time>
      </trkpt>
      <trkpt lat="45.55274" lon="4.59994">
        <ele>401</ele>
        <time>2013-10-23T19:05:16Z</time>
      </trkpt>
      <trkpt lat="45.55265" lon="4.59993">
        <ele>401</ele>
        <time>2013-10-23T19:05:20Z</time>
      </trkpt>
      <trkpt lat="45.5526" lon="4.59996">
        <ele>401</ele>
        <time>2013-10-23T19:05:23Z</time>
      </trkpt>
      <trkpt lat="45.55256" lon="4.6">
        <ele>401</ele>
        <time>2013-10-23T19:05:28Z</time>
      </trkpt>
      <trkpt lat="45.55251" lon="4.60004">
        <ele>401</ele>
        <time>2013-10-23T19:05:32Z</time>
      </trkpt>
      <trkpt lat="45.55246" lon="4.60009">
        <ele>401</ele>
        <time>2013-10-23T19:05:36Z</time>
      </trkpt>
      <trkpt lat="45.55243" lon="4.60012">
        <ele>401</ele>
        <time>2013-10-23T19:05:40Z</time>
      </trkpt>
      <trkpt lat="45.5524" lon="4.60016">
        <ele>401</ele>
        <time>2013-10-23T19:05:44Z</time>
      </trkpt>
      <trkpt lat="45.55234" lon="4.60023">
        <ele>401</ele>
        <time>2013-10-23T19:05:49Z</time>
      </trkpt>
      <trkpt lat="45.55228" lon="4.60028">
        <ele>401</ele>
        <time>2013-10-23T19:05:53Z</time>
      </trkpt>
      <trkpt lat="45.55224" lon="4.60032">
        <ele>401</ele>
        <time>2013-10-23T19:05:57Z</time>
      </trkpt>
      <trkpt lat="45.55218" lon="4.60037">
        <ele>402</ele>
        <time>2013-10-23T19:06:02Z</time>
      </trkpt>
      <trkpt lat="45.55213" lon="4.60043">
        <ele>402</ele>
        <time>2013-10-23T19:06:07Z</time>
      </trkpt>
      <trkpt lat="45.55208" lon="4.60048">
        <ele>402</ele>
        <time>2013-10-23T19:06:11Z</time>
      </trkpt>
      <trkpt lat="45.55204" lon="4.60053">
        <ele>402</ele>
        <time>2013-10-23T19:06:16Z</time>
      </trkpt>
      <trkpt lat="45.552" lon="4.60056">
        <ele>402</ele>
        <time>2013-10-23T19:06:19Z</time>
      </trkpt>
      <trkpt lat="45.55195" lon="4.60058">
        <ele>402</ele>
        <time>2013-10-23T19:06:23Z</time>
      </trkpt>
      <trkpt lat="45.5519" lon="4.60059">
        <ele>403</ele>
        <time>2013-10-23T19:06:27Z</time>
      </trkpt>
      <trkpt lat="45.55185" lon="4.60059">
        <ele>404</ele>
        <time>2013-10-23T19:06:31Z</time>
      </trkpt>
      <trkpt lat="45.55181" lon="4.60058">
        <ele>405</ele>
        <time>2013-10-23T19:06:35Z</time>
      </trkpt>
      <trkpt lat="45.55176" lon="4.60057">
        <ele>405</ele>
        <time>2013-10-23T19:06:39Z</time>
      </trkpt>
      <trkpt lat="45.5517" lon="4.60055">
        <ele>406</ele>
        <time>2013-10-23T19:06:43Z</time>
      </trkpt>
      <trkpt lat="45.55166" lon="4.60052">
        <ele>406</ele>
        <time>2013-10-23T19:06:47Z</time>
      </trkpt>
      <trkpt lat="45.55164" lon="4.60048">
        <ele>407</ele>
        <time>2013-10-23T19:06:51Z</time>
      </trkpt>
      <trkpt lat="45.55161" lon="4.60045">
        <ele>408</ele>
        <time>2013-10-23T19:06:54Z</time>
      </trkpt>
      <trkpt lat="45.55157" lon="4.60039">
        <ele>408</ele>
        <time>2013-10-23T19:06:58Z</time>
      </trkpt>
      <trkpt lat="45.55154" lon="4.60033">
        <ele>409</ele>
        <time>2013-10-23T19:07:02Z</time>
      </trkpt>
      <trkpt lat="45.5515" lon="4.60027">
        <ele>409</ele>
        <time>2013-10-23T19:07:06Z</time>
      </trkpt>
      <trkpt lat="45.55147" lon="4.60024">
        <ele>409</ele>
        <time>2013-10-23T19:07:09Z</time>
      </trkpt>
      <trkpt lat="45.55143" lon="4.60021">
        <ele>410</ele>
        <time>2013-10-23T19:07:13Z</time>
      </trkpt>
      <trkpt lat="45.55137" lon="4.60017">
        <ele>410</ele>
        <time>2013-10-23T19:07:18Z</time>
      </trkpt>
      <trkpt lat="45.55134" lon="4.60015">
        <ele>411</ele>
        <time>2013-10-23T19:07:21Z</time>
      </trkpt>
      <trkpt lat="45.5513" lon="4.60012">
        <ele>411</ele>
        <time>2013-10-23T19:07:25Z</time>
      </trkpt>
      <trkpt lat="45.55126" lon="4.60009">
        <ele>411</ele>
        <time>2013-10-23T19:07:29Z</time>
      </trkpt>
      <trkpt lat="45.55123" lon="4.60006">
        <ele>411</ele>
        <time>2013-10-23T19:07:32Z</time>
      </trkpt>
      <trkpt lat="45.5512" lon="4.60003">
        <ele>411</ele>
        <time>2013-10-23T19:07:35Z</time>
      </trkpt>
      <trkpt lat="45.55117" lon="4.59998">
        <ele>411</ele>
        <time>2013-10-23T19:07:39Z</time>
      </trkpt>
      <trkpt lat="45.55113" lon="4.59995">
        <ele>411</ele>
        <time>2013-10-23T19:07:43Z</time>
      </trkpt>
      <trkpt lat="45.55109" lon="4.5999">
        <ele>411</ele>
        <time>2013-10-23T19:07:47Z</time>
      </trkpt>
      <trkpt lat="45.55106" lon="4.59986">
        <ele>411</ele>
        <time>2013-10-23T19:07:51Z</time>
      </trkpt>
      <trkpt lat="45.55102" lon="4.59982">
        <ele>411</ele>
        <time>2013-10-23T19:07:55Z</time>
      </trkpt>
      <trkpt lat="45.55098" lon="4.59978">
        <ele>411</ele>
        <time>2013-10-23T19:07:59Z</time>
      </trkpt>
      <trkpt lat="45.55096" lon="4.59975">
        <ele>411</ele>
        <time>2013-10-23T19:08:02Z</time>
      </trkpt>
      <trkpt lat="45.55093" lon="4.59971">
        <ele>412</ele>
        <time>2013-10-23T19:08:05Z</time>
      </trkpt>
      <trkpt lat="45.55089" lon="4.59967">
        <ele>413</ele>
        <time>2013-10-23T19:08:09Z</time>
      </trkpt>
      <trkpt lat="45.55086" lon="4.59963">
        <ele>413</ele>
        <time>2013-10-23T19:08:13Z</time>
      </trkpt>
      <trkpt lat="45.55082" lon="4.59959">
        <ele>413</ele>
        <time>2013-10-23T19:08:17Z</time>
      </trkpt>
      <trkpt lat="45.55078" lon="4.59955">
        <ele>414</ele>
        <time>2013-10-23T19:08:21Z</time>
      </trkpt>
      <trkpt lat="45.55074" lon="4.59951">
        <ele>414</ele>
        <time>2013-10-23T19:08:25Z</time>
      </trkpt>
      <trkpt lat="45.55071" lon="4.59948">
        <ele>414</ele>
        <time>2013-10-23T19:08:29Z</time>
      </trkpt>
      <trkpt lat="45.55069" lon="4.59947">
        <ele>414</ele>
        <time>2013-10-23T19:08:32Z</time>
      </trkpt>
      <trkpt lat="45.55067" lon="4.59948">
        <ele>415</ele>
        <time>2013-10-23T19:08:37Z</time>
      </trkpt>
      <trkpt lat="45.55065" lon="4.59949">
        <ele>417</ele>
        <time>2013-10-23T19:08:45Z</time>
      </trkpt>
      <trkpt lat="45.55064" lon="4.59949">
        <ele>417</ele>
        <time>2013-10-23T19:08:48Z</time>
      </trkpt>
      <trkpt lat="45.55063" lon="4.59948">
        <ele>417</ele>
        <time>2013-10-23T19:09:05Z</time>
      </trkpt>
      <trkpt lat="45.55064" lon="4.59947">
        <ele>417</ele>
        <time>2013-10-23T19:09:08Z</time>
      </trkpt>
      <trkpt lat="45.55062" lon="4.59948">
        <ele>418</ele>
        <time>2013-10-23T19:09:14Z</time>
      </trkpt>
      <trkpt lat="45.55062" lon="4.5995">
        <ele>418</ele>
        <time>2013-10-23T19:09:18Z</time>
      </trkpt>
      <trkpt lat="45.55061" lon="4.59954">
        <ele>418</ele>
        <time>2013-10-23T19:09:22Z</time>
      </trkpt>
      <trkpt lat="45.55059" lon="4.59958">
        <ele>418</ele>
        <time>2013-10-23T19:09:26Z</time>
      </trkpt>
      <trkpt lat="45.55057" lon="4.59962">
        <ele>418</ele>
        <time>2013-10-23T19:09:30Z</time>
      </trkpt>
      <trkpt lat="45.55055" lon="4.59967">
        <ele>418</ele>
        <time>2013-10-23T19:09:34Z</time>
      </trkpt>
      <trkpt lat="45.55052" lon="4.59972">
        <ele>418</ele>
        <time>2013-10-23T19:09:38Z</time>
      </trkpt>
      <trkpt lat="45.55049" lon="4.59976">
        <ele>418</ele>
        <time>2013-10-23T19:09:42Z</time>
      </trkpt>
      <trkpt lat="45.55048" lon="4.5998">
        <ele>418</ele>
        <time>2013-10-23T19:09:46Z</time>
      </trkpt>
      <trkpt lat="45.55049" lon="4.59981">
        <ele>418</ele>
        <time>2013-10-23T19:09:49Z</time>
      </trkpt>
      <trkpt lat="45.55049" lon="4.59983">
        <ele>418</ele>
        <time>2013-10-23T19:10:08Z</time>
      </trkpt>
    </trkseg>
  </trk>
</gpx>